# Wetter Temperatur Luftdruck Luftfeuchtigkeit Sichtweite Windgeschwindigkeit Windrichtung Zeit
1 Clear -22 1022 83 10000 1 0 21:57 28.01.2020
2 Clear -21 1022 83 10000 2 290 21:38 28.01.2020
3 Clear -21 1022 83 10000 2 290 21:19 28.01.2020
4 Clear -21 1022 83 10000 2 290 21:19 28.01.2020
5 Clear -21 1023 76 10000 1 0 20:45 28.01.2020
6 Clear -21 1023 76 10000 1 0 20:26 28.01.2020
7 Clear -19 1023 77 10000 2 0 19:55 28.01.2020
8 Clear -19 1023 77 10000 2 0 19:37 28.01.2020
9 Clear -19 1023 77 10000 2 0 19:19 28.01.2020
10 Clear -19 1023 77 10000 2 0 19:19 28.01.2020
11 Clear -19 1023 77 10000 2 0 19:19 28.01.2020
12 Clear -17 1023 77 10000 1 0 18:41 28.01.2020
13 Clear -17 1023 77 10000 1 0 18:23 28.01.2020
14 Clear -17 1023 70 10000 1 0 17:59 28.01.2020
15 Clear -17 1023 70 10000 1 0 17:59 28.01.2020
16 Clear -17 1023 70 10000 1 0 17:39 28.01.2020
17 Clear -17 1023 70 10000 1 0 17:21 28.01.2020
18 Clear -19 1023 77 10000 2 0 16:58 28.01.2020
19 Clear -17 1023 77 10000 1 0 16:40 28.01.2020
20 Clear -17 1023 77 10000 1 0 16:21 28.01.2020
21 Clear -18 1023 77 10000 1 0 15:47 28.01.2020
22 Clear -18 1023 77 10000 2.29 113 15:19 28.01.2020
23 Clear -17 1023 77 10000 2.29 113 14:58 28.01.2020
24 Clear -16 1023 71 10000 2.29 113 14:39 28.01.2020
25 Clear -16 1023 71 10000 2.21 109 14:18 28.01.2020
26 Clear -13 1023 65 10000 1 0 13:41 28.01.2020
27 Clear -13 1023 65 10000 1 0 13:23 28.01.2020
28 Clear -13 1023 71 10000 2.16 109 12:43 28.01.2020
29 Clear -12 1022 60 10000 1 0 12:24 28.01.2020
30 Clear -12 1022 60 10000 1 0 12:24 28.01.2020
31 Clear -10 1022 61 10000 1 0 11:58 28.01.2020
32 Clear -9 1022 56 10000 2 0 11:39 28.01.2020
33 Clear -9 1022 56 10000 2 0 11:20 28.01.2020
34 Clear -7 1022 52 10000 1 0 10:42 28.01.2020
35 Clear -7 1022 52 10000 1 0 10:24 28.01.2020
36 Clear -6 1022 53 10000 1 0 09:58 28.01.2020
37 Clear -5 1022 49 10000 1 0 09:38 28.01.2020
38 Clear -5 1022 49 10000 1 0 09:19 28.01.2020
39 Clear -6 1022 48 8000 1 0 08:43 28.01.2020
40 Clear -6 1022 44 8000 1 0 08:22 28.01.2020
41 Clear -8 1022 52 8000 1 0 07:40 28.01.2020
42 Clear -9 1022 52 8000 1 0 06:58 28.01.2020
43 Clear -11 1022 56 6000 1 0 06:40 28.01.2020
44 Clear -11 1022 56 6000 1 0 06:22 28.01.2020
45 Clear -13 1023 60 6000 1 0 05:34 28.01.2020
46 Clear -16 1023 65 8000 1.59 108 04:40 28.01.2020
47 Clear -20 1023 76 8000 1.59 108 03:41 28.01.2020
48 Clear -23 1023 76 8000 1 0 02:43 28.01.2020
49 Clear -26 1022 75 6000 1 0 02:24 28.01.2020
50 Clear -27 1022 75 6000 1 0 01:50 28.01.2020
51 Clear -27 1022 75 6000 1 0 00:51 28.01.2020
52 Clear -26 1022 68 6000 1 0 00:30 28.01.2020
53 Clear -22 1021 76 6000 1.66 103 23:59 27.01.2020
54 Clear -27 1021 68 8000 1 0 23:41 27.01.2020
55 Clear -27 1021 68 8000 1 0 23:18 27.01.2020
56 Clear -26 1021 68 8000 1 0 22:44 27.01.2020
57 Clear -26 1021 75 8000 1 0 22:20 27.01.2020
58 Clear -25 1022 75 6000 1 0 21:57 27.01.2020
59 Clear -25 1022 75 6000 1 0 21:38 27.01.2020
60 Clear -25 1022 75 6000 1 0 21:18 27.01.2020
61 Clear -25 1022 75 6000 1 0 20:55 27.01.2020
62 Clear -25 1022 75 6000 1 0 20:37 27.01.2020
63 Clear -25 1022 75 6000 1 0 20:18 27.01.2020
64 Clear -25 1021 83 6000 1.63 98 19:41 27.01.2020
65 Clear -25 1021 83 6000 1.63 98 19:23 27.01.2020
66 Clear -25 1021 69 6000 1 0 18:57 27.01.2020
67 Clear -25 1021 69 6000 1 0 18:39 27.01.2020
68 Clear -25 1021 69 6000 1 0 18:39 27.01.2020
69 Clear -25 1021 69 6000 1 0 18:20 27.01.2020
70 Clear -25 1021 75 6000 1 0 17:55 27.01.2020
71 Clear -23 1021 69 6000 1 0 17:37 27.01.2020
72 Clear -23 1021 69 6000 1 0 17:18 27.01.2020
73 Clear -24 1021 76 6000 1 0 16:41 27.01.2020
74 Clear -24 1021 76 6000 1 0 16:41 27.01.2020
75 Clear -24 1021 76 6000 1 0 16:23 27.01.2020
76 Clear -23 1021 76 6000 1 0 15:55 27.01.2020
77 Clear -23 1021 76 6000 1 0 15:37 27.01.2020
78 Clear -23 1021 76 6000 1 0 15:19 27.01.2020
79 Clear -23 1021 76 6000 1 0 15:19 27.01.2020
80 Clear -21 1021 76 6000 1 0 14:43 27.01.2020
81 Clear -23 1020 76 6000 1.44 95 14:23 27.01.2020
82 Clear -21 1020 76 6000 1.18 95 13:58 27.01.2020
83 Clear -19 1020 70 6000 1 0 13:40 27.01.2020
84 Clear -19 1020 70 6000 1 0 13:20 27.01.2020
85 Clear -20 1020 76 6000 2 0 12:54 27.01.2020
86 Clear -18 1020 70 6000 2 150 12:36 27.01.2020
87 Clear -18 1020 70 6000 2 150 12:18 27.01.2020
88 Clear -18 1019 70 8000 3 160 11:41 27.01.2020
89 Clear -18 1019 70 8000 3 160 11:41 27.01.2020
90 Clear -18 1019 70 8000 3 160 11:20 27.01.2020
91 Clear -14 1019 65 8000 2 160 10:43 27.01.2020
92 Clear -10 1019 56 8000 1 0 10:24 27.01.2020
93 Clear -8 1019 52 8000 1 0 09:56 27.01.2020
94 Clear -8 1019 52 8000 1 0 09:38 27.01.2020
95 Clear -8 1019 52 8000 1 0 09:18 27.01.2020
96 Clear -8 1018 48 8000 0.19 175 08:42 27.01.2020
97 Clear -8 1018 48 8000 0.78 241 08:20 27.01.2020
98 Clear -10 1018 51 8000 1 0 07:54 27.01.2020
99 Clear -10 1018 51 8000 1 0 07:54 27.01.2020
100 Clear -10 1019 51 8000 1 0 07:33 27.01.2020
101 Clear -12 1019 55 6000 1 0 06:52 27.01.2020
102 Clear -13 1019 55 6000 1 0 06:24 27.01.2020
103 Smoke -16 1020 59 5000 1 0 05:23 27.01.2020
104 Clear -20 1020 76 6000 1 0 03:47 27.01.2020
105 Clear -27 1019 75 8000 0.23 6 02:36 27.01.2020
106 Clear -28 1019 75 8000 1 0 01:29 27.01.2020
107 Clear -28 1019 68 8000 0.77 73 00:43 27.01.2020
108 Clear -27 1019 75 8000 1 0 00:23 27.01.2020
109 Clear -27 1019 68 8000 0.77 73 23:59 26.01.2020
110 Clear -27 1019 68 8000 0.77 73 23:59 26.01.2020
111 Clear -27 1019 75 8000 1 0 23:41 26.01.2020
112 Clear -27 1019 75 8000 1 0 23:41 26.01.2020
113 Clear -27 1019 75 8000 1 0 23:18 26.01.2020
114 Clear -28 1019 75 8000 1 0 22:54 26.01.2020
115 Clear -27 1019 75 8000 1 0 22:36 26.01.2020
116 Clear -27 1019 75 8000 1 0 22:18 26.01.2020
117 Clear -25 1019 69 8000 0.6 80 21:54 26.01.2020
118 Clear -25 1019 69 8000 0.6 80 21:36 26.01.2020
119 Clear -25 1019 69 8000 0.6 80 21:18 26.01.2020
120 Clear -27 1019 68 8000 1 0 20:54 26.01.2020
121 Clear -27 1019 68 8000 1 0 20:36 26.01.2020
122 Clear -27 1019 68 8000 1 0 20:18 26.01.2020
123 Clear -25 1019 69 8000 0.76 94 19:40 26.01.2020
124 Clear -25 1019 69 8000 0.76 94 19:21 26.01.2020
125 Clear -25 1018 69 8000 0.76 94 18:59 26.01.2020
126 Clear -25 1018 69 8000 0.76 94 18:40 26.01.2020
127 Clear -25 1018 69 8000 0.76 94 18:21 26.01.2020
128 Clear -24 1018 76 8000 1 0 17:57 26.01.2020
129 Clear -24 1018 76 8000 1 0 17:38 26.01.2020
130 Clear -24 1018 76 8000 1 0 17:18 26.01.2020
131 Clear -22 1018 76 8000 0.97 107 16:57 26.01.2020
132 Clear -22 1018 76 8000 0.97 107 16:39 26.01.2020
133 Clear -22 1018 76 8000 0.97 107 16:20 26.01.2020
134 Clear -22 1018 76 8000 0.97 107 16:20 26.01.2020
135 Clear -13 1025 55 0 0.97 107 15:46 26.01.2020
136 Clear -13 1025 55 0 0.97 107 15:22 26.01.2020
137 Clear -13 1025 55 0 0.97 107 14:58 26.01.2020
138 Clear -13 1025 55 0 0.97 107 14:39 26.01.2020
139 Clear -13 1025 56 0 0.96 118 14:19 26.01.2020
140 Clear -13 1025 56 0 0.96 118 13:41 26.01.2020
141 Clear -13 1025 57 0 1.15 113 13:20 26.01.2020
142 Clear -13 1025 57 0 1.15 113 12:57 26.01.2020
143 Clear -13 1025 57 0 1.15 113 12:38 26.01.2020
144 Clear -13 1025 57 0 1.15 113 12:19 26.01.2020
145 Clear -13 1025 57 0 1.15 113 11:57 26.01.2020
146 Clear -13 1025 57 0 1.15 113 11:37 26.01.2020
147 Clear -11 1017 61 8000 2 170 11:18 26.01.2020
148 Clear -11 1017 61 8000 2 170 10:56 26.01.2020
149 Clear -11 1017 61 8000 2 170 10:38 26.01.2020
150 Clear -11 1017 61 8000 2 170 10:19 26.01.2020
151 Clear -9 1017 52 8000 2 190 09:56 26.01.2020
152 Clear -9 1017 56 8000 1 0 09:37 26.01.2020
153 Clear -9 1017 56 8000 1 0 09:19 26.01.2020
154 Clear -9 1017 52 8000 1 0 08:41 26.01.2020
155 Clear -9 1017 52 8000 1 0 08:22 26.01.2020
156 Clear -10 1017 56 8000 1 0 07:50 26.01.2020
157 Clear -11 1018 56 8000 1 0 07:27 26.01.2020
158 Clear -11 1018 51 6000 1 0 06:51 26.01.2020
159 Clear -13 1018 55 6000 1 0 06:23 26.01.2020
160 Clear -16 1019 59 6000 1 0 05:28 26.01.2020
161 Clear -20 1019 76 6000 1.95 115 03:57 26.01.2020
162 Clear -26 1019 75 6000 1.95 115 02:38 26.01.2020
163 Clear -26 1019 75 6000 1 0 01:45 26.01.2020
164 Clear -27 1019 68 6000 1 0 01:22 26.01.2020
165 Clear -26 1018 75 6000 1 0 00:42 26.01.2020
166 Clear -26 1018 75 6000 1 0 00:24 26.01.2020
167 Clear -16 1028 75 0 2.07 104 23:40 25.01.2020
168 Clear -16 1028 76 0 2.23 108 23:21 25.01.2020
169 Clear -16 1028 76 0 2.23 108 22:56 25.01.2020
170 Clear -16 1028 76 0 2.23 108 22:56 25.01.2020
171 Clear -16 1028 76 0 2.23 108 22:36 25.01.2020
172 Clear -16 1028 76 0 2.23 108 22:18 25.01.2020
173 Clear -16 1028 76 0 2.23 108 21:55 25.01.2020
174 Clear -16 1028 76 0 2.23 108 21:36 25.01.2020
175 Clear -16 1028 76 0 2.23 108 21:18 25.01.2020
176 Clear -16 1028 76 0 2.23 108 20:43 25.01.2020
177 Clear -16 1028 76 0 2.23 108 20:24 25.01.2020
178 Clear -15 1028 73 0 2.27 106 19:48 25.01.2020
179 Clear -16 1029 73 0 2.17 104 19:20 25.01.2020
180 Clear -16 1029 73 0 2.17 104 18:59 25.01.2020
181 Clear -16 1029 73 0 2.17 104 18:41 25.01.2020
182 Clear -16 1029 73 0 2.17 104 18:20 25.01.2020
183 Clear -16 1029 73 0 2.17 104 17:42 25.01.2020
184 Clear -16 1029 73 0 2.17 104 17:24 25.01.2020
185 Clear -15 1029 68 0 2.31 109 16:58 25.01.2020
186 Clear -15 1029 68 0 2.31 109 16:40 25.01.2020
187 Clear -15 1029 68 0 2.31 109 16:21 25.01.2020
188 Clear -15 1029 68 0 2.31 109 15:55 25.01.2020
189 Clear -15 1029 68 0 2.31 109 15:37 25.01.2020
190 Clear -15 1029 68 0 2.31 109 15:18 25.01.2020
191 Clear -15 1029 68 0 2.31 109 14:41 25.01.2020
192 Clear -13 1029 63 0 2.32 106 14:19 25.01.2020
193 Clear -13 1029 63 0 2.32 106 13:43 25.01.2020
194 Clear -13 1028 64 0 2.3 107 13:24 25.01.2020
195 Clear -13 1029 63 0 2.32 106 13:24 25.01.2020
196 Clear -21 1020 76 10000 1 0 12:46 25.01.2020
197 Clear -21 1020 76 10000 1 0 12:28 25.01.2020
198 Clear -21 1020 76 10000 1 0 11:46 25.01.2020
199 Clear -19 1020 70 10000 1 0 11:23 25.01.2020
200 Clear -16 1020 65 10000 2 180 11:00 25.01.2020
201 Clear -12 1020 55 10000 1 0 10:40 25.01.2020
202 Clear -12 1020 55 10000 1 0 10:21 25.01.2020
203 Clear -11 1020 56 10000 1 0 09:57 25.01.2020
204 Clear -10 1020 47 10000 1 0 09:37 25.01.2020
205 Clear -10 1020 47 10000 1 0 09:18 25.01.2020
206 Clear -10 1021 47 10000 1 0 08:42 25.01.2020
207 Clear -11 1021 51 8000 1 0 07:53 25.01.2020
208 Clear -14 1021 55 8000 2 0 06:58 25.01.2020
209 Clear -14 1022 50 8000 1.57 117 06:31 25.01.2020
210 Clear -15 1022 54 8000 1.57 117 05:50 25.01.2020
211 Clear -17 1022 59 8000 1 0 05:28 25.01.2020
212 Clear -21 1022 76 6000 1.56 108 03:55 25.01.2020
213 Clear -23 1022 76 6000 1.56 108 03:23 25.01.2020
214 Smoke -29 1022 68 5000 1 0 02:23 25.01.2020
215 Smoke -28 1022 68 5000 1.37 100 01:53 25.01.2020
216 Clear -29 1022 68 6000 1 0 00:52 25.01.2020
217 Clear -26 1022 68 6000 1.3 102 00:26 25.01.2020
218 Clear -28 1022 68 6000 1.3 102 23:59 24.01.2020
219 Clear -28 1022 68 6000 1.3 102 23:59 24.01.2020
220 Clear -28 1022 75 6000 1.3 102 23:41 24.01.2020
221 Clear -28 1022 75 6000 1.3 102 23:41 24.01.2020
222 Clear -28 1022 75 6000 1.3 102 23:23 24.01.2020
223 Clear -27 1022 68 6000 1 0 22:46 24.01.2020
224 Clear -27 1022 68 6000 1 0 22:46 24.01.2020
225 Clear -28 1022 75 6000 1 0 22:25 24.01.2020
226 Clear -28 1023 68 6000 1 0 21:57 24.01.2020
227 Clear -28 1023 68 6000 1 0 21:38 24.01.2020
228 Clear -28 1023 68 6000 1 0 21:18 24.01.2020
229 Clear -26 1023 75 6000 1.43 95 20:42 24.01.2020
230 Clear -26 1023 75 6000 1.07 101 20:21 24.01.2020
231 Clear -25 1022 75 6000 1.07 101 19:57 24.01.2020
232 Clear -25 1022 75 6000 1.07 101 19:39 24.01.2020
233 Clear -25 1022 75 6000 1.07 101 19:21 24.01.2020
234 Clear -28 1022 68 6000 1 0 18:43 24.01.2020
235 Clear -28 1022 68 6000 1 0 18:43 24.01.2020
236 Clear -28 1022 68 6000 1 0 18:24 24.01.2020
237 Clear -27 1022 68 6000 1.07 101 17:56 24.01.2020
238 Clear -27 1022 68 6000 1.07 101 17:38 24.01.2020
239 Clear -27 1022 68 6000 0.97 107 17:18 24.01.2020
240 Clear -24 1022 76 6000 0.97 107 16:39 24.01.2020
241 Clear -24 1022 76 6000 0.97 107 16:21 24.01.2020
242 Clear -24 1022 76 6000 1 0 15:55 24.01.2020
243 Clear -26 1023 75 6000 0.97 107 15:37 24.01.2020
244 Clear -26 1023 75 6000 0.97 107 15:18 24.01.2020
245 Clear -26 1023 68 8000 1 0 14:41 24.01.2020
246 Clouds -26 1023 68 8000 1 0 14:22 24.01.2020
247 Clouds -24 1023 76 8000 1 0 13:44 24.01.2020
248 Clouds -24 1023 76 10000 2 0 13:24 24.01.2020
249 Clouds -21 1023 76 10000 2 0 12:45 24.01.2020
250 Clouds -22 1023 69 10000 3 160 12:23 24.01.2020
251 Clouds -22 1023 76 8000 1 0 11:58 24.01.2020
252 Clouds -21 1022 70 8000 1 0 11:39 24.01.2020
253 Clouds -21 1022 70 8000 1 0 11:18 24.01.2020
254 Clouds -17 1022 64 8000 1 0 10:42 24.01.2020
255 Clouds -17 1022 64 8000 1 0 10:42 24.01.2020
256 Clouds -17 1022 64 8000 1 0 10:21 24.01.2020
257 Clouds -14 1022 60 8000 0.81 191 09:55 24.01.2020
258 Clouds -13 1022 55 8000 1 0 09:37 24.01.2020
259 Clouds -13 1022 55 8000 1 0 09:18 24.01.2020
260 Clouds -13 1022 55 8000 1 0 08:39 24.01.2020
261 Clear -13 1022 55 8000 1 0 08:19 24.01.2020
262 Clear -13 1023 50 8000 1 0 07:49 24.01.2020
263 Clear -15 1023 60 6000 1 0 07:24 24.01.2020
264 Clear -15 1023 54 6000 1 0 06:45 24.01.2020
265 Smoke -17 1024 54 5000 1 0 06:24 24.01.2020
266 Smoke -20 1024 58 5000 1 0 05:37 24.01.2020
267 Smoke -24 1025 69 4000 0.89 154 03:47 24.01.2020
268 Smoke -30 1025 74 4000 0.89 154 02:41 24.01.2020
269 Smoke -30 1025 74 4000 0.89 154 02:22 24.01.2020
270 Smoke -30 1025 67 5000 1 0 01:39 24.01.2020
271 Clear -29 1025 68 6000 0.63 120 00:54 24.01.2020
272 Clear -30 1024 67 6000 0.63 120 00:19 24.01.2020
273 Clear -28 1024 68 6000 1 0 23:45 23.01.2020
274 Clear -30 1024 67 6000 1 0 23:26 23.01.2020
275 Clear -30 1024 67 6000 1 0 22:59 23.01.2020
276 Clear -29 1024 68 6000 0.9 104 22:37 23.01.2020
277 Clear -29 1024 68 6000 0.9 104 22:18 23.01.2020
278 Clear -30 1025 67 6000 2 190 21:55 23.01.2020
279 Clear -30 1025 67 6000 2 190 21:37 23.01.2020
280 Clear -30 1025 67 6000 2 190 21:19 23.01.2020
281 Clear -29 1025 75 6000 1 0 20:55 23.01.2020
282 Clear -29 1025 75 6000 1 0 20:37 23.01.2020
283 Clear -29 1025 75 6000 1 0 20:18 23.01.2020
284 Clear -28 1025 68 6000 1.5 106 19:44 23.01.2020
285 Clear -28 1025 68 6000 1.5 106 19:24 23.01.2020
286 Clear -28 1025 75 6000 1 0 18:59 23.01.2020
287 Clear -28 1025 75 6000 1 0 18:39 23.01.2020
288 Clear -28 1025 75 6000 1 0 18:20 23.01.2020
289 Clear -28 1025 75 6000 1 0 17:57 23.01.2020
290 Clear -26 1025 75 6000 1.5 106 17:38 23.01.2020
291 Clear -26 1025 75 6000 1.75 111 17:18 23.01.2020
292 Clear -27 1025 68 6000 1 0 16:39 23.01.2020
293 Clear -27 1025 68 6000 1 0 16:20 23.01.2020
294 Clear -28 1025 68 8000 1.75 111 15:58 23.01.2020
295 Clear -28 1025 75 8000 1 0 15:40 23.01.2020
296 Clear -28 1025 75 8000 1 0 15:19 23.01.2020
297 Clear -27 1025 68 8000 1.75 111 14:59 23.01.2020
298 Clear -24 1025 69 8000 1.75 111 14:41 23.01.2020
299 Clear -24 1025 69 8000 1.85 104 14:23 23.01.2020
300 Clear -27 1025 75 8000 1.85 104 13:59 23.01.2020
301 Clear -26 1025 75 8000 1 0 13:37 23.01.2020
302 Clear -26 1025 75 8000 1 0 13:19 23.01.2020
303 Clear -25 1025 75 8000 1.94 104 12:44 23.01.2020
304 Clear -25 1025 75 8000 2 190 12:25 23.01.2020
305 Clear -23 1025 69 8000 1 0 11:56 23.01.2020
306 Clear -23 1024 69 8000 3 170 11:37 23.01.2020
307 Clear -23 1024 69 8000 3 170 11:37 23.01.2020
308 Clear -23 1024 69 8000 3 170 11:18 23.01.2020
309 Clear -20 1024 70 8000 2 170 10:44 23.01.2020
310 Clear -16 1024 59 8000 1 0 10:22 23.01.2020
311 Clear -14 1024 55 6000 2 190 09:43 23.01.2020
312 Clear -13 1024 50 6000 1 0 09:25 23.01.2020
313 Clear -13 1024 50 6000 1 0 08:59 23.01.2020
314 Clear -14 1024 55 6000 1 0 08:40 23.01.2020
315 Clear -14 1024 55 6000 1 0 08:21 23.01.2020
316 Clear -14 1024 55 6000 1 0 07:44 23.01.2020
317 Clear -15 1024 54 6000 1 0 07:25 23.01.2020
318 Smoke -16 1024 54 5000 1 0 06:51 23.01.2020
319 Smoke -18 1024 64 5000 1 0 06:22 23.01.2020
320 Smoke -19 1025 70 4000 1 0 05:44 23.01.2020
321 Smoke -22 1025 76 4000 1.2 124 04:24 23.01.2020
322 Smoke -31 1024 74 5000 1 0 02:34 23.01.2020
323 Clear -30 1024 67 6000 0.63 81 01:19 23.01.2020
324 Clear -32 1023 67 8000 1 0 00:27 23.01.2020
325 Clear -30 1023 74 8000 0.63 81 23:48 22.01.2020
326 Clear -28 1022 68 8000 1 0 23:29 22.01.2020
327 Clear -28 1022 75 8000 1 0 22:59 22.01.2020
328 Clear -29 1022 75 8000 1 0 22:40 22.01.2020
329 Clear -29 1022 75 8000 1 0 22:22 22.01.2020
330 Clear -27 1022 75 8000 0.8 358 21:40 22.01.2020
331 Clear -27 1022 75 8000 0.8 358 21:22 22.01.2020
332 Clear -26 1021 75 0 0.8 358 20:57 22.01.2020
333 Clear -26 1021 75 0 0.8 358 20:37 22.01.2020
334 Clear -26 1021 75 0 1.15 342 20:19 22.01.2020
335 Clear -25 1020 75 10000 0.89 349 19:56 22.01.2020
336 Clear -25 1020 75 10000 0.89 349 19:37 22.01.2020
337 Clear -25 1020 75 10000 0.89 349 19:18 22.01.2020
338 Clear -26 1020 75 10000 1 0 18:56 22.01.2020
339 Clear -26 1020 75 10000 1 0 18:37 22.01.2020
340 Clear -26 1020 75 10000 1 0 18:19 22.01.2020
341 Clear -28 1019 68 10000 1 0 17:40 22.01.2020
342 Clear -28 1019 68 10000 1 0 17:21 22.01.2020
343 Clear -27 1019 68 10000 1 0 16:58 22.01.2020
344 Clear -23 1018 76 10000 1.17 304 16:39 22.01.2020
345 Clear -23 1018 76 10000 1.17 304 16:21 22.01.2020
346 Clear -23 1018 69 10000 1 0 15:56 22.01.2020
347 Clear -21 1018 63 10000 1 0 15:38 22.01.2020
348 Clear -21 1018 63 10000 1 0 15:19 22.01.2020
349 Clear -22 1017 76 10000 4 160 14:40 22.01.2020
350 Clouds -22 1017 76 10000 4 160 14:21 22.01.2020
351 Clouds -24 1017 69 10000 3 160 13:59 22.01.2020
352 Clouds -25 1017 69 10000 2 180 13:38 22.01.2020
353 Clouds -25 1017 69 10000 2 180 13:19 22.01.2020
354 Clouds -23 1016 76 10000 1 0 12:57 22.01.2020
355 Clouds -21 1016 70 10000 1 0 12:39 22.01.2020
356 Clouds -21 1016 70 10000 1 0 12:19 22.01.2020
357 Clouds -19 1015 70 10000 1.69 273 11:58 22.01.2020
358 Clouds -18 1015 64 10000 1 0 11:39 22.01.2020
359 Clouds -18 1015 64 10000 1 0 11:19 22.01.2020
360 Clouds -18 1015 64 10000 1 0 11:19 22.01.2020
361 Clouds -17 1014 64 10000 2 180 10:54 22.01.2020
362 Clouds -12 1014 55 10000 1 0 10:36 22.01.2020
363 Clouds -12 1014 55 10000 1 0 10:18 22.01.2020
364 Clouds -12 1013 60 10000 2 0 09:41 22.01.2020
365 Clouds -12 1013 60 10000 2 0 09:23 22.01.2020
366 Clouds -11 1012 56 10000 1 0 08:56 22.01.2020
367 Clouds -12 1012 60 10000 3 200 08:38 22.01.2020
368 Clouds -12 1012 60 10000 3 200 08:20 22.01.2020
369 Clouds -12 1012 55 10000 2 0 07:45 22.01.2020
370 Clouds -13 1012 60 10000 3 230 07:27 22.01.2020
371 Clouds -14 1012 65 6000 2 0 06:38 22.01.2020
372 Clouds -14 1012 65 6000 2 0 06:19 22.01.2020
373 Clouds -14 1012 65 6000 2 0 06:19 22.01.2020
374 Smoke -19 1011 77 5000 1 0 04:27 22.01.2020
375 Smoke -20 1011 76 5000 1 0 03:29 22.01.2020
376 Clouds -23 1011 76 6000 2 160 02:49 22.01.2020
377 Clouds -25 1010 75 6000 1 0 01:30 22.01.2020
378 Clouds -20 1009 76 6000 1 0 00:40 22.01.2020
379 Clouds -20 1009 76 6000 1 0 00:19 22.01.2020
380 Clouds -22 1010 76 6000 0.62 167 23:37 21.01.2020
381 Clouds -22 1010 76 6000 0.62 167 23:37 21.01.2020
382 Clouds -22 1010 76 6000 1.65 116 23:19 21.01.2020
383 Clouds -23 1010 76 0 1 0 22:42 21.01.2020
384 Clouds -23 1010 76 0 1 0 22:24 21.01.2020
385 Clouds -25 1011 75 6000 1.65 116 21:58 21.01.2020
386 Clouds -25 1011 75 6000 1.65 116 21:39 21.01.2020
387 Clouds -25 1011 75 6000 1.65 116 21:21 21.01.2020
388 Clouds -26 1011 68 6000 1 0 20:58 21.01.2020
389 Clouds -26 1011 68 6000 1 0 20:39 21.01.2020
390 Clouds -26 1011 68 6000 1 0 20:20 21.01.2020
391 Clouds -25 1012 75 6000 1 0 19:58 21.01.2020
392 Clouds -25 1012 75 6000 1 0 19:39 21.01.2020
393 Clouds -25 1012 75 6000 1 0 19:39 21.01.2020
394 Clouds -25 1012 75 6000 1 0 19:21 21.01.2020
395 Clouds -28 1012 68 6000 1 0 18:57 21.01.2020
396 Clouds -28 1012 68 6000 1 0 18:38 21.01.2020
397 Clouds -28 1012 68 6000 1 0 18:20 21.01.2020
398 Clouds -28 1013 75 6000 1 0 17:56 21.01.2020
399 Clouds -28 1013 68 8000 1.87 113 17:37 21.01.2020
400 Clouds -28 1013 68 8000 1.8 101 17:18 21.01.2020
401 Clouds -27 1013 75 8000 1 0 16:37 21.01.2020
402 Clouds -27 1013 75 8000 1 0 16:19 21.01.2020
403 Clouds -26 1013 75 8000 1.8 101 15:57 21.01.2020
404 Clouds -26 1014 75 8000 1 0 15:37 21.01.2020
405 Clouds -26 1014 75 8000 1 0 15:19 21.01.2020
406 Clouds -25 1014 75 8000 2 0 14:39 21.01.2020
407 Clouds -25 1014 75 8000 2 0 14:20 21.01.2020
408 Clouds -24 1014 76 8000 2 160 13:43 21.01.2020
409 Clouds -24 1014 76 8000 2 160 13:43 21.01.2020
410 Clouds -26 1014 75 8000 2 170 13:20 21.01.2020
411 Clouds -25 1014 69 8000 1 0 12:57 21.01.2020
412 Clouds -24 1014 76 8000 1 0 12:39 21.01.2020
413 Clouds -24 1014 76 8000 1 0 12:21 21.01.2020
414 Clouds -23 1014 76 8000 1 0 11:41 21.01.2020
415 Clouds -23 1014 76 8000 1 0 11:22 21.01.2020
416 Clouds -19 1014 77 8000 0.34 74 11:00 21.01.2020
417 Clouds -18 1014 70 8000 2 350 10:41 21.01.2020
418 Clouds -18 1014 70 8000 2 350 10:22 21.01.2020
419 Clouds -14 1013 65 8000 1 0 09:43 21.01.2020
420 Clouds -14 1013 65 8000 1 0 09:23 21.01.2020
421 Clouds -14 1013 65 8000 2 0 08:58 21.01.2020
422 Clouds -16 1013 71 6000 3 240 08:40 21.01.2020
423 Clouds -16 1013 71 6000 3 240 08:19 21.01.2020
424 Smoke -16 1013 65 5000 1 0 07:42 21.01.2020
425 Smoke -16 1013 65 5000 1 0 07:23 21.01.2020
426 Smoke -15 1014 65 5000 2.18 245 06:55 21.01.2020
427 Smoke -17 1014 70 5000 1 0 06:37 21.01.2020
428 Smoke -19 1015 77 4000 1 0 05:50 21.01.2020
429 Smoke -23 1015 76 4000 0.83 111 04:41 21.01.2020
430 Smoke -25 1014 69 4000 0.83 111 03:40 21.01.2020
431 Smoke -28 1013 75 5000 0.83 111 02:26 21.01.2020
432 Clear -31 1013 67 6000 0.04 127 01:28 21.01.2020
433 Clear -30 1012 67 6000 0.04 127 00:40 21.01.2020
434 Clear -30 1012 67 6000 0.04 127 00:21 21.01.2020
435 Clear -29 1011 75 6000 1 0 23:41 20.01.2020
436 Clear -29 1011 75 6000 1 0 23:19 20.01.2020
437 Clear -28 1011 68 8000 2 160 22:59 20.01.2020
438 Clear -29 1010 68 8000 2 160 22:39 20.01.2020
439 Clear -29 1010 68 8000 2 160 22:21 20.01.2020
440 Clear -26 1010 75 8000 1.28 341 21:58 20.01.2020
441 Clear -26 1010 75 8000 1.28 341 21:38 20.01.2020
442 Clear -26 1010 75 8000 1.28 341 21:19 20.01.2020
443 Clear -27 1010 68 8000 1.28 341 20:57 20.01.2020
444 Clear -27 1010 68 8000 1.28 341 20:38 20.01.2020
445 Clouds -27 1010 68 8000 2.06 336 20:19 20.01.2020
446 Clouds -26 1009 68 8000 1 0 19:56 20.01.2020
447 Clouds -26 1009 68 8000 1 0 19:38 20.01.2020
448 Clouds -26 1009 68 8000 1 0 19:18 20.01.2020
449 Clouds -26 1009 75 8000 1 0 18:44 20.01.2020
450 Clouds -26 1009 75 8000 1 0 18:23 20.01.2020
451 Clouds -26 1008 75 10000 2.06 336 17:59 20.01.2020
452 Clouds -26 1008 75 10000 2.06 336 17:36 20.01.2020
453 Clouds -26 1008 75 10000 2.06 336 17:36 20.01.2020
454 Clouds -26 1008 75 10000 1.59 309 17:18 20.01.2020
455 Clouds -24 1008 76 10000 2 160 16:43 20.01.2020
456 Clouds -23 1008 76 10000 1 0 16:25 20.01.2020
457 Clouds -23 1007 76 10000 1 0 15:58 20.01.2020
458 Clouds -24 1007 76 10000 3 170 15:39 20.01.2020
459 Clouds -24 1007 76 10000 3 170 15:21 20.01.2020
460 Clouds -25 1007 75 10000 3 180 14:44 20.01.2020
461 Clouds -25 1007 69 10000 1 0 14:25 20.01.2020
462 Clouds -23 1006 69 10000 1 0 13:59 20.01.2020
463 Clouds -22 1006 76 10000 0.28 115 13:40 20.01.2020
464 Clouds -22 1006 76 10000 0.28 115 13:22 20.01.2020
465 Clouds -23 1006 69 10000 1 0 12:47 20.01.2020
466 Clouds -19 1006 70 10000 1 0 12:29 20.01.2020
467 Clouds -19 1006 70 10000 1 0 12:29 20.01.2020
468 Clouds -18 1005 70 10000 2 170 11:59 20.01.2020
469 Clouds -20 1005 76 10000 3 170 11:40 20.01.2020
470 Clouds -20 1005 76 10000 3 170 11:22 20.01.2020
471 Clouds -21 1005 70 10000 1 0 10:57 20.01.2020
472 Clouds -16 1004 59 10000 1.43 115 10:39 20.01.2020
473 Clouds -16 1004 59 10000 1.43 115 10:19 20.01.2020
474 Clouds -16 1004 59 10000 1.43 115 10:19 20.01.2020
475 Clouds -16 1004 59 8000 1 0 09:40 20.01.2020
476 Clouds -16 1004 59 8000 1 0 09:21 20.01.2020
477 Clouds -15 1004 60 8000 1.43 115 08:49 20.01.2020
478 Clouds -16 1005 65 8000 1 0 08:30 20.01.2020
479 Clouds -16 1005 65 8000 1.85 124 07:46 20.01.2020
480 Clouds -17 1006 70 8000 1.85 124 07:26 20.01.2020
481 Clouds -18 1006 77 8000 1 0 06:59 20.01.2020
482 Clouds -19 1006 77 8000 1 0 06:28 20.01.2020
483 Clouds -20 1007 76 8000 1.85 124 05:43 20.01.2020
484 Clouds -20 1007 76 8000 1.85 124 05:23 20.01.2020
485 Clouds -22 1008 83 8000 1 0 04:48 20.01.2020
486 Clouds -28 1009 75 8000 1 0 02:59 20.01.2020
487 Clouds -29 1009 75 8000 2.57 105 01:57 20.01.2020
488 Clouds -31 1009 67 8000 2.57 105 01:37 20.01.2020
489 Clouds -30 1010 67 8000 2.56 106 00:45 20.01.2020
490 Clouds -28 1010 75 8000 2.56 106 00:25 20.01.2020
491 Clouds -30 1011 67 8000 2.56 106 23:40 19.01.2020
492 Clear -30 1011 67 8000 2.49 99 23:20 19.01.2020
493 Clear -31 1011 67 8000 2.49 99 22:57 19.01.2020
494 Clear -31 1011 67 8000 2.49 99 22:39 19.01.2020
495 Clear -31 1011 67 8000 2.49 99 22:21 19.01.2020
496 Clear -30 1012 67 8000 2.49 99 21:57 19.01.2020
497 Clear -30 1012 67 8000 2.49 99 21:39 19.01.2020
498 Clear -30 1012 67 8000 2.49 99 21:20 19.01.2020
499 Clear -29 1013 68 8000 1 0 20:57 19.01.2020
500 Clear -29 1013 68 8000 1 0 20:39 19.01.2020
501 Clear -29 1013 68 8000 1 0 20:21 19.01.2020
502 Clear -30 1013 67 8000 1 0 19:57 19.01.2020
503 Clear -30 1013 67 8000 1 0 19:39 19.01.2020
504 Clear -30 1013 67 8000 1 0 19:21 19.01.2020
505 Clear -29 1014 68 8000 1 0 18:59 19.01.2020
506 Clear -29 1014 68 8000 1 0 18:41 19.01.2020
507 Clear -29 1014 68 8000 1 0 18:21 19.01.2020
508 Clear -25 1015 75 10000 1 0 17:58 19.01.2020
509 Clear -25 1015 75 10000 1 0 17:58 19.01.2020
510 Clear -25 1015 75 10000 1 0 17:40 19.01.2020
511 Clear -25 1015 75 10000 1 0 17:21 19.01.2020
512 Clear -25 1015 75 10000 1 0 16:59 19.01.2020
513 Clear -26 1015 75 10000 1 0 16:39 19.01.2020
514 Clear -26 1015 75 10000 1 0 16:21 19.01.2020
515 Clear -23 1015 83 10000 0.77 80 15:59 19.01.2020
516 Clear -26 1015 75 10000 1 0 15:39 19.01.2020
517 Clear -26 1015 75 10000 1 0 15:20 19.01.2020
518 Clear -26 1016 75 10000 1 0 14:58 19.01.2020
519 Clear -25 1016 75 10000 1 0 14:39 19.01.2020
520 Clouds -25 1016 75 10000 1 0 14:18 19.01.2020
521 Clouds -23 1016 76 10000 1 0 13:57 19.01.2020
522 Clouds -21 1016 76 10000 2 170 13:38 19.01.2020
523 Clouds -21 1016 76 10000 2 170 13:19 19.01.2020
524 Clouds -19 1017 70 10000 3 160 12:55 19.01.2020
525 Clouds -21 1016 76 10000 3 170 12:37 19.01.2020
526 Clouds -21 1016 76 10000 3 170 12:37 19.01.2020
527 Clouds -21 1016 76 10000 3 170 12:19 19.01.2020
528 Clouds -18 1016 70 10000 3 160 11:42 19.01.2020
529 Snow -18 1016 70 10000 3 160 11:21 19.01.2020
530 Clouds -17 1016 64 10000 3 160 10:56 19.01.2020
531 Clouds -17 1016 64 10000 3 160 10:56 19.01.2020
532 Clouds -12 1016 51 10000 2 0 10:38 19.01.2020
533 Clouds -12 1016 51 10000 2 0 10:19 19.01.2020
534 Clouds -11 1015 47 10000 3 280 09:56 19.01.2020
535 Clouds -11 1015 47 10000 3 280 09:56 19.01.2020
536 Clouds -11 1015 47 10000 3 280 09:56 19.01.2020
537 Clouds -11 1015 47 10000 3 280 09:37 19.01.2020
538 Clouds -11 1015 47 10000 3 280 09:18 19.01.2020
539 Clouds -11 1015 56 10000 2 0 08:48 19.01.2020
540 Clouds -11 1015 56 10000 1 0 08:28 19.01.2020
541 Clouds -13 1015 71 8000 2 0 07:42 19.01.2020
542 Clouds -13 1015 71 8000 2 0 07:22 19.01.2020
543 Smoke -13 1016 78 5000 2 0 06:53 19.01.2020
544 Smoke -14 1016 77 5000 1 0 06:21 19.01.2020
545 Snow -24 1014 76 8000 1 0 02:44 19.01.2020
546 Snow -26 1014 75 10000 1 0 02:21 19.01.2020
547 Snow -25 1013 83 10000 1 0 01:25 19.01.2020
548 Snow -26 1012 75 10000 1.28 294 00:50 19.01.2020
549 Snow -24 1012 76 10000 1.28 294 00:29 19.01.2020
550 Snow -24 1012 76 10000 1.28 294 23:58 18.01.2020
551 Snow -23 1011 76 10000 1 0 23:40 18.01.2020
552 Clouds -23 1011 76 10000 1 0 23:21 18.01.2020
553 Clouds -23 1011 76 10000 1 0 22:55 18.01.2020
554 Clouds -24 1011 76 10000 1 0 22:37 18.01.2020
555 Clouds -24 1011 76 10000 1 0 22:19 18.01.2020
556 Clouds -24 1010 76 10000 1 0 21:57 18.01.2020
557 Clouds -24 1010 76 10000 1 0 21:37 18.01.2020
558 Clouds -24 1010 76 10000 1 0 21:19 18.01.2020
559 Clouds -26 1010 75 10000 2 150 20:43 18.01.2020
560 Clouds -26 1010 75 10000 2 150 20:21 18.01.2020
561 Clouds -25 1010 75 10000 1 0 19:58 18.01.2020
562 Clouds -25 1010 75 10000 1 0 19:40 18.01.2020
563 Clouds -25 1010 75 10000 1 0 19:22 18.01.2020
564 Clouds -24 1009 76 10000 2 170 18:42 18.01.2020
565 Clouds -24 1009 76 10000 2 170 18:21 18.01.2020
566 Clouds -21 1009 76 10000 2 170 17:55 18.01.2020
567 Clouds -21 1009 76 10000 2 170 17:37 18.01.2020
568 Clouds -21 1009 76 10000 2 170 17:18 18.01.2020
569 Snow -18 1009 77 10000 2 350 16:42 18.01.2020
570 Snow -18 1009 77 10000 2 350 16:24 18.01.2020
571 Snow -17 1009 70 10000 0.61 233 15:59 18.01.2020
572 Clouds -17 1010 70 10000 1 0 15:41 18.01.2020
573 Clouds -17 1010 70 10000 1 0 15:22 18.01.2020
574 Clouds -18 1010 70 10000 1 0 14:54 18.01.2020
575 Clouds -18 1011 70 10000 0.61 233 14:36 18.01.2020
576 Clouds -18 1011 70 10000 1.02 121 14:18 18.01.2020
577 Clouds -18 1011 70 10000 1 0 13:43 18.01.2020
578 Clouds -19 1011 70 10000 1 0 13:24 18.01.2020
579 Clouds -20 1010 76 10000 1 0 12:56 18.01.2020
580 Clouds -20 1011 76 10000 1 0 12:38 18.01.2020
581 Clouds -20 1011 76 10000 1 0 12:19 18.01.2020
582 Clouds -22 1011 76 10000 1.02 116 11:44 18.01.2020
583 Clouds -19 1011 70 10000 0.75 191 11:21 18.01.2020
584 Clouds -17 1011 64 10000 2 280 10:56 18.01.2020
585 Clouds -17 1011 64 10000 2 290 10:38 18.01.2020
586 Clouds -17 1011 64 10000 2 290 10:18 18.01.2020
587 Clouds -17 1011 64 10000 2 290 10:18 18.01.2020
588 Clouds -15 1011 54 10000 2 0 09:42 18.01.2020
589 Clouds -15 1011 54 10000 2 0 09:20 18.01.2020
590 Clouds -14 1011 55 10000 1 0 08:55 18.01.2020
591 Clouds -16 1012 65 10000 2 260 08:37 18.01.2020
592 Clouds -16 1012 65 10000 2 260 08:18 18.01.2020
593 Clouds -15 1012 60 8000 3 210 07:40 18.01.2020
594 Clouds -15 1012 60 8000 3 210 07:21 18.01.2020
595 Clouds -17 1012 77 8000 1 0 06:45 18.01.2020
596 Clouds -20 1013 76 6000 2 0 05:53 18.01.2020
597 Smoke -25 1014 75 5000 1.11 265 04:28 18.01.2020
598 Clouds -29 1013 68 6000 1 0 02:49 18.01.2020
599 Snow -28 1013 75 4000 1.02 282 01:47 18.01.2020
600 Snow -29 1012 75 6000 1 0 00:40 18.01.2020
601 Snow -29 1012 75 6000 1 0 00:21 18.01.2020
602 Snow -30 1012 61 6000 1.03 287 23:59 17.01.2020
603 Snow -27 1012 75 6000 1.03 287 23:40 17.01.2020
604 Snow -27 1012 75 6000 1.03 287 23:40 17.01.2020
605 Snow -27 1012 75 6000 0.91 271 23:18 17.01.2020
606 Snow -26 1012 68 6000 1 0 22:42 17.01.2020
607 Snow -26 1012 68 6000 1 0 22:20 17.01.2020
608 Clouds -26 1013 75 6000 0.91 271 21:57 17.01.2020
609 Clouds -26 1013 75 6000 0.91 271 21:38 17.01.2020
610 Clouds -26 1013 75 6000 0.91 271 21:38 17.01.2020
611 Clouds -26 1013 75 6000 0.91 271 21:20 17.01.2020
612 Clouds -24 1013 76 6000 2 120 20:55 17.01.2020
613 Clouds -24 1013 76 6000 2 120 20:36 17.01.2020
614 Clouds -24 1013 76 6000 2 120 20:18 17.01.2020
615 Clouds -23 1014 83 6000 1 0 19:54 17.01.2020
616 Clouds -23 1014 83 6000 1 0 19:36 17.01.2020
617 Clouds -23 1014 83 6000 1 0 19:18 17.01.2020
618 Clouds -23 1014 76 6000 1 0 18:41 17.01.2020
619 Clouds -23 1014 76 6000 1 0 18:23 17.01.2020
620 Clouds -27 1014 75 6000 1 0 17:54 17.01.2020
621 Clouds -27 1014 75 6000 1 0 17:36 17.01.2020
622 Clouds -27 1014 75 6000 1 0 17:18 17.01.2020
623 Clouds -24 1014 83 6000 1 0 16:41 17.01.2020
624 Clouds -24 1014 83 6000 1 0 16:19 17.01.2020
625 Clouds -25 1015 69 8000 1 0 15:48 17.01.2020
626 Clouds -25 1015 69 8000 1 0 15:48 17.01.2020
627 Clouds -25 1015 75 8000 2 150 15:26 17.01.2020
628 Clouds -23 1015 76 10000 2 0 14:54 17.01.2020
629 Clouds -21 1015 76 10000 1 0 14:36 17.01.2020
630 Clouds -21 1015 76 10000 1 0 14:18 17.01.2020
631 Clouds -24 1015 76 10000 2 110 13:39 17.01.2020
632 Clouds -24 1015 76 10000 2 110 13:20 17.01.2020
633 Clouds -24 1015 76 8000 1 0 12:45 17.01.2020
634 Clouds -21 1015 70 8000 1 0 12:22 17.01.2020
635 Clouds -19 1015 77 8000 1 0 11:41 17.01.2020
636 Clouds -19 1015 77 8000 1 0 11:19 17.01.2020
637 Clouds -19 1015 70 8000 1 0 10:45 17.01.2020
638 Clouds -17 1015 70 8000 2 0 10:24 17.01.2020
639 Clouds -14 1015 65 8000 1 0 09:59 17.01.2020
640 Clouds -14 1016 65 8000 1 0 09:41 17.01.2020
641 Clouds -14 1016 65 8000 1 0 09:20 17.01.2020
642 Clouds -13 1015 60 8000 1.14 274 08:46 17.01.2020
643 Clouds -14 1016 65 6000 2 0 08:26 17.01.2020
644 Clouds -14 1016 65 6000 2 0 07:56 17.01.2020
645 Smoke -14 1016 60 5000 1 0 07:36 17.01.2020
646 Smoke -14 1016 60 5000 1 0 07:18 17.01.2020
647 Smoke -15 1017 54 5000 1 0 06:43 17.01.2020
648 Smoke -16 1018 54 4000 1.54 262 05:59 17.01.2020
649 Clouds -15 1029 74 0 0.94 255 03:44 17.01.2020
650 Clouds -15 1029 74 0 0.94 255 02:55 17.01.2020
651 Clouds -18 1030 77 0 0.76 296 01:48 17.01.2020
652 Clouds -18 1030 78 0 0.72 299 01:30 17.01.2020
653 Clouds -18 1030 78 0 0.72 299 00:55 17.01.2020
654 Clouds -25 1018 75 6000 1 0 00:28 17.01.2020
655 Clouds -25 1018 75 6000 1 0 23:50 16.01.2020
656 Clouds -25 1018 75 6000 1 0 23:26 16.01.2020
657 Clouds -26 1018 75 6000 2 0 22:58 16.01.2020
658 Clouds -27 1018 68 6000 0.26 321 22:40 16.01.2020
659 Clouds -27 1018 68 6000 0.26 321 22:21 16.01.2020
660 Clouds -27 1019 75 6000 0.26 321 21:55 16.01.2020
661 Clouds -27 1019 75 6000 0.26 321 21:37 16.01.2020
662 Clouds -27 1019 75 6000 0.26 321 21:18 16.01.2020
663 Clouds -28 1019 75 6000 2 170 20:56 16.01.2020
664 Clouds -28 1019 75 6000 2 170 20:36 16.01.2020
665 Clear -28 1019 75 6000 2 170 20:18 16.01.2020
666 Clear -28 1019 75 6000 2 170 20:18 16.01.2020
667 Clear -27 1019 68 6000 1 0 19:41 16.01.2020
668 Clear -27 1019 68 6000 1 0 19:23 16.01.2020
669 Clear -26 1019 75 6000 1 0 18:58 16.01.2020
670 Clear -28 1019 75 6000 1 0 18:39 16.01.2020
671 Clear -28 1019 75 6000 1 0 18:21 16.01.2020
672 Clear -27 1020 75 6000 1 0 17:59 16.01.2020
673 Clear -27 1020 75 6000 1 0 17:41 16.01.2020
674 Clear -27 1020 75 6000 1 0 17:41 16.01.2020
675 Clear -27 1020 75 6000 1 0 17:21 16.01.2020
676 Clear -26 1020 68 8000 2 160 16:56 16.01.2020
677 Clear -23 1020 69 8000 0.48 147 16:37 16.01.2020
678 Clear -23 1020 69 8000 0.48 147 16:18 16.01.2020
679 Clear -27 1020 68 8000 2 170 15:44 16.01.2020
680 Clear -27 1020 75 8000 1 0 15:21 16.01.2020
681 Clear -27 1020 68 8000 1 0 14:55 16.01.2020
682 Clear -27 1020 75 8000 2 170 14:37 16.01.2020
683 Clear -27 1020 75 8000 2 170 14:18 16.01.2020
684 Clear -26 1020 75 8000 1 0 13:43 16.01.2020
685 Clear -26 1020 75 8000 1 0 13:24 16.01.2020
686 Clear -23 1020 76 8000 0.86 113 12:45 16.01.2020
687 Clear -24 1019 69 8000 2 180 12:27 16.01.2020
688 Clear -24 1020 76 8000 1 0 11:56 16.01.2020
689 Clear -23 1019 69 8000 2 0 11:37 16.01.2020
690 Clear -23 1019 69 8000 2 0 11:19 16.01.2020
691 Clear -18 1019 64 8000 2 170 10:39 16.01.2020
692 Clear -18 1019 64 8000 2 170 10:20 16.01.2020
693 Clear -15 1019 60 8000 1 0 09:57 16.01.2020
694 Clear -14 1019 55 8000 1 0 09:38 16.01.2020
695 Clear -14 1019 55 8000 1 0 09:19 16.01.2020
696 Clear -14 1019 50 8000 1 0 08:51 16.01.2020
697 Clear -14 1019 50 8000 1 0 08:30 16.01.2020
698 Clouds -15 1020 54 8000 1 0 07:58 16.01.2020
699 Clouds -16 1020 59 8000 1 0 07:38 16.01.2020
700 Clouds -16 1020 59 8000 1 0 07:19 16.01.2020
701 Clouds -17 1021 54 6000 1 0 06:42 16.01.2020
702 Clouds -18 1022 59 6000 1.03 158 05:59 16.01.2020
703 Clouds -19 1022 64 6000 1 0 05:40 16.01.2020
704 Clouds -22 1022 76 6000 1.34 112 04:37 16.01.2020
705 Clouds -22 1022 76 6000 1.34 112 04:37 16.01.2020
706 Clouds -26 1023 75 6000 1.34 112 03:28 16.01.2020
707 Clouds -29 1023 68 6000 1 0 02:42 16.01.2020
708 Clouds -30 1022 67 6000 1.3 104 00:54 16.01.2020
709 Clouds -29 1022 68 6000 1 0 00:24 16.01.2020
710 Clouds -30 1022 67 6000 1.3 104 23:50 15.01.2020
711 Clouds -30 1022 67 6000 1.3 104 23:50 15.01.2020
712 Clouds -29 1023 68 6000 1 0 23:23 15.01.2020
713 Clouds -29 1023 75 8000 1 0 22:58 15.01.2020
714 Clouds -30 1023 67 8000 1 0 22:40 15.01.2020
715 Clouds -30 1023 67 8000 1 0 22:19 15.01.2020
716 Clouds -29 1024 75 8000 1.4 106 21:58 15.01.2020
717 Clouds -29 1024 75 8000 1.4 106 21:40 15.01.2020
718 Clouds -29 1024 75 8000 1.4 106 21:21 15.01.2020
719 Clouds -29 1024 68 8000 1 0 20:58 15.01.2020
720 Clouds -29 1024 68 8000 1 0 20:58 15.01.2020
721 Clouds -29 1024 68 8000 1 0 20:58 15.01.2020
722 Clouds -29 1024 68 8000 1 0 20:40 15.01.2020
723 Clouds -29 1024 68 8000 1 0 20:21 15.01.2020
724 Clouds -29 1024 75 8000 1 0 19:55 15.01.2020
725 Clouds -29 1024 75 8000 1 0 19:37 15.01.2020
726 Clouds -29 1024 75 8000 1 0 19:19 15.01.2020
727 Clouds -28 1025 75 10000 1 0 18:57 15.01.2020
728 Clouds -28 1025 75 10000 1 0 18:38 15.01.2020
729 Clouds -28 1025 75 10000 1 0 18:20 15.01.2020
730 Clouds -28 1025 75 10000 1.24 106 17:58 15.01.2020
731 Clouds -28 1025 75 10000 1.24 106 17:39 15.01.2020
732 Clouds -28 1025 75 10000 0.96 118 17:20 15.01.2020
733 Clouds -28 1025 68 10000 0.96 118 16:42 15.01.2020
734 Clouds -28 1025 68 10000 0.96 118 16:23 15.01.2020
735 Clouds -27 1025 68 10000 1 0 15:59 15.01.2020
736 Clouds -27 1025 68 10000 2 0 15:41 15.01.2020
737 Clouds -27 1025 68 10000 2 0 15:20 15.01.2020
738 Clouds -27 1025 75 10000 1 0 14:44 15.01.2020
739 Clear -28 1025 75 10000 1 0 14:21 15.01.2020
740 Clear -27 1026 75 10000 1 0 13:56 15.01.2020
741 Clear -26 1026 75 10000 1 0 13:38 15.01.2020
742 Clear -26 1026 75 10000 1 0 13:20 15.01.2020
743 Clear -26 1026 68 10000 2 180 12:55 15.01.2020
744 Clear -26 1025 68 10000 2 0 12:36 15.01.2020
745 Clear -26 1025 68 10000 2 0 12:18 15.01.2020
746 Clear -25 1025 75 10000 1 0 11:38 15.01.2020
747 Clear -25 1025 75 10000 1 0 11:20 15.01.2020
748 Clear -20 1025 64 10000 1 0 10:47 15.01.2020
749 Clear -17 1025 59 10000 1 0 10:28 15.01.2020
750 Clear -17 1025 64 10000 2 270 09:58 15.01.2020
751 Clear -15 1024 60 8000 1 0 09:39 15.01.2020
752 Clear -15 1024 60 8000 1 0 09:19 15.01.2020
753 Clear -16 1024 59 6000 2 290 08:44 15.01.2020
754 Clear -16 1024 59 6000 1 0 08:24 15.01.2020
755 Smoke -16 1024 59 5000 1 0 07:54 15.01.2020
756 Smoke -16 1024 54 5000 1 0 07:33 15.01.2020
757 Smoke -17 1025 54 4000 1.65 257 06:52 15.01.2020
758 Smoke -18 1025 59 4000 1 0 06:28 15.01.2020
759 Smoke -22 1025 69 4000 0.91 273 04:56 15.01.2020
760 Smoke -29 1024 75 4000 1 0 02:48 15.01.2020
761 Smoke -29 1023 68 5000 1 0 01:48 15.01.2020
762 Clouds -30 1023 74 6000 1 333 01:21 15.01.2020
763 Clouds -30 1022 74 6000 1 0 00:37 15.01.2020
764 Clouds -30 1022 74 6000 1 0 00:19 15.01.2020
765 Clouds -28 1022 75 6000 1 0 23:46 14.01.2020
766 Clouds -29 1022 75 6000 1 0 23:24 14.01.2020
767 Clouds -28 1022 75 6000 2 160 22:57 14.01.2020
768 Clouds -28 1021 75 6000 2 110 22:38 14.01.2020
769 Clouds -28 1021 75 6000 2 110 22:18 14.01.2020
770 Clouds -28 1021 75 6000 2 110 21:55 14.01.2020
771 Clouds -28 1021 75 6000 1 0 21:37 14.01.2020
772 Clouds -28 1021 75 6000 1 0 21:19 14.01.2020
773 Clouds -19 1032 74 0 0.6 308 20:42 14.01.2020
774 Clouds -19 1032 74 0 0.6 308 20:42 14.01.2020
775 Clouds -24 1021 76 6000 1 0 20:22 14.01.2020
776 Clouds -24 1021 76 6000 1 0 19:57 14.01.2020
777 Clouds -24 1021 76 6000 1 0 19:38 14.01.2020
778 Clouds -24 1021 76 6000 1 0 19:20 14.01.2020
779 Clouds -26 1021 75 6000 1 0 18:59 14.01.2020
780 Clouds -17 1031 67 0 0.34 264 18:40 14.01.2020
781 Clouds -25 1021 75 6000 0.34 264 18:19 14.01.2020
782 Clouds -25 1021 75 6000 0.34 264 18:19 14.01.2020
783 Clouds -25 1021 75 6000 0.34 264 17:39 14.01.2020
784 Clouds -25 1021 75 6000 0.71 226 17:19 14.01.2020
785 Clouds -25 1021 69 6000 0.71 226 16:59 14.01.2020
786 Clouds -26 1020 68 6000 1 0 16:41 14.01.2020
787 Clouds -26 1020 68 6000 1 0 16:21 14.01.2020
788 Clouds -26 1020 75 8000 1 0 15:55 14.01.2020
789 Clouds -27 1020 75 8000 2 160 15:37 14.01.2020
790 Clouds -27 1020 75 8000 2 160 15:18 14.01.2020
791 Clouds -24 1020 69 8000 0.71 226 14:43 14.01.2020
792 Clouds -26 1020 75 8000 1 0 14:20 14.01.2020
793 Clouds -26 1020 75 8000 0.22 116 13:43 14.01.2020
794 Clouds -25 1019 75 8000 0.22 116 13:20 14.01.2020
795 Clouds -26 1019 68 10000 2 160 12:59 14.01.2020
796 Clouds -26 1019 75 10000 2 0 12:40 14.01.2020
797 Clouds -26 1019 75 10000 2 0 12:20 14.01.2020
798 Clouds -26 1019 75 10000 2 0 12:20 14.01.2020
799 Clouds -21 1018 70 10000 1 0 11:43 14.01.2020
800 Clouds -21 1018 70 10000 1 0 11:23 14.01.2020
801 Clear -21 1017 70 10000 1 0 10:58 14.01.2020
802 Clear -19 1017 70 10000 1 0 10:39 14.01.2020
803 Clear -19 1017 70 10000 1 0 10:19 14.01.2020
804 Clear -17 1017 64 8000 0.75 267 09:57 14.01.2020
805 Clear -15 1017 60 8000 1 0 09:39 14.01.2020
806 Clear -15 1017 60 8000 1 0 09:20 14.01.2020
807 Clear -16 1016 59 8000 1 0 08:44 14.01.2020
808 Clear -17 1016 64 6000 1 0 08:23 14.01.2020
809 Clear -18 1016 64 6000 1 0 07:53 14.01.2020
810 Smoke -19 1017 64 5000 1 0 07:31 14.01.2020
811 Smoke -18 1017 59 5000 1 0 06:50 14.01.2020
812 Smoke -19 1017 64 5000 1 0 06:23 14.01.2020
813 Smoke -22 1017 69 4000 1 0 05:21 14.01.2020
814 Smoke -26 1018 68 4000 1 0 03:51 14.01.2020
815 Smoke -31 1017 67 5000 0.82 286 02:42 14.01.2020
816 Clear -32 1016 67 6000 1 0 01:35 14.01.2020
817 Clear -32 1016 67 6000 1 0 00:49 14.01.2020
818 Clear -32 1016 67 6000 1 0 00:28 14.01.2020
819 Clear -29 1016 75 6000 1 0 23:48 13.01.2020
820 Clear -31 1016 67 6000 2 180 23:20 13.01.2020
821 Clear -31 1016 67 6000 0.52 142 23:00 13.01.2020
822 Clear -31 1016 67 6000 1 0 22:40 13.01.2020
823 Clear -31 1016 67 6000 1 0 22:20 13.01.2020
824 Clear -31 1016 67 6000 1 0 21:56 13.01.2020
825 Clear -31 1016 67 6000 1 0 21:37 13.01.2020
826 Clear -31 1016 67 6000 1 0 21:18 13.01.2020
827 Clear -31 1016 67 6000 0.52 142 20:57 13.01.2020
828 Clear -31 1016 67 6000 0.52 142 20:57 13.01.2020
829 Clear -31 1016 67 6000 0.52 142 20:38 13.01.2020
830 Clear -31 1016 67 6000 0.74 101 20:20 13.01.2020
831 Clear -28 1016 68 6000 0.74 101 19:57 13.01.2020
832 Clear -28 1016 68 6000 0.74 101 19:38 13.01.2020
833 Clear -28 1016 68 6000 0.74 101 19:18 13.01.2020
834 Clear -31 1016 74 6000 1 0 18:56 13.01.2020
835 Clear -31 1016 74 6000 1 0 18:56 13.01.2020
836 Clear -31 1016 74 6000 1 0 18:37 13.01.2020
837 Clear -31 1016 74 6000 1 0 18:18 13.01.2020
838 Clear -29 1017 75 6000 1 0 17:40 13.01.2020
839 Clear -29 1017 75 6000 1 0 17:40 13.01.2020
840 Clear -29 1017 75 6000 1 0 17:22 13.01.2020
841 Clear -29 1017 75 6000 1 0 16:56 13.01.2020
842 Clear -20 1030 76 0 1.28 104 16:37 13.01.2020
843 Clear -20 1030 76 0 1.28 104 16:19 13.01.2020
844 Clear -20 1030 76 0 1.28 104 15:43 13.01.2020
845 Clear -20 1030 76 0 1.28 104 15:23 13.01.2020
846 Clear -20 1030 76 0 1.28 104 14:57 13.01.2020
847 Clear -20 1030 76 0 1.28 104 14:37 13.01.2020
848 Clear -19 1029 77 0 1.19 115 14:18 13.01.2020
849 Clear -19 1029 77 0 1.19 115 13:41 13.01.2020
850 Clear -19 1029 77 0 1.19 115 13:23 13.01.2020
851 Clear -27 1016 68 6000 1 0 12:58 13.01.2020
852 Clear -27 1016 68 6000 1 0 12:40 13.01.2020
853 Clear -27 1016 68 6000 1 0 12:22 13.01.2020
854 Clear -27 1016 68 6000 1 0 11:57 13.01.2020
855 Clear -27 1016 75 6000 1 0 11:37 13.01.2020
856 Clear -27 1016 75 6000 1 0 11:18 13.01.2020
857 Clear -24 1016 69 6000 1 0 10:55 13.01.2020
858 Clear -24 1016 69 6000 1 0 10:36 13.01.2020
859 Clear -24 1016 69 6000 1 0 10:18 13.01.2020
860 Clear -17 1017 54 6000 1 0 09:42 13.01.2020
861 Clear -17 1017 54 6000 1 0 09:23 13.01.2020
862 Clear -18 1017 59 6000 1 0 08:44 13.01.2020
863 Clear -18 1017 59 6000 1 0 08:22 13.01.2020
864 Clear -18 1017 59 6000 1 0 07:59 13.01.2020
865 Clear -18 1017 59 6000 0.74 154 07:41 13.01.2020
866 Clear -18 1017 59 6000 0.74 154 07:19 13.01.2020
867 Smoke -20 1017 70 5000 0.74 154 06:37 13.01.2020
868 Smoke -20 1017 70 5000 0.74 154 06:37 13.01.2020
869 Smoke -23 1018 76 4000 1 0 05:36 13.01.2020
870 Smoke -26 1019 75 4000 0.97 126 04:26 13.01.2020
871 Smoke -29 1019 68 4000 0.97 126 03:35 13.01.2020
872 Smoke -32 1019 67 4000 1 0 02:49 13.01.2020
873 Smoke -31 1019 67 4000 0.97 126 02:30 13.01.2020
874 Smoke -31 1019 67 4000 0.97 126 02:30 13.01.2020
875 Smoke -32 1019 67 4000 0.83 114 01:33 13.01.2020
876 Smoke -32 1018 67 5000 0.8 116 00:44 13.01.2020
877 Smoke -34 1018 66 5000 1 0 00:25 13.01.2020
878 Smoke -31 1018 67 5000 0.8 116 23:57 12.01.2020
879 Smoke -32 1018 67 5000 1 0 23:38 12.01.2020
880 Smoke -32 1018 67 5000 1 0 23:20 12.01.2020
881 Smoke -32 1019 67 5000 1 0 22:43 12.01.2020
882 Smoke -32 1019 67 5000 1 0 22:24 12.01.2020
883 Smoke -33 1019 67 5000 0.37 119 21:59 12.01.2020
884 Smoke -33 1019 67 5000 0.37 119 21:59 12.01.2020
885 Smoke -33 1019 67 5000 0.37 119 21:40 12.01.2020
886 Smoke -33 1019 67 5000 0.37 119 21:20 12.01.2020
887 Smoke -30 1019 67 5000 0.37 119 20:58 12.01.2020
888 Smoke -30 1019 67 5000 0.37 119 20:39 12.01.2020
889 Smoke -30 1019 67 5000 0.38 91 20:21 12.01.2020
890 Clear -30 1019 74 6000 1 0 19:56 12.01.2020
891 Clear -30 1019 74 6000 1 0 19:56 12.01.2020
892 Clear -30 1019 74 6000 1 0 19:38 12.01.2020
893 Clear -30 1019 74 6000 1 0 19:19 12.01.2020
894 Clear -30 1020 67 6000 0.23 101 18:58 12.01.2020
895 Clear -30 1020 67 6000 0.23 101 18:58 12.01.2020
896 Clear -30 1020 67 6000 0.23 101 18:40 12.01.2020
897 Clear -30 1020 67 6000 0.23 101 18:40 12.01.2020
898 Clear -30 1020 67 6000 0.23 101 18:21 12.01.2020
899 Clear -29 1020 68 6000 0.23 101 17:58 12.01.2020
900 Clear -29 1020 68 6000 0.23 101 17:38 12.01.2020
901 Clear -29 1020 68 6000 0.39 235 17:19 12.01.2020
902 Clouds -25 1020 69 6000 1 0 16:55 12.01.2020
903 Clouds -26 1020 68 6000 1 0 16:37 12.01.2020
904 Clouds -26 1020 68 6000 1 0 16:19 12.01.2020
905 Clouds -30 1020 67 6000 1 0 15:42 12.01.2020
906 Clouds -30 1020 67 6000 1 0 15:24 12.01.2020
907 Clear -30 1020 67 8000 2 170 14:57 12.01.2020
908 Clear -30 1020 67 8000 1 0 14:38 12.01.2020
909 Clear -30 1020 67 8000 1 0 14:19 12.01.2020
910 Clear -31 1021 74 8000 1 0 13:44 12.01.2020
911 Clear -30 1021 74 8000 1 0 13:25 12.01.2020
912 Clear -29 1021 75 8000 2 170 12:59 12.01.2020
913 Clear -28 1020 75 8000 2 150 12:39 12.01.2020
914 Clear -28 1020 75 8000 2 150 12:20 12.01.2020
915 Clear -28 1020 75 8000 2 150 11:58 12.01.2020
916 Clear -27 1020 68 8000 1 0 11:39 12.01.2020
917 Clear -27 1020 68 8000 1 0 11:20 12.01.2020
918 Clear -21 1020 70 6000 0.71 266 10:41 12.01.2020
919 Clear -21 1020 70 6000 0.71 266 10:22 12.01.2020
920 Smoke -18 1020 64 5000 0.71 266 09:57 12.01.2020
921 Smoke -19 1020 70 5000 1 0 09:38 12.01.2020
922 Smoke -19 1020 70 5000 1 0 09:19 12.01.2020
923 Smoke -19 1020 70 5000 2 270 08:45 12.01.2020
924 Smoke -19 1020 70 5000 1 0 08:20 12.01.2020
925 Smoke -20 1021 70 5000 1 0 07:41 12.01.2020
926 Smoke -20 1021 70 5000 1 0 07:23 12.01.2020
927 Smoke -20 1021 70 5000 1 0 06:48 12.01.2020
928 Smoke -22 1022 76 5000 1.49 257 06:29 12.01.2020
929 Smoke -24 1023 76 3600 1.49 257 05:32 12.01.2020
930 Smoke -24 1023 69 3600 0.94 267 04:27 12.01.2020
931 Smoke -30 1023 67 4000 1 0 03:23 12.01.2020
932 Smoke -33 1023 67 4000 1 0 02:33 12.01.2020
933 Smoke -31 1023 67 5000 0.67 302 01:44 12.01.2020
934 Smoke -32 1023 67 5000 1 0 01:22 12.01.2020
935 Clouds -31 1023 67 6000 1 0 00:41 12.01.2020
936 Clouds -31 1023 67 6000 1 0 00:20 12.01.2020
937 Clouds -31 1023 67 6000 1 0 23:42 11.01.2020
938 Clouds -31 1023 67 6000 1 0 23:20 11.01.2020
939 Clouds -30 1023 67 6000 1 0 22:58 11.01.2020
940 Clouds -30 1023 67 6000 1 0 22:58 11.01.2020
941 Clear -28 1023 75 6000 1 0 22:40 11.01.2020
942 Clear -28 1023 75 6000 1 0 22:20 11.01.2020
943 Clear -27 1023 75 6000 0.79 303 21:58 11.01.2020
944 Clear -27 1023 75 6000 0.79 303 21:40 11.01.2020
945 Clear -27 1023 75 6000 0.79 303 21:40 11.01.2020
946 Clear -27 1023 75 6000 0.79 303 21:18 11.01.2020
947 Clear -26 1023 75 6000 1 0 20:40 11.01.2020
948 Clear -26 1023 75 6000 1 0 20:22 11.01.2020
949 Clear -31 1024 67 6000 1 0 19:58 11.01.2020
950 Clear -31 1024 67 6000 1 0 19:39 11.01.2020
951 Clear -31 1024 67 6000 1 0 19:21 11.01.2020
952 Clear -31 1023 74 6000 1 0 18:58 11.01.2020
953 Clear -31 1023 74 6000 1 0 18:38 11.01.2020
954 Clear -31 1023 74 6000 1 0 18:20 11.01.2020
955 Clear -31 1024 67 8000 1 0 17:57 11.01.2020
956 Clear -31 1024 67 8000 0.7 280 17:39 11.01.2020
957 Clear -31 1024 67 8000 0.49 291 17:19 11.01.2020
958 Clear -29 1024 68 8000 1 0 16:45 11.01.2020
959 Clear -30 1024 74 8000 1 0 16:27 11.01.2020
960 Clear -30 1024 74 8000 2 170 15:59 11.01.2020
961 Clear -30 1024 74 8000 2 170 15:40 11.01.2020
962 Clear -30 1024 74 8000 2 170 15:22 11.01.2020
963 Clear -27 1024 68 8000 1 0 14:57 11.01.2020
964 Clear -28 1024 68 8000 1 0 14:38 11.01.2020
965 Clouds -28 1024 68 8000 1 0 14:20 11.01.2020
966 Clouds -25 1023 69 8000 1 0 13:39 11.01.2020
967 Clouds -25 1023 69 8000 1 0 13:20 11.01.2020
968 Clouds -26 1023 83 8000 0.46 312 12:58 11.01.2020
969 Clouds -26 1023 75 8000 1 0 12:39 11.01.2020
970 Clouds -26 1023 75 8000 1 0 12:21 11.01.2020
971 Clouds -24 1023 76 8000 0.46 312 11:47 11.01.2020
972 Clouds -24 1023 76 8000 1 0 11:26 11.01.2020
973 Clouds -23 1022 69 8000 1 0 10:50 11.01.2020
974 Clouds -21 1022 70 8000 1 0 10:30 11.01.2020
975 Clouds -16 1022 59 8000 0.94 289 09:57 11.01.2020
976 Clouds -16 1022 59 8000 1 0 09:37 11.01.2020
977 Clouds -16 1022 59 8000 1 0 09:19 11.01.2020
978 Clouds -17 1022 64 8000 2 0 08:41 11.01.2020
979 Clouds -17 1022 64 8000 2 0 08:21 11.01.2020
980 Clouds -17 1021 64 8000 1 0 07:44 11.01.2020
981 Clouds -17 1022 59 8000 1 0 07:25 11.01.2020
982 Clouds -18 1022 64 6000 1 0 06:48 11.01.2020
983 Smoke -21 1023 76 5000 1 0 05:34 11.01.2020
984 Smoke -22 1023 83 5000 1 0 04:46 11.01.2020
985 Clouds -23 1023 76 6000 0.07 192 04:27 11.01.2020
986 Clouds -27 1023 75 8000 0.07 192 02:49 11.01.2020
987 Clouds -27 1022 75 8000 0.74 71 01:57 11.01.2020
988 Clouds -27 1022 68 8000 0.74 71 01:38 11.01.2020
989 Clouds -27 1022 68 8000 0.74 71 01:18 11.01.2020
990 Clouds -28 1022 75 8000 1 0 00:32 11.01.2020
991 Clouds -28 1022 68 10000 1 0 23:59 10.01.2020
992 Clouds -28 1022 75 10000 1 0 23:39 10.01.2020
993 Clouds -28 1022 75 10000 1 0 23:21 10.01.2020
994 Clouds -27 1022 75 10000 1 0 22:55 10.01.2020
995 Clouds -27 1022 75 10000 0.81 84 22:37 10.01.2020
996 Clouds -27 1022 75 10000 0.81 84 22:18 10.01.2020
997 Clouds -28 1023 68 10000 1 0 21:55 10.01.2020
998 Clouds -28 1023 68 10000 1 0 21:36 10.01.2020
999 Clouds -28 1023 68 10000 1 0 21:18 10.01.2020
1000 Clouds -19 1035 81 0 0.81 84 20:42 10.01.2020
1001 Clouds -27 1023 68 10000 1 0 20:24 10.01.2020
1002 Clouds -27 1023 68 10000 1 0 19:54 10.01.2020
1003 Clouds -27 1023 68 10000 1 0 19:36 10.01.2020
1004 Clouds -27 1023 68 10000 1 0 19:18 10.01.2020
1005 Clouds -27 1024 75 10000 1 0 18:41 10.01.2020
1006 Clouds -27 1024 75 10000 1 0 18:19 10.01.2020
1007 Clouds -28 1024 68 10000 1 0 17:57 10.01.2020
1008 Clouds -28 1024 68 10000 1 0 17:38 10.01.2020
1009 Clouds -28 1024 68 10000 1 0 17:20 10.01.2020
1010 Clouds -28 1024 68 10000 1 0 17:20 10.01.2020
1011 Clouds -28 1024 68 10000 1 0 16:55 10.01.2020
1012 Clouds -26 1024 68 10000 1 0 16:37 10.01.2020
1013 Clouds -26 1024 68 10000 1 0 16:19 10.01.2020
1014 Clouds -28 1024 75 10000 2 0 15:55 10.01.2020
1015 Clouds -27 1024 75 10000 2 0 15:36 10.01.2020
1016 Clouds -27 1024 75 10000 2 0 15:18 10.01.2020
1017 Clouds -25 1025 69 10000 2 90 14:42 10.01.2020
1018 Clear -25 1025 69 10000 2 90 14:20 10.01.2020
1019 Clear -23 1025 76 10000 1 0 13:59 10.01.2020
1020 Clear -22 1025 76 10000 1 0 13:41 10.01.2020
1021 Clear -22 1025 76 10000 1 0 13:23 10.01.2020
1022 Clear -22 1025 76 10000 2 180 12:58 10.01.2020
1023 Clear -23 1025 76 10000 0.65 2 12:38 10.01.2020
1024 Clear -23 1025 76 10000 0.65 2 12:19 10.01.2020
1025 Clear -22 1024 76 10000 1 0 11:55 10.01.2020
1026 Clear -22 1024 76 10000 0.65 2 11:37 10.01.2020
1027 Clear -22 1024 76 10000 1.21 313 11:18 10.01.2020
1028 Clear -20 1024 70 10000 2 180 10:42 10.01.2020
1029 Clear -20 1024 70 10000 2 180 10:24 10.01.2020
1030 Clear -18 1024 64 10000 3 180 09:56 10.01.2020
1031 Clear -18 1024 64 10000 3 180 09:56 10.01.2020
1032 Clear -17 1024 64 10000 3 170 09:37 10.01.2020
1033 Clear -17 1024 64 10000 3 170 09:19 10.01.2020
1034 Clear -15 1024 65 10000 1 0 08:41 10.01.2020
1035 Clear -15 1024 65 10000 1 0 08:23 10.01.2020
1036 Clouds -15 1024 65 10000 1 0 07:45 10.01.2020
1037 Clouds -15 1024 65 10000 1 0 07:26 10.01.2020
1038 Clouds -16 1024 71 10000 1 0 06:46 10.01.2020
1039 Clouds -18 1024 84 10000 1 0 06:26 10.01.2020
1040 Clouds -19 1025 77 10000 2 0 05:51 10.01.2020
1041 Clouds -26 1025 75 8000 1.66 288 03:37 10.01.2020
1042 Clouds -26 1025 75 8000 1.66 288 03:18 10.01.2020
1043 Clouds -26 1025 68 10000 1 0 02:47 10.01.2020
1044 Clouds -30 1024 74 10000 1.63 309 01:44 10.01.2020
1045 Clouds -29 1024 75 10000 1 0 01:26 10.01.2020
1046 Clouds -29 1024 75 10000 1 0 00:40 10.01.2020
1047 Clouds -24 1024 76 10000 1.7 303 23:58 09.01.2020
1048 Clouds -23 1024 76 10000 1.7 303 23:39 09.01.2020
1049 Clouds -23 1024 76 10000 1.76 305 23:20 09.01.2020
1050 Clouds -23 1024 83 10000 1 0 22:57 09.01.2020
1051 Clouds -22 1024 76 10000 1 0 22:39 09.01.2020
1052 Clouds -22 1024 76 10000 1 0 22:19 09.01.2020
1053 Clouds -22 1024 76 10000 1.76 305 21:57 09.01.2020
1054 Clouds -23 1024 76 10000 1 0 21:37 09.01.2020
1055 Clouds -23 1024 76 10000 1 0 21:19 09.01.2020
1056 Clouds -23 1024 76 10000 1 0 20:57 09.01.2020
1057 Clouds -23 1024 76 10000 1 0 20:39 09.01.2020
1058 Clouds -21 1024 76 10000 1 0 20:19 09.01.2020
1059 Clouds -21 1024 76 10000 1.84 315 19:57 09.01.2020
1060 Clouds -21 1024 76 10000 1 0 19:37 09.01.2020
1061 Clouds -21 1024 76 10000 1 0 19:19 09.01.2020
1062 Clouds -22 1024 76 10000 1 0 18:55 09.01.2020
1063 Clouds -21 1024 76 10000 1 0 18:36 09.01.2020
1064 Clouds -21 1024 76 10000 1 0 18:18 09.01.2020
1065 Clouds -23 1023 76 10000 2 0 17:41 09.01.2020
1066 Clouds -23 1023 76 10000 2 0 17:18 09.01.2020
1067 Clouds -24 1023 76 10000 3 160 16:49 09.01.2020
1068 Clouds -23 1023 76 10000 3 170 16:24 09.01.2020
1069 Clouds -27 1023 75 10000 1 0 15:59 09.01.2020
1070 Clouds -27 1023 75 10000 2 160 15:40 09.01.2020
1071 Clouds -27 1023 75 10000 2 160 15:19 09.01.2020
1072 Clouds -27 1022 75 10000 1 0 14:42 09.01.2020
1073 Clear -22 1022 83 10000 1.98 331 14:22 09.01.2020
1074 Clear -25 1022 75 10000 1 0 13:57 09.01.2020
1075 Clear -25 1022 75 10000 2 170 13:39 09.01.2020
1076 Clouds -25 1022 75 10000 2 170 13:20 09.01.2020
1077 Clouds -24 1022 76 10000 2 180 12:58 09.01.2020
1078 Clouds -23 1021 76 10000 2 180 12:39 09.01.2020
1079 Clouds -23 1021 76 10000 2 180 12:19 09.01.2020
1080 Clouds -22 1021 76 10000 3 170 11:56 09.01.2020
1081 Clouds -21 1021 76 10000 3 170 11:37 09.01.2020
1082 Clouds -21 1021 76 10000 3 170 11:19 09.01.2020
1083 Clouds -19 1020 77 10000 3 160 10:43 09.01.2020
1084 Clouds -19 1020 77 10000 3 160 10:22 09.01.2020
1085 Clouds -18 1020 70 10000 2 0 09:55 09.01.2020
1086 Clouds -17 1020 70 10000 2 0 09:37 09.01.2020
1087 Clouds -17 1020 70 10000 2 0 09:18 09.01.2020
1088 Clouds -17 1020 70 10000 3 170 08:54 09.01.2020
1089 Clouds -16 1020 71 10000 3 230 08:36 09.01.2020
1090 Clouds -16 1020 71 10000 3 230 08:18 09.01.2020
1091 Clouds -17 1019 70 10000 4 170 07:41 09.01.2020
1092 Clouds -16 1019 71 10000 2 0 07:23 09.01.2020
1093 Clouds -16 1020 71 10000 3 240 06:38 09.01.2020
1094 Clouds -16 1020 71 10000 3 240 06:18 09.01.2020
1095 Clouds -17 1020 77 10000 3 250 05:43 09.01.2020
1096 Smoke -17 1020 84 5000 2 0 04:42 09.01.2020
1097 Smoke -21 1020 76 5000 1 0 03:30 09.01.2020
1098 Smoke -21 1020 76 5000 1 0 03:30 09.01.2020
1099 Snow -21 1020 83 3000 1 0 02:48 09.01.2020
1100 Snow -21 1020 76 3000 1 0 02:23 09.01.2020
1101 Snow -20 1019 76 4000 1 0 01:35 09.01.2020
1102 Snow -19 1019 84 4000 1.33 323 00:42 09.01.2020
1103 Smoke -19 1019 84 5000 1.33 323 00:20 09.01.2020
1104 Smoke -19 1019 77 5000 1.33 323 23:41 08.01.2020
1105 Smoke -19 1019 77 5000 1.33 323 23:23 08.01.2020
1106 Smoke -19 1019 77 5000 0.52 324 22:58 08.01.2020
1107 Smoke -19 1019 77 5000 1 0 22:38 08.01.2020
1108 Smoke -19 1019 77 5000 1 0 22:20 08.01.2020
1109 Smoke -19 1020 77 5000 0.52 324 21:56 08.01.2020
1110 Smoke -19 1020 77 5000 0.52 324 21:56 08.01.2020
1111 Smoke -19 1020 77 5000 0.52 324 21:38 08.01.2020
1112 Smoke -19 1020 77 5000 0.52 324 21:18 08.01.2020
1113 Smoke -20 1020 83 5000 0.52 324 20:57 08.01.2020
1114 Smoke -20 1020 83 5000 0.52 324 20:38 08.01.2020
1115 Smoke -20 1020 83 5000 0.69 119 20:19 08.01.2020
1116 Clouds -21 1020 76 6000 1 0 19:55 08.01.2020
1117 Clouds -21 1020 76 6000 1 0 19:55 08.01.2020
1118 Clouds -21 1020 76 6000 1 0 19:36 08.01.2020
1119 Clouds -21 1020 76 6000 1 0 19:18 08.01.2020
1120 Clouds -23 1020 76 6000 1 0 18:54 08.01.2020
1121 Clouds -23 1020 76 6000 1 0 18:54 08.01.2020
1122 Clouds -23 1020 76 6000 1 0 18:36 08.01.2020
1123 Clouds -23 1020 76 6000 1 0 18:18 08.01.2020
1124 Clouds -23 1020 76 6000 1 0 18:18 08.01.2020
1125 Clouds -24 1020 76 6000 1 0 17:42 08.01.2020
1126 Clouds -24 1020 76 6000 1 0 17:23 08.01.2020
1127 Clouds -26 1020 75 6000 2 0 16:57 08.01.2020
1128 Clouds -24 1020 76 6000 1 0 16:39 08.01.2020
1129 Clouds -24 1020 76 6000 1 0 16:19 08.01.2020
1130 Clouds -24 1020 76 6000 1 0 16:19 08.01.2020
1131 Clouds -24 1020 76 6000 1 0 15:56 08.01.2020
1132 Clouds -24 1020 76 6000 1 0 15:38 08.01.2020
1133 Clouds -24 1020 76 6000 1 0 15:18 08.01.2020
1134 Clouds -24 1020 76 8000 1 0 14:41 08.01.2020
1135 Clouds -24 1020 76 8000 1 0 14:21 08.01.2020
1136 Clouds -23 1020 76 8000 1.34 108 13:56 08.01.2020
1137 Clouds -25 1020 75 8000 1 0 13:37 08.01.2020
1138 Clouds -25 1020 75 8000 1 0 13:18 08.01.2020
1139 Clouds -20 1019 76 8000 1 0 12:40 08.01.2020
1140 Clouds -20 1019 76 8000 1 0 12:18 08.01.2020
1141 Clouds -21 1019 76 8000 1 0 11:49 08.01.2020
1142 Clouds -23 1019 76 8000 1 0 11:20 08.01.2020
1143 Clouds -22 1019 76 8000 2 150 10:59 08.01.2020
1144 Clouds -22 1019 76 8000 2 150 10:41 08.01.2020
1145 Clouds -19 1019 70 8000 1 0 10:22 08.01.2020
1146 Clouds -16 1019 65 8000 1 0 09:58 08.01.2020
1147 Clouds -14 1019 60 8000 1 0 09:38 08.01.2020
1148 Clouds -14 1019 60 8000 1 0 09:18 08.01.2020
1149 Clouds -14 1019 60 8000 1 0 08:42 08.01.2020
1150 Clouds -14 1019 60 8000 1 0 08:23 08.01.2020
1151 Clear -14 1019 60 6000 1 0 07:59 08.01.2020
1152 Clear -14 1019 60 6000 1 0 07:41 08.01.2020
1153 Smoke -15 1020 65 5000 1 0 07:20 08.01.2020
1154 Smoke -15 1020 71 5000 1 0 06:42 08.01.2020
1155 Smoke -18 1021 77 5000 1.38 125 05:57 08.01.2020
1156 Smoke -19 1021 77 5000 1 0 05:27 08.01.2020
1157 Clear -22 1022 76 5000 1.66 110 04:37 08.01.2020
1158 Clear -29 1022 75 6000 1 0 02:48 08.01.2020
1159 Clear -29 1022 68 6000 1.66 110 02:30 08.01.2020
1160 Clear -30 1022 67 6000 1 0 01:58 08.01.2020
1161 Clear -28 1022 68 6000 1.65 104 01:32 08.01.2020
1162 Clear -30 1022 74 6000 1.65 104 00:51 08.01.2020
1163 Clear -30 1022 74 6000 1 0 00:23 08.01.2020
1164 Clear -30 1022 74 6000 1 0 23:46 07.01.2020
1165 Clear -30 1022 67 0 1 0 23:21 07.01.2020
1166 Clear -30 1022 67 0 1 0 23:21 07.01.2020
1167 Clear -30 1022 67 6000 1 0 22:57 07.01.2020
1168 Clear -30 1023 74 6000 1 0 22:38 07.01.2020
1169 Clear -30 1023 74 6000 1 0 22:19 07.01.2020
1170 Clear -29 1023 75 6000 1.62 103 21:42 07.01.2020
1171 Clear -29 1023 75 6000 1.62 103 21:22 07.01.2020
1172 Clear -30 1023 74 6000 1 0 20:58 07.01.2020
1173 Clear -30 1023 74 6000 1 0 20:40 07.01.2020
1174 Clear -30 1023 74 6000 1 0 20:22 07.01.2020
1175 Clear -29 1024 75 6000 1.49 104 19:57 07.01.2020
1176 Clear -29 1024 75 6000 1.49 104 19:38 07.01.2020
1177 Clear -29 1024 75 6000 1.49 104 19:19 07.01.2020
1178 Smoke -28 1024 68 5000 1 0 18:56 07.01.2020
1179 Smoke -28 1024 68 5000 1 0 18:38 07.01.2020
1180 Smoke -28 1024 68 5000 1 0 18:18 07.01.2020
1181 Smoke -28 1024 68 5000 1 0 18:18 07.01.2020
1182 Smoke -28 1024 68 5000 1 0 18:18 07.01.2020
1183 Smoke -29 1024 75 5000 1 0 17:55 07.01.2020
1184 Smoke -28 1024 75 5000 1.49 104 17:36 07.01.2020
1185 Smoke -28 1024 75 5000 1.25 113 17:18 07.01.2020
1186 Smoke -28 1025 68 5000 1 0 16:55 07.01.2020
1187 Clear -28 1025 68 6000 1 0 16:36 07.01.2020
1188 Clear -28 1025 68 6000 1 0 16:18 07.01.2020
1189 Clear -26 1025 75 6000 1.25 113 15:42 07.01.2020
1190 Clear -26 1025 68 6000 1 0 15:24 07.01.2020
1191 Clear -27 1025 75 6000 1 0 14:58 07.01.2020
1192 Clear -26 1025 68 6000 1 0 14:39 07.01.2020
1193 Clouds -26 1025 68 6000 1 0 14:20 07.01.2020
1194 Clouds -27 1025 75 6000 2 180 13:46 07.01.2020
1195 Clouds -26 1025 75 6000 1 0 13:21 07.01.2020
1196 Clouds -26 1025 75 8000 2 160 12:56 07.01.2020
1197 Clouds -25 1025 75 8000 2 150 12:37 07.01.2020
1198 Clouds -25 1025 75 8000 2 150 12:19 07.01.2020
1199 Clouds -23 1025 83 6000 2 160 11:41 07.01.2020
1200 Clouds -23 1025 83 6000 2 160 11:23 07.01.2020
1201 Clouds -22 1025 76 6000 3 170 10:57 07.01.2020
1202 Clouds -19 1025 70 6000 2 170 10:39 07.01.2020
1203 Clouds -19 1025 70 6000 2 170 10:20 07.01.2020
1204 Clouds -15 1025 71 6000 0.36 202 09:39 07.01.2020
1205 Clouds -15 1025 71 6000 0.36 202 09:21 07.01.2020
1206 Clouds -15 1025 77 6000 0.36 202 08:57 07.01.2020
1207 Clouds -16 1025 84 6000 1 0 08:37 07.01.2020
1208 Clear -16 1025 84 6000 1 0 08:18 07.01.2020
1209 Clouds -17 1025 84 6000 2 0 07:42 07.01.2020
1210 Smoke -17 1025 77 5000 1 0 07:18 07.01.2020
1211 Smoke -18 1026 84 3600 0.68 243 06:36 07.01.2020
1212 Smoke -20 1026 76 3600 1 0 05:59 07.01.2020
1213 Smoke -20 1026 76 3000 1 0 05:40 07.01.2020
1214 Mist -24 1027 76 3000 0.28 22 03:46 07.01.2020
1215 Mist -25 1027 75 3000 0.28 22 03:24 07.01.2020
1216 Smoke -27 1027 75 3600 0.17 74 02:18 07.01.2020
1217 Smoke -27 1026 68 5000 1 0 01:40 07.01.2020
1218 Smoke -27 1026 75 5000 0.13 50 00:57 07.01.2020
1219 Smoke -27 1026 75 5000 1 0 00:21 07.01.2020
1220 Clear -28 1026 75 6000 1 0 23:57 06.01.2020
1221 Clear -28 1026 75 6000 0.13 50 23:37 06.01.2020
1222 Clear -28 1026 75 6000 0.33 63 23:19 06.01.2020
1223 Clear -28 1026 75 6000 0.33 63 22:43 06.01.2020
1224 Clear -28 1026 75 6000 0.33 63 22:24 06.01.2020
1225 Clear -28 1027 75 6000 0.33 63 21:58 06.01.2020
1226 Clear -28 1027 75 6000 0.33 63 21:39 06.01.2020
1227 Clear -28 1027 75 6000 0.33 63 21:20 06.01.2020
1228 Clear -28 1027 75 6000 0.33 63 21:20 06.01.2020
1229 Clear -28 1027 75 6000 0.33 63 21:20 06.01.2020
1230 Clear -25 1027 75 6000 2 110 20:57 06.01.2020
1231 Clear -25 1027 75 6000 2 110 20:38 06.01.2020
1232 Clear -25 1027 75 6000 2 110 20:20 06.01.2020
1233 Clear -25 1027 75 6000 2 110 20:20 06.01.2020
1234 Clear -27 1027 75 6000 1 0 19:57 06.01.2020
1235 Clear -27 1027 75 6000 1 0 19:38 06.01.2020
1236 Clear -27 1027 75 6000 1 0 19:20 06.01.2020
1237 Clear -27 1027 68 6000 1 0 18:48 06.01.2020
1238 Clear -27 1027 68 6000 1 0 18:23 06.01.2020
1239 Clear -27 1027 75 6000 0.14 32 17:59 06.01.2020
1240 Clear -27 1027 75 6000 0.14 32 17:38 06.01.2020
1241 Clear -27 1027 75 6000 0.18 229 17:18 06.01.2020
1242 Clear -27 1028 75 6000 1 0 16:44 06.01.2020
1243 Clear -25 1028 75 6000 1 0 16:25 06.01.2020
1244 Clear -25 1027 75 8000 2 160 15:59 06.01.2020
1245 Clear -26 1027 75 8000 0.18 229 15:39 06.01.2020
1246 Clear -26 1027 75 8000 0.18 229 15:19 06.01.2020
1247 Clear -25 1027 75 8000 1 0 14:58 06.01.2020
1248 Clear -25 1027 75 8000 2 170 14:39 06.01.2020
1249 Clear -25 1027 75 8000 2 170 14:20 06.01.2020
1250 Clear -26 1027 75 8000 2 170 13:55 06.01.2020
1251 Clear -25 1027 83 8000 2 150 13:37 06.01.2020
1252 Clear -25 1027 83 8000 2 150 13:19 06.01.2020
1253 Clear -24 1027 83 8000 2 160 12:42 06.01.2020
1254 Clear -23 1027 76 8000 2 150 12:20 06.01.2020
1255 Clear -20 1027 76 8000 2 140 11:57 06.01.2020
1256 Clear -22 1027 76 6000 1 0 11:38 06.01.2020
1257 Clear -22 1027 76 6000 1 0 11:20 06.01.2020
1258 Clear -22 1027 76 6000 2 180 10:45 06.01.2020
1259 Clear -18 1027 70 6000 2 180 10:27 06.01.2020
1260 Clear -15 1027 71 6000 1 0 09:59 06.01.2020
1261 Clear -13 1027 65 6000 1 0 09:37 06.01.2020
1262 Clear -13 1027 65 6000 1 0 09:19 06.01.2020
1263 Clear -14 1026 71 6000 2 180 08:43 06.01.2020
1264 Clear -14 1026 71 6000 1 0 08:24 06.01.2020
1265 Smoke -14 1026 71 5000 1 0 07:48 06.01.2020
1266 Smoke -15 1026 77 5000 1 0 07:23 06.01.2020
1267 Smoke -15 1026 77 5000 1 0 06:45 06.01.2020
1268 Smoke -16 1027 77 5000 0.94 213 06:18 06.01.2020
1269 Smoke -18 1027 77 3600 0.94 213 05:40 06.01.2020
1270 Smoke -21 1027 83 4000 1 0 04:30 06.01.2020
1271 Smoke -22 1027 83 4000 1 0 03:58 06.01.2020
1272 Smoke -26 1026 75 5000 0.65 152 02:40 06.01.2020
1273 Smoke -26 1026 75 5000 0.05 238 02:21 06.01.2020
1274 Clear -26 1026 68 6000 1 0 01:41 06.01.2020
1275 Clear -27 1026 75 8000 1 0 01:20 06.01.2020
1276 Clear -27 1025 68 8000 1 0 00:40 06.01.2020
1277 Clear -27 1025 68 8000 1 0 00:19 06.01.2020
1278 Clear -27 1025 68 8000 1 0 00:19 06.01.2020
1279 Clear -23 1025 76 8000 0.11 283 23:41 05.01.2020
1280 Clear -23 1025 76 8000 0.63 307 23:21 05.01.2020
1281 Clear -26 1025 75 8000 0.63 307 22:55 05.01.2020
1282 Clear -23 1025 69 8000 1 0 22:37 05.01.2020
1283 Clear -23 1025 69 8000 1 0 22:18 05.01.2020
1284 Clear -23 1025 76 10000 2 140 21:41 05.01.2020
1285 Clear -23 1025 76 10000 2 140 21:21 05.01.2020
1286 Clear -22 1024 76 10000 1 0 20:59 05.01.2020
1287 Clear -22 1024 76 10000 1 0 20:40 05.01.2020
1288 Clouds -22 1024 76 10000 1 0 20:20 05.01.2020
1289 Clouds -22 1024 76 10000 1 0 20:20 05.01.2020
1290 Clouds -23 1024 76 10000 3 140 19:59 05.01.2020
1291 Clouds -23 1024 76 10000 3 140 19:41 05.01.2020
1292 Clouds -23 1024 76 10000 3 140 19:21 05.01.2020
1293 Clouds -24 1024 83 10000 2 170 18:56 05.01.2020
1294 Clouds -24 1024 83 10000 2 170 18:38 05.01.2020
1295 Clouds -24 1024 83 10000 2 170 18:19 05.01.2020
1296 Clouds -24 1024 76 10000 2 160 17:59 05.01.2020
1297 Clouds -24 1024 76 10000 2 160 17:39 05.01.2020
1298 Clouds -24 1024 76 10000 2 160 17:20 05.01.2020
1299 Clouds -24 1024 76 10000 2 170 16:57 05.01.2020
1300 Clouds -20 1024 76 10000 2 0 16:39 05.01.2020
1301 Clouds -20 1024 76 10000 2 0 16:39 05.01.2020
1302 Clouds -20 1024 76 10000 2 0 16:20 05.01.2020
1303 Clouds -21 1023 76 10000 3 170 15:40 05.01.2020
1304 Clouds -21 1023 76 10000 3 170 15:22 05.01.2020
1305 Clouds -20 1023 76 10000 3 150 14:57 05.01.2020
1306 Clouds -20 1023 76 10000 3 150 14:57 05.01.2020
1307 Clouds -17 1022 70 10000 1 0 14:39 05.01.2020
1308 Clouds -17 1022 70 10000 1 0 14:20 05.01.2020
1309 Clouds -15 1022 71 10000 1 0 13:58 05.01.2020
1310 Clouds -16 1022 77 10000 1 0 13:38 05.01.2020
1311 Clouds -16 1022 77 10000 1 0 13:20 05.01.2020
1312 Clouds -15 1021 71 10000 2 0 12:56 05.01.2020
1313 Clouds -15 1021 71 10000 2 0 12:38 05.01.2020
1314 Clouds -15 1021 71 10000 2 0 12:19 05.01.2020
1315 Clouds -14 1021 65 10000 5 310 11:54 05.01.2020
1316 Clouds -13 1020 65 10000 4 320 11:36 05.01.2020
1317 Clouds -13 1020 65 10000 4 320 11:18 05.01.2020
1318 Clouds -11 1020 61 10000 4 320 10:40 05.01.2020
1319 Clouds -11 1020 61 10000 4 320 10:20 05.01.2020
1320 Clouds -10 1019 61 10000 3 330 09:43 05.01.2020
1321 Clouds -10 1019 61 10000 4 300 09:22 05.01.2020
1322 Clouds -10 1018 66 10000 4 300 08:56 05.01.2020
1323 Clouds -10 1018 61 10000 4 290 08:38 05.01.2020
1324 Clouds -10 1018 61 10000 4 290 08:20 05.01.2020
1325 Clouds -10 1018 61 10000 2 0 07:39 05.01.2020
1326 Clouds -10 1018 61 10000 2 0 07:21 05.01.2020
1327 Clouds -11 1018 66 10000 1 0 06:47 05.01.2020
1328 Clouds -12 1018 66 10000 3 240 05:39 05.01.2020
1329 Clouds -12 1018 66 10000 1 0 04:56 05.01.2020
1330 Clouds -12 1017 66 10000 1.71 310 04:19 05.01.2020
1331 Clouds -15 1017 77 10000 1 0 03:31 05.01.2020
1332 Clouds -17 1017 70 10000 2 0 02:33 05.01.2020
1333 Clouds -15 1016 71 10000 1 0 01:49 05.01.2020
1334 Clouds -16 1016 71 8000 1 0 01:20 05.01.2020
1335 Clouds -18 1016 77 8000 1 0 00:57 05.01.2020
1336 Clouds -15 1015 65 8000 1 0 00:39 05.01.2020
1337 Clouds -15 1015 65 8000 1 0 00:19 05.01.2020
1338 Clouds -14 1015 71 8000 1 0 23:41 04.01.2020
1339 Clouds -15 1015 71 8000 2 0 23:20 04.01.2020
1340 Clouds -14 1015 65 8000 1 0 22:56 04.01.2020
1341 Clouds -15 1015 71 8000 1 0 22:38 04.01.2020
1342 Clouds -15 1015 71 8000 1 0 22:20 04.01.2020
1343 Clouds -16 1016 77 8000 1 0 21:55 04.01.2020
1344 Clouds -16 1016 77 8000 1 0 21:36 04.01.2020
1345 Clouds -16 1016 77 8000 1 0 21:18 04.01.2020
1346 Clouds -16 1017 77 8000 1 0 20:41 04.01.2020
1347 Clouds -16 1017 77 8000 1 0 20:22 04.01.2020
1348 Clouds -17 1017 77 8000 2.07 105 19:57 04.01.2020
1349 Clouds -17 1017 77 8000 2.07 105 19:39 04.01.2020
1350 Clouds -17 1017 77 8000 2.07 105 19:21 04.01.2020
1351 Clouds -17 1018 77 8000 2.07 105 18:57 04.01.2020
1352 Clouds -17 1018 77 8000 2.07 105 18:38 04.01.2020
1353 Clouds -17 1018 77 8000 2.07 105 18:19 04.01.2020
1354 Clouds -18 1018 77 8000 2.07 105 17:42 04.01.2020
1355 Clouds -18 1018 77 8000 2.07 105 17:42 04.01.2020
1356 Clouds -18 1018 77 8000 2.07 105 17:24 04.01.2020
1357 Clouds -18 1018 77 8000 2.07 105 17:24 04.01.2020
1358 Clouds -17 1018 70 8000 2 130 16:59 04.01.2020
1359 Clouds -17 1019 77 8000 1 0 16:40 04.01.2020
1360 Clouds -17 1019 77 8000 1 0 16:22 04.01.2020
1361 Clouds -17 1019 77 8000 1 0 16:22 04.01.2020
1362 Clouds -18 1018 77 8000 2.27 105 15:56 04.01.2020
1363 Clouds -19 1018 77 8000 2.27 105 15:38 04.01.2020
1364 Clouds -19 1018 77 8000 2.27 105 15:19 04.01.2020
1365 Clouds -21 1018 83 8000 1 0 14:54 04.01.2020
1366 Clouds -23 1019 69 8000 2.27 105 14:36 04.01.2020
1367 Clear -23 1019 69 8000 2.36 99 14:18 04.01.2020
1368 Clear -22 1019 69 8000 2.36 99 13:39 04.01.2020
1369 Clear -22 1019 69 8000 2.36 99 13:39 04.01.2020
1370 Clear -22 1019 69 8000 2.32 99 13:20 04.01.2020
1371 Clear -22 1019 76 8000 1 0 12:59 04.01.2020
1372 Clear -21 1019 70 8000 2.32 99 12:40 04.01.2020
1373 Clear -21 1019 70 8000 2.32 99 12:19 04.01.2020
1374 Clear -22 1019 76 8000 1 0 11:57 04.01.2020
1375 Clear -20 1019 76 8000 1 0 11:38 04.01.2020
1376 Clear -20 1019 76 8000 1 0 11:19 04.01.2020
1377 Clear -20 1019 76 8000 1 0 10:41 04.01.2020
1378 Clear -17 1019 70 8000 1 0 10:22 04.01.2020
1379 Clear -14 1019 65 8000 1 0 09:50 04.01.2020
1380 Clear -12 1019 55 8000 2 170 09:26 04.01.2020
1381 Clear -12 1019 55 8000 1 0 08:58 04.01.2020
1382 Clear -11 1019 51 8000 2.07 104 08:39 04.01.2020
1383 Clear -11 1019 51 8000 1.93 113 08:20 04.01.2020
1384 Clear -12 1020 55 8000 1 0 07:42 04.01.2020
1385 Clear -14 1020 60 8000 1 0 06:52 04.01.2020
1386 Clear -15 1021 65 6000 1 0 06:33 04.01.2020
1387 Smoke -17 1022 70 5000 1 0 05:18 04.01.2020
1388 Smoke -20 1022 76 5000 1.95 106 04:33 04.01.2020
1389 Smoke -21 1022 76 5000 1.95 106 03:43 04.01.2020
1390 Smoke -24 1022 76 5000 1.95 106 03:18 04.01.2020
1391 Clear -27 1023 68 6000 1.93 101 02:21 04.01.2020
1392 Clear -27 1023 68 6000 1.93 101 02:21 04.01.2020
1393 Clear -27 1022 75 6000 1.93 101 01:53 04.01.2020
1394 Clear -27 1022 68 6000 1.87 101 01:30 04.01.2020
1395 Clear -25 1022 75 6000 1.87 101 00:41 04.01.2020
1396 Clear -25 1022 75 6000 1.87 101 00:22 04.01.2020
1397 Clear -27 1022 75 6000 1 0 23:42 03.01.2020
1398 Clear -26 1022 75 6000 1 0 23:23 03.01.2020
1399 Clear -25 1023 75 6000 1.6 102 22:41 03.01.2020
1400 Clear -25 1023 75 6000 1.6 102 22:20 03.01.2020
1401 Clear -26 1023 75 6000 1 0 21:58 03.01.2020
1402 Clear -26 1023 75 6000 1 0 21:38 03.01.2020
1403 Clear -26 1023 75 6000 1 0 21:19 03.01.2020
1404 Clear -25 1023 75 6000 1 0 20:58 03.01.2020
1405 Clear -25 1023 75 6000 1 0 20:40 03.01.2020
1406 Clear -25 1023 75 6000 1 0 20:18 03.01.2020
1407 Clear -27 1023 75 6000 2 160 19:55 03.01.2020
1408 Clear -27 1023 75 6000 2 160 19:55 03.01.2020
1409 Clear -27 1023 75 6000 2 160 19:37 03.01.2020
1410 Clear -27 1023 75 6000 2 160 19:18 03.01.2020
1411 Clear -26 1024 75 8000 1.3 101 18:43 03.01.2020
1412 Clear -26 1024 75 8000 1.3 101 18:24 03.01.2020
1413 Clear -26 1024 75 8000 1 0 17:55 03.01.2020
1414 Clear -26 1024 75 8000 1 0 17:36 03.01.2020
1415 Clear -26 1024 75 8000 1 0 17:18 03.01.2020
1416 Clear -25 1024 75 8000 1.15 108 16:42 03.01.2020
1417 Clear -26 1024 75 8000 1 0 16:22 03.01.2020
1418 Clear -26 1024 75 8000 1.15 108 15:44 03.01.2020
1419 Clear -26 1024 75 8000 1.15 108 15:19 03.01.2020
1420 Clear -22 1024 76 8000 1 0 14:59 03.01.2020
1421 Clear -23 1024 76 8000 1.15 108 14:38 03.01.2020
1422 Clouds -23 1024 76 8000 0.91 106 14:19 03.01.2020
1423 Clouds -24 1024 83 8000 1 0 13:43 03.01.2020
1424 Clouds -24 1024 76 8000 1 0 13:24 03.01.2020
1425 Clouds -24 1024 83 8000 1 0 12:58 03.01.2020
1426 Clouds -24 1024 76 8000 1 0 12:38 03.01.2020
1427 Clouds -24 1024 76 8000 1 0 12:20 03.01.2020
1428 Clouds -23 1024 83 6000 2 150 11:44 03.01.2020
1429 Clouds -22 1023 76 6000 2 170 11:20 03.01.2020
1430 Clouds -15 1023 60 6000 0.44 173 10:44 03.01.2020
1431 Clouds -15 1023 60 6000 0.44 173 10:25 03.01.2020
1432 Clouds -15 1023 60 6000 0.44 173 10:25 03.01.2020
1433 Clouds -13 1023 65 6000 1 0 09:58 03.01.2020
1434 Clouds -12 1023 60 6000 1 0 09:39 03.01.2020
1435 Clouds -12 1023 60 6000 1 0 09:21 03.01.2020
1436 Clouds -12 1023 60 6000 1 0 08:56 03.01.2020
1437 Smoke -13 1023 60 5000 1 0 08:37 03.01.2020
1438 Smoke -13 1023 60 5000 1 0 08:19 03.01.2020
1439 Smoke -14 1023 60 4000 1 0 07:39 03.01.2020
1440 Smoke -14 1023 60 4000 1 0 07:18 03.01.2020
1441 Smoke -14 1024 65 4000 0.79 238 06:47 03.01.2020
1442 Smoke -16 1024 71 4000 1 0 06:29 03.01.2020
1443 Smoke -19 1024 84 3600 1 0 05:30 03.01.2020
1444 Smoke -21 1025 76 3600 0.24 211 04:19 03.01.2020
1445 Smoke -28 1024 68 4000 1 0 02:56 03.01.2020
1446 Smoke -28 1024 68 4000 1 0 02:56 03.01.2020
1447 Smoke -28 1024 75 5000 1 0 02:28 03.01.2020
1448 Smoke -27 1024 75 5000 1 0 01:39 03.01.2020
1449 Smoke -28 1024 75 5000 0.21 181 00:49 03.01.2020
1450 Smoke -27 1024 75 5000 0.21 181 00:29 03.01.2020
1451 Smoke -27 1024 68 5000 0.21 181 23:55 02.01.2020
1452 Clear -27 1024 75 6000 1 0 23:37 02.01.2020
1453 Clear -27 1024 75 6000 1 0 23:18 02.01.2020
1454 Clear -27 1024 68 6000 1 0 22:44 02.01.2020
1455 Clear -26 1024 75 6000 1 0 22:21 02.01.2020
1456 Clear -26 1024 68 6000 1 0 21:57 02.01.2020
1457 Clear -26 1024 68 6000 1 0 21:39 02.01.2020
1458 Clear -26 1024 68 6000 1 0 21:21 02.01.2020
1459 Clear -26 1025 68 6000 0.14 170 20:57 02.01.2020
1460 Clear -26 1025 68 6000 0.14 170 20:39 02.01.2020
1461 Clear -26 1025 68 6000 0.37 210 20:20 02.01.2020
1462 Clear -27 1025 75 6000 2 150 19:55 02.01.2020
1463 Clear -27 1025 75 6000 2 150 19:36 02.01.2020
1464 Clear -27 1025 75 6000 2 150 19:18 02.01.2020
1465 Clear -27 1025 75 6000 2 180 18:54 02.01.2020
1466 Clear -27 1025 75 6000 2 180 18:36 02.01.2020
1467 Clear -27 1025 75 6000 2 180 18:18 02.01.2020
1468 Clear -25 1025 75 6000 0.37 210 17:55 02.01.2020
1469 Clear -25 1025 75 6000 0.37 210 17:36 02.01.2020
1470 Clear -25 1025 75 6000 0.19 118 17:18 02.01.2020
1471 Clear -26 1025 75 6000 0.19 118 16:42 02.01.2020
1472 Clear -26 1025 75 6000 0.19 118 16:42 02.01.2020
1473 Clear -26 1025 75 6000 0.19 118 16:42 02.01.2020
1474 Clear -24 1025 76 6000 1 0 16:22 02.01.2020
1475 Clear -24 1025 76 6000 1 0 15:59 02.01.2020
1476 Clear -24 1025 76 6000 1 0 15:41 02.01.2020
1477 -273 0 0 0 0 0 15:23 02.01.2020
1478 Clear -25 1025 75 6000 1 0 14:57 02.01.2020
1479 Clear -25 1025 75 6000 1 0 14:57 02.01.2020
1480 Clear -24 1025 69 6000 1 0 14:37 02.01.2020
1481 Clear -24 1025 76 6000 1 0 14:18 02.01.2020
1482 Clear -24 1025 76 6000 1 0 13:55 02.01.2020
1483 Clear -25 1025 75 6000 2 0 13:36 02.01.2020
1484 Clear -25 1025 75 8000 1 0 12:58 02.01.2020
1485 Clear -24 1025 69 8000 1 0 12:39 02.01.2020
1486 Clear -24 1025 69 8000 1 0 12:20 02.01.2020
1487 Clear -20 1025 64 6000 0.1 1 11:41 02.01.2020
1488 Clear -20 1025 64 6000 0.59 248 11:20 02.01.2020
1489 Clear -17 1025 64 6000 1 0 10:45 02.01.2020
1490 Clear -16 1024 65 6000 0.59 248 10:27 02.01.2020
1491 Clear -15 1024 60 6000 2 170 09:56 02.01.2020
1492 Clear -13 1024 55 6000 1 0 09:35 02.01.2020
1493 Clear -13 1024 55 6000 1 0 08:53 02.01.2020
1494 Clear -14 1024 55 6000 1 0 08:32 02.01.2020
1495 Clear -14 1024 55 6000 1 0 07:58 02.01.2020
1496 Clear -15 1024 54 6000 1 0 07:31 02.01.2020
1497 Smoke -16 1024 59 5000 1 0 06:57 02.01.2020
1498 Smoke -16 1024 59 5000 1 0 06:57 02.01.2020
1499 Smoke -17 1024 59 5000 1 0 06:39 02.01.2020
1500 Smoke -19 1025 58 4000 1.12 246 05:37 02.01.2020
1501 Smoke -21 1025 63 5000 0.89 208 04:34 02.01.2020
1502 Clear -25 1025 69 5000 0.89 208 03:19 02.01.2020
1503 Clear -29 1025 68 6000 0.97 95 02:20 02.01.2020
1504 Clear -29 1024 75 8000 0.97 95 01:48 02.01.2020
1505 Clear -29 1024 68 8000 0.86 97 01:19 02.01.2020
1506 Clear -27 1024 68 6000 1 0 00:38 02.01.2020
1507 Clear -27 1024 68 6000 1 0 00:19 02.01.2020
1508 Clear -29 1024 68 0 2 190 23:41 01.01.2020
1509 Clear -28 1025 68 8000 0.87 131 23:21 01.01.2020
1510 Clear -28 1025 75 8000 1 0 22:38 01.01.2020
1511 Clear -28 1025 75 8000 1 0 22:20 01.01.2020
1512 Clear -26 1025 68 8000 0.87 131 21:58 01.01.2020
1513 Clear -26 1025 68 8000 0.87 131 21:39 01.01.2020
1514 Clear -26 1025 68 8000 0.87 131 21:20 01.01.2020
1515 Clear -27 1025 68 8000 0.87 131 20:56 01.01.2020
1516 Clear -27 1025 68 8000 0.87 131 20:38 01.01.2020
1517 Clear -27 1025 68 8000 0.59 116 20:19 01.01.2020
1518 Clear -28 1025 68 8000 1 0 19:55 01.01.2020
1519 Clear -28 1025 68 8000 1 0 19:55 01.01.2020
1520 Clear -28 1025 68 8000 1 0 19:55 01.01.2020
1521 Clear -28 1025 68 8000 1 0 19:55 01.01.2020
1522 Clear -28 1025 68 8000 1 0 19:37 01.01.2020
1523 Clear -28 1025 68 8000 1 0 19:19 01.01.2020
1524 Clear -27 1026 68 8000 1 0 18:56 01.01.2020
1525 Clear -27 1026 68 8000 1 0 18:36 01.01.2020
1526 Clear -27 1026 68 8000 1 0 18:18 01.01.2020
1527 Clear -27 1026 68 8000 1 0 17:56 01.01.2020
1528 Clear -27 1026 68 8000 1 0 17:38 01.01.2020
1529 Clear -27 1026 68 8000 1 0 17:19 01.01.2020
1530 Clear -27 1026 68 8000 0.68 149 16:42 01.01.2020
1531 Clear -27 1026 68 8000 0.68 149 16:23 01.01.2020
1532 Clear -27 1026 68 8000 0.68 149 15:58 01.01.2020
1533 Clear -27 1026 75 8000 1 0 15:40 01.01.2020
1534 Clear -27 1026 75 8000 1 0 15:21 01.01.2020
1535 Clear -26 1026 68 8000 1 0 14:59 01.01.2020
1536 Clear -25 1025 75 8000 1 0 14:40 01.01.2020
1537 Clear -25 1025 75 8000 1 0 14:21 01.01.2020
1538 Clear -25 1026 69 8000 2 0 13:56 01.01.2020
1539 Clear -25 1026 69 8000 2 0 13:37 01.01.2020
1540 Clear -25 1026 69 8000 2 0 13:37 01.01.2020
1541 Clear -25 1026 69 8000 2 0 13:37 01.01.2020
1542 Clear -25 1026 69 8000 2 0 13:18 01.01.2020
1543 Clear -25 1025 69 8000 2 0 12:56 01.01.2020
1544 Clear -25 1025 69 8000 2 0 12:56 01.01.2020
1545 Clear -25 1025 69 8000 1 0 12:38 01.01.2020
1546 Clear -25 1025 69 8000 1 0 12:18 01.01.2020
1547 Clear -23 1025 69 8000 1 0 11:43 01.01.2020
1548 Clear -22 1024 63 8000 0.22 182 11:23 01.01.2020
1549 Clear -19 1024 64 8000 0.61 249 10:59 01.01.2020
1550 Clear -18 1024 59 8000 0.61 249 10:41 01.01.2020
1551 Clear -18 1024 59 8000 0.61 249 10:21 01.01.2020
1552 Clear -17 1024 59 8000 1 0 09:58 01.01.2020
1553 Clear -16 1024 54 8000 1 0 09:37 01.01.2020
1554 Clear -16 1024 54 8000 1 0 09:18 01.01.2020
1555 Clear -15 1023 50 6000 1 0 08:55 01.01.2020
1556 Clear -16 1023 54 6000 1 0 08:36 01.01.2020
1557 Clear -16 1023 54 6000 1 0 08:18 01.01.2020
1558 Clear -16 1023 54 6000 1 0 07:54 01.01.2020
1559 Clear -18 1022 59 6000 1 0 07:35 01.01.2020
1560 Clear -19 1022 58 6000 2 0 06:44 01.01.2020
1561 Clear -18 1022 54 6000 1 0 06:20 01.01.2020
1562 Smoke -20 1022 53 5000 1 0 05:21 01.01.2020
1563 Smoke -23 1022 63 5000 1.07 305 03:43 01.01.2020
1564 Smoke -25 1022 69 5000 1 0 03:23 01.01.2020
1565 Clear -28 1022 68 6000 2 160 02:57 01.01.2020
1566 Clear -30 1021 67 6000 1 0 02:34 01.01.2020
1567 Clear -29 1021 61 6000 1 0 01:55 01.01.2020
1568 Clear -30 1020 67 6000 1 0 01:36 01.01.2020
1569 Clear -30 1020 67 6000 1 0 01:18 01.01.2020
1570 Clear -29 1020 68 6000 1.49 321 00:44 01.01.2020
1571 Clear -30 1019 67 6000 1.49 321 00:24 01.01.2020
1572 Clear -29 1019 61 6000 1.49 321 23:41 31.12.2019
1573 Clear -29 1019 61 6000 1.01 323 23:21 31.12.2019
1574 Clear -28 1019 61 6000 1 0 22:57 31.12.2019
1575 Clear -29 1019 68 6000 1 0 22:38 31.12.2019
1576 Clear -29 1019 68 6000 1 0 22:19 31.12.2019
1577 Clear -28 1018 68 6000 2 0 21:57 31.12.2019
1578 Clear -28 1018 68 6000 2 0 21:38 31.12.2019
1579 Clear -28 1018 68 6000 2 0 21:20 31.12.2019
1580 Clear -28 1018 61 6000 1 0 20:55 31.12.2019
1581 Clear -28 1018 61 6000 1 0 20:36 31.12.2019
1582 Clear -28 1018 61 6000 1 0 20:18 31.12.2019
1583 Clear -28 1018 61 8000 2 150 19:42 31.12.2019
1584 Clear -28 1018 61 8000 2 150 19:24 31.12.2019
1585 Clear -27 1017 62 6000 1 0 18:59 31.12.2019
1586 Clear -27 1017 62 6000 1 0 18:40 31.12.2019
1587 Clear -27 1017 62 6000 1 0 18:20 31.12.2019
1588 Clear -29 1017 68 6000 1 0 17:57 31.12.2019
1589 Clear -27 1017 68 6000 0.34 126 17:38 31.12.2019
1590 Clear -27 1017 68 6000 1.12 108 17:19 31.12.2019
1591 Clear -28 1017 61 6000 1 0 16:57 31.12.2019
1592 Clear -28 1017 61 6000 1.12 108 16:38 31.12.2019
1593 Clear -28 1017 61 6000 1.12 108 16:19 31.12.2019
1594 Clear -28 1017 68 8000 1.12 108 15:57 31.12.2019
1595 Clear -30 1018 67 8000 1 0 15:39 31.12.2019
1596 Clear -30 1018 67 8000 1 0 15:21 31.12.2019
1597 Clear -27 1018 68 8000 1.12 108 14:58 31.12.2019
1598 Clear -28 1018 68 8000 2 0 14:39 31.12.2019
1599 Clear -28 1018 68 8000 2 0 14:19 31.12.2019
1600 Clear -28 1018 68 8000 1 0 13:58 31.12.2019
1601 Clear -28 1018 68 8000 1.36 109 13:40 31.12.2019
1602 Clear -28 1018 68 8000 1.36 109 13:40 31.12.2019
1603 Clear -28 1018 68 8000 1.2 115 13:21 31.12.2019
1604 Clear -25 1017 62 8000 2 150 12:58 31.12.2019
1605 Clear -28 1017 68 8000 1 0 12:40 31.12.2019
1606 Clear -28 1017 68 8000 1 0 12:20 31.12.2019
1607 Clear -27 1018 62 8000 1 0 11:56 31.12.2019
1608 Clear -26 1018 62 8000 1.2 115 11:38 31.12.2019
1609 Clear -26 1018 62 8000 1.2 115 11:38 31.12.2019
1610 Clear -26 1018 62 8000 1.02 108 11:20 31.12.2019
1611 Clear -25 1017 62 8000 1 0 10:58 31.12.2019
1612 Clear -23 1018 63 8000 1 0 10:38 31.12.2019
1613 Clear -23 1018 63 8000 1 0 10:20 31.12.2019
1614 Clear -19 1017 49 8000 2 170 09:59 31.12.2019
1615 Clear -19 1018 53 8000 2 170 09:39 31.12.2019
1616 Clear -19 1018 53 8000 2 170 09:20 31.12.2019
1617 Clear -18 1017 49 8000 2 170 08:57 31.12.2019
1618 Clear -19 1017 49 8000 1 0 08:39 31.12.2019
1619 Clear -19 1017 49 8000 1 0 08:19 31.12.2019
1620 Clear -19 1018 49 8000 1 0 07:43 31.12.2019
1621 Clear -20 1018 48 6000 2 0 07:20 31.12.2019
1622 Clear -20 1018 44 6000 1 0 06:50 31.12.2019
1623 Clear -22 1019 48 6000 0.91 187 05:57 31.12.2019
1624 Smoke -26 1020 56 5000 1 0 04:29 31.12.2019
1625 Smoke -29 1020 61 5000 0.66 160 03:28 31.12.2019
1626 Smoke -32 1020 67 5000 0.66 160 02:54 31.12.2019
1627 Smoke -33 1020 60 5000 0.44 108 02:18 31.12.2019
1628 Clear -33 1020 60 6000 1 0 01:42 31.12.2019
1629 Clear -32 1020 67 6000 0.44 108 01:23 31.12.2019
1630 Clear -33 1019 60 8000 1 0 00:46 31.12.2019
1631 Clear -32 1019 67 8000 0.49 124 00:22 31.12.2019
1632 Clear -33 1019 67 8000 0.49 124 23:56 30.12.2019
1633 Clear -33 1020 54 8000 1 0 23:38 30.12.2019
1634 Clear -33 1020 54 8000 1 0 23:20 30.12.2019
1635 Clear -31 1019 61 8000 0.73 110 22:57 30.12.2019
1636 Clear -32 1020 67 8000 0.73 110 22:38 30.12.2019
1637 Clear -32 1020 67 8000 0.73 110 22:19 30.12.2019
1638 Clear -32 1020 60 8000 1 0 21:56 30.12.2019
1639 Clear -32 1020 60 8000 1 0 21:38 30.12.2019
1640 Clear -32 1020 60 8000 1 0 21:18 30.12.2019
1641 Clear -33 1020 67 8000 0.73 110 20:56 30.12.2019
1642 Clear -33 1020 67 8000 0.73 110 20:38 30.12.2019
1643 Clear -33 1020 67 8000 0.96 118 20:19 30.12.2019
1644 Clear -33 1020 67 8000 1 0 19:57 30.12.2019
1645 Clear -33 1020 67 8000 1 0 19:37 30.12.2019
1646 Clear -33 1020 67 8000 1 0 19:37 30.12.2019
1647 Clear -33 1020 67 8000 1 0 19:19 30.12.2019
1648 Clear -33 1021 60 8000 1 0 18:56 30.12.2019
1649 Clear -33 1021 60 8000 1 0 18:37 30.12.2019
1650 Clear -33 1021 60 8000 1 0 18:19 30.12.2019
1651 Clear -32 1022 60 8000 0.96 118 17:55 30.12.2019
1652 Clear -32 1022 60 8000 0.96 118 17:36 30.12.2019
1653 Clear -32 1022 60 8000 1.48 120 17:18 30.12.2019
1654 Clear -33 1022 60 8000 1.48 120 16:54 30.12.2019
1655 Clear -33 1022 60 8000 1.48 120 16:36 30.12.2019
1656 Clear -33 1022 60 8000 1.48 120 16:18 30.12.2019
1657 Clear -33 1022 67 8000 1 0 15:54 30.12.2019
1658 Clear -33 1023 60 8000 1.48 120 15:36 30.12.2019
1659 Clear -33 1023 60 8000 1.48 120 15:18 30.12.2019
1660 Clear -33 1023 67 8000 1.48 120 14:42 30.12.2019
1661 Clear -32 1023 67 8000 2.02 106 14:19 30.12.2019
1662 Clear -31 1023 61 8000 1 0 13:54 30.12.2019
1663 Clear -32 1024 60 8000 2.02 106 13:36 30.12.2019
1664 Clear -32 1024 60 8000 1.75 110 13:18 30.12.2019
1665 Clear -30 1024 61 8000 1 0 12:42 30.12.2019
1666 Clear -31 1024 55 8000 1.75 110 12:20 30.12.2019
1667 Clear -32 1024 67 8000 1 0 11:58 30.12.2019
1668 Clear -30 1025 61 8000 1 0 11:39 30.12.2019
1669 Clear -30 1025 61 8000 1 0 11:19 30.12.2019
1670 Clear -27 1025 56 8000 2.03 111 10:43 30.12.2019
1671 Clear -27 1025 56 8000 2.03 111 10:21 30.12.2019
1672 Clear -25 1026 51 8000 1 0 09:55 30.12.2019
1673 Clear -24 1026 47 8000 1 0 09:37 30.12.2019
1674 Clear -24 1026 47 8000 1 0 09:19 30.12.2019
1675 Clear -25 1026 51 8000 1 0 08:49 30.12.2019
1676 Clear -24 1027 47 8000 1 0 08:23 30.12.2019
1677 Clear -24 1027 52 8000 1 0 07:55 30.12.2019
1678 Clear -25 1027 57 8000 1 0 07:33 30.12.2019
1679 Clear -27 1028 62 6000 1 0 06:51 30.12.2019
1680 Smoke -30 1030 61 3600 1 0 04:56 30.12.2019
1681 Smoke -33 1031 67 3600 1.66 113 03:53 30.12.2019
1682 Smoke -39 1031 65 2000 1 240 02:50 30.12.2019
1683 Smoke -39 1031 58 2000 1.66 113 02:32 30.12.2019
1684 Smoke -40 1031 58 4000 1.18 118 01:50 30.12.2019
1685 Smoke -40 1032 58 4000 1.08 124 01:20 30.12.2019
1686 Smoke -39 1031 58 4000 1.08 124 00:43 30.12.2019
1687 Smoke -40 1031 58 5000 2 170 23:59 29.12.2019
1688 Clear -39 1031 65 6000 1.08 124 23:39 29.12.2019
1689 Clear -39 1031 65 6000 0.9 140 23:21 29.12.2019
1690 Clear -38 1031 58 8000 0.9 140 22:42 29.12.2019
1691 Clear -37 1032 59 8000 0.9 140 22:23 29.12.2019
1692 Clear -39 1032 58 8000 1 0 21:58 29.12.2019
1693 Clear -39 1032 58 8000 1 0 21:40 29.12.2019
1694 Clear -39 1032 58 8000 1 0 21:20 29.12.2019
1695 Clear -39 1032 58 8000 1 0 21:20 29.12.2019
1696 Clear -35 1031 59 10000 1 0 20:57 29.12.2019
1697 Clear -35 1031 59 10000 1 0 20:38 29.12.2019
1698 Clear -35 1031 59 10000 1 0 20:20 29.12.2019
1699 Clear -37 1031 59 10000 1 0 19:58 29.12.2019
1700 Clear -37 1031 59 10000 1 0 19:39 29.12.2019
1701 Clear -37 1031 59 10000 1 0 19:20 29.12.2019
1702 Clear -33 1031 60 10000 1 0 18:56 29.12.2019
1703 Clear -33 1031 60 10000 1 0 18:38 29.12.2019
1704 Clear -33 1031 60 10000 1 0 18:19 29.12.2019
1705 Clear -36 1030 59 10000 3 170 17:57 29.12.2019
1706 Clear -36 1030 59 10000 3 170 17:39 29.12.2019
1707 Clear -36 1030 59 10000 3 170 17:20 29.12.2019
1708 Clear -35 1030 66 10000 2 140 16:56 29.12.2019
1709 Clear -35 1030 66 10000 2 190 16:37 29.12.2019
1710 Clear -35 1030 66 10000 2 190 16:19 29.12.2019
1711 Clear -35 1030 59 10000 3 160 15:56 29.12.2019
1712 Clear -34 1030 60 10000 4 160 15:38 29.12.2019
1713 Clear -34 1030 60 10000 4 160 15:19 29.12.2019
1714 Clear -34 1030 60 10000 4 160 14:56 29.12.2019
1715 Clear -34 1030 60 10000 3 160 14:37 29.12.2019
1716 Clouds -34 1030 60 10000 3 160 14:18 29.12.2019
1717 Clouds -34 1030 60 10000 3 160 14:18 29.12.2019
1718 Clouds -35 1029 66 10000 2 0 13:55 29.12.2019
1719 Clouds -35 1029 66 10000 2 0 13:55 29.12.2019
1720 Clouds -35 1029 66 10000 1 0 13:37 29.12.2019
1721 Clouds -35 1029 66 10000 1 0 13:18 29.12.2019
1722 Clouds -35 1029 66 10000 1 0 13:18 29.12.2019
1723 Clouds -34 1029 60 10000 1 0 12:44 29.12.2019
1724 Clouds -31 1028 55 10000 1 0 12:25 29.12.2019
1725 Clouds -31 1028 55 10000 1 0 12:25 29.12.2019
1726 Clouds -27 1028 51 10000 2 0 11:56 29.12.2019
1727 Clouds -27 1028 56 10000 1 0 11:38 29.12.2019
1728 Clouds -27 1028 56 10000 1 0 11:20 29.12.2019
1729 Clouds -27 1027 56 10000 2.01 322 10:42 29.12.2019
1730 Clouds -26 1027 56 10000 3 290 10:23 29.12.2019
1731 Clouds -24 1026 47 10000 4 310 09:57 29.12.2019
1732 Clouds -23 1026 47 10000 4 330 09:38 29.12.2019
1733 Clouds -23 1026 47 10000 4 330 09:20 29.12.2019
1734 Clouds -23 1025 47 10000 5 330 08:47 29.12.2019
1735 Clouds -22 1025 39 10000 4 330 08:24 29.12.2019
1736 Clouds -23 1025 47 10000 5 330 07:55 29.12.2019
1737 Clouds -23 1024 43 10000 6 330 07:28 29.12.2019
1738 Clouds -23 1024 47 10000 7 330 06:53 29.12.2019
1739 Clouds -23 1024 52 10000 7 330 06:24 29.12.2019
1740 Clouds -24 1024 52 10000 6 320 05:51 29.12.2019
1741 Clouds -26 1024 62 10000 6 330 04:36 29.12.2019
1742 Clouds -26 1024 62 10000 5 330 03:51 29.12.2019
1743 Clouds -26 1024 62 10000 4 320 03:20 29.12.2019
1744 Clouds -28 1023 68 10000 3 350 02:20 29.12.2019
1745 Clouds -27 1022 62 10000 4 320 01:31 29.12.2019
1746 Clouds -27 1022 62 10000 4 320 01:31 29.12.2019
1747 Clouds -27 1021 68 10000 2 0 00:55 29.12.2019
1748 Clouds -28 1021 75 10000 3 320 00:36 29.12.2019
1749 Clouds -28 1021 75 10000 3 320 00:18 29.12.2019
1750 Clouds -28 1021 68 10000 2 0 23:41 28.12.2019
1751 Clouds -27 1020 68 10000 2 0 23:18 28.12.2019
1752 Clouds -27 1020 68 10000 5 300 22:39 28.12.2019
1753 Clouds -27 1020 68 10000 5 300 22:20 28.12.2019
1754 Clouds -27 1020 68 10000 5 300 22:20 28.12.2019
1755 Clouds -26 1019 62 10000 5 300 21:58 28.12.2019
1756 Clouds -26 1019 62 10000 5 300 21:39 28.12.2019
1757 Clouds -26 1019 62 10000 5 300 21:20 28.12.2019
1758 Clouds -27 1019 68 10000 5 330 20:56 28.12.2019
1759 Clouds -27 1019 68 10000 5 330 20:37 28.12.2019
1760 Clouds -27 1019 68 10000 5 330 20:19 28.12.2019
1761 Clouds -25 1018 62 10000 5 340 19:55 28.12.2019
1762 Clouds -25 1018 62 10000 5 340 19:37 28.12.2019
1763 Clouds -25 1018 62 10000 5 340 19:18 28.12.2019
1764 Clouds -25 1017 69 10000 6 320 18:56 28.12.2019
1765 Clouds -25 1017 69 10000 6 320 18:38 28.12.2019
1766 Clouds -25 1017 69 10000 6 320 18:18 28.12.2019
1767 Clouds -26 1017 75 10000 5 320 17:42 28.12.2019
1768 Clouds -26 1017 75 10000 5 320 17:21 28.12.2019
1769 Clouds -27 1016 68 10000 3 320 16:58 28.12.2019
1770 Clouds -23 1016 63 10000 6 340 16:40 28.12.2019
1771 Clouds -23 1016 63 10000 6 340 16:21 28.12.2019
1772 Clouds -23 1016 69 10000 6 340 15:43 28.12.2019
1773 Clouds -23 1016 69 10000 4 340 15:22 28.12.2019
1774 Clouds -23 1015 69 10000 4 330 14:55 28.12.2019
1775 Clouds -22 1015 63 10000 4 340 14:37 28.12.2019
1776 Clouds -22 1015 63 10000 4 340 14:18 28.12.2019
1777 Clouds -22 1014 69 10000 5 340 13:42 28.12.2019
1778 Clouds -22 1014 69 10000 4 330 13:21 28.12.2019
1779 Clouds -23 1014 69 10000 3 300 12:58 28.12.2019
1780 Clouds -23 1013 76 10000 4 310 12:40 28.12.2019
1781 Clouds -23 1013 76 10000 4 310 12:21 28.12.2019
1782 Clouds -21 1012 70 10000 5 320 11:40 28.12.2019
1783 Clouds -21 1012 70 10000 5 320 11:21 28.12.2019
1784 Clouds -21 1012 70 10000 4 330 10:57 28.12.2019
1785 Clouds -20 1011 70 10000 4 320 10:38 28.12.2019
1786 Clouds -20 1011 70 10000 4 320 10:19 28.12.2019
1787 Clouds -19 1011 64 10000 5 320 09:54 28.12.2019
1788 Clouds -19 1010 64 10000 6 320 09:36 28.12.2019
1789 Clouds -19 1010 64 10000 6 320 09:18 28.12.2019
1790 Clouds -18 1010 59 10000 5 330 08:42 28.12.2019
1791 Clouds -18 1009 64 10000 6 320 08:23 28.12.2019
1792 Clouds -18 1009 64 10000 7 310 07:47 28.12.2019
1793 -273 0 0 0 0 0 07:22 28.12.2019
1794 Clouds -18 1008 64 10000 4 290 05:46 28.12.2019
1795 Snow -22 1008 76 6000 1 0 03:48 28.12.2019
1796 Clouds -27 1008 75 6000 1 0 02:51 28.12.2019
1797 Clouds -27 1007 75 6000 2.3 356 02:20 28.12.2019
1798 Clouds -28 1007 75 6000 1 0 01:55 28.12.2019
1799 Clouds -26 1006 75 6000 1 0 01:23 28.12.2019
1800 Clouds -27 1006 75 6000 1 0 00:45 28.12.2019
1801 Clouds -27 1005 75 6000 1 0 00:27 28.12.2019
1802 Clouds -28 1005 75 6000 2.28 355 23:58 27.12.2019
1803 Clouds -28 1005 75 6000 2.28 355 23:58 27.12.2019
1804 Clouds -24 1005 69 6000 2.28 355 23:38 27.12.2019
1805 Clouds -24 1005 69 6000 1.76 3 23:18 27.12.2019
1806 Clouds -23 1005 76 6000 1.76 3 22:55 27.12.2019
1807 Clouds -22 1005 76 6000 1 0 22:37 27.12.2019
1808 Clouds -22 1005 76 6000 1 0 22:19 27.12.2019
1809 Clouds -21 1005 70 6000 1.76 3 21:43 27.12.2019
1810 Clouds -21 1005 70 6000 1.76 3 21:24 27.12.2019
1811 Clouds -22 1005 76 6000 1 0 20:45 27.12.2019
1812 Clouds -22 1005 76 6000 1 0 20:26 27.12.2019
1813 Clouds -23 1005 83 6000 1 0 19:59 27.12.2019
1814 Clouds -23 1005 83 6000 1 0 19:40 27.12.2019
1815 Clouds -23 1005 83 6000 1 0 19:19 27.12.2019
1816 Clouds -21 1005 70 6000 1 0 18:56 27.12.2019
1817 Clouds -21 1005 70 6000 1 0 18:37 27.12.2019
1818 Clouds -21 1005 70 6000 1 0 18:18 27.12.2019
1819 Clouds -22 1005 76 6000 0.67 357 17:55 27.12.2019
1820 Clouds -23 1005 76 6000 1 0 17:37 27.12.2019
1821 Clouds -23 1005 76 6000 1 0 17:18 27.12.2019
1822 Clouds -23 1005 76 6000 1 0 16:41 27.12.2019
1823 Clouds -25 1005 75 6000 1 0 16:23 27.12.2019
1824 Clouds -26 1005 75 6000 1 0 15:58 27.12.2019
1825 Clouds -25 1005 75 6000 1 0 15:37 27.12.2019
1826 Clouds -25 1005 75 6000 1 0 15:37 27.12.2019
1827 Clouds -25 1005 75 6000 1 0 15:19 27.12.2019
1828 Clouds -26 1005 75 6000 1 0 14:56 27.12.2019
1829 Clouds -22 1005 76 6000 0.25 21 14:38 27.12.2019
1830 Clouds -22 1005 76 6000 0.96 169 14:19 27.12.2019
1831 Clouds -22 1005 76 6000 0.96 169 14:19 27.12.2019
1832 Clouds -22 1005 76 6000 1 0 13:46 27.12.2019
1833 Clouds -24 1005 76 6000 2 150 13:23 27.12.2019
1834 Clouds -25 1005 75 6000 1 0 12:49 27.12.2019
1835 Smoke -22 1006 76 5000 1 0 12:29 27.12.2019
1836 Smoke -22 1006 76 5000 1 0 11:59 27.12.2019
1837 Smoke -23 1005 76 5000 2 0 11:41 27.12.2019
1838 Smoke -23 1005 76 5000 2 0 11:20 27.12.2019
1839 Smoke -23 1005 69 5000 2 160 10:47 27.12.2019
1840 Smoke -22 1005 69 5000 1 0 10:24 27.12.2019
1841 Clouds -19 1005 64 6000 1 0 09:57 27.12.2019
1842 Clouds -18 1005 64 6000 1 0 09:38 27.12.2019
1843 Clouds -18 1005 64 6000 1 0 09:20 27.12.2019
1844 Clouds -17 1005 59 6000 2 160 08:46 27.12.2019
1845 Clouds -17 1005 59 6000 1 0 08:27 27.12.2019
1846 Clouds -18 1005 59 6000 1 0 07:41 27.12.2019
1847 Clouds -18 1006 59 6000 1 0 07:22 27.12.2019
1848 Clouds -20 1006 64 6000 1 0 06:27 27.12.2019
1849 Clouds -22 1007 69 6000 1 0 04:48 27.12.2019
1850 Smoke -26 1007 68 5000 1 0 02:29 27.12.2019
1851 Clouds -26 1007 75 6000 0.53 250 01:48 27.12.2019
1852 Clouds -26 1007 75 6000 0.26 254 01:23 27.12.2019
1853 Clouds -27 1007 75 6000 0.26 254 00:52 27.12.2019
1854 Clouds -28 1007 68 6000 0.26 254 00:34 27.12.2019
1855 Clouds -29 1007 75 6000 0.26 254 23:57 26.12.2019
1856 Clouds -29 1007 68 6000 1 0 23:38 26.12.2019
1857 Clouds -29 1007 68 6000 1 0 23:20 26.12.2019
1858 Clouds -26 1007 68 6000 0.3 142 22:42 26.12.2019
1859 Smoke -27 1007 75 5000 0.3 142 22:21 26.12.2019
1860 Smoke -28 1008 75 5000 0.3 142 21:55 26.12.2019
1861 Smoke -28 1008 75 5000 0.3 142 21:37 26.12.2019
1862 Smoke -28 1008 75 5000 0.3 142 21:19 26.12.2019
1863 Clouds -30 1008 67 6000 0.3 142 20:44 26.12.2019
1864 Clouds -30 1008 67 6000 0.3 142 20:44 26.12.2019
1865 Clear -30 1008 67 6000 0.49 155 20:22 26.12.2019
1866 Clear -29 1008 75 6000 1 0 19:58 26.12.2019
1867 Clear -29 1008 75 6000 1 0 19:38 26.12.2019
1868 Clear -29 1008 75 6000 1 0 19:20 26.12.2019
1869 Clear -30 1008 67 6000 0.39 41 18:57 26.12.2019
1870 Clear -31 1008 67 6000 1 0 18:37 26.12.2019
1871 Clear -31 1008 67 6000 1 0 18:19 26.12.2019
1872 Clear -28 1009 68 6000 0.39 41 17:42 26.12.2019
1873 Clear -28 1009 68 6000 0.39 41 17:42 26.12.2019
1874 Clear -28 1008 68 6000 0.47 256 17:22 26.12.2019
1875 Clear -27 1009 75 6000 1 0 16:54 26.12.2019
1876 Clear -28 1009 68 6000 3 150 16:36 26.12.2019
1877 Clear -28 1009 68 6000 3 150 16:36 26.12.2019
1878 Clear -28 1009 68 6000 3 150 16:18 26.12.2019
1879 Clear -30 1009 74 6000 2 170 15:41 26.12.2019
1880 Clear -30 1009 74 6000 1 0 15:20 26.12.2019
1881 Clear -29 1009 68 6000 0.47 256 14:54 26.12.2019
1882 Clear -28 1010 68 3400 0.47 256 14:36 26.12.2019
1883 Clear -28 1010 68 3400 0.54 271 14:18 26.12.2019
1884 Clear -29 1010 61 6000 1 0 13:42 26.12.2019
1885 Clear -28 1009 68 6000 2 150 13:19 26.12.2019
1886 Clear -29 1009 68 8000 1 0 12:56 26.12.2019
1887 Clear -28 1009 68 8000 1 0 12:37 26.12.2019
1888 Clear -28 1009 68 8000 1 0 12:18 26.12.2019
1889 Clear -28 1009 68 6000 2 180 11:42 26.12.2019
1890 Clear -28 1009 68 6000 2 180 11:23 26.12.2019
1891 Clear -27 1009 68 6000 1 0 10:57 26.12.2019
1892 Clear -27 1009 68 6000 1 0 10:57 26.12.2019
1893 Clear -25 1009 75 6000 1 0 10:39 26.12.2019
1894 Clear -25 1009 75 6000 1 0 10:18 26.12.2019
1895 Smoke -25 1009 69 5000 1 0 09:42 26.12.2019
1896 Smoke -22 1009 63 5000 2 0 09:24 26.12.2019
1897 Clear -20 1009 64 5000 1 0 08:42 26.12.2019
1898 Smoke -19 1009 64 5000 1 0 08:23 26.12.2019
1899 Smoke -19 1009 64 5000 1 0 07:50 26.12.2019
1900 Smoke -20 1009 70 5000 1 0 07:26 26.12.2019
1901 Smoke -20 1010 76 5000 1 0 06:48 26.12.2019
1902 Smoke -21 1010 76 5000 1 0 06:30 26.12.2019
1903 Smoke -23 1010 76 5000 2 170 05:43 26.12.2019
1904 Smoke -25 1011 69 4000 0.88 137 04:38 26.12.2019
1905 Smoke -27 1011 75 4000 1 0 03:47 26.12.2019
1906 Smoke -31 1011 74 4000 2 0 02:50 26.12.2019
1907 Smoke -29 1012 68 4000 0.88 137 02:31 26.12.2019
1908 Smoke -32 1011 67 5000 1.29 114 01:45 26.12.2019
1909 Smoke -30 1012 67 5000 1 0 01:26 26.12.2019
1910 Smoke -30 1012 67 5000 1 0 00:48 26.12.2019
1911 Smoke -33 1012 67 5000 1 0 00:24 26.12.2019
1912 Smoke -33 1012 67 5000 1 0 00:24 26.12.2019
1913 Smoke -33 1012 67 5000 1 0 00:24 26.12.2019
1914 Smoke -31 1012 74 5000 1 0 23:58 25.12.2019
1915 Smoke -31 1012 67 5000 1 0 23:38 25.12.2019
1916 Smoke -31 1012 67 5000 1 0 23:20 25.12.2019
1917 Smoke -30 1013 67 5000 1 0 22:57 25.12.2019
1918 Smoke -30 1013 74 5000 1 0 22:38 25.12.2019
1919 Smoke -30 1013 74 5000 1 0 22:19 25.12.2019
1920 Clouds -32 1014 67 6000 0.98 127 21:57 25.12.2019
1921 Clouds -32 1014 67 6000 0.98 127 21:39 25.12.2019
1922 Clouds -32 1014 67 6000 0.98 127 21:19 25.12.2019
1923 Clouds -30 1015 67 6000 0.98 127 20:41 25.12.2019
1924 Clouds -30 1015 67 6000 0.72 154 20:21 25.12.2019
1925 Clouds -32 1015 74 6000 1 0 19:59 25.12.2019
1926 Clouds -32 1015 74 6000 1 0 19:41 25.12.2019
1927 Clouds -32 1015 74 6000 1 0 19:22 25.12.2019
1928 Clouds -32 1016 67 6000 1 0 18:54 25.12.2019
1929 Clouds -32 1016 67 6000 1 0 18:36 25.12.2019
1930 Clouds -32 1016 67 6000 1 0 18:18 25.12.2019
1931 Clouds -31 1017 67 8000 2 170 17:40 25.12.2019
1932 Clouds -31 1017 67 8000 2 170 17:18 25.12.2019
1933 Clouds -29 1017 68 8000 0.83 160 16:55 25.12.2019
1934 Clouds -27 1018 68 8000 0.83 160 16:36 25.12.2019
1935 Clouds -27 1018 68 8000 0.83 160 16:18 25.12.2019
1936 Clouds -29 1018 68 10000 1 0 15:56 25.12.2019
1937 Clouds -30 1018 74 10000 1 0 15:37 25.12.2019
1938 Clouds -30 1018 74 10000 1 0 15:18 25.12.2019
1939 Clouds -29 1018 75 10000 0.83 160 14:54 25.12.2019
1940 Clouds -29 1019 68 10000 1 0 14:36 25.12.2019
1941 Clouds -29 1019 68 10000 1 0 14:18 25.12.2019
1942 Clouds -28 1019 68 10000 0.44 145 13:41 25.12.2019
1943 Clouds -26 1019 75 10000 0.44 145 13:20 25.12.2019
1944 Clouds -24 1019 76 8000 1 0 12:44 25.12.2019
1945 Clouds -26 1019 68 8000 0.42 141 12:22 25.12.2019
1946 Clouds -23 1019 83 8000 1 0 11:58 25.12.2019
1947 Clouds -23 1019 83 8000 1 0 11:58 25.12.2019
1948 Clouds -25 1019 75 8000 2 120 11:40 25.12.2019
1949 Clouds -25 1019 75 8000 2 120 11:20 25.12.2019
1950 Clear -23 1019 69 8000 2 0 10:39 25.12.2019
1951 Clear -23 1019 69 8000 2 0 10:21 25.12.2019
1952 Clear -20 1019 64 8000 1 0 09:58 25.12.2019
1953 Clear -19 1019 64 8000 1 0 09:40 25.12.2019
1954 Clear -19 1019 64 8000 1 0 09:40 25.12.2019
1955 Clear -19 1019 64 8000 1 0 09:21 25.12.2019
1956 Clear -18 1019 64 6000 0.58 241 08:42 25.12.2019
1957 Clouds -18 1019 64 6000 1 0 08:23 25.12.2019
1958 Smoke -19 1019 64 5000 1 0 07:42 25.12.2019
1959 Smoke -18 1020 59 5000 1.2 249 07:22 25.12.2019
1960 Smoke -21 1020 70 5000 1 0 06:24 25.12.2019
1961 Smoke -22 1020 69 5000 1 0 05:49 25.12.2019
1962 Clouds -23 1021 76 6000 1 0 04:42 25.12.2019
1963 Clouds -23 1021 76 6000 1 0 04:24 25.12.2019
1964 Clouds -23 1021 69 6000 2 0 03:43 25.12.2019
1965 Clouds -27 1021 75 6000 0.74 239 02:58 25.12.2019
1966 Clouds -28 1021 75 6000 1 0 02:29 25.12.2019
1967 Clouds -28 1020 75 8000 1 0 01:43 25.12.2019
1968 Clouds -28 1020 75 8000 2 180 01:18 25.12.2019
1969 Clouds -28 1020 68 10000 1 0 00:41 25.12.2019
1970 Clouds -28 1020 68 10000 1 0 00:23 25.12.2019
1971 Clouds -28 1020 68 10000 1 0 00:23 25.12.2019
1972 Clouds -26 1019 68 10000 1 0 23:39 24.12.2019
1973 Clouds -26 1019 68 10000 1 0 23:20 24.12.2019
1974 Clouds -26 1019 75 10000 1 0 22:42 24.12.2019
1975 Clouds -26 1019 75 10000 0.87 308 22:24 24.12.2019
1976 Clouds -26 1019 68 10000 0.87 308 21:59 24.12.2019
1977 Clouds -26 1019 68 10000 0.87 308 21:40 24.12.2019
1978 Clouds -26 1019 68 10000 0.87 308 21:19 24.12.2019
1979 Clouds -26 1019 75 10000 2 140 20:42 24.12.2019
1980 Clouds -26 1019 75 10000 2 140 20:22 24.12.2019
1981 Clouds -25 1019 75 10000 0.97 308 19:49 24.12.2019
1982 Clouds -25 1019 75 10000 0.97 308 19:22 24.12.2019
1983 Clouds -24 1018 76 10000 4 170 18:59 24.12.2019
1984 Clouds -24 1018 76 10000 4 170 18:40 24.12.2019
1985 Clouds -24 1018 76 10000 4 170 18:18 24.12.2019
1986 Clouds -24 1018 76 10000 4 170 18:18 24.12.2019
1987 Clouds -25 1018 75 10000 4 170 17:44 24.12.2019
1988 Clouds -26 1018 68 10000 3 160 17:22 24.12.2019
1989 Clouds -25 1018 75 10000 2 150 16:58 24.12.2019
1990 Clouds -27 1018 75 10000 2 210 16:39 24.12.2019
1991 Clouds -27 1018 75 10000 2 210 16:39 24.12.2019
1992 Clouds -27 1018 75 10000 2 210 16:20 24.12.2019
1993 Clouds -24 1017 83 10000 1.12 309 15:57 24.12.2019
1994 Clouds -26 1017 68 10000 1 0 15:37 24.12.2019
1995 Clouds -26 1017 68 10000 1 0 15:19 24.12.2019
1996 Clouds -26 1017 75 10000 1 0 14:58 24.12.2019
1997 Clouds -24 1016 76 10000 1.12 309 14:39 24.12.2019
1998 Clouds -24 1016 76 10000 1.58 321 14:21 24.12.2019
1999 Clouds -24 1016 76 10000 1.58 321 14:21 24.12.2019
2000 Clouds -22 1016 76 10000 1 0 13:56 24.12.2019
2001 Clouds -20 1016 76 10000 3 310 13:37 24.12.2019
2002 Clouds -20 1016 76 10000 3 310 13:19 24.12.2019
2003 Clouds -21 1015 76 10000 2 0 12:56 24.12.2019
2004 Clouds -21 1015 76 10000 2 0 12:56 24.12.2019
2005 Clouds -21 1015 76 10000 2 0 12:56 24.12.2019
2006 Clouds -20 1015 70 10000 1 0 12:37 24.12.2019
2007 Clouds -20 1015 70 10000 1 0 12:19 24.12.2019
2008 Clouds -20 1015 70 10000 1 0 12:19 24.12.2019
2009 Clouds -20 1015 70 10000 1 0 12:19 24.12.2019
2010 Clouds -19 1014 70 10000 1 0 11:56 24.12.2019
2011 Clouds -19 1014 77 10000 1.58 322 11:37 24.12.2019
2012 Clouds -19 1014 77 10000 1.58 322 11:37 24.12.2019
2013 Clouds -19 1014 77 10000 2.17 322 11:19 24.12.2019
2014 Clouds -18 1013 70 10000 1 0 10:56 24.12.2019
2015 Clouds -18 1013 70 10000 1 0 10:56 24.12.2019
2016 Clouds -18 1013 70 10000 4 310 10:37 24.12.2019
2017 Clouds -18 1013 70 10000 4 310 10:19 24.12.2019
2018 Clouds -17 1012 70 10000 5 310 09:55 24.12.2019
2019 Clouds -17 1012 70 10000 5 300 09:37 24.12.2019
2020 Clouds -17 1012 70 10000 5 300 09:37 24.12.2019
2021 Clouds -17 1012 70 10000 5 300 09:19 24.12.2019
2022 Clouds -17 1011 70 10000 5 300 08:45 24.12.2019
2023 Clouds -17 1011 70 10000 5 300 08:24 24.12.2019
2024 Snow -16 1011 71 10000 5 300 07:46 24.12.2019
2025 Snow -16 1010 71 10000 5 310 07:26 24.12.2019
2026 Clouds -16 1010 71 10000 6 310 06:58 24.12.2019
2027 Clouds -15 1010 65 10000 5 310 06:38 24.12.2019
2028 Clouds -15 1010 65 10000 5 310 06:19 24.12.2019
2029 Clouds -15 1010 71 10000 4 310 05:40 24.12.2019
2030 Clouds -15 1010 71 10000 4 310 05:18 24.12.2019
2031 Snow -15 1009 71 6000 4 330 03:50 24.12.2019
2032 Snow -15 1009 84 6000 2 320 03:23 24.12.2019
2033 Snow -15 1009 84 6000 1 0 02:25 24.12.2019
2034 Snow -15 1009 84 6000 1 0 02:25 24.12.2019
2035 Snow -16 1008 84 6000 1.31 326 01:51 24.12.2019
2036 Snow -15 1008 84 6000 1.41 332 01:23 24.12.2019
2037 Snow -15 1008 84 6000 1.41 332 00:46 24.12.2019
2038 Snow -15 1008 84 6000 1.41 332 00:26 24.12.2019
2039 Snow -15 1008 84 6000 1 0 23:59 23.12.2019
2040 Snow -15 1008 84 6000 1 0 23:59 23.12.2019
2041 Snow -15 1008 84 6000 1 0 23:41 23.12.2019
2042 Snow -15 1008 84 6000 1 0 23:23 23.12.2019
2043 Snow -15 1008 77 4000 1 0 22:56 23.12.2019
2044 Snow -15 1008 77 4000 1 0 22:56 23.12.2019
2045 Snow -15 1008 84 4000 0.59 81 22:37 23.12.2019
2046 Snow -15 1008 84 4000 0.59 81 22:37 23.12.2019
2047 Snow -15 1008 84 4000 0.59 81 22:19 23.12.2019
2048 Snow -15 1009 77 4000 0.59 81 21:55 23.12.2019
2049 Snow -15 1009 77 4000 0.59 81 21:36 23.12.2019
2050 Snow -15 1009 77 4000 0.59 81 21:18 23.12.2019
2051 Snow -15 1009 84 4000 1 0 20:57 23.12.2019
2052 Snow -15 1009 84 4000 1 0 20:39 23.12.2019
2053 Snow -15 1009 84 4000 1 0 20:18 23.12.2019
2054 Snow -16 1009 84 5000 1 0 19:55 23.12.2019
2055 Snow -16 1009 84 5000 1 0 19:37 23.12.2019
2056 Snow -16 1009 84 5000 1 0 19:19 23.12.2019
2057 Snow -16 1010 77 8000 1.75 94 18:57 23.12.2019
2058 Snow -16 1010 77 8000 1.75 94 18:38 23.12.2019
2059 Snow -16 1010 77 8000 1.75 94 18:20 23.12.2019
2060 Clouds -17 1010 77 8000 1 0 17:55 23.12.2019
2061 Clouds -17 1010 77 8000 1 0 17:37 23.12.2019
2062 Clouds -17 1010 77 8000 1 0 17:19 23.12.2019
2063 Clouds -18 1010 77 8000 1 0 16:42 23.12.2019
2064 Clouds -18 1010 77 8000 1 0 16:42 23.12.2019
2065 Clouds -17 1011 70 8000 1 0 16:19 23.12.2019
2066 Clouds -18 1011 70 8000 2.07 113 15:59 23.12.2019
2067 Clouds -19 1011 77 8000 2.07 113 15:39 23.12.2019
2068 Clouds -19 1011 77 8000 2.07 113 15:20 23.12.2019
2069 Clouds -20 1011 76 8000 2.07 113 14:59 23.12.2019
2070 Clouds -20 1011 76 8000 2.07 113 14:41 23.12.2019
2071 Clouds -19 1011 77 8000 1 0 14:23 23.12.2019
2072 Clouds -18 1012 70 6000 2 280 13:59 23.12.2019
2073 Clouds -19 1012 77 8000 1 0 13:40 23.12.2019
2074 Clouds -19 1012 77 8000 1 0 13:22 23.12.2019
2075 Clouds -19 1012 77 8000 1 0 13:22 23.12.2019
2076 Clouds -19 1012 77 8000 1 0 13:22 23.12.2019
2077 Clouds -19 1012 70 6000 1 0 12:58 23.12.2019
2078 Clouds -20 1012 76 8000 1 0 12:39 23.12.2019
2079 Clouds -20 1012 76 8000 1 0 12:20 23.12.2019
2080 Clouds -20 1013 76 6000 1 0 11:45 23.12.2019
2081 Clouds -20 1013 76 8000 1 0 11:26 23.12.2019
2082 Clouds -18 1013 70 8000 1.75 123 10:59 23.12.2019
2083 Clouds -17 1014 64 8000 1 0 10:41 23.12.2019
2084 Clouds -17 1014 64 8000 1 0 10:21 23.12.2019
2085 Clouds -16 1014 65 8000 1 0 09:59 23.12.2019
2086 Clouds -15 1013 60 8000 1 0 09:40 23.12.2019
2087 Clouds -15 1013 60 8000 1 0 09:21 23.12.2019
2088 Clouds -15 1013 60 8000 1 0 08:58 23.12.2019
2089 Clouds -15 1013 60 8000 1 0 08:40 23.12.2019
2090 Clouds -15 1013 60 8000 1 0 08:22 23.12.2019
2091 Clouds -15 1013 60 8000 1 0 07:47 23.12.2019
2092 Clouds -16 1014 71 8000 2 0 07:20 23.12.2019
2093 Clouds -16 1015 71 6000 2.15 104 06:53 23.12.2019
2094 Clouds -16 1015 71 6000 2.15 104 06:53 23.12.2019
2095 Clouds -18 1015 70 6000 1 0 06:26 23.12.2019
2096 Clouds -19 1016 77 6000 1 0 05:53 23.12.2019
2097 Clouds -21 1017 76 6000 1 0 05:28 23.12.2019
2098 Smoke -23 1017 76 5000 1.72 132 04:31 23.12.2019
2099 Smoke -26 1017 75 5000 1 0 03:24 23.12.2019
2100 Smoke -28 1017 68 5000 1 0 02:41 23.12.2019
2101 Smoke -29 1017 68 5000 1.57 102 02:19 23.12.2019
2102 Smoke -30 1017 74 5000 1.57 102 01:42 23.12.2019
2103 Clouds -29 1017 68 6000 1.54 102 01:23 23.12.2019
2104 Clouds -30 1017 67 6000 1 0 00:43 23.12.2019
2105 Clouds -28 1017 68 6000 1.54 102 00:22 23.12.2019
2106 Clouds -30 1017 67 6000 1 0 23:39 22.12.2019
2107 Clear -30 1017 67 6000 1 0 23:21 22.12.2019
2108 Clear -29 1017 75 6000 1 0 22:58 22.12.2019
2109 Clear -29 1017 75 6000 1 0 22:58 22.12.2019
2110 Clear -29 1018 68 6000 1 0 22:40 22.12.2019
2111 Clear -29 1018 68 6000 1 0 22:20 22.12.2019
2112 Clear -28 1018 75 6000 1.07 80 21:57 22.12.2019
2113 Clear -28 1018 75 6000 1.07 80 21:39 22.12.2019
2114 Clear -28 1018 75 6000 1.07 80 21:21 22.12.2019
2115 Clear -29 1018 68 6000 1 0 20:58 22.12.2019
2116 Clear -29 1018 68 6000 1 0 20:38 22.12.2019
2117 Clear -29 1018 68 6000 1 0 20:18 22.12.2019
2118 Clear -27 1018 75 6000 1 0 19:56 22.12.2019
2119 Clear -27 1018 75 6000 1 0 19:37 22.12.2019
2120 Clear -27 1018 75 6000 1 0 19:19 22.12.2019
2121 Clear -29 1018 75 6000 0.96 98 18:40 22.12.2019
2122 Clear -29 1018 75 6000 0.96 98 18:40 22.12.2019
2123 Clear -29 1018 75 6000 0.96 98 18:22 22.12.2019
2124 Clear -27 1018 75 6000 1 0 17:55 22.12.2019
2125 Clear -27 1018 75 6000 1 0 17:37 22.12.2019
2126 Clear -27 1018 75 6000 1 0 17:18 22.12.2019
2127 Clear -28 1018 68 6000 1 0 16:57 22.12.2019
2128 Clear -28 1018 68 6000 1 0 16:56 22.12.2019
2129 Clear -28 1018 68 6000 1 0 16:38 22.12.2019
2130 Clear -28 1018 68 6000 1 0 16:19 22.12.2019
2131 Clear -27 1018 75 6000 0.42 118 15:56 22.12.2019
2132 Clear -28 1018 75 6000 2 170 15:37 22.12.2019
2133 Clear -28 1018 75 6000 2 170 15:19 22.12.2019
2134 Clear -27 1018 68 6000 1 0 14:54 22.12.2019
2135 Clear -26 1018 68 6000 1 0 14:36 22.12.2019
2136 Clear -26 1018 68 6000 1 0 14:18 22.12.2019
2137 Clear -25 1018 75 6000 1 0 13:55 22.12.2019
2138 Clear -26 1018 68 6000 2 170 13:36 22.12.2019
2139 Clear -26 1018 68 6000 2 170 13:18 22.12.2019
2140 Clear -26 1018 68 6000 2 170 13:18 22.12.2019
2141 Clear -26 1018 75 6000 3 170 12:54 22.12.2019
2142 Clear -26 1018 75 6000 3 170 12:54 22.12.2019
2143 Clear -26 1018 75 6000 3 170 12:54 22.12.2019
2144 Clear -25 1017 75 6000 1 0 12:36 22.12.2019
2145 Clear -25 1017 75 6000 1 0 12:18 22.12.2019
2146 Clear -23 1017 76 6000 2 160 11:39 22.12.2019
2147 Clear -23 1017 76 6000 2 160 11:20 22.12.2019
2148 Clear -22 1017 76 6000 2 160 10:58 22.12.2019
2149 Clear -21 1017 76 6000 2 170 10:40 22.12.2019
2150 Clear -21 1017 76 6000 2 170 10:21 22.12.2019
2151 Clear -17 1017 64 6000 0.57 95 09:58 22.12.2019
2152 Clear -14 1017 60 6000 0.57 95 09:40 22.12.2019
2153 Clear -14 1017 60 6000 0.57 95 09:21 22.12.2019
2154 Clear -15 1017 65 6000 1 0 08:55 22.12.2019
2155 Clear -15 1017 65 6000 1 0 08:37 22.12.2019
2156 Clouds -15 1017 65 6000 1 0 08:18 22.12.2019
2157 Smoke -16 1017 65 5000 2 0 07:36 22.12.2019
2158 Smoke -16 1017 65 5000 2 0 07:18 22.12.2019
2159 Smoke -16 1017 65 4000 1.04 211 06:40 22.12.2019
2160 Smoke -16 1018 59 4000 1.04 211 05:53 22.12.2019
2161 Smoke -20 1018 76 4000 0.61 214 05:21 22.12.2019
2162 Smoke -21 1018 76 4000 0.61 214 04:28 22.12.2019
2163 Smoke -22 1017 76 4000 0.61 214 03:52 22.12.2019
2164 Smoke -26 1017 75 5000 1 0 02:38 22.12.2019
2165 Clouds -27 1016 68 6000 0.38 244 01:42 22.12.2019
2166 Clouds -27 1016 68 6000 1 0 01:22 22.12.2019
2167 Clouds -26 1016 75 6000 1 0 00:45 22.12.2019
2168 Clouds -26 1015 75 6000 2 150 00:22 22.12.2019
2169 Clouds -27 1015 68 6000 2 180 23:55 21.12.2019
2170 Clouds -28 1014 75 6000 1 0 23:37 21.12.2019
2171 Clouds -28 1014 75 6000 1 0 23:18 21.12.2019
2172 Clouds -26 1014 75 8000 2 200 22:40 21.12.2019
2173 Clouds -26 1014 75 8000 2 200 22:40 21.12.2019
2174 Clouds -26 1014 75 8000 2 200 22:19 21.12.2019
2175 Clouds -26 1013 75 8000 2 170 21:57 21.12.2019
2176 Clouds -26 1013 75 8000 2 170 21:37 21.12.2019
2177 Clouds -26 1013 75 8000 2 170 21:19 21.12.2019
2178 Clouds -25 1013 75 8000 1 0 20:58 21.12.2019
2179 Clouds -25 1013 75 8000 1 0 20:39 21.12.2019
2180 Clouds -25 1013 75 8000 1 0 20:21 21.12.2019
2181 Clouds -20 1012 76 8000 1 0 19:58 21.12.2019
2182 Clouds -20 1012 76 8000 1 0 19:40 21.12.2019
2183 Clouds -20 1012 76 8000 1 0 19:19 21.12.2019
2184 Clouds -20 1012 76 8000 1 0 19:19 21.12.2019
2185 Clouds -20 1012 76 8000 1 0 18:44 21.12.2019
2186 Clouds -20 1012 76 8000 1 0 18:24 21.12.2019
2187 Clouds -20 1012 76 8000 1 0 17:57 21.12.2019
2188 Clouds -20 1012 70 8000 1.09 329 17:39 21.12.2019
2189 Clouds -20 1012 70 8000 1.09 329 17:39 21.12.2019
2190 Clouds -20 1012 70 8000 0.94 342 17:21 21.12.2019
2191 Clouds -20 1011 76 8000 0.94 342 16:58 21.12.2019
2192 Clouds -20 1011 76 8000 0.94 342 16:40 21.12.2019
2193 Clouds -20 1011 76 8000 0.94 342 16:18 21.12.2019
2194 Clouds -20 1011 76 8000 0.94 342 16:18 21.12.2019
2195 Clouds -19 1011 70 10000 1 0 15:57 21.12.2019
2196 Clouds -19 1011 70 10000 1 0 15:57 21.12.2019
2197 Clouds -19 1011 70 10000 0.94 342 15:38 21.12.2019
2198 Clouds -19 1011 70 10000 0.94 342 15:19 21.12.2019
2199 Clouds -19 1010 70 10000 1 0 14:55 21.12.2019
2200 Clouds -18 1010 70 10000 0.94 342 14:37 21.12.2019
2201 Clouds -18 1010 70 10000 0.73 94 14:18 21.12.2019
2202 Clouds -19 1010 70 10000 1 0 13:54 21.12.2019
2203 Clouds -19 1010 70 10000 1 0 13:36 21.12.2019
2204 Clouds -19 1010 70 10000 1 0 13:18 21.12.2019
2205 Clouds -20 1010 76 10000 0.45 47 12:54 21.12.2019
2206 Clouds -19 1010 70 10000 0.45 47 12:36 21.12.2019
2207 Clouds -19 1010 70 10000 0.45 47 12:36 21.12.2019
2208 Clouds -19 1010 70 10000 0.45 47 12:18 21.12.2019
2209 Clouds -18 1009 70 8000 1 0 11:41 21.12.2019
2210 Clouds -18 1009 70 8000 1 0 11:23 21.12.2019
2211 Clouds -18 1009 70 8000 1 0 10:42 21.12.2019
2212 Clouds -17 1009 64 8000 1 0 10:23 21.12.2019
2213 Clouds -17 1009 64 8000 1 0 10:23 21.12.2019
2214 Clouds -16 1009 65 8000 1.4 116 09:59 21.12.2019
2215 Clouds -15 1009 54 8000 1.4 116 09:41 21.12.2019
2216 Clouds -15 1009 54 8000 1.4 116 09:20 21.12.2019
2217 Clouds -14 1009 50 8000 1.4 116 08:56 21.12.2019
2218 Clouds -15 1009 54 8000 1 0 08:37 21.12.2019
2219 Clouds -15 1009 54 8000 1 0 08:18 21.12.2019
2220 Clouds -14 1009 50 8000 1 0 07:41 21.12.2019
2221 Clouds -16 1009 54 8000 1 0 07:21 21.12.2019
2222 Clouds -17 1010 59 8000 1 0 06:43 21.12.2019
2223 Clouds -18 1010 70 6000 1 0 06:25 21.12.2019
2224 Clouds -19 1011 77 6000 1.36 124 05:47 21.12.2019
2225 Clouds -21 1011 76 8000 1.77 111 04:57 21.12.2019
2226 Clouds -25 1012 75 8000 1.77 111 03:56 21.12.2019
2227 Clouds -29 1012 68 6000 1 0 02:40 21.12.2019
2228 Clouds -30 1012 67 6000 1.94 100 01:55 21.12.2019
2229 Clouds -29 1012 68 6000 1.94 100 01:27 21.12.2019
2230 Clouds -30 1012 74 8000 1.89 99 00:51 21.12.2019
2231 Clouds -30 1013 67 8000 1.89 99 00:31 21.12.2019
2232 Clouds -30 1013 74 8000 1 0 23:56 20.12.2019
2233 Clouds -30 1013 67 8000 1.89 99 23:37 20.12.2019
2234 Clouds -30 1013 67 8000 1.76 104 23:18 20.12.2019
2235 Clouds -30 1013 67 10000 1.76 104 22:40 20.12.2019
2236 Clouds -30 1013 67 10000 1.76 104 22:21 20.12.2019
2237 Clouds -30 1014 74 10000 1.76 104 21:57 20.12.2019
2238 Clouds -30 1014 74 10000 1.76 104 21:39 20.12.2019
2239 Clouds -30 1014 74 10000 1.76 104 21:18 20.12.2019
2240 Clouds -28 1014 75 10000 1.76 104 20:39 20.12.2019
2241 Clear -28 1014 75 10000 1.24 101 20:19 20.12.2019
2242 Clear -28 1015 68 10000 1 0 19:57 20.12.2019
2243 Clear -28 1015 68 10000 1 0 19:57 20.12.2019
2244 Clear -28 1015 68 10000 1 0 19:39 20.12.2019
2245 Clear -28 1015 68 10000 1 0 19:19 20.12.2019
2246 Clear -29 1015 68 10000 1 0 18:42 20.12.2019
2247 Clear -29 1015 68 10000 1 0 18:24 20.12.2019
2248 Clear -28 1015 75 10000 1 0 17:59 20.12.2019
2249 Clear -28 1015 75 10000 1 0 17:40 20.12.2019
2250 Clear -28 1015 75 10000 1 0 17:21 20.12.2019
2251 Clear -28 1015 75 10000 1 0 17:21 20.12.2019
2252 Clear -26 1016 68 10000 1 0 16:59 20.12.2019
2253 Clear -29 1016 68 10000 1 0 16:39 20.12.2019
2254 Clear -29 1016 68 10000 1 0 16:20 20.12.2019
2255 Clear -28 1016 75 10000 0.83 119 15:56 20.12.2019
2256 Clear -29 1016 68 10000 2 170 15:38 20.12.2019
2257 Clear -29 1016 68 10000 2 170 15:19 20.12.2019
2258 Clear -26 1016 75 10000 0.83 119 14:43 20.12.2019
2259 Clear -26 1016 75 10000 0.83 119 14:25 20.12.2019
2260 Clear -26 1016 68 10000 1 0 13:59 20.12.2019
2261 Clear -25 1016 75 10000 0.3 207 13:41 20.12.2019
2262 Clear -25 1016 75 10000 0.43 228 13:20 20.12.2019
2263 Clear -23 1015 69 10000 1 0 12:57 20.12.2019
2264 Clear -23 1015 69 10000 1 0 12:37 20.12.2019
2265 Clear -23 1015 69 10000 1 0 12:19 20.12.2019
2266 Clear -25 1015 69 10000 3 160 11:58 20.12.2019
2267 Clear -23 1015 69 10000 1 0 11:39 20.12.2019
2268 Clear -23 1015 69 10000 1 0 11:18 20.12.2019
2269 Clear -23 1014 69 10000 2 150 10:57 20.12.2019
2270 Clear -23 1014 69 10000 2 150 10:57 20.12.2019
2271 Clear -19 1014 64 10000 0.99 286 10:38 20.12.2019
2272 Clear -19 1014 64 10000 0.99 286 10:20 20.12.2019
2273 Clear -17 1014 59 8000 1 0 09:44 20.12.2019
2274 Clear -15 1013 54 8000 1 0 09:22 20.12.2019
2275 Clear -15 1013 54 8000 1 0 09:22 20.12.2019
2276 Clear -16 1013 59 8000 1 0 08:59 20.12.2019
2277 Clouds -15 1013 54 6000 0.99 286 08:41 20.12.2019
2278 Clouds -15 1013 54 6000 1.37 276 08:21 20.12.2019
2279 Smoke -17 1013 64 5000 1 0 07:57 20.12.2019
2280 Smoke -17 1013 59 5000 1 0 07:38 20.12.2019
2281 Smoke -17 1013 59 5000 1 0 07:18 20.12.2019
2282 Smoke -18 1013 64 5000 1 0 06:48 20.12.2019
2283 Clouds -17 1013 59 5000 1.37 276 06:29 20.12.2019
2284 Smoke -19 1013 77 5000 1.37 276 05:49 20.12.2019
2285 Smoke -21 1013 70 4000 1 0 05:20 20.12.2019
2286 Smoke -24 1013 76 5000 0.78 282 03:50 20.12.2019
2287 Smoke -25 1013 75 4000 1 0 03:21 20.12.2019
2288 Smoke -27 1013 68 4000 1 0 02:30 20.12.2019
2289 Smoke -30 1012 67 4000 0.18 312 01:36 20.12.2019
2290 Smoke -30 1012 67 4000 0.12 299 00:58 20.12.2019
2291 Smoke -31 1012 74 5000 1 0 00:36 20.12.2019
2292 Smoke -31 1013 67 5000 1 0 23:58 19.12.2019
2293 Smoke -31 1013 67 5000 1 0 23:40 19.12.2019
2294 Smoke -31 1013 67 5000 1 0 23:21 19.12.2019
2295 Smoke -29 1013 68 5000 1 0 22:40 19.12.2019
2296 Smoke -29 1013 68 5000 1 0 22:22 19.12.2019
2297 Smoke -30 1013 67 5000 1 0 21:59 19.12.2019
2298 Smoke -30 1013 67 5000 1 0 21:59 19.12.2019
2299 Smoke -30 1013 67 5000 1 0 21:41 19.12.2019
2300 Smoke -30 1013 67 5000 1 0 21:19 19.12.2019
2301 Smoke -31 1013 67 5000 1 0 20:57 19.12.2019
2302 Smoke -31 1013 67 5000 1 0 20:38 19.12.2019
2303 Smoke -31 1013 67 5000 1 0 20:20 19.12.2019
2304 Smoke -27 1014 68 5000 0.34 119 19:58 19.12.2019
2305 Smoke -29 1014 75 5000 1 0 19:40 19.12.2019
2306 Smoke -29 1014 75 5000 1 0 19:40 19.12.2019
2307 Smoke -29 1014 75 5000 1 0 19:19 19.12.2019
2308 Smoke -29 1014 75 5000 1 0 19:19 19.12.2019
2309 Smoke -29 1014 75 5000 1 0 19:19 19.12.2019
2310 Clear -30 1014 67 6000 1 0 18:58 19.12.2019
2311 Clear -29 1014 68 6000 1 0 18:40 19.12.2019
2312 Clear -29 1014 68 6000 1 0 18:19 19.12.2019
2313 Clear -27 1015 75 6000 2 0 17:56 19.12.2019
2314 Clear -27 1015 75 6000 2 0 17:37 19.12.2019
2315 Clear -27 1015 75 6000 2 0 17:18 19.12.2019
2316 Clear -27 1015 75 6000 2 0 17:18 19.12.2019
2317 Clear -29 1015 75 6000 2 150 16:56 19.12.2019
2318 Clear -29 1015 68 6000 1 0 16:37 19.12.2019
2319 Clear -29 1015 68 6000 1 0 16:19 19.12.2019
2320 Clear -29 1015 68 6000 1 0 15:57 19.12.2019
2321 Clear -29 1016 68 6000 0.46 81 15:37 19.12.2019
2322 Clear -29 1016 68 6000 0.46 81 15:19 19.12.2019
2323 Clear -29 1016 68 6000 0.46 81 15:19 19.12.2019
2324 Clear -26 1016 75 6000 1 0 14:44 19.12.2019
2325 Clouds -28 1016 68 6000 2 170 14:20 19.12.2019
2326 Clouds -27 1016 68 6000 2 170 13:59 19.12.2019
2327 Clouds -28 1016 68 6000 1 0 13:38 19.12.2019
2328 Clouds -28 1016 68 6000 1 0 13:19 19.12.2019
2329 Clear -26 1017 75 6000 2 160 12:57 19.12.2019
2330 Clear -24 1016 76 6000 1 0 12:39 19.12.2019
2331 Clear -24 1016 76 6000 1 0 12:19 19.12.2019
2332 Smoke -26 1017 68 5000 1 0 11:58 19.12.2019
2333 Smoke -21 1017 70 5000 1 0 11:40 19.12.2019
2334 Smoke -21 1017 70 5000 1 0 11:18 19.12.2019
2335 Smoke -21 1017 70 5000 0.61 170 10:58 19.12.2019
2336 Smoke -21 1017 70 4000 2 160 10:38 19.12.2019
2337 Smoke -21 1017 70 4000 2 160 10:20 19.12.2019
2338 Smoke -21 1017 70 4000 2 160 09:54 19.12.2019
2339 Smoke -18 1017 59 4000 1 0 09:36 19.12.2019
2340 Smoke -18 1017 59 4000 1 0 09:18 19.12.2019
2341 Smoke -18 1018 70 4000 1 0 08:41 19.12.2019
2342 Smoke -18 1018 70 4000 1 0 08:20 19.12.2019
2343 Smoke -18 1018 70 4000 1 0 08:20 19.12.2019
2344 Smoke -18 1018 70 4000 1 0 07:59 19.12.2019
2345 Smoke -18 1018 64 4000 2 0 07:38 19.12.2019
2346 Smoke -18 1018 64 4000 2 0 07:38 19.12.2019
2347 Smoke -18 1018 64 4000 2 0 07:20 19.12.2019
2348 Smoke -20 1019 70 3600 1 0 06:50 19.12.2019
2349 Smoke -20 1020 76 3200 0.53 140 06:32 19.12.2019
2350 Smoke -21 1020 76 3200 0.53 140 05:57 19.12.2019
2351 Smoke -21 1020 76 3200 0.53 140 05:39 19.12.2019
2352 Smoke -22 1021 76 3600 0.94 125 04:56 19.12.2019
2353 Smoke -24 1022 76 4000 0.94 125 03:45 19.12.2019
2354 Clear -32 1022 67 6000 1 0 02:24 19.12.2019
2355 Clear -32 1023 67 6000 1 0 01:23 19.12.2019
2356 Clear -32 1023 67 8000 0.65 104 00:44 19.12.2019
2357 Clear -32 1023 67 8000 0.65 104 00:25 19.12.2019
2358 Clear -31 1023 67 10000 1 0 23:58 18.12.2019
2359 Clear -32 1023 67 10000 1 0 23:38 18.12.2019
2360 Clear -32 1023 67 10000 1 0 23:19 18.12.2019
2361 Clear -29 1023 75 10000 0.57 147 22:56 18.12.2019
2362 Clear -29 1023 75 10000 0.57 147 22:37 18.12.2019
2363 Clear -29 1023 75 10000 0.57 147 22:19 18.12.2019
2364 Clear -32 1023 67 10000 1 0 21:57 18.12.2019
2365 Clear -33 1024 67 10000 1 0 21:39 18.12.2019
2366 Clear -33 1024 67 10000 1 0 21:19 18.12.2019
2367 Clear -29 1024 75 10000 0.57 147 20:55 18.12.2019
2368 Clear -32 1024 67 10000 1 0 20:37 18.12.2019
2369 Clear -32 1024 67 10000 1 0 20:19 18.12.2019
2370 Clear -31 1024 67 10000 1 0 19:55 18.12.2019
2371 Clear -31 1024 67 10000 1 0 19:37 18.12.2019
2372 Clear -31 1024 67 10000 1 0 19:37 18.12.2019
2373 Clear -31 1024 67 10000 1 0 19:18 18.12.2019
2374 Clear -30 1025 74 10000 1 0 18:44 18.12.2019
2375 Clear -30 1025 74 10000 1 0 18:25 18.12.2019
2376 Clear -30 1025 74 10000 0.59 250 17:57 18.12.2019
2377 Clear -30 1025 67 10000 0.59 250 17:39 18.12.2019
2378 Clear -30 1025 67 10000 0.73 230 17:19 18.12.2019
2379 Clear -30 1025 67 10000 0.73 230 16:57 18.12.2019
2380 Clear -30 1025 67 10000 0.73 230 16:57 18.12.2019
2381 Clear -29 1025 68 10000 1 0 16:38 18.12.2019
2382 Clear -29 1025 68 10000 1 0 16:20 18.12.2019
2383 Clear -26 1026 75 10000 1 0 15:55 18.12.2019
2384 Clear -26 1026 75 10000 1 0 15:37 18.12.2019
2385 Clear -26 1026 75 10000 1 0 15:37 18.12.2019
2386 Clear -26 1026 75 10000 1 0 15:19 18.12.2019
2387 Clear -27 1026 75 10000 1 0 14:42 18.12.2019
2388 Clouds -27 1026 68 10000 1 0 14:22 18.12.2019
2389 Clouds -26 1026 75 10000 1 0 13:57 18.12.2019
2390 Clouds -26 1026 68 10000 2 0 13:39 18.12.2019
2391 Clouds -26 1026 68 10000 2 0 13:20 18.12.2019
2392 Clouds -26 1026 75 10000 3 160 12:58 18.12.2019
2393 Clouds -23 1025 76 10000 0.71 269 12:38 18.12.2019
2394 Clouds -23 1025 76 10000 0.71 269 12:20 18.12.2019
2395 Clouds -23 1025 76 10000 0.71 269 11:56 18.12.2019
2396 Clouds -24 1025 76 10000 2 0 11:38 18.12.2019
2397 Clear -24 1025 76 10000 2 0 11:19 18.12.2019
2398 Clear -24 1025 69 10000 2 160 10:55 18.12.2019
2399 Clear -22 1025 69 10000 2 170 10:37 18.12.2019
2400 Clear -22 1025 69 10000 2 170 10:37 18.12.2019
2401 Clear -22 1025 69 10000 2 170 10:19 18.12.2019
2402 Clear -18 1025 64 10000 1 0 09:50 18.12.2019
2403 Clear -18 1025 64 10000 1 0 09:50 18.12.2019
2404 Clear -16 1025 59 10000 1.08 279 09:18 18.12.2019
2405 Clear -16 1025 59 10000 1 0 08:41 18.12.2019
2406 Clear -16 1025 59 10000 1 0 08:22 18.12.2019
2407 Clear -16 1025 65 10000 1 0 07:43 18.12.2019
2408 Clear -18 1025 77 10000 2 0 07:23 18.12.2019
2409 Clear -18 1025 77 10000 2 0 06:56 18.12.2019
2410 Clear -18 1025 77 8000 1 0 06:27 18.12.2019
2411 Clear -17 1025 77 6000 1.55 271 05:54 18.12.2019
2412 Smoke -23 1025 69 4000 1 0 04:59 18.12.2019
2413 Smoke -29 1025 68 5000 0.8 305 02:55 18.12.2019
2414 Smoke -31 1024 67 5000 1 0 02:37 18.12.2019
2415 Smoke -31 1024 67 5000 1 0 02:18 18.12.2019
2416 Smoke -29 1024 68 5000 1 0 01:41 18.12.2019
2417 Smoke -29 1024 68 5000 1 0 01:22 18.12.2019
2418 Smoke -29 1023 75 5000 1.81 342 00:41 18.12.2019
2419 Smoke -29 1023 75 5000 1.81 342 00:23 18.12.2019
2420 Smoke -29 1023 75 5000 1.81 342 00:23 18.12.2019
2421 Clear -28 1023 68 6000 1 0 23:56 17.12.2019
2422 Clear -28 1023 68 6000 1 0 23:38 17.12.2019
2423 Clear -28 1023 68 6000 1 0 23:18 17.12.2019
2424 Clear -31 1022 67 8000 1 0 22:56 17.12.2019
2425 Clear -31 1022 67 8000 1.76 335 22:37 17.12.2019
2426 Clear -31 1022 67 8000 1.76 335 22:18 17.12.2019
2427 Clear -30 1022 67 8000 1.76 335 21:55 17.12.2019
2428 Clear -30 1022 67 8000 1.76 335 21:37 17.12.2019
2429 Clear -30 1022 67 8000 1.76 335 21:18 17.12.2019
2430 Clear -30 1022 67 8000 1 0 20:56 17.12.2019
2431 Clear -30 1022 67 8000 1 0 20:37 17.12.2019
2432 Clear -30 1022 67 8000 1 0 20:18 17.12.2019
2433 Clear -29 1022 68 8000 1 0 19:54 17.12.2019
2434 Clear -29 1022 68 8000 1 0 19:36 17.12.2019
2435 Clear -29 1022 68 8000 1 0 19:18 17.12.2019
2436 Clear -28 1022 68 10000 2 160 18:42 17.12.2019
2437 Clear -28 1022 68 10000 2 160 18:22 17.12.2019
2438 Clear -28 1022 68 10000 2 160 17:59 17.12.2019
2439 Clear -29 1023 75 10000 1 0 17:41 17.12.2019
2440 Clear -29 1023 75 10000 1 0 17:19 17.12.2019
2441 Clear -29 1023 68 10000 1 0 16:56 17.12.2019
2442 Clear -29 1023 68 10000 1 0 16:56 17.12.2019
2443 Clear -29 1023 75 10000 2 170 16:37 17.12.2019
2444 Clear -29 1023 75 10000 2 170 16:19 17.12.2019
2445 Clear -29 1023 75 10000 1 0 15:56 17.12.2019
2446 Clear -27 1023 75 10000 0.37 73 15:37 17.12.2019
2447 Clear -27 1023 75 10000 0.37 73 15:37 17.12.2019
2448 Clear -27 1023 75 10000 0.37 73 15:19 17.12.2019
2449 Clear -28 1023 68 10000 1 0 14:55 17.12.2019
2450 Clear -28 1024 75 10000 1 0 14:36 17.12.2019
2451 Clear -28 1024 75 10000 1 0 14:18 17.12.2019
2452 Clear -27 1024 75 10000 0.86 103 13:55 17.12.2019
2453 Clear -26 1024 68 10000 1 170 13:37 17.12.2019
2454 Clear -26 1024 68 10000 1 170 13:18 17.12.2019
2455 Clear -27 1024 68 10000 1 0 12:41 17.12.2019
2456 Clear -27 1024 68 10000 1 0 12:19 17.12.2019
2457 Clear -27 1024 68 10000 1 0 12:19 17.12.2019
2458 Clear -27 1024 75 10000 2 180 11:59 17.12.2019
2459 Clear -26 1024 75 10000 2 170 11:37 17.12.2019
2460 Clouds -26 1024 75 10000 1 0 11:19 17.12.2019
2461 Clouds -26 1024 75 10000 1 0 10:59 17.12.2019
2462 Clouds -21 1024 70 10000 2 260 10:41 17.12.2019
2463 Clouds -21 1024 70 10000 2 260 10:41 17.12.2019
2464 Clouds -21 1024 70 10000 2 260 10:22 17.12.2019
2465 Clouds -17 1024 64 10000 2 0 09:59 17.12.2019
2466 Clouds -16 1024 71 10000 1 0 09:41 17.12.2019
2467 Clouds -16 1024 71 10000 1 0 09:20 17.12.2019
2468 Clouds -16 1024 71 10000 1 0 08:56 17.12.2019
2469 Clouds -16 1025 71 10000 1 0 08:38 17.12.2019
2470 Clouds -16 1025 71 10000 1 0 08:19 17.12.2019
2471 Clouds -15 1025 71 10000 0.71 217 07:46 17.12.2019
2472 Clouds -15 1025 71 10000 0.71 217 07:26 17.12.2019
2473 Clouds -15 1025 71 10000 0.71 217 06:56 17.12.2019
2474 Clouds -16 1026 77 10000 0.71 217 06:35 17.12.2019
2475 -273 0 0 0 0 0 05:53 17.12.2019
2476 Smoke -18 1027 84 5000 1 0 05:34 17.12.2019
2477 Smoke -20 1028 76 5000 0.68 192 04:30 17.12.2019
2478 Clouds -25 1027 75 8000 1 0 02:34 17.12.2019
2479 Clouds -25 1027 75 8000 1 0 02:34 17.12.2019
2480 Clouds -27 1027 75 8000 1 0 01:55 17.12.2019
2481 Clear -30 1027 67 10000 1 0 00:58 17.12.2019
2482 Clear -30 1027 67 10000 1 0 00:37 17.12.2019
2483 Clear -30 1027 67 10000 1 0 00:19 17.12.2019
2484 Clear -30 1027 67 10000 1 0 23:41 16.12.2019
2485 Clear -30 1027 67 10000 1 0 23:19 16.12.2019
2486 Clear -30 1027 67 10000 1 0 22:56 16.12.2019
2487 Clear -29 1027 68 10000 0.48 333 22:37 16.12.2019
2488 Clear -29 1027 68 10000 0.48 333 22:19 16.12.2019
2489 Clear -29 1027 68 10000 1 0 21:55 16.12.2019
2490 Clear -29 1028 68 10000 1 0 21:37 16.12.2019
2491 Clear -29 1028 68 10000 1 0 21:19 16.12.2019
2492 Clear -29 1028 75 10000 2 0 20:57 16.12.2019
2493 Clear -29 1028 75 10000 2 0 20:57 16.12.2019
2494 Clear -29 1028 75 10000 2 0 20:37 16.12.2019
2495 Clear -29 1028 75 10000 2 0 20:19 16.12.2019
2496 Clear -28 1028 75 10000 1 0 19:56 16.12.2019
2497 Clear -28 1028 75 10000 1 0 19:56 16.12.2019
2498 Clear -28 1028 75 10000 1 0 19:37 16.12.2019
2499 Clear -28 1028 75 10000 1 0 19:18 16.12.2019
2500 Clear -23 1028 69 10000 1 0 18:56 16.12.2019
2501 Clear -23 1028 69 10000 1 0 18:37 16.12.2019
2502 Clear -23 1028 69 10000 1 0 18:19 16.12.2019
2503 Clear -23 1028 69 10000 1 0 18:19 16.12.2019
2504 Clear -23 1028 69 10000 1 0 17:57 16.12.2019
2505 Clear -24 1028 76 10000 1 0 17:38 16.12.2019
2506 Clear -24 1028 76 10000 1 0 17:38 16.12.2019
2507 Clear -24 1028 76 10000 1 0 17:19 16.12.2019
2508 Clear -24 1028 83 10000 2 0 16:55 16.12.2019
2509 Clear -26 1028 75 10000 2 180 16:37 16.12.2019
2510 Clear -26 1028 75 10000 2 180 16:18 16.12.2019
2511 Clear -24 1028 76 10000 1.12 323 15:57 16.12.2019
2512 Clear -25 1027 75 10000 2 200 15:37 16.12.2019
2513 Clear -25 1027 75 10000 2 200 15:19 16.12.2019
2514 Clear -27 1027 75 10000 2 170 14:54 16.12.2019
2515 Clear -24 1027 76 10000 2 170 14:36 16.12.2019
2516 Clouds -24 1027 76 10000 2 170 14:18 16.12.2019
2517 Clouds -24 1027 76 10000 2 170 14:18 16.12.2019
2518 Clouds -25 1026 75 10000 1.61 340 13:55 16.12.2019
2519 Clouds -24 1026 76 10000 1 0 13:36 16.12.2019
2520 Clouds -24 1026 76 10000 1 0 13:18 16.12.2019
2521 Clouds -24 1026 76 10000 1 0 13:18 16.12.2019
2522 Clouds -24 1026 76 10000 1 0 12:54 16.12.2019
2523 Clouds -24 1026 76 10000 1 0 12:36 16.12.2019
2524 Clouds -19 1025 70 10000 1.66 339 12:18 16.12.2019
2525 Clouds -19 1025 70 10000 1.66 339 11:55 16.12.2019
2526 Clouds -19 1025 77 10000 1 0 11:37 16.12.2019
2527 Clouds -15 1024 65 10000 4 320 11:19 16.12.2019
2528 Clouds -15 1024 71 10000 3 330 10:40 16.12.2019
2529 Clouds -15 1024 71 10000 3 330 10:21 16.12.2019
2530 Clouds -13 1024 65 10000 4 330 09:56 16.12.2019
2531 Clouds -12 1023 60 10000 4 320 09:38 16.12.2019
2532 Clouds -12 1023 60 10000 4 320 09:20 16.12.2019
2533 Clouds -11 1022 61 10000 5 330 08:40 16.12.2019
2534 Clouds -11 1022 61 10000 5 330 08:19 16.12.2019
2535 Clouds -11 1022 61 10000 6 340 07:52 16.12.2019
2536 Clouds -11 1022 61 10000 6 340 07:31 16.12.2019
2537 Clouds -11 1022 61 10000 6 340 06:57 16.12.2019
2538 Clouds -11 1022 61 10000 6 330 06:39 16.12.2019
2539 Clouds -11 1022 61 10000 6 330 06:18 16.12.2019
2540 Clouds -11 1022 66 10000 5 320 05:41 16.12.2019
2541 Clouds -11 1022 66 10000 5 320 05:22 16.12.2019
2542 Clouds -12 1021 72 10000 2 0 03:28 16.12.2019
2543 Clouds -12 1019 72 10000 4 340 01:46 16.12.2019
2544 Clouds -12 1019 78 10000 2 0 01:21 16.12.2019
2545 Clouds -13 1018 84 10000 2 300 00:39 16.12.2019
2546 Clouds -13 1018 84 10000 2 300 00:19 16.12.2019
2547 Clouds -13 1017 78 10000 3 330 23:44 15.12.2019
2548 Clouds -13 1017 78 10000 3 330 23:25 15.12.2019
2549 Clouds -12 1017 78 10000 5 330 22:57 15.12.2019
2550 Clouds -13 1017 78 10000 4 320 22:39 15.12.2019
2551 Clouds -13 1017 78 10000 4 320 22:19 15.12.2019
2552 Clouds -12 1017 72 10000 3 320 21:58 15.12.2019
2553 Clouds -11 1016 72 10000 4 320 21:39 15.12.2019
2554 Clouds -11 1016 72 10000 4 320 21:20 15.12.2019
2555 Clouds -14 1028 92 0 2.8 336 20:58 15.12.2019
2556 Clouds -14 1028 92 0 2.8 336 20:58 15.12.2019
2557 Clouds -14 1028 92 0 2.8 336 20:40 15.12.2019
2558 Clouds -14 1028 92 0 2.8 336 20:40 15.12.2019
2559 Clouds -11 1015 72 6000 2.59 340 20:22 15.12.2019
2560 Clouds -11 1015 72 6000 2.22 345 19:58 15.12.2019
2561 Clouds -11 1015 72 6000 2.22 345 19:40 15.12.2019
2562 Clouds -11 1015 72 6000 2.29 344 19:20 15.12.2019
2563 Clouds -13 1015 78 6000 2.29 344 18:58 15.12.2019
2564 Clouds -13 1015 78 6000 2.29 344 18:39 15.12.2019
2565 Clouds -13 1015 78 6000 2.22 345 18:19 15.12.2019
2566 Clouds -13 1015 78 6000 2.29 344 17:57 15.12.2019
2567 Clouds -13 1015 71 8000 2 0 17:38 15.12.2019
2568 Clouds -13 1015 71 8000 2 0 17:19 15.12.2019
2569 Clouds -13 1015 71 8000 2 0 16:59 15.12.2019
2570 Clouds -14 1015 77 8000 2.22 351 16:41 15.12.2019
2571 Clouds -14 1015 77 8000 2.13 356 16:21 15.12.2019
2572 Clouds -14 1015 77 8000 2.22 351 15:56 15.12.2019
2573 Clouds -14 1015 77 8000 2.22 351 15:56 15.12.2019
2574 Clouds -14 1015 71 8000 2.22 351 15:38 15.12.2019
2575 Clouds -14 1015 71 8000 2.22 351 15:19 15.12.2019
2576 Clouds -15 1015 77 8000 1 0 14:56 15.12.2019
2577 Clouds -15 1015 71 8000 1 0 14:37 15.12.2019
2578 Clouds -15 1015 71 8000 1 0 14:18 15.12.2019
2579 Clouds -15 1015 71 8000 1 0 14:18 15.12.2019
2580 Clouds -15 1015 71 8000 1 0 13:58 15.12.2019
2581 Clouds -16 1015 77 6000 2 150 13:37 15.12.2019
2582 Clouds -16 1015 77 6000 2 150 13:19 15.12.2019
2583 Clouds -16 1015 77 6000 2 150 12:57 15.12.2019
2584 Clouds -16 1015 77 6000 1 0 12:39 15.12.2019
2585 Clouds -16 1015 77 6000 1 0 12:20 15.12.2019
2586 Clouds -15 1015 71 6000 1.54 13 11:56 15.12.2019
2587 Clouds -14 1014 71 6000 1 0 11:36 15.12.2019
2588 Clouds -15 1015 77 6000 1 0 11:18 15.12.2019
2589 Clouds -15 1015 77 6000 1 0 10:55 15.12.2019
2590 Clouds -14 1014 71 6000 0.74 129 10:36 15.12.2019
2591 Clouds -14 1014 71 6000 0.74 129 10:18 15.12.2019
2592 Clouds -11 1014 61 8000 0.74 129 09:40 15.12.2019
2593 Clouds -11 1014 61 8000 0.74 129 09:20 15.12.2019
2594 Clouds -11 1014 61 10000 1 0 08:58 15.12.2019
2595 Clouds -11 1014 61 10000 1 0 08:39 15.12.2019
2596 Clouds -11 1014 61 10000 1 0 08:20 15.12.2019
2597 Clouds -11 1014 61 6000 1 0 07:56 15.12.2019
2598 Clouds -11 1014 61 6000 1.5 116 07:34 15.12.2019
2599 Clouds -12 1015 60 6000 1.5 116 06:51 15.12.2019
2600 Clouds -13 1015 65 6000 1.5 116 06:20 15.12.2019
2601 Clouds -15 1016 71 6000 1.5 116 05:26 15.12.2019
2602 Clouds -17 1017 84 6000 1.62 112 04:47 15.12.2019
2603 Clouds -21 1017 83 8000 1 0 03:29 15.12.2019
2604 Clouds -25 1017 75 8000 1.62 112 02:34 15.12.2019
2605 Clear -23 1016 76 8000 1 0 01:47 15.12.2019
2606 Clear -24 1016 76 8000 1 0 01:28 15.12.2019
2607 Clear -24 1016 76 8000 1.57 92 00:58 15.12.2019
2608 Clear -25 1017 75 8000 1 0 00:40 15.12.2019
2609 Clear -25 1017 75 8000 1 0 00:21 15.12.2019
2610 Clear -25 1017 75 8000 1.57 92 23:40 14.12.2019
2611 Clear -25 1017 75 8000 0.99 114 23:21 14.12.2019
2612 Clear -23 1017 76 8000 0.99 114 22:58 14.12.2019
2613 Clear -23 1017 76 8000 0.99 114 22:40 14.12.2019
2614 Clear -23 1017 76 8000 0.99 114 22:20 14.12.2019
2615 Clear -24 1017 76 10000 0.99 114 21:56 14.12.2019
2616 Clear -24 1017 76 10000 0.99 114 21:37 14.12.2019
2617 Clear -24 1017 76 10000 0.99 114 21:18 14.12.2019
2618 Clear -24 1017 76 10000 1 0 20:56 14.12.2019
2619 Clear -24 1017 76 10000 1 0 20:37 14.12.2019
2620 Clear -24 1017 76 10000 1 0 20:19 14.12.2019
2621 Clear -24 1017 76 10000 1 0 20:19 14.12.2019
2622 Clear -21 1017 83 10000 0.8 132 19:54 14.12.2019
2623 Clear -21 1017 83 10000 0.8 132 19:36 14.12.2019
2624 Clear -21 1017 83 10000 0.8 132 19:18 14.12.2019
2625 Clear -23 1016 76 10000 1 0 18:55 14.12.2019
2626 Clear -23 1016 76 10000 1 0 18:36 14.12.2019
2627 Clear -23 1016 76 10000 1 0 18:18 14.12.2019
2628 Clear -21 1016 83 10000 0.8 132 17:42 14.12.2019
2629 Clear -21 1016 83 10000 0.45 51 17:22 14.12.2019
2630 Clear -22 1016 76 10000 2 170 16:42 14.12.2019
2631 Clear -22 1016 76 10000 2 170 16:20 14.12.2019
2632 Clear -23 1016 76 10000 1 0 15:58 14.12.2019
2633 Clear -20 1015 83 10000 1 0 15:39 14.12.2019
2634 Clear -20 1015 83 10000 1 0 15:20 14.12.2019
2635 Clear -22 1015 76 10000 1 0 14:57 14.12.2019
2636 Clear -20 1015 76 10000 1 0 14:38 14.12.2019
2637 Clear -20 1015 76 10000 1 0 14:19 14.12.2019
2638 Clear -20 1015 70 10000 1 0 13:45 14.12.2019
2639 Clear -16 1015 71 10000 1 0 13:20 14.12.2019
2640 Clear -16 1015 71 10000 1 0 12:58 14.12.2019
2641 Clear -17 1015 77 10000 1 0 12:40 14.12.2019
2642 Clear -17 1015 77 10000 1 0 12:21 14.12.2019
2643 Clear -17 1014 70 10000 2 140 11:58 14.12.2019
2644 Clear -19 1014 77 10000 2 180 11:39 14.12.2019
2645 Clear -14 1013 71 10000 0.53 305 11:19 14.12.2019
2646 Clear -14 1013 71 10000 0.53 305 10:57 14.12.2019
2647 Clear -13 1013 71 8000 0.53 305 10:39 14.12.2019
2648 Clear -13 1013 71 8000 0.53 305 10:39 14.12.2019
2649 Clear -13 1013 71 8000 0.53 305 10:20 14.12.2019
2650 Clear -9 1013 56 8000 1 0 09:55 14.12.2019
2651 Clear -8 1013 57 8000 1 0 09:37 14.12.2019
2652 Clear -8 1013 57 8000 1 0 09:18 14.12.2019
2653 Clear -7 1012 52 8000 1 0 08:42 14.12.2019
2654 Clear -7 1012 52 8000 1 0 08:42 14.12.2019
2655 Clouds -7 1012 52 8000 1 0 08:19 14.12.2019
2656 Clouds -8 1012 57 8000 1 0 07:44 14.12.2019
2657 Clouds -8 1012 57 8000 1 0 07:23 14.12.2019
2658 Clouds -9 1012 61 6000 1 0 06:56 14.12.2019
2659 Clouds -9 1012 56 6000 1 0 06:37 14.12.2019
2660 Clouds -10 1013 61 6000 1 0 05:57 14.12.2019
2661 Clouds -13 1014 65 8000 1 0 04:47 14.12.2019
2662 Clouds -21 1014 83 10000 1 0 02:31 14.12.2019
2663 Clouds -19 1013 84 10000 2 98 01:49 14.12.2019
2664 Clouds -20 1013 76 10000 1.96 97 01:31 14.12.2019
2665 Clouds -19 1013 84 10000 1.96 97 00:45 14.12.2019
2666 Clouds -19 1013 84 10000 1.96 97 00:27 14.12.2019
2667 Clouds -21 1013 83 10000 1 0 23:54 13.12.2019
2668 Clouds -21 1013 83 10000 2 170 23:36 13.12.2019
2669 Clouds -19 1013 84 10000 2.34 105 23:18 13.12.2019
2670 Clouds -20 1014 76 10000 2.34 105 22:40 13.12.2019
2671 Clouds -20 1014 76 10000 2.34 105 22:19 13.12.2019
2672 Clouds -16 1014 84 10000 2.34 105 21:55 13.12.2019
2673 Clouds -16 1014 84 10000 2.34 105 21:37 13.12.2019
2674 Clouds -16 1014 84 10000 2.34 105 21:19 13.12.2019
2675 Clouds -14 1022 77 0 2.34 105 20:40 13.12.2019
2676 Clouds -12 1015 66 10000 2 0 20:21 13.12.2019
2677 Clouds -12 1015 66 10000 2 0 19:58 13.12.2019
2678 Clouds -12 1015 66 10000 2 0 19:40 13.12.2019
2679 Clouds -12 1015 66 10000 2 0 19:21 13.12.2019
2680 Clouds -7 1016 52 10000 7 140 18:58 13.12.2019
2681 Clouds -7 1016 52 10000 7 140 18:40 13.12.2019
2682 Clouds -7 1016 52 10000 7 140 18:19 13.12.2019
2683 Clouds -7 1016 52 10000 7 140 18:19 13.12.2019
2684 Clouds -6 1016 48 10000 8 140 17:42 13.12.2019
2685 Clouds -6 1016 48 10000 8 140 17:19 13.12.2019
2686 Clouds -6 1016 48 10000 8 140 17:19 13.12.2019
2687 Clouds -7 1016 52 10000 6 130 16:59 13.12.2019
2688 Clouds -6 1016 53 10000 5 160 16:39 13.12.2019
2689 Clouds -6 1016 53 10000 5 160 16:20 13.12.2019
2690 Clouds -12 1017 66 10000 2 0 15:43 13.12.2019
2691 Clouds -12 1017 66 10000 2 0 15:23 13.12.2019
2692 Clouds -17 1017 84 10000 2 0 14:58 13.12.2019
2693 Clouds -17 1017 77 10000 1 0 14:40 13.12.2019
2694 Clouds -17 1017 77 10000 1 0 14:20 13.12.2019
2695 Clouds -15 1018 84 10000 2 270 13:56 13.12.2019
2696 Clouds -15 1018 77 10000 2 0 13:37 13.12.2019
2697 Clouds -15 1018 77 10000 2 0 13:19 13.12.2019
2698 Clouds -16 1019 84 10000 2 0 12:42 13.12.2019
2699 Clouds -16 1019 84 10000 2 0 12:20 13.12.2019
2700 Clouds -16 1019 84 10000 2 0 12:20 13.12.2019
2701 Clouds -15 1019 84 10000 1 0 11:57 13.12.2019
2702 Clouds -15 1019 77 8000 2 0 11:39 13.12.2019
2703 Clouds -15 1019 77 8000 2 0 11:19 13.12.2019
2704 Clouds -14 1020 77 8000 1 0 10:41 13.12.2019
2705 Clouds -14 1020 77 8000 1 0 10:22 13.12.2019
2706 Clouds -11 1020 66 6000 2.17 115 09:54 13.12.2019
2707 Clouds -11 1020 66 6000 2.17 115 09:36 13.12.2019
2708 Clouds -11 1020 66 6000 2.17 115 09:18 13.12.2019
2709 Clouds -11 1020 66 6000 2.17 115 09:18 13.12.2019
2710 Clouds -8 1021 61 6000 2.17 115 08:40 13.12.2019
2711 Clear -8 1021 61 6000 1.9 109 08:22 13.12.2019
2712 Smoke -10 1021 72 5000 1 0 07:44 13.12.2019
2713 Smoke -10 1021 72 5000 1 0 07:20 13.12.2019
2714 Smoke -9 1021 66 5000 1.9 107 06:50 13.12.2019
2715 Smoke -11 1022 78 5000 1.9 107 06:28 13.12.2019
2716 Smoke -13 1023 84 5000 1.9 107 05:44 13.12.2019
2717 Smoke -13 1023 84 5000 1.9 107 05:24 13.12.2019
2718 Smoke -16 1023 84 5000 1 0 04:35 13.12.2019
2719 Smoke -17 1023 77 5000 1.13 116 03:30 13.12.2019
2720 Clear -23 1023 76 6000 1.13 116 02:32 13.12.2019
2721 Clouds -24 1022 69 8000 1 0 01:42 13.12.2019
2722 Clouds -25 1022 75 8000 1 0 00:53 13.12.2019
2723 Clouds -25 1022 75 8000 1 0 00:34 13.12.2019
2724 Clouds -23 1022 83 8000 1 0 23:57 12.12.2019
2725 Clouds -23 1022 76 8000 1 0 23:37 12.12.2019
2726 Clouds -23 1022 76 8000 1 0 23:19 12.12.2019
2727 Clouds -24 1022 76 8000 2 160 22:42 12.12.2019
2728 Clouds -24 1022 76 8000 2 160 22:23 12.12.2019
2729 Clouds -20 1023 76 8000 0.64 255 21:56 12.12.2019
2730 Clouds -20 1023 76 8000 0.64 255 21:38 12.12.2019
2731 Clouds -20 1023 76 8000 0.64 255 21:20 12.12.2019
2732 Clouds -21 1022 76 8000 0.64 255 20:59 12.12.2019
2733 Clouds -21 1022 76 8000 0.64 255 20:41 12.12.2019
2734 Clouds -21 1022 76 8000 0.71 263 20:23 12.12.2019
2735 Clouds -20 1022 83 8000 1.4 273 19:59 12.12.2019
2736 Clouds -20 1022 83 8000 1.4 273 19:41 12.12.2019
2737 Clouds -20 1022 83 8000 1.4 273 19:21 12.12.2019
2738 Clouds -20 1021 83 10000 1.4 273 18:58 12.12.2019
2739 Clouds -22 1021 83 10000 1 0 18:39 12.12.2019
2740 Clouds -22 1021 83 10000 1 0 18:20 12.12.2019
2741 Clouds -22 1021 83 10000 1 0 17:57 12.12.2019
2742 Clouds -19 1021 84 10000 1 0 17:39 12.12.2019
2743 Clouds -19 1021 84 10000 1 0 17:20 12.12.2019
2744 Clouds -19 1021 84 10000 1 0 16:57 12.12.2019
2745 Clouds -18 1020 77 10000 1 0 16:38 12.12.2019
2746 Clouds -18 1020 77 10000 1 0 16:20 12.12.2019
2747 Clouds -20 1020 76 10000 1 0 15:54 12.12.2019
2748 Clouds -20 1020 76 10000 1 0 15:36 12.12.2019
2749 Clouds -20 1020 76 10000 1 0 15:18 12.12.2019
2750 Clouds -19 1020 84 10000 1.21 298 14:38 12.12.2019
2751 Clouds -19 1020 84 10000 1.62 328 14:20 12.12.2019
2752 Clouds -17 1019 77 10000 1 0 13:57 12.12.2019
2753 Clouds -18 1019 77 10000 2 170 13:39 12.12.2019
2754 Clouds -18 1019 77 10000 2 170 13:21 12.12.2019
2755 Clouds -18 1019 77 10000 2 160 12:57 12.12.2019
2756 Clouds -17 1018 77 10000 1 0 12:39 12.12.2019
2757 Clouds -17 1018 77 10000 1 0 12:20 12.12.2019
2758 Clouds -17 1018 77 10000 4 170 11:56 12.12.2019
2759 Clouds -19 1017 84 10000 2 130 11:37 12.12.2019
2760 Clouds -19 1017 84 10000 2 130 11:19 12.12.2019
2761 Clouds -17 1017 70 10000 1 0 10:54 12.12.2019
2762 Clouds -15 1016 71 10000 2 160 10:36 12.12.2019
2763 Clouds -15 1016 71 10000 2 160 10:18 12.12.2019
2764 Clouds -15 1016 71 10000 2 160 10:18 12.12.2019
2765 Clouds -15 1016 71 10000 2 160 10:18 12.12.2019
2766 Clouds -10 1015 56 8000 1.65 323 09:41 12.12.2019
2767 Clouds -10 1015 56 8000 1.65 323 09:23 12.12.2019
2768 Clouds -10 1014 56 8000 1.65 323 08:56 12.12.2019
2769 Clouds -11 1014 61 6000 1 0 08:38 12.12.2019
2770 Clouds -11 1014 61 6000 1 0 08:20 12.12.2019
2771 Smoke -12 1014 60 5000 1 0 07:43 12.12.2019
2772 Smoke -13 1014 65 5000 1 0 07:24 12.12.2019
2773 Smoke -13 1014 65 5000 1 0 06:50 12.12.2019
2774 Smoke -14 1013 65 5000 1 0 06:32 12.12.2019
2775 Smoke -16 1014 71 5000 1 0 05:39 12.12.2019
2776 Smoke -18 1014 77 5000 1 0 04:51 12.12.2019
2777 Clear -20 1014 76 6000 1.18 266 03:24 12.12.2019
2778 Clear -25 1013 75 6000 1 0 02:38 12.12.2019
2779 Clear -25 1013 75 6000 1 0 02:19 12.12.2019
2780 Clear -26 1013 75 6000 1 0 01:37 12.12.2019
2781 Clear -26 1013 75 6000 1 0 01:19 12.12.2019
2782 Clear -23 1013 76 6000 1 0 00:46 12.12.2019
2783 Clear -24 1013 76 6000 1 0 00:19 12.12.2019
2784 Clear -25 1013 75 6000 2 170 23:44 11.12.2019
2785 Clear -25 1013 75 6000 2 170 23:21 11.12.2019
2786 Clear -25 1013 75 6000 2 170 22:57 11.12.2019
2787 Clear -25 1014 75 6000 1 0 22:38 11.12.2019
2788 Clear -25 1014 75 6000 1 0 22:19 11.12.2019
2789 Clear -24 1014 76 6000 0.49 99 21:57 11.12.2019
2790 Clear -24 1014 76 6000 0.49 99 21:37 11.12.2019
2791 Clear -24 1014 76 6000 0.49 99 21:19 11.12.2019
2792 Clear -24 1014 76 6000 1 0 20:56 11.12.2019
2793 Clear -24 1014 76 6000 1 0 20:56 11.12.2019
2794 Clear -24 1014 76 6000 1 0 20:37 11.12.2019
2795 Clear -24 1014 76 6000 1 0 20:37 11.12.2019
2796 Clear -24 1014 76 6000 1 0 20:19 11.12.2019
2797 Clear -24 1014 76 6000 1 0 20:19 11.12.2019
2798 Clear -24 1014 76 6000 1 0 19:57 11.12.2019
2799 Clear -23 1014 76 6000 1 0 19:38 11.12.2019
2800 Clear -23 1014 76 6000 1 0 19:18 11.12.2019
2801 Clear -24 1015 76 6000 2 160 18:40 11.12.2019
2802 Clear -24 1015 76 6000 2 160 18:21 11.12.2019
2803 Clear -24 1015 76 6000 1 0 17:57 11.12.2019
2804 Clear -24 1015 76 6000 1 0 17:57 11.12.2019
2805 Clear -24 1015 76 6000 1 0 17:39 11.12.2019
2806 Clear -24 1015 76 6000 1 0 17:18 11.12.2019
2807 Clear -24 1015 76 6000 1 0 16:57 11.12.2019
2808 Clear -23 1015 76 6000 1 0 16:38 11.12.2019
2809 Clear -23 1015 76 6000 1 0 16:38 11.12.2019
2810 Clear -23 1015 76 6000 1 0 16:38 11.12.2019
2811 Clear -23 1015 76 6000 1 0 16:20 11.12.2019
2812 Clear -24 1015 76 6000 1 0 15:58 11.12.2019
2813 Clear -22 1015 76 6000 1 0 15:39 11.12.2019
2814 Clear -22 1015 76 6000 1 0 15:20 11.12.2019
2815 Clear -22 1015 76 6000 1 0 14:56 11.12.2019
2816 Clear -21 1015 70 6000 1 0 14:37 11.12.2019
2817 Clear -21 1015 70 6000 1 0 14:37 11.12.2019
2818 Clear -21 1015 70 6000 1 0 14:19 11.12.2019
2819 Clear -22 1015 69 6000 2 160 13:54 11.12.2019
2820 Clear -20 1015 76 6000 1 0 13:36 11.12.2019
2821 Clear -20 1015 76 6000 1 0 13:18 11.12.2019
2822 Clouds -20 1015 76 6000 2 170 12:54 11.12.2019
2823 Clouds -20 1015 76 6000 2 170 12:36 11.12.2019
2824 Clouds -20 1015 76 6000 2 170 12:36 11.12.2019
2825 Clouds -20 1015 76 6000 2 170 12:18 11.12.2019
2826 Clouds -20 1015 70 10000 3 170 11:54 11.12.2019
2827 Clouds -20 1015 76 6000 1 0 11:36 11.12.2019
2828 Clouds -20 1015 76 6000 1 0 11:18 11.12.2019
2829 Clouds -19 1015 77 6000 2 180 10:40 11.12.2019
2830 Clouds -19 1015 77 6000 2 180 10:22 11.12.2019
2831 Clouds -17 1015 70 8000 3 170 09:58 11.12.2019
2832 Clouds -15 1015 65 10000 2 170 09:38 11.12.2019
2833 Clouds -15 1015 65 10000 2 170 09:19 11.12.2019
2834 Clear -13 1015 60 8000 1 0 08:56 11.12.2019
2835 Clear -12 1015 55 8000 1 0 08:37 11.12.2019
2836 Clouds -12 1015 55 8000 1 0 08:18 11.12.2019
2837 Clouds -12 1015 55 8000 0.65 134 07:43 11.12.2019
2838 Clouds -12 1015 55 8000 0.65 134 07:24 11.12.2019
2839 Clouds -14 1016 65 8000 1 0 06:46 11.12.2019
2840 Clouds -14 1017 60 8000 1 0 06:25 11.12.2019
2841 Clouds -15 1017 60 8000 1 0 05:56 11.12.2019
2842 Clouds -16 1017 65 8000 0.65 134 05:35 11.12.2019
2843 Clouds -17 1018 64 8000 1.47 96 04:51 11.12.2019
2844 Clouds -20 1018 76 8000 1 0 03:29 11.12.2019
2845 Clouds -23 1019 83 6000 1 0 02:38 11.12.2019
2846 Clouds -27 1019 75 10000 1.36 107 01:22 11.12.2019
2847 Clouds -26 1019 75 10000 2 180 00:43 11.12.2019
2848 Clouds -26 1019 75 10000 2 180 00:43 11.12.2019
2849 Clouds -26 1019 75 10000 2 180 00:19 11.12.2019
2850 Clouds -25 1020 75 10000 1.36 107 23:46 10.12.2019
2851 Clouds -24 1020 76 10000 1.36 107 23:26 10.12.2019
2852 Clear -24 1020 76 10000 1 0 22:57 10.12.2019
2853 Clear -25 1021 83 10000 1 0 22:39 10.12.2019
2854 Clear -25 1021 83 10000 1 0 22:20 10.12.2019
2855 Clear -26 1021 75 10000 0.87 133 21:54 10.12.2019
2856 Clear -26 1021 75 10000 0.87 133 21:36 10.12.2019
2857 Clear -26 1021 75 10000 0.87 133 21:18 10.12.2019
2858 Clear -24 1022 83 10000 0.87 133 20:55 10.12.2019
2859 Clear -24 1022 83 10000 0.87 133 20:36 10.12.2019
2860 Clear -24 1022 83 10000 0.42 192 20:18 10.12.2019
2861 Clear -24 1022 83 10000 0.52 191 20:18 10.12.2019
2862 Clear -24 1022 76 10000 0.42 192 19:44 10.12.2019
2863 Clear -24 1022 76 10000 0.42 192 19:26 10.12.2019
2864 Clear -24 1022 76 10000 2 170 18:59 10.12.2019
2865 Clear -24 1022 76 10000 2 170 18:39 10.12.2019
2866 Clear -24 1022 76 10000 2 170 18:19 10.12.2019
2867 Clear -26 1021 75 10000 1 0 17:55 10.12.2019
2868 Clear -26 1021 75 10000 1 0 17:36 10.12.2019
2869 Clear -26 1021 75 10000 1 0 17:36 10.12.2019
2870 Clear -26 1021 75 10000 1 0 17:18 10.12.2019
2871 Clear -22 1021 69 10000 2 0 16:42 10.12.2019
2872 Clear -22 1021 69 10000 2 0 16:20 10.12.2019
2873 Clear -23 1021 69 10000 2 0 15:54 10.12.2019
2874 Clear -24 1021 76 10000 2 0 15:36 10.12.2019
2875 Clear -24 1021 76 10000 2 0 15:18 10.12.2019
2876 Clear -24 1021 76 10000 2 0 15:18 10.12.2019
2877 Clear -20 1020 76 10000 2 0 14:54 10.12.2019
2878 Clear -24 1021 76 10000 2 0 14:36 10.12.2019
2879 Clouds -24 1021 76 10000 2 0 14:18 10.12.2019
2880 Clouds -24 1021 76 10000 2 0 14:18 10.12.2019
2881 Clouds -17 1020 77 10000 1 0 13:54 10.12.2019
2882 Clouds -17 1020 77 10000 1 0 13:36 10.12.2019
2883 Clouds -17 1020 77 10000 1 0 13:18 10.12.2019
2884 Clouds -14 1020 65 10000 3 350 12:38 10.12.2019
2885 Clouds -14 1020 65 10000 3 350 12:20 10.12.2019
2886 Clouds -15 1019 71 10000 4 340 11:42 10.12.2019
2887 Clouds -15 1019 71 10000 4 340 11:23 10.12.2019
2888 Clouds -13 1019 65 10000 5 340 10:56 10.12.2019
2889 Clouds -13 1018 71 10000 5 340 10:37 10.12.2019
2890 Clouds -13 1018 71 10000 5 340 10:19 10.12.2019
2891 Clouds -11 1018 72 10000 6 320 09:54 10.12.2019
2892 Clouds -11 1017 72 10000 6 340 09:36 10.12.2019
2893 Clouds -11 1017 72 10000 6 340 09:18 10.12.2019
2894 Snow -10 1017 66 8000 6 340 08:42 10.12.2019
2895 Snow -10 1017 66 8000 6 340 08:23 10.12.2019
2896 Snow -11 1017 72 6000 1 0 07:58 10.12.2019
2897 Clouds -11 1016 72 10000 1 0 07:40 10.12.2019
2898 Clouds -11 1016 72 10000 1 0 07:22 10.12.2019
2899 Clouds -12 1017 72 10000 2 250 06:46 10.12.2019
2900 Clouds -12 1017 72 10000 1 0 06:19 10.12.2019
2901 Clouds -13 1017 78 10000 2 0 05:53 10.12.2019
2902 Clouds -14 1017 84 10000 1 0 04:52 10.12.2019
2903 Clouds -17 1017 84 10000 1.34 285 03:37 10.12.2019
2904 Clouds -18 1017 84 10000 1 0 02:45 10.12.2019
2905 Clouds -17 1016 84 10000 2 220 01:44 10.12.2019
2906 Snow -14 1017 84 10000 1 0 01:20 10.12.2019
2907 Snow -15 1016 84 10000 1 0 00:41 10.12.2019
2908 Snow -15 1016 84 10000 1 0 00:21 10.12.2019
2909 Snow -15 1016 77 6000 1.13 256 23:41 09.12.2019
2910 Snow -15 1016 77 6000 1.13 256 23:23 09.12.2019
2911 Snow -15 1017 84 5000 1 0 22:58 09.12.2019
2912 Snow -15 1017 84 10000 1 0 22:40 09.12.2019
2913 Snow -15 1017 84 10000 1 0 22:19 09.12.2019
2914 Snow -16 1017 84 10000 1 0 21:57 09.12.2019
2915 Snow -17 1017 84 10000 1 0 21:38 09.12.2019
2916 Snow -17 1017 84 10000 1 0 21:19 09.12.2019
2917 Clouds -19 1017 77 10000 1 0 20:56 09.12.2019
2918 Clouds -19 1017 77 10000 1 0 20:38 09.12.2019
2919 Clouds -19 1017 77 10000 1 0 20:20 09.12.2019
2920 Clouds -22 1017 83 10000 1 0 19:55 09.12.2019
2921 Clouds -22 1017 83 10000 1 0 19:37 09.12.2019
2922 Clouds -22 1017 83 10000 1 0 19:19 09.12.2019
2923 Clouds -20 1017 83 10000 4 170 18:56 09.12.2019
2924 Clouds -20 1017 83 10000 4 170 18:38 09.12.2019
2925 Clouds -20 1017 83 10000 4 170 18:19 09.12.2019
2926 Clouds -20 1017 76 10000 3 160 17:57 09.12.2019
2927 Clouds -19 1017 77 10000 2 170 17:39 09.12.2019
2928 Clouds -19 1017 77 10000 2 170 17:20 09.12.2019
2929 Clouds -19 1017 77 10000 3 160 16:56 09.12.2019
2930 Clouds -21 1017 83 10000 3 150 16:37 09.12.2019
2931 Clouds -21 1017 83 10000 3 150 16:19 09.12.2019
2932 Clouds -19 1017 84 10000 3 170 15:55 09.12.2019
2933 Clouds -20 1017 83 10000 2 0 15:37 09.12.2019
2934 Clouds -20 1017 83 10000 2 0 15:19 09.12.2019
2935 Clouds -20 1016 83 10000 2 0 14:42 09.12.2019
2936 Clouds -20 1016 83 10000 2 0 14:19 09.12.2019
2937 Clouds -15 1016 84 10000 2.12 331 13:59 09.12.2019
2938 Clouds -15 1016 84 10000 2.12 331 13:39 09.12.2019
2939 Clouds -15 1016 84 10000 2.14 333 13:20 09.12.2019
2940 Clouds -17 1015 84 10000 2.14 333 12:57 09.12.2019
2941 Clouds -19 1015 84 10000 1 0 12:38 09.12.2019
2942 Clouds -19 1015 84 10000 1 0 12:20 09.12.2019
2943 Clouds -16 1014 84 8000 1 0 11:58 09.12.2019
2944 Clouds -18 1014 77 8000 2 180 11:39 09.12.2019
2945 Clouds -18 1014 77 8000 2 180 11:21 09.12.2019
2946 Clouds -14 1014 77 8000 2.07 321 10:55 09.12.2019
2947 Clouds -11 1013 66 8000 1 0 10:37 09.12.2019
2948 Clouds -11 1013 66 8000 1 0 10:18 09.12.2019
2949 Clouds -10 1012 66 6000 1 0 09:41 09.12.2019
2950 Clouds -10 1012 66 6000 1 0 09:22 09.12.2019
2951 Clouds -8 1012 57 6000 2.07 321 08:55 09.12.2019
2952 Clouds -8 1012 57 6000 2.07 321 08:55 09.12.2019
2953 Clouds -9 1012 61 6000 1 0 08:37 09.12.2019
2954 Clouds -9 1012 61 6000 1 0 08:19 09.12.2019
2955 Smoke -11 1012 61 5000 2 0 07:42 09.12.2019
2956 Smoke -11 1012 61 5000 2 0 07:24 09.12.2019
2957 Smoke -10 1012 61 5000 1.52 292 06:54 09.12.2019
2958 Smoke -11 1012 61 5000 1.52 292 06:27 09.12.2019
2959 Smoke -14 1012 71 5000 1.52 292 05:30 09.12.2019
2960 Smoke -14 1013 71 5000 1 0 04:51 09.12.2019
2961 Smoke -16 1013 77 5000 1 0 04:20 09.12.2019
2962 Smoke -21 1013 83 5000 1 0 02:27 09.12.2019
2963 Smoke -21 1012 76 5000 0.78 106 01:44 09.12.2019
2964 Clouds -22 1012 76 6000 1 0 00:55 09.12.2019
2965 Clouds -23 1012 83 6000 1 0 00:32 09.12.2019
2966 Clouds -22 1012 83 6000 1 0 23:54 08.12.2019
2967 Clouds -22 1012 76 8000 1 0 23:36 08.12.2019
2968 Clouds -22 1012 76 8000 1 0 23:18 08.12.2019
2969 Clouds -23 1012 76 8000 0.88 109 22:56 08.12.2019
2970 Clouds -22 1013 83 10000 1 0 22:37 08.12.2019
2971 Clouds -22 1013 83 10000 1 0 22:18 08.12.2019
2972 Clouds -22 1013 83 10000 1 0 21:54 08.12.2019
2973 Clouds -22 1013 83 10000 1 0 21:36 08.12.2019
2974 Clouds -22 1013 83 10000 1 0 21:18 08.12.2019
2975 Clouds -22 1014 76 10000 0.88 109 20:54 08.12.2019
2976 Clouds -22 1014 76 10000 0.88 109 20:54 08.12.2019
2977 Clouds -22 1014 76 10000 0.88 109 20:36 08.12.2019
2978 Clouds -22 1014 76 10000 0.42 37 20:18 08.12.2019
2979 Clouds -18 1014 77 10000 1 0 19:42 08.12.2019
2980 Clouds -18 1014 77 10000 1 0 19:23 08.12.2019
2981 Clouds -21 1014 83 10000 1 0 18:56 08.12.2019
2982 Clouds -21 1014 83 10000 1 0 18:37 08.12.2019
2983 Clouds -21 1014 83 10000 1 0 18:19 08.12.2019
2984 Clouds -19 1014 77 10000 1 0 17:57 08.12.2019
2985 Clouds -19 1014 77 10000 1 0 17:39 08.12.2019
2986 Clouds -19 1014 77 10000 1 0 17:20 08.12.2019
2987 Clouds -19 1014 77 10000 2 0 16:58 08.12.2019
2988 Clouds -20 1015 83 10000 1 0 16:40 08.12.2019
2989 Clouds -20 1015 83 10000 1 0 16:21 08.12.2019
2990 Clouds -20 1014 76 10000 1.04 311 15:57 08.12.2019
2991 Clouds -21 1014 76 10000 1 0 15:37 08.12.2019
2992 Clouds -21 1014 76 10000 1 0 15:18 08.12.2019
2993 Clear -21 1014 76 10000 1 0 14:44 08.12.2019
2994 Clear -19 1014 77 10000 2 140 14:24 08.12.2019
2995 Clear -21 1014 76 10000 1 0 13:59 08.12.2019
2996 Clear -21 1014 76 10000 1 0 13:40 08.12.2019
2997 Clear -21 1014 76 10000 1 0 13:22 08.12.2019
2998 Clear -19 1014 84 10000 2 160 12:58 08.12.2019
2999 Clear -19 1014 84 10000 2 160 12:58 08.12.2019
3000 Clear -17 1014 84 10000 0.76 303 12:38 08.12.2019
3001 Clear -17 1014 84 10000 0.76 303 12:18 08.12.2019
3002 Clear -17 1014 77 10000 2 0 11:57 08.12.2019
3003 Clear -17 1014 70 10000 1 0 11:37 08.12.2019
3004 Clouds -17 1014 70 10000 1 0 11:19 08.12.2019
3005 Clouds -17 1014 70 10000 2 0 10:40 08.12.2019
3006 Clouds -17 1014 70 10000 2 0 10:22 08.12.2019
3007 Clouds -10 1013 61 10000 1 0 09:58 08.12.2019
3008 Clouds -10 1013 66 8000 1 0 09:39 08.12.2019
3009 Clouds -10 1013 66 8000 1 0 09:20 08.12.2019
3010 Clouds -10 1013 66 8000 2 280 08:59 08.12.2019
3011 Clouds -9 1013 61 8000 1 0 08:41 08.12.2019
3012 Clouds -9 1013 61 8000 1 0 08:22 08.12.2019
3013 Clouds -9 1013 61 6000 0.8 236 07:49 08.12.2019
3014 Clouds -10 1013 61 6000 1 0 07:21 08.12.2019
3015 Smoke -11 1014 61 5000 1 0 06:53 08.12.2019
3016 Smoke -11 1013 61 5000 1 0 06:23 08.12.2019
3017 Smoke -11 1014 61 4000 0.8 236 05:58 08.12.2019
3018 Smoke -13 1014 65 4000 0.99 268 05:22 08.12.2019
3019 Smoke -16 1014 77 4000 0.99 268 04:20 08.12.2019
3020 Smoke -18 1014 77 5000 0.99 268 03:38 08.12.2019
3021 Clouds -21 1014 76 6000 0.99 268 02:40 08.12.2019
3022 Clouds -20 1014 76 6000 1.19 308 01:57 08.12.2019
3023 Clouds -20 1014 76 6000 1 0 01:34 08.12.2019
3024 Clouds -22 1014 76 6000 1.37 308 00:45 08.12.2019
3025 Clouds -22 1014 76 6000 1.37 308 00:21 08.12.2019
3026 Clouds -23 1014 76 6000 1 0 23:55 07.12.2019
3027 Clouds -22 1014 76 6000 1 0 23:36 07.12.2019
3028 Clear -22 1014 76 6000 1 0 23:18 07.12.2019
3029 Clear -21 1014 76 8000 1.96 329 22:54 07.12.2019
3030 Clear -23 1014 76 8000 1 0 22:36 07.12.2019
3031 Clear -23 1014 76 8000 1 0 22:36 07.12.2019
3032 Clear -23 1014 76 8000 1 0 22:18 07.12.2019
3033 Clear -21 1014 76 8000 1 0 21:54 07.12.2019
3034 Clear -21 1014 76 8000 1 0 21:36 07.12.2019
3035 Clear -21 1014 76 8000 1 0 21:18 07.12.2019
3036 Clear -20 1014 76 8000 1.96 329 20:37 07.12.2019
3037 Clear -20 1014 76 8000 1.94 339 20:19 07.12.2019
3038 Clear -24 1014 69 8000 1.94 339 19:57 07.12.2019
3039 Clear -24 1014 69 8000 1.94 339 19:39 07.12.2019
3040 Clear -24 1014 69 8000 1.94 339 19:21 07.12.2019
3041 Clear -22 1014 69 8000 1 0 18:57 07.12.2019
3042 Clear -22 1014 69 8000 1 0 18:38 07.12.2019
3043 Clear -22 1014 69 8000 1 0 18:18 07.12.2019
3044 Clear -20 1014 70 8000 1 0 17:55 07.12.2019
3045 Clear -21 1014 70 8000 2 190 17:36 07.12.2019
3046 Clear -21 1014 70 8000 2 190 17:18 07.12.2019
3047 Clear -20 1015 76 8000 1.23 334 16:54 07.12.2019
3048 Clear -20 1014 76 8000 2 130 16:36 07.12.2019
3049 Clear -20 1014 76 8000 2 130 16:18 07.12.2019
3050 Clear -21 1015 76 8000 1 0 15:40 07.12.2019
3051 Clear -21 1015 76 8000 1 0 15:22 07.12.2019
3052 Clear -20 1015 76 8000 2 160 14:43 07.12.2019
3053 Clouds -20 1015 76 8000 2 160 14:19 07.12.2019
3054 Clouds -21 1015 76 8000 1 0 13:59 07.12.2019
3055 Clouds -20 1015 76 8000 1 0 13:39 07.12.2019
3056 Clouds -20 1015 76 8000 1 0 13:39 07.12.2019
3057 Clouds -20 1015 76 8000 1 0 13:39 07.12.2019
3058 Clouds -20 1015 76 8000 1 0 13:19 07.12.2019
3059 Clouds -17 1015 70 8000 0.26 282 12:55 07.12.2019
3060 Clouds -19 1015 77 8000 2 160 12:36 07.12.2019
3061 Clouds -19 1015 77 8000 2 160 12:18 07.12.2019
3062 Clouds -18 1015 77 8000 1 0 11:41 07.12.2019
3063 Clouds -18 1015 77 8000 1 0 11:23 07.12.2019
3064 Clouds -16 1015 71 8000 2 160 10:55 07.12.2019
3065 Clouds -15 1015 65 8000 2 170 10:36 07.12.2019
3066 Clouds -15 1015 65 8000 2 170 10:18 07.12.2019
3067 Clouds -10 1015 51 8000 1 0 09:39 07.12.2019
3068 Clouds -10 1015 51 8000 1 0 09:21 07.12.2019
3069 Clouds -10 1015 51 8000 1 0 08:45 07.12.2019
3070 Clouds -10 1015 56 8000 1 0 08:25 07.12.2019
3071 Clouds -10 1016 51 8000 1 0 07:52 07.12.2019
3072 Clouds -11 1016 56 8000 1 0 07:29 07.12.2019
3073 Clouds -12 1017 55 8000 1 0 06:53 07.12.2019
3074 Clouds -12 1017 55 8000 1.5 125 06:27 07.12.2019
3075 Clouds -14 1018 60 8000 1 0 05:49 07.12.2019
3076 Clear -16 1019 77 8000 1.94 110 04:48 07.12.2019
3077 Clear -20 1020 83 8000 1.94 110 03:51 07.12.2019
3078 Clear -26 1020 83 8000 1.94 110 02:23 07.12.2019
3079 Clear -27 1020 75 8000 2.11 104 01:51 07.12.2019
3080 Clear -25 1021 75 8000 2.03 104 01:25 07.12.2019
3081 Clear -27 1021 75 8000 2.03 104 00:36 07.12.2019
3082 Clear -27 1021 75 8000 2.03 104 00:18 07.12.2019
3083 Clear -25 1021 75 8000 1 0 23:42 06.12.2019
3084 Clear -25 1021 75 8000 1 0 23:20 06.12.2019
3085 Clear -25 1022 75 6000 1 0 22:39 06.12.2019
3086 Clear -25 1022 75 6000 1 0 22:21 06.12.2019
3087 Clear -24 1023 76 6000 2.03 105 21:59 06.12.2019
3088 Clear -24 1023 76 6000 2.03 105 21:41 06.12.2019
3089 Clear -24 1023 76 6000 2.03 105 21:21 06.12.2019
3090 Clear -26 1024 75 6000 1 0 20:59 06.12.2019
3091 Clear -26 1024 75 6000 1 0 20:41 06.12.2019
3092 Clear -26 1024 75 6000 1 0 20:20 06.12.2019
3093 Clear -25 1024 69 6000 1 0 19:42 06.12.2019
3094 Clear -25 1024 69 6000 1 0 19:24 06.12.2019
3095 Clear -24 1025 76 6000 1.85 101 18:59 06.12.2019
3096 Clear -24 1025 76 6000 1.85 101 18:40 06.12.2019
3097 Clear -24 1025 76 6000 1.85 101 18:21 06.12.2019
3098 Clear -24 1025 76 6000 1.85 101 17:58 06.12.2019
3099 Clear -25 1025 83 6000 1.85 101 17:40 06.12.2019
3100 Clear -25 1025 83 6000 1.85 101 17:40 06.12.2019
3101 Clear -25 1025 83 6000 1.31 117 17:22 06.12.2019
3102 Clear -24 1025 76 6000 1 0 16:57 06.12.2019
3103 Clear -25 1025 75 6000 1 0 16:37 06.12.2019
3104 Clear -25 1025 75 6000 1 0 16:19 06.12.2019
3105 Clear -24 1026 76 6000 1.31 117 15:41 06.12.2019
3106 Clear -24 1026 76 6000 1.31 117 15:22 06.12.2019
3107 Clear -23 1026 76 6000 1.31 117 14:58 06.12.2019
3108 Clear -23 1026 76 6000 1.31 117 14:40 06.12.2019
3109 Clear -23 1026 76 6000 0.9 114 14:20 06.12.2019
3110 Clear -23 1026 76 6000 0.9 114 13:46 06.12.2019
3111 Clear -22 1027 76 6000 1 0 13:26 06.12.2019
3112 Clear -22 1027 76 6000 3 170 12:57 06.12.2019
3113 Clear -23 1027 83 6000 2 170 12:39 06.12.2019
3114 Clear -23 1027 83 6000 2 170 12:20 06.12.2019
3115 Clear -19 1027 77 6000 1 0 11:42 06.12.2019
3116 Clear -19 1027 77 6000 1 0 11:23 06.12.2019
3117 Clear -20 1027 76 6000 2 150 10:55 06.12.2019
3118 Clear -17 1027 70 6000 1 0 10:37 06.12.2019
3119 Clear -17 1027 70 6000 1 0 10:19 06.12.2019
3120 Smoke -13 1027 65 6000 0.5 158 09:55 06.12.2019
3121 Smoke -13 1027 65 6000 0.5 158 09:55 06.12.2019
3122 Smoke -12 1027 60 5000 1 0 09:36 06.12.2019
3123 Smoke -12 1027 60 5000 1 0 09:18 06.12.2019
3124 Smoke -11 1027 61 5000 1 0 08:40 06.12.2019
3125 Smoke -11 1027 61 5000 1 0 08:22 06.12.2019
3126 Smoke -12 1028 55 5000 1 0 07:38 06.12.2019
3127 Smoke -12 1028 55 5000 1 0 07:20 06.12.2019
3128 Smoke -13 1028 60 5000 1 0 06:48 06.12.2019
3129 Smoke -14 1028 65 5000 1 0 06:24 06.12.2019
3130 Smoke -15 1028 71 5000 1.03 239 05:47 06.12.2019
3131 Smoke -25 1029 75 5000 1 0 02:46 06.12.2019
3132 Smoke -27 1029 68 5000 1 0 01:45 06.12.2019
3133 Clear -26 1029 68 6000 1 0 00:51 06.12.2019
3134 Clear -27 1028 75 6000 0.7 317 00:23 06.12.2019
3135 Clear -26 1028 75 6000 1 0 23:51 05.12.2019
3136 Clear -26 1028 75 6000 2 170 23:21 05.12.2019
3137 Clear -25 1028 75 6000 1 0 22:58 05.12.2019
3138 Clear -26 1029 75 6000 1 0 22:39 05.12.2019
3139 Clear -26 1029 75 6000 1 0 22:19 05.12.2019
3140 Clear -25 1029 75 6000 1 0 21:57 05.12.2019
3141 Clear -25 1029 75 6000 1 0 21:57 05.12.2019
3142 Clear -25 1029 75 6000 1 0 21:39 05.12.2019
3143 Clear -25 1029 75 6000 1 0 21:39 05.12.2019
3144 Clear -25 1029 75 6000 1 0 21:20 05.12.2019
3145 Clear -24 1029 83 6000 1 0 20:56 05.12.2019
3146 Clear -24 1029 83 6000 1 0 20:38 05.12.2019
3147 Clear -24 1029 83 6000 1 0 20:38 05.12.2019
3148 Clear -24 1029 83 6000 1 0 20:18 05.12.2019
3149 Clear -24 1029 76 6000 1 0 19:41 05.12.2019
3150 Clear -24 1029 76 6000 1 0 19:22 05.12.2019
3151 Clear -23 1029 69 6000 1 0 18:59 05.12.2019
3152 Clear -23 1029 69 6000 1 0 18:39 05.12.2019
3153 Clear -23 1029 69 6000 1 0 18:20 05.12.2019
3154 Clear -24 1029 76 6000 1 0 17:55 05.12.2019
3155 Clear -24 1029 76 6000 1 0 17:37 05.12.2019
3156 Clear -24 1029 76 6000 1 0 17:18 05.12.2019
3157 Clear -23 1029 76 6000 1 0 16:40 05.12.2019
3158 Clear -23 1029 76 6000 1 0 16:40 05.12.2019
3159 Clear -23 1029 76 6000 1 0 16:22 05.12.2019
3160 Clear -23 1029 76 8000 2 170 15:58 05.12.2019
3161 Clear -22 1029 76 8000 2 170 15:40 05.12.2019
3162 Clear -22 1029 76 8000 2 170 15:20 05.12.2019
3163 Clear -23 1029 83 8000 2 170 14:56 05.12.2019
3164 Clear -21 1029 76 8000 1 0 14:38 05.12.2019
3165 Clouds -21 1029 76 8000 1 0 14:20 05.12.2019
3166 Clouds -21 1029 76 8000 2 160 13:58 05.12.2019
3167 Clouds -21 1029 76 8000 2 150 13:40 05.12.2019
3168 Clouds -21 1029 76 8000 2 150 13:21 05.12.2019
3169 Clouds -21 1029 76 8000 2 160 12:58 05.12.2019
3170 Clouds -21 1029 76 8000 1 0 12:39 05.12.2019
3171 Clouds -21 1029 76 8000 1 0 12:21 05.12.2019
3172 Clouds -20 1029 76 8000 3 170 11:41 05.12.2019
3173 Clouds -20 1029 76 8000 3 170 11:22 05.12.2019
3174 Clouds -19 1029 70 6000 2 140 10:59 05.12.2019
3175 Clouds -17 1029 70 6000 2 180 10:41 05.12.2019
3176 Clouds -17 1029 70 6000 2 180 10:19 05.12.2019
3177 Clouds -17 1029 70 6000 2 180 10:19 05.12.2019
3178 Clouds -13 1029 60 8000 1 0 09:57 05.12.2019
3179 Clouds -10 1029 56 8000 1 0 09:38 05.12.2019
3180 Clouds -10 1029 56 8000 1 0 09:20 05.12.2019
3181 Clouds -10 1029 56 8000 1 0 08:56 05.12.2019
3182 Clouds -11 1029 61 8000 1 0 08:37 05.12.2019
3183 Clouds -11 1029 61 8000 1 0 08:18 05.12.2019
3184 Clouds -11 1029 61 8000 1 0 08:18 05.12.2019
3185 Clouds -11 1029 61 8000 1 0 07:41 05.12.2019
3186 Clouds -11 1029 56 8000 1.57 119 07:21 05.12.2019
3187 Clouds -12 1030 60 8000 1 0 06:47 05.12.2019
3188 Clouds -13 1030 65 8000 1 0 06:23 05.12.2019
3189 Clouds -14 1031 65 8000 1 0 05:54 05.12.2019
3190 Clouds -15 1031 65 8000 1 0 05:24 05.12.2019
3191 Clouds -17 1032 77 8000 1.87 110 04:37 05.12.2019
3192 Clouds -19 1032 77 8000 1 0 03:35 05.12.2019
3193 Clouds -20 1032 76 8000 1 0 02:42 05.12.2019
3194 Clouds -23 1032 76 8000 1.67 109 02:22 05.12.2019
3195 Clear -25 1032 75 8000 1 0 01:50 05.12.2019
3196 Clear -26 1032 75 8000 1 0 01:23 05.12.2019
3197 Clear -25 1032 75 8000 2 180 00:44 05.12.2019
3198 Clear -26 1032 75 10000 1.57 112 00:20 05.12.2019
3199 Clear -26 1032 75 10000 1 0 23:47 04.12.2019
3200 Clear -24 1032 76 10000 1.57 112 23:23 04.12.2019
3201 Clear -24 1032 76 10000 1 0 22:59 04.12.2019
3202 Clear -25 1033 75 10000 1 0 22:38 04.12.2019
3203 Clear -25 1033 75 10000 1 0 22:20 04.12.2019
3204 Clear -24 1033 76 10000 2 180 21:58 04.12.2019
3205 Clear -24 1033 76 10000 2 180 21:38 04.12.2019
3206 Clear -24 1033 76 10000 2 180 21:19 04.12.2019
3207 Clear -24 1033 76 10000 1 0 20:57 04.12.2019
3208 Clear -24 1033 76 10000 1 0 20:39 04.12.2019
3209 Clear -24 1033 76 10000 1 0 20:20 04.12.2019
3210 Clear -24 1033 76 10000 1 0 19:54 04.12.2019
3211 Clear -24 1033 76 10000 1 0 19:36 04.12.2019
3212 Clear -24 1033 76 10000 1 0 19:18 04.12.2019
3213 Clear -24 1033 76 10000 1 0 18:42 04.12.2019
3214 Clear -24 1033 76 10000 1 0 18:24 04.12.2019
3215 Clear -23 1033 76 10000 0.94 120 17:58 04.12.2019
3216 Clear -23 1033 76 10000 0.94 120 17:39 04.12.2019
3217 Clear -23 1033 76 10000 0.6 34 17:20 04.12.2019
3218 Clear -21 1032 76 10000 1 0 16:56 04.12.2019
3219 Clear -21 1032 76 10000 2 150 16:38 04.12.2019
3220 Clear -21 1032 76 10000 2 150 16:19 04.12.2019
3221 Clear -21 1032 76 10000 2 150 16:19 04.12.2019
3222 Clear -22 1032 76 10000 2 160 15:55 04.12.2019
3223 Clear -22 1032 76 10000 1 0 15:36 04.12.2019
3224 Clear -22 1032 76 10000 1 0 15:18 04.12.2019
3225 Clear -22 1032 76 10000 1 0 14:42 04.12.2019
3226 Clear -21 1032 83 10000 1 0 14:23 04.12.2019
3227 Clear -21 1032 83 10000 1 0 14:23 04.12.2019
3228 Clear -19 1032 70 10000 1 0 13:57 04.12.2019
3229 Clear -17 1032 70 10000 2 150 13:37 04.12.2019
3230 Clear -17 1032 70 10000 2 150 13:19 04.12.2019
3231 Clear -19 1032 70 10000 1 0 12:44 04.12.2019
3232 Clear -18 1031 77 10000 1 0 12:24 04.12.2019
3233 Clear -18 1031 84 10000 1 0 11:45 04.12.2019
3234 Clear -17 1031 77 10000 2 160 11:27 04.12.2019
3235 Clear -18 1030 70 10000 2 170 10:59 04.12.2019
3236 Clear -14 1030 71 10000 1 0 10:41 04.12.2019
3237 Clear -14 1030 71 10000 1 0 10:22 04.12.2019
3238 Clear -10 1030 56 10000 1 0 09:46 04.12.2019
3239 Clear -8 1029 52 10000 1 0 09:25 04.12.2019
3240 Clear -9 1029 61 10000 1 0 08:59 04.12.2019
3241 Clear -8 1029 52 10000 1 0 08:38 04.12.2019
3242 Clear -8 1029 52 10000 1 0 08:19 04.12.2019
3243 Clear -9 1029 56 10000 2 0 07:42 04.12.2019
3244 Clear -8 1029 52 10000 2 275 07:23 04.12.2019
3245 Clear -9 1029 52 10000 1 0 06:33 04.12.2019
3246 Clear -10 1029 56 10000 2 275 05:48 04.12.2019
3247 Clear -13 1029 71 10000 1.8 287 04:58 04.12.2019
3248 Clear -15 1028 71 10000 1.8 287 03:54 04.12.2019
3249 Clear -22 1027 83 10000 1.84 305 02:21 04.12.2019
3250 Clear -23 1026 76 10000 1 0 00:50 04.12.2019
3251 Clear -25 1026 75 10000 1 0 00:23 04.12.2019
3252 Clear -21 1026 76 10000 1 0 23:56 03.12.2019
3253 Clear -23 1025 76 10000 1.98 303 23:38 03.12.2019
3254 Clear -23 1025 76 10000 2.06 301 23:19 03.12.2019
3255 Clear -19 1025 77 10000 1 0 22:40 03.12.2019
3256 Clear -19 1025 77 10000 1 0 22:19 03.12.2019
3257 Clear -21 1025 76 10000 1 0 21:58 03.12.2019
3258 Clear -23 1025 76 10000 2 130 21:37 03.12.2019
3259 Clear -23 1025 76 10000 2 130 21:19 03.12.2019
3260 Clear -21 1025 76 10000 3 170 20:57 03.12.2019
3261 Clear -21 1025 76 10000 3 170 20:39 03.12.2019
3262 Clear -21 1025 76 10000 3 170 20:18 03.12.2019
3263 Clear -22 1024 76 10000 2 180 19:55 03.12.2019
3264 Clear -22 1024 76 10000 2 180 19:37 03.12.2019
3265 Clear -22 1024 76 10000 2 180 19:18 03.12.2019
3266 Clear -22 1024 76 10000 2 180 19:18 03.12.2019
3267 Clear -21 1024 76 10000 1 0 18:55 03.12.2019
3268 Clear -21 1024 76 10000 1 0 18:37 03.12.2019
3269 Clear -21 1024 76 10000 1 0 18:19 03.12.2019
3270 Clear -19 1024 77 10000 3 180 17:40 03.12.2019
3271 Clear -19 1024 77 10000 3 180 17:19 03.12.2019
3272 Clear -18 1024 77 10000 2 170 16:59 03.12.2019
3273 Clear -19 1023 77 10000 3 160 16:40 03.12.2019
3274 Clear -19 1023 77 10000 3 160 16:21 03.12.2019
3275 Clear -20 1023 76 10000 3 160 15:59 03.12.2019
3276 Clear -19 1023 77 10000 1 0 15:40 03.12.2019
3277 Clear -19 1023 77 10000 1 0 15:20 03.12.2019
3278 Clear -19 1023 77 10000 1 0 15:20 03.12.2019
3279 Clear -17 1023 77 10000 3 150 14:58 03.12.2019
3280 Clear -17 1023 77 10000 3 160 14:40 03.12.2019
3281 Clear -17 1023 77 10000 3 160 14:19 03.12.2019
3282 Clear -18 1022 84 10000 3 170 13:39 03.12.2019
3283 Clear -18 1022 84 10000 3 170 13:20 03.12.2019
3284 Clear -18 1022 84 10000 3 170 13:20 03.12.2019
3285 Clear -18 1022 84 10000 3 170 13:20 03.12.2019
3286 Clear -17 1022 77 10000 2 160 12:58 03.12.2019
3287 Clear -17 1022 77 10000 3 160 12:37 03.12.2019
3288 Clear -17 1022 77 10000 3 160 12:37 03.12.2019
3289 Clear -17 1022 77 10000 3 160 12:18 03.12.2019
3290 Clouds -17 1022 77 10000 3 160 11:57 03.12.2019
3291 Clouds -14 1022 71 10000 2 0 11:38 03.12.2019
3292 Clouds -14 1022 71 10000 2 0 11:19 03.12.2019
3293 Clouds -14 1022 71 10000 3 160 10:56 03.12.2019
3294 Clouds -12 1022 66 10000 2 0 10:38 03.12.2019
3295 Clouds -12 1022 66 10000 2 0 10:18 03.12.2019
3296 Clear -8 1022 57 10000 1 0 09:42 03.12.2019
3297 Clear -8 1022 57 10000 1 0 09:23 03.12.2019
3298 Clear -8 1022 57 10000 1 0 08:56 03.12.2019
3299 Clear -8 1021 61 10000 2 0 08:38 03.12.2019
3300 Clear -8 1021 61 10000 2 0 08:19 03.12.2019
3301 Clear -8 1022 57 10000 3 300 07:51 03.12.2019
3302 Clear -8 1022 61 10000 1 0 07:25 03.12.2019
3303 Clear -8 1022 61 10000 1 0 07:25 03.12.2019
3304 Clear -8 1021 57 10000 1 0 06:38 03.12.2019
3305 Clear -8 1021 57 10000 1 0 06:19 03.12.2019
3306 Clear -10 1022 66 10000 1 0 04:56 03.12.2019
3307 Clear -15 1022 77 10000 1 0 03:42 03.12.2019
3308 Clear -16 1022 84 10000 1 0 03:21 03.12.2019
3309 Clear -20 1021 83 10000 2 180 02:52 03.12.2019
3310 Clear -20 1021 83 10000 2 150 02:32 03.12.2019
3311 Clear -21 1021 76 10000 2 0 01:57 03.12.2019
3312 Clear -19 1020 77 10000 2 0 01:38 03.12.2019
3313 Clear -19 1020 77 10000 2 0 01:18 03.12.2019
3314 Clear -21 1020 76 10000 2 0 00:40 03.12.2019
3315 Clear -21 1020 76 10000 2 0 00:21 03.12.2019
3316 Clear -20 1020 76 10000 1 0 23:43 02.12.2019
3317 Clear -21 1019 76 10000 3 160 23:21 02.12.2019
3318 Clear -19 1019 84 10000 3 160 22:55 02.12.2019
3319 Clear -20 1019 76 10000 2 160 22:37 02.12.2019
3320 Clear -20 1019 76 10000 2 160 22:19 02.12.2019
3321 Clear -19 1019 77 10000 3 170 21:39 02.12.2019
3322 Clear -19 1019 77 10000 3 170 21:20 02.12.2019
3323 Clear -18 1019 77 10000 3 160 20:57 02.12.2019
3324 Clear -18 1019 77 10000 3 160 20:57 02.12.2019
3325 Clear -18 1019 77 10000 3 160 20:39 02.12.2019
3326 Clear -18 1019 77 10000 3 160 20:20 02.12.2019
3327 Clear -17 1019 77 10000 2.32 291 19:56 02.12.2019
3328 Clear -17 1019 77 10000 2.32 291 19:56 02.12.2019
3329 Clear -17 1019 77 10000 2.32 291 19:56 02.12.2019
3330 Clear -17 1019 77 10000 2.32 291 19:38 02.12.2019
3331 Clear -17 1019 77 10000 2.32 291 19:38 02.12.2019
3332 Clear -17 1019 77 10000 2.32 291 19:20 02.12.2019
3333 Clear -16 1019 77 10000 3 180 18:48 02.12.2019
3334 Clear -16 1019 77 10000 3 180 18:24 02.12.2019
3335 Clear -16 1019 77 10000 2 0 17:59 02.12.2019
3336 -273 0 0 0 0 0 17:40 02.12.2019
3337 Clouds -16 1019 77 10000 2 0 17:20 02.12.2019
3338 Clouds -16 1019 77 10000 2 0 17:20 02.12.2019
3339 Clouds -18 1019 84 10000 2 0 16:57 02.12.2019
3340 Clouds -18 1019 84 10000 2 0 16:38 02.12.2019
3341 Clouds -18 1019 84 10000 2 0 16:18 02.12.2019
3342 Clouds -18 1019 84 10000 2 0 16:18 02.12.2019
3343 Clouds -16 1019 77 10000 1 0 15:55 02.12.2019
3344 Clouds -17 1019 77 10000 3 150 15:37 02.12.2019
3345 Clouds -17 1019 77 10000 3 150 15:19 02.12.2019
3346 Clouds -17 1019 77 10000 2 0 14:40 02.12.2019
3347 Clouds -17 1019 77 10000 2 0 14:20 02.12.2019
3348 Clouds -16 1019 71 10000 2 0 13:58 02.12.2019
3349 Clouds -14 1019 77 10000 2 0 13:40 02.12.2019
3350 Clouds -14 1019 77 10000 2 0 13:20 02.12.2019
3351 Clouds -15 1019 71 10000 1 0 12:59 02.12.2019
3352 Clouds -11 1019 66 10000 3 340 12:40 02.12.2019
3353 Clouds -11 1019 66 10000 3 340 12:20 02.12.2019
3354 Clouds -11 1019 72 10000 2 0 11:56 02.12.2019
3355 Clouds -10 1019 66 10000 2 0 11:37 02.12.2019
3356 Clouds -10 1019 66 10000 2 0 11:18 02.12.2019
3357 Clouds -10 1018 66 10000 2 0 10:55 02.12.2019
3358 Clouds -8 1018 67 10000 5 280 10:37 02.12.2019
3359 Clouds -8 1018 67 10000 5 280 10:19 02.12.2019
3360 Clouds -7 1018 62 10000 4 300 09:41 02.12.2019
3361 Clouds -7 1018 62 10000 4 290 09:19 02.12.2019
3362 Clouds -7 1018 57 10000 4 280 08:57 02.12.2019
3363 Clouds -6 1018 57 10000 4 280 08:38 02.12.2019
3364 Clouds -6 1018 57 10000 4 280 08:20 02.12.2019
3365 Clouds -6 1018 53 10000 6 310 07:44 02.12.2019
3366 Clouds -6 1018 53 10000 4 300 07:21 02.12.2019
3367 Clouds -7 1018 57 10000 2 0 06:56 02.12.2019
3368 Clouds -8 1018 57 10000 4 290 06:37 02.12.2019
3369 Clouds -9 1019 56 10000 1 0 05:32 02.12.2019
3370 Clouds -11 1019 61 10000 1 0 04:26 02.12.2019
3371 Clear -19 1019 70 10000 2 160 02:53 02.12.2019
3372 Clear -21 1018 76 10000 2 170 02:27 02.12.2019
3373 Clear -21 1018 76 10000 2 170 01:26 02.12.2019
3374 Clear -21 1018 76 10000 1.69 300 00:57 02.12.2019
3375 Clouds -22 1018 76 10000 1 0 00:25 02.12.2019
3376 Clouds -17 1018 70 10000 3 170 23:54 01.12.2019
3377 Clouds -19 1018 77 10000 3 160 23:36 01.12.2019
3378 Clouds -19 1018 77 10000 3 160 23:18 01.12.2019
3379 Clouds -23 1018 76 10000 1.78 293 22:54 01.12.2019
3380 Clouds -23 1018 83 10000 1 0 22:36 01.12.2019
3381 Clouds -23 1018 83 10000 1 0 22:18 01.12.2019
3382 Clear -22 1018 76 10000 2 0 21:54 01.12.2019
3383 Clear -22 1018 76 10000 2 0 21:36 01.12.2019
3384 Clear -22 1018 76 10000 2 0 21:18 01.12.2019
3385 Clear -24 1018 76 10000 1.78 293 20:42 01.12.2019
3386 Clear -24 1018 76 10000 2.1 308 20:24 01.12.2019
3387 Clear -23 1019 76 10000 1.67 296 19:59 01.12.2019
3388 Clear -23 1019 76 10000 1.67 296 19:40 01.12.2019
3389 Clear -23 1019 76 10000 1.67 296 19:21 01.12.2019
3390 Clear -24 1019 76 10000 1 0 18:58 01.12.2019
3391 Clear -24 1019 76 10000 1 0 18:39 01.12.2019
3392 Clear -24 1019 76 10000 1 0 18:20 01.12.2019
3393 Clear -26 1020 75 10000 2 140 17:59 01.12.2019
3394 Clear -26 1020 75 10000 2 140 17:41 01.12.2019
3395 -273 0 0 0 0 0 17:23 01.12.2019
3396 Clouds -23 1021 76 10000 1 0 16:56 01.12.2019
3397 Clouds -23 1021 69 10000 2 0 16:38 01.12.2019
3398 Clouds -23 1021 69 10000 2 0 16:20 01.12.2019
3399 Clouds -22 1021 69 10000 1 0 15:48 01.12.2019
3400 Clouds -24 1022 69 10000 2 0 15:30 01.12.2019
3401 Clouds -24 1022 76 10000 2 0 14:43 01.12.2019
3402 Clouds -23 1022 76 10000 1 0 14:20 01.12.2019
3403 Clouds -22 1022 69 10000 1 0 13:59 01.12.2019
3404 Clouds -23 1023 69 10000 2 0 13:39 01.12.2019
3405 Clouds -23 1023 69 10000 2 0 13:19 01.12.2019
3406 Clouds -22 1023 69 10000 4 170 12:44 01.12.2019
3407 Clouds -23 1024 83 10000 3 140 11:58 01.12.2019
3408 Clouds -22 1024 76 10000 3 160 11:39 01.12.2019
3409 Clouds -22 1024 76 10000 3 160 11:19 01.12.2019
3410 Clouds -22 1024 76 10000 2 170 10:43 01.12.2019
3411 Clouds -20 1024 76 10000 2 180 10:21 01.12.2019
3412 Clouds -17 1025 77 10000 3 200 09:57 01.12.2019
3413 Clouds -16 1025 71 10000 3 210 09:38 01.12.2019
3414 Clouds -16 1025 71 10000 3 210 09:20 01.12.2019
3415 Clouds -16 1025 71 10000 3 210 09:20 01.12.2019
3416 Clouds -16 1025 71 10000 4 220 08:44 01.12.2019
3417 Clouds -16 1025 71 10000 2 0 08:19 01.12.2019
3418 Clouds -16 1025 71 10000 4 220 07:50 01.12.2019
3419 Clouds -16 1025 71 10000 4 220 07:50 01.12.2019
3420 Clouds -16 1025 71 10000 3 210 07:30 01.12.2019
3421 Clouds -16 1026 71 10000 3 190 06:56 01.12.2019
3422 Clouds -16 1026 71 10000 3 180 06:30 01.12.2019
3423 Clouds -16 1026 71 10000 1 0 05:47 01.12.2019
3424 Clouds -17 1027 77 10000 1 0 04:49 01.12.2019
3425 Clouds -24 1027 76 10000 2 160 02:48 01.12.2019
3426 Clouds -25 1027 75 10000 1 0 02:30 01.12.2019
3427 Clear -26 1026 83 10000 1 0 01:57 01.12.2019
3428 Clear -26 1026 75 10000 3 180 01:39 01.12.2019
3429 Clear -26 1026 75 10000 3 180 01:18 01.12.2019
3430 Clear -27 1025 68 10000 3 170 00:39 01.12.2019
3431 Clear -27 1025 68 10000 3 170 00:20 01.12.2019
3432 Clear -25 1025 75 10000 2 190 23:42 30.11.2019
3433 Clouds -25 1025 75 10000 2 190 23:23 30.11.2019
3434 Clouds -27 1025 75 10000 3 160 22:49 30.11.2019
3435 Clouds -26 1025 75 10000 1 0 22:30 30.11.2019
3436 Clouds -26 1024 75 10000 3 170 21:58 30.11.2019
3437 Clouds -26 1024 75 10000 3 170 21:39 30.11.2019
3438 Clouds -26 1024 75 10000 3 170 21:20 30.11.2019
3439 Clouds -25 1024 75 10000 1 0 20:55 30.11.2019
3440 Clouds -25 1024 75 10000 1 0 20:37 30.11.2019
3441 Clouds -25 1024 75 10000 1 0 20:18 30.11.2019
3442 Clouds -23 1023 76 10000 1 0 19:55 30.11.2019
3443 Clouds -23 1023 76 10000 1 0 19:36 30.11.2019
3444 Clouds -23 1023 76 10000 1 0 19:18 30.11.2019
3445 Clouds -21 1023 76 10000 2 150 18:54 30.11.2019
3446 Clouds -21 1023 76 10000 2 150 18:36 30.11.2019
3447 Clouds -21 1023 76 10000 2 150 18:18 30.11.2019
3448 Clouds -21 1023 76 10000 2 150 18:18 30.11.2019
3449 Snow -20 1022 76 6000 1 0 17:56 30.11.2019
3450 Snow -20 1022 76 6000 1 0 17:37 30.11.2019
3451 Snow -20 1022 76 6000 1 0 17:19 30.11.2019
3452 Snow -21 1023 76 6000 1.63 315 16:42 30.11.2019
3453 Snow -20 1022 70 10000 1 0 16:22 30.11.2019
3454 Clouds -21 1022 76 10000 1 0 15:55 30.11.2019
3455 Clouds -23 1022 76 10000 1 170 15:37 30.11.2019
3456 Clouds -23 1022 76 10000 1 170 15:18 30.11.2019
3457 Clouds -23 1022 69 10000 1.63 315 14:55 30.11.2019
3458 Clouds -24 1022 76 10000 2 190 14:37 30.11.2019
3459 Clouds -24 1022 76 10000 2 190 14:18 30.11.2019
3460 Clouds -25 1022 75 10000 1 0 13:45 30.11.2019
3461 Clouds -23 1021 69 10000 2 150 13:26 30.11.2019
3462 Clouds -24 1021 76 10000 1 0 12:59 30.11.2019
3463 Clouds -24 1021 76 10000 1 0 12:41 30.11.2019
3464 Clouds -24 1021 76 10000 1 0 12:22 30.11.2019
3465 Clouds -23 1021 76 10000 1 0 11:43 30.11.2019
3466 Clouds -21 1021 76 10000 1 0 11:20 30.11.2019
3467 Clouds -17 1022 70 10000 1 0 10:56 30.11.2019
3468 Clouds -17 1022 70 10000 1 0 10:37 30.11.2019
3469 Clouds -17 1022 70 10000 1 0 10:19 30.11.2019
3470 Clouds -16 1021 65 10000 2 0 09:46 30.11.2019
3471 Clouds -16 1021 65 10000 1 0 09:24 30.11.2019
3472 Clouds -14 1022 50 10000 0.68 252 08:44 30.11.2019
3473 Clouds -15 1022 60 10000 0.96 249 08:22 30.11.2019
3474 Clouds -15 1022 60 10000 0.96 249 07:58 30.11.2019
3475 Clouds -15 1022 65 10000 0.96 249 07:39 30.11.2019
3476 Clouds -16 1023 71 10000 0.96 249 06:59 30.11.2019
3477 Clouds -18 1023 84 10000 1 0 06:29 30.11.2019
3478 Clear -18 1024 77 10000 2 0 05:53 30.11.2019
3479 Clear -22 1025 76 10000 0.67 199 03:54 30.11.2019
3480 -273 0 0 0 0 0 02:53 30.11.2019
3481 Clouds -25 1025 75 10000 0.64 216 02:22 30.11.2019
3482 Clouds -28 1025 75 10000 1 0 01:38 30.11.2019
3483 Clouds -28 1025 75 10000 1 0 01:19 30.11.2019
3484 Clouds -23 1025 76 10000 0.77 230 00:36 30.11.2019
3485 Clouds -23 1025 76 10000 0.77 230 00:18 30.11.2019
3486 Clouds -25 1025 75 10000 2 0 23:43 29.11.2019
3487 Clouds -23 1025 76 10000 3 160 23:23 29.11.2019
3488 Clouds -25 1025 75 10000 2 150 22:47 29.11.2019
3489 Clouds -25 1025 75 10000 1 0 22:26 29.11.2019
3490 Clouds -25 1025 75 10000 1.09 303 21:45 29.11.2019
3491 Clouds -25 1025 75 10000 1.09 303 21:26 29.11.2019
3492 Clouds -20 1024 83 10000 2 170 20:59 29.11.2019
3493 Clouds -20 1024 83 10000 2 170 20:40 29.11.2019
3494 Clouds -20 1024 83 10000 2 170 20:21 29.11.2019
3495 Clouds -18 1024 70 10000 1 0 19:58 29.11.2019
3496 Clouds -18 1024 70 10000 1 0 19:40 29.11.2019
3497 Clouds -18 1024 70 10000 1 0 19:20 29.11.2019
3498 Clouds -19 1024 77 0 2.41 303 18:58 29.11.2019
3499 Clouds -19 1024 77 0 2.41 303 18:40 29.11.2019
3500 Clouds -19 1024 77 0 2.41 303 18:21 29.11.2019
3501 Clouds -19 1023 77 10000 2 0 17:45 29.11.2019
3502 Clouds -19 1023 77 10000 2 0 17:27 29.11.2019
3503 Clouds -17 1022 70 10000 4 330 16:59 29.11.2019
3504 Clouds -17 1022 70 10000 4 330 16:40 29.11.2019
3505 Clouds -17 1022 70 10000 4 330 16:19 29.11.2019
3506 Clouds -17 1022 70 10000 4 330 16:19 29.11.2019
3507 Snow -16 1022 84 6000 4 300 15:41 29.11.2019
3508 Snow -16 1022 84 6000 4 300 15:23 29.11.2019
3509 Clouds -16 1021 77 10000 4 320 14:58 29.11.2019
3510 Clouds -15 1021 77 10000 4 320 14:39 29.11.2019
3511 Clouds -15 1021 77 10000 4 320 14:20 29.11.2019
3512 Clouds -14 1021 71 10000 3 330 13:55 29.11.2019
3513 Clouds -15 1020 77 10000 3 270 13:36 29.11.2019
3514 Clouds -15 1020 77 10000 3 270 13:18 29.11.2019
3515 Clouds -17 1020 84 10000 1 0 12:40 29.11.2019
3516 Clouds -17 1020 84 10000 1 0 12:22 29.11.2019
3517 Clouds -12 1020 66 10000 3 290 11:55 29.11.2019
3518 Clouds -12 1020 66 10000 3 290 11:36 29.11.2019
3519 Clouds -12 1020 66 10000 3 290 11:18 29.11.2019
3520 Clouds -13 1019 78 10000 1.52 270 10:56 29.11.2019
3521 Clouds -13 1019 78 10000 2 260 10:37 29.11.2019
3522 Clouds -13 1019 78 10000 2 260 10:19 29.11.2019
3523 Clouds -12 1018 78 10000 2 220 09:56 29.11.2019
3524 Clouds -12 1018 78 10000 2 220 09:37 29.11.2019
3525 Clouds -12 1018 78 10000 2 220 09:19 29.11.2019
3526 Snow -11 1018 78 10000 3 240 08:40 29.11.2019
3527 Snow -11 1018 78 10000 3 240 08:22 29.11.2019
3528 Clouds -10 1018 72 10000 2 230 07:58 29.11.2019
3529 Clouds -10 1018 72 10000 2 230 07:58 29.11.2019
3530 Clouds -10 1018 72 10000 2 230 07:40 29.11.2019
3531 Clouds -10 1018 72 10000 2 230 07:21 29.11.2019
3532 Clouds -10 1018 72 10000 3 250 06:43 29.11.2019
3533 Clouds -11 1019 85 10000 1 0 05:48 29.11.2019
3534 Clouds -10 1019 78 10000 1 0 05:25 29.11.2019
3535 Clouds -12 1020 85 10000 1.01 121 04:32 29.11.2019
3536 Snow -13 1020 84 10000 1 0 03:22 29.11.2019
3537 Clouds -16 1020 77 10000 1 0 02:30 29.11.2019
3538 Clouds -15 1020 84 10000 2 260 01:53 29.11.2019
3539 Snow -13 1020 84 10000 1 0 01:26 29.11.2019
3540 Snow -12 1020 85 8000 2 0 00:44 29.11.2019
3541 Snow -12 1020 85 8000 1.58 102 00:21 29.11.2019
3542 Snow -12 1020 85 6000 1 0 23:56 28.11.2019
3543 Snow -11 1020 85 5000 1 0 23:38 28.11.2019
3544 Snow -11 1020 85 5000 1 0 23:19 28.11.2019
3545 Clouds -10 1020 85 10000 1 0 22:38 28.11.2019
3546 Clouds -10 1020 85 10000 1 0 22:20 28.11.2019
3547 Snow -11 1021 85 5000 1 0 21:59 28.11.2019
3548 Snow -11 1021 85 5000 1 0 21:40 28.11.2019
3549 Snow -11 1021 85 5000 1 0 21:20 28.11.2019
3550 Snow -14 1022 84 5000 1 0 20:57 28.11.2019
3551 Snow -14 1022 84 5000 1 0 20:38 28.11.2019
3552 Snow -14 1022 84 5000 1 0 20:18 28.11.2019
3553 Snow -14 1022 71 10000 2.25 110 19:56 28.11.2019
3554 Clouds -15 1022 71 10000 1 0 19:36 28.11.2019
3555 Clouds -15 1022 71 10000 1 0 19:18 28.11.2019
3556 Clouds -16 1022 71 10000 1 0 18:55 28.11.2019
3557 Clouds -16 1022 71 10000 1 0 18:37 28.11.2019
3558 Clouds -16 1022 71 10000 1 0 18:18 28.11.2019
3559 Clouds -18 1023 70 10000 1 0 17:42 28.11.2019
3560 Clouds -18 1023 70 10000 1 0 17:23 28.11.2019
3561 Clouds -18 1023 70 10000 1 0 17:23 28.11.2019
3562 Clouds -19 1023 77 10000 1 0 16:59 28.11.2019
3563 Clouds -19 1023 77 10000 1 0 16:59 28.11.2019
3564 Clouds -17 1023 70 10000 1 0 16:39 28.11.2019
3565 Clouds -17 1023 70 10000 1 0 16:19 28.11.2019
3566 Clouds -19 1024 77 10000 1 0 15:56 28.11.2019
3567 Clouds -19 1024 77 10000 1 0 15:56 28.11.2019
3568 Clouds -20 1024 76 10000 2.32 108 15:37 28.11.2019
3569 Clouds -20 1024 76 10000 2.32 108 15:19 28.11.2019
3570 Clouds -21 1024 70 10000 2.32 108 14:42 28.11.2019
3571 Clouds -20 1024 70 10000 1 0 14:24 28.11.2019
3572 Clouds -20 1024 76 10000 1 0 13:59 28.11.2019
3573 Clouds -20 1024 76 10000 1 0 13:41 28.11.2019
3574 Clouds -20 1024 70 10000 1 0 13:22 28.11.2019
3575 Clouds -19 1024 70 10000 1 0 12:49 28.11.2019
3576 Clouds -19 1024 64 10000 1 0 12:30 28.11.2019
3577 Clouds -19 1024 70 10000 2.03 113 11:59 28.11.2019
3578 Clouds -19 1024 70 10000 2.03 113 11:59 28.11.2019
3579 Clouds -20 1024 70 10000 1 0 11:41 28.11.2019
3580 Clouds -20 1024 70 10000 1 0 11:21 28.11.2019
3581 -273 0 0 0 0 0 10:59 28.11.2019
3582 Clouds -14 1024 55 10000 1 0 10:41 28.11.2019
3583 Clouds -14 1024 55 10000 1 0 10:20 28.11.2019
3584 Clouds -12 1024 51 10000 1.88 110 09:42 28.11.2019
3585 Clouds -11 1024 47 10000 1.88 110 09:23 28.11.2019
3586 Clouds -11 1024 47 10000 1.88 110 08:59 28.11.2019
3587 Clouds -12 1024 51 10000 1 0 08:40 28.11.2019
3588 Clear -12 1024 51 10000 1 0 08:21 28.11.2019
3589 Clear -12 1025 51 10000 1 0 07:43 28.11.2019
3590 Clear -13 1025 50 10000 2 0 07:25 28.11.2019
3591 Clear -13 1025 50 8000 1 0 06:57 28.11.2019
3592 Clear -14 1026 50 8000 1.68 115 06:36 28.11.2019
3593 Clear -16 1026 59 8000 1 0 05:53 28.11.2019
3594 Clear -17 1027 59 8000 1.62 117 05:18 28.11.2019
3595 Clear -17 1027 59 8000 1.62 117 05:18 28.11.2019
3596 Clear -21 1027 70 8000 1.62 117 03:43 28.11.2019
3597 Clear -26 1028 68 8000 1.56 105 02:18 28.11.2019
3598 Clear -26 1027 68 10000 1.53 103 00:52 28.11.2019
3599 Clear -28 1028 75 10000 1 0 00:26 28.11.2019
3600 Clear -28 1028 75 10000 1.53 103 23:59 27.11.2019
3601 Clear -26 1028 75 10000 1.53 103 23:38 27.11.2019
3602 Clear -26 1028 75 10000 1.61 104 23:19 27.11.2019
3603 Clear -25 1028 75 10000 1 0 22:54 27.11.2019
3604 Clear -27 1028 68 10000 1 0 22:36 27.11.2019
3605 Clear -27 1028 68 10000 1 0 22:18 27.11.2019
3606 Clear -26 1029 68 10000 2 0 21:55 27.11.2019
3607 Clear -26 1029 68 10000 2 0 21:36 27.11.2019
3608 Clear -26 1029 68 10000 2 0 21:18 27.11.2019
3609 Clear -26 1029 68 10000 2 0 21:18 27.11.2019
3610 Clear -25 1029 75 10000 1 0 20:55 27.11.2019
3611 Clear -25 1029 75 10000 1 0 20:36 27.11.2019
3612 Clear -25 1029 75 10000 1 0 20:18 27.11.2019
3613 Clear -27 1029 75 10000 1.52 98 19:54 27.11.2019
3614 Clear -27 1029 75 10000 1.52 98 19:54 27.11.2019
3615 Clear -27 1029 75 10000 1.52 98 19:36 27.11.2019
3616 Clear -27 1029 75 10000 1.52 98 19:18 27.11.2019
3617 Clear -26 1030 68 10000 1.52 98 18:38 27.11.2019
3618 Clear -26 1030 68 10000 1.52 98 18:19 27.11.2019
3619 Clear -24 1031 69 10000 1.52 98 17:58 27.11.2019
3620 Clear -24 1031 69 10000 1.52 98 17:40 27.11.2019
3621 Clear -24 1031 69 10000 1.62 102 17:22 27.11.2019
3622 Clear -25 1031 75 10000 1.62 102 16:57 27.11.2019
3623 Clear -26 1031 75 10000 1.62 102 16:39 27.11.2019
3624 Clear -26 1031 75 10000 1.62 102 16:21 27.11.2019
3625 Clear -25 1031 75 10000 1.62 102 15:57 27.11.2019
3626 Clear -26 1031 75 10000 1.62 102 15:39 27.11.2019
3627 Clear -26 1031 75 10000 1.62 102 15:21 27.11.2019
3628 Clear -24 1031 76 10000 1 0 14:57 27.11.2019
3629 Clear -25 1031 75 10000 1.62 102 14:39 27.11.2019
3630 -273 0 0 0 0 0 14:39 27.11.2019
3631 Clear -25 1031 75 10000 1.62 102 14:39 27.11.2019
3632 Clear -25 1031 75 10000 1.35 110 14:21 27.11.2019
3633 Clear -25 1031 75 10000 1.35 110 13:57 27.11.2019
3634 Clear -25 1031 75 10000 1.35 110 13:39 27.11.2019
3635 Clear -25 1031 75 10000 1.29 112 13:19 27.11.2019
3636 Clear -25 1031 75 10000 1.29 112 13:19 27.11.2019
3637 Clear -24 1031 76 10000 1.29 112 12:56 27.11.2019
3638 Clear -24 1031 76 10000 1.29 112 12:38 27.11.2019
3639 Clear -23 1031 69 10000 1 0 12:18 27.11.2019
3640 Clear -23 1031 69 10000 1 0 11:38 27.11.2019
3641 Clear -22 1031 69 10000 2 140 11:19 27.11.2019
3642 Clear -22 1031 69 10000 2 140 10:57 27.11.2019
3643 Clear -18 1031 64 8000 1 0 10:39 27.11.2019
3644 Clear -18 1031 64 8000 1 0 10:21 27.11.2019
3645 Clear -12 1031 46 8000 1.16 113 09:43 27.11.2019
3646 Clear -12 1031 46 8000 1.16 113 09:43 27.11.2019
3647 Clear -12 1031 46 8000 1.16 113 09:25 27.11.2019
3648 Clear -12 1031 46 8000 1.16 113 08:57 27.11.2019
3649 Clear -12 1031 46 8000 1.16 113 08:38 27.11.2019
3650 Clear -12 1031 46 8000 0.79 147 08:19 27.11.2019
3651 Clear -14 1032 55 8000 0.79 146 07:45 27.11.2019
3652 Clear -14 1032 55 8000 0.79 146 07:27 27.11.2019
3653 Clear -16 1032 59 8000 2 0 06:47 27.11.2019
3654 Clear -16 1032 59 8000 2 0 06:29 27.11.2019
3655 Clear -17 1033 59 8000 1 0 05:27 27.11.2019
3656 Clear -20 1034 64 6000 1 0 04:59 27.11.2019
3657 Clear -21 1034 63 6000 1 0 04:39 27.11.2019
3658 Clear -22 1034 63 6000 0.96 129 03:51 27.11.2019
3659 Clear -24 1035 69 6000 0.96 129 03:22 27.11.2019
3660 Clear -26 1035 75 8000 0.96 129 02:54 27.11.2019
3661 Clear -28 1034 68 8000 1 0 01:35 27.11.2019
3662 Clear -30 1034 67 10000 1 0 00:44 27.11.2019
3663 Clear -30 1034 67 10000 1 0 00:25 27.11.2019
3664 Clear -29 1034 68 10000 0.91 101 23:47 26.11.2019
3665 Clear -29 1034 68 10000 0.91 101 23:26 26.11.2019
3666 Clear -29 1035 68 10000 0.83 100 22:57 26.11.2019
3667 Clear -30 1035 74 10000 0.83 100 22:38 26.11.2019
3668 Clear -30 1035 74 10000 0.83 100 22:19 26.11.2019
3669 Clear -29 1035 68 10000 1 0 21:57 26.11.2019
3670 Clear -29 1035 68 10000 1 0 21:37 26.11.2019
3671 Clear -29 1035 68 10000 1 0 21:19 26.11.2019
3672 Clear -29 1035 68 10000 1 0 21:19 26.11.2019
3673 Clear -29 1035 75 10000 1 0 20:54 26.11.2019
3674 Clear -29 1035 75 10000 1 0 20:36 26.11.2019
3675 Clear -29 1035 75 10000 1 0 20:18 26.11.2019
3676 Clear -28 1036 68 10000 1 0 19:54 26.11.2019
3677 Clear -28 1036 68 10000 1 0 19:54 26.11.2019
3678 Clear -28 1036 68 10000 1 0 19:36 26.11.2019
3679 Clear -28 1036 68 10000 1 0 19:18 26.11.2019
3680 Clear -28 1036 68 10000 1 0 18:54 26.11.2019
3681 Clear -26 1036 75 10000 0.86 92 18:36 26.11.2019
3682 Clear -26 1036 75 10000 0.86 92 18:18 26.11.2019
3683 Clear -27 1036 68 10000 0.86 92 17:41 26.11.2019
3684 Clear -28 1036 75 10000 0.86 92 17:23 26.11.2019
3685 Clear -28 1036 75 10000 0.86 92 17:23 26.11.2019
3686 Clear -28 1036 75 10000 0.49 119 16:57 26.11.2019
3687 Clear -27 1036 68 10000 1 0 16:38 26.11.2019
3688 Clear -27 1036 68 10000 1 0 16:38 26.11.2019
3689 Clear -27 1036 68 10000 1 0 16:19 26.11.2019
3690 Clear -27 1036 68 10000 1 0 15:59 26.11.2019
3691 Clear -27 1036 68 10000 1 0 15:59 26.11.2019
3692 Clear -27 1036 68 10000 1 0 15:59 26.11.2019
3693 Clear -27 1036 75 10000 2 160 15:39 26.11.2019
3694 Clear -27 1036 75 10000 2 160 15:20 26.11.2019
3695 Clear -25 1036 69 10000 1 0 14:59 26.11.2019
3696 Clear -24 1035 69 10000 1 0 14:41 26.11.2019
3697 Clear -24 1035 69 10000 1 0 14:22 26.11.2019
3698 Clear -22 1035 69 10000 1 0 13:43 26.11.2019
3699 Clear -22 1035 69 10000 1 0 13:23 26.11.2019
3700 Clear -23 1035 69 10000 2 160 12:56 26.11.2019
3701 Clear -23 1035 69 10000 2 170 12:36 26.11.2019
3702 Clear -24 1035 76 10000 3 170 12:18 26.11.2019
3703 Clear -22 1035 69 10000 3 160 11:54 26.11.2019
3704 Clear -22 1035 69 10000 3 160 11:36 26.11.2019
3705 Clear -23 1034 76 10000 2 140 11:18 26.11.2019
3706 Clear -23 1034 76 10000 2 140 10:54 26.11.2019
3707 Clear -15 1034 54 10000 1 0 10:36 26.11.2019
3708 Clear -15 1034 54 10000 1 0 10:18 26.11.2019
3709 Clear -13 1034 46 10000 5 310 09:42 26.11.2019
3710 Clear -13 1034 46 10000 5 310 09:23 26.11.2019
3711 Clear -13 1033 46 10000 5 300 08:46 26.11.2019
3712 Clear -13 1033 50 10000 5 310 08:27 26.11.2019
3713 Clear -13 1033 50 10000 5 310 07:57 26.11.2019
3714 Clear -12 1033 46 10000 5 310 07:36 26.11.2019
3715 Clear -12 1033 46 10000 5 310 07:18 26.11.2019
3716 Clear -13 1033 55 10000 4 300 06:41 26.11.2019
3717 Clear -13 1033 55 10000 3 280 05:58 26.11.2019
3718 Clear -15 1033 65 10000 1 0 04:57 26.11.2019
3719 Clear -19 1032 77 8000 1 0 03:21 26.11.2019
3720 Clear -26 1030 75 10000 1 0 01:36 26.11.2019
3721 Clear -26 1030 75 10000 1 0 01:18 26.11.2019
3722 Clear -24 1029 69 10000 1 0 00:40 26.11.2019
3723 Clear -26 1028 75 10000 2 190 23:59 25.11.2019
3724 Clear -25 1028 69 10000 2 160 23:38 25.11.2019
3725 Clear -24 1027 69 10000 1 0 23:19 25.11.2019
3726 Clear -24 1027 69 10000 2 0 22:39 25.11.2019
3727 Clear -24 1027 69 10000 2 0 22:19 25.11.2019
3728 Clear -24 1026 76 10000 2 0 21:59 25.11.2019
3729 Clear -24 1026 76 10000 2 0 21:59 25.11.2019
3730 Clear -24 1026 76 10000 2 0 21:59 25.11.2019
3731 Clear -24 1026 76 10000 2 0 21:41 25.11.2019
3732 Clear -24 1026 76 10000 2 0 21:22 25.11.2019
3733 Clear -21 1025 70 10000 1 0 20:58 25.11.2019
3734 Clear -21 1025 70 10000 1 0 20:40 25.11.2019
3735 Clouds -21 1025 70 10000 1 0 20:20 25.11.2019
3736 Clouds -23 1024 69 10000 2 160 19:57 25.11.2019
3737 Clouds -23 1024 69 10000 2 160 19:38 25.11.2019
3738 Clouds -23 1024 69 10000 2 160 19:20 25.11.2019
3739 Clouds -23 1024 69 10000 2 160 18:57 25.11.2019
3740 Clouds -24 1023 69 10000 3 180 18:39 25.11.2019
3741 Clouds -24 1023 69 10000 3 180 18:21 25.11.2019
3742 Clouds -24 1023 69 10000 3 180 17:58 25.11.2019
3743 Clouds -23 1022 69 10000 2 150 17:40 25.11.2019
3744 Clouds -23 1022 69 10000 2 150 17:21 25.11.2019
3745 Clouds -23 1022 69 10000 2 150 16:58 25.11.2019
3746 Clouds -24 1022 69 10000 2 190 16:40 25.11.2019
3747 Clouds -24 1022 69 10000 2 190 16:22 25.11.2019
3748 Clouds -25 1021 75 10000 1 0 15:56 25.11.2019
3749 Clouds -22 1021 69 10000 1 0 15:37 25.11.2019
3750 Clouds -22 1021 69 10000 1 0 15:19 25.11.2019
3751 Clouds -21 1021 70 10000 3 170 14:43 25.11.2019
3752 Clouds -21 1020 70 10000 3 170 14:25 25.11.2019
3753 Clouds -20 1020 64 10000 2 170 13:57 25.11.2019
3754 Clouds -20 1020 64 10000 2 170 13:57 25.11.2019
3755 Clouds -20 1020 70 10000 1 0 13:37 25.11.2019
3756 Clouds -20 1020 70 10000 1 0 13:18 25.11.2019
3757 Clouds -18 1019 64 10000 2 150 12:57 25.11.2019
3758 Clouds -18 1019 64 10000 2 150 12:38 25.11.2019
3759 Clouds -19 1019 64 10000 2 160 12:19 25.11.2019
3760 Clouds -18 1018 64 10000 2 170 11:40 25.11.2019
3761 Clouds -18 1018 64 10000 2 170 11:40 25.11.2019
3762 Clouds -18 1018 64 10000 2 170 11:40 25.11.2019
3763 Clouds -14 1018 50 10000 1 0 11:21 25.11.2019
3764 Clouds -14 1018 50 10000 1 0 10:58 25.11.2019
3765 Clouds -13 1018 50 10000 1 0 10:39 25.11.2019
3766 Clouds -13 1018 50 10000 1 0 10:19 25.11.2019
3767 Clouds -12 1017 43 10000 2 240 09:42 25.11.2019
3768 Clouds -12 1017 43 10000 2 240 09:24 25.11.2019
3769 Clouds -11 1017 36 8000 3 210 08:42 25.11.2019
3770 Clouds -11 1017 36 8000 3 210 08:24 25.11.2019
3771 Clouds -12 1017 46 8000 1 0 07:56 25.11.2019
3772 Clouds -12 1017 46 8000 1 0 07:37 25.11.2019
3773 Clouds -12 1017 46 8000 1 0 07:18 25.11.2019
3774 Clear -12 1018 43 8000 1 0 06:24 25.11.2019
3775 Clear -12 1018 43 8000 1 0 06:24 25.11.2019
3776 Clear -12 1018 43 8000 1 0 05:57 25.11.2019
3777 Clear -13 1018 46 6000 1.16 260 05:32 25.11.2019
3778 Clouds -16 1019 54 6000 0.96 153 04:48 25.11.2019
3779 Clouds -26 1019 75 8000 0.96 153 02:36 25.11.2019
3780 Clouds -26 1019 75 8000 1.59 121 01:43 25.11.2019
3781 Clouds -26 1019 75 8000 1.5 120 01:24 25.11.2019
3782 Clouds -24 1019 76 10000 1.5 120 00:45 25.11.2019
3783 Clouds -23 1019 69 10000 1.5 120 00:20 25.11.2019
3784 Clouds -23 1020 69 10000 1 0 23:44 24.11.2019
3785 Clouds -24 1020 69 10000 1 0 23:20 24.11.2019
3786 Clouds -24 1020 69 10000 1 0 22:57 24.11.2019
3787 Clouds -26 1020 68 10000 1.97 103 22:39 24.11.2019
3788 Clouds -26 1020 68 10000 1.97 103 22:19 24.11.2019
3789 Clouds -26 1022 68 10000 1.97 103 21:57 24.11.2019
3790 Clouds -26 1022 68 10000 1.97 103 21:38 24.11.2019
3791 Clouds -26 1022 68 10000 1.97 103 21:20 24.11.2019
3792 Clouds -24 1023 69 10000 1.97 103 20:56 24.11.2019
3793 Clouds -24 1023 69 10000 1.97 103 20:37 24.11.2019
3794 Clouds -24 1023 69 10000 1.81 101 20:18 24.11.2019
3795 Clouds -24 1023 69 10000 1.74 102 19:56 24.11.2019
3796 Clouds -24 1023 69 10000 1.74 102 19:56 24.11.2019
3797 Clouds -25 1023 75 10000 1 0 19:38 24.11.2019
3798 Clouds -25 1023 75 10000 1 0 19:19 24.11.2019
3799 Clouds -25 1023 75 10000 1 0 18:56 24.11.2019
3800 Clouds -26 1024 68 10000 1.74 102 18:36 24.11.2019
3801 Clouds -26 1024 68 10000 1.74 102 18:18 24.11.2019
3802 Clouds -26 1024 68 10000 1.74 102 18:18 24.11.2019
3803 Clouds -26 1025 68 10000 1 0 17:55 24.11.2019
3804 Clouds -26 1025 68 10000 1 0 17:36 24.11.2019
3805 Clear -26 1025 68 10000 1.61 104 17:18 24.11.2019
3806 Clear -26 1025 68 10000 1.61 104 17:18 24.11.2019
3807 Clear -26 1025 68 10000 1.61 104 16:54 24.11.2019
3808 Clear -25 1025 75 10000 1 0 16:36 24.11.2019
3809 Clear -25 1025 75 10000 1 0 16:18 24.11.2019
3810 Clear -24 1026 76 10000 1.61 104 15:42 24.11.2019
3811 Clear -24 1026 76 10000 1.61 104 15:24 24.11.2019
3812 Clear -24 1026 76 10000 1.61 104 15:24 24.11.2019
3813 Clear -26 1026 68 10000 1 0 14:56 24.11.2019
3814 Clear -23 1027 69 10000 1.61 104 14:38 24.11.2019
3815 Clear -23 1027 69 10000 1.52 100 14:18 24.11.2019
3816 Clear -26 1027 75 10000 1.52 100 13:39 24.11.2019
3817 Clear -26 1027 75 10000 1.52 100 13:21 24.11.2019
3818 Clear -23 1027 69 10000 1.43 101 12:58 24.11.2019
3819 Clear -22 1028 69 10000 1.43 101 12:39 24.11.2019
3820 Clear -21 1028 63 10000 1 0 12:18 24.11.2019
3821 Clear -21 1028 63 10000 1 0 11:55 24.11.2019
3822 Clear -19 1028 58 10000 1.43 101 11:36 24.11.2019
3823 Clear -22 1028 63 10000 2 0 11:18 24.11.2019
3824 Clear -22 1028 63 10000 2 0 10:45 24.11.2019
3825 Clear -16 1029 54 10000 1 0 10:27 24.11.2019
3826 Clear -14 1029 50 10000 2 190 09:55 24.11.2019
3827 Clear -13 1029 42 10000 2 0 09:36 24.11.2019
3828 Clear -13 1029 42 10000 2 0 09:18 24.11.2019
3829 Clear -14 1030 50 10000 3 230 08:43 24.11.2019
3830 Clear -14 1030 50 10000 3 230 08:21 24.11.2019
3831 Clear -14 1030 50 10000 3 230 07:54 24.11.2019
3832 Clear -14 1030 46 10000 4 200 07:36 24.11.2019
3833 Clear -14 1030 46 10000 4 200 07:18 24.11.2019
3834 Clear -16 1031 59 10000 1 0 05:59 24.11.2019
3835 Clear -19 1032 77 8000 1.19 165 04:47 24.11.2019
3836 Clear -24 1033 76 10000 1 0 03:25 24.11.2019
3837 Clouds -26 1033 75 10000 0.48 208 01:58 24.11.2019
3838 Clouds -26 1033 75 10000 0.48 208 01:39 24.11.2019
3839 Clouds -26 1033 75 10000 0.57 214 01:20 24.11.2019
3840 Clouds -26 1033 68 10000 1 0 00:46 24.11.2019
3841 Clouds -26 1033 68 10000 1 0 00:23 24.11.2019
3842 Clouds -27 1033 68 10000 0.57 214 23:44 23.11.2019
3843 Clouds -27 1033 68 10000 0.71 221 23:21 23.11.2019
3844 Clouds -25 1032 75 10000 0.71 221 22:58 23.11.2019
3845 Clouds -26 1032 68 10000 0.71 221 22:38 23.11.2019
3846 Clouds -26 1032 68 10000 0.71 221 22:38 23.11.2019
3847 Clouds -26 1032 68 10000 0.71 221 22:38 23.11.2019
3848 Clouds -26 1032 68 10000 0.71 221 22:20 23.11.2019
3849 Clouds -26 1032 68 10000 0.71 221 21:58 23.11.2019
3850 Clouds -26 1032 68 10000 0.71 221 21:40 23.11.2019
3851 Clouds -26 1032 68 10000 0.71 221 21:21 23.11.2019
3852 Clouds -24 1032 76 10000 0.71 221 20:40 23.11.2019
3853 Clouds -24 1032 76 10000 0.67 256 20:22 23.11.2019
3854 Clouds -24 1032 76 10000 0.67 256 19:58 23.11.2019
3855 Clouds -25 1032 75 10000 1 0 19:40 23.11.2019
3856 Clouds -25 1032 75 10000 1 0 19:19 23.11.2019
3857 Clouds -25 1032 75 10000 1 0 18:59 23.11.2019
3858 Clouds -27 1032 68 10000 1 0 18:39 23.11.2019
3859 Clouds -27 1031 75 10000 1 0 18:20 23.11.2019
3860 Clouds -26 1031 75 10000 2 170 17:54 23.11.2019
3861 Clouds -26 1031 75 10000 2 170 17:36 23.11.2019
3862 Clouds -26 1031 75 10000 2 170 17:18 23.11.2019
3863 Clouds -23 1031 76 10000 1 0 16:41 23.11.2019
3864 Clouds -23 1031 76 10000 1 0 16:23 23.11.2019
3865 Clouds -22 1030 76 10000 1 0 15:59 23.11.2019
3866 Clouds -25 1030 75 10000 1 0 15:39 23.11.2019
3867 Clouds -25 1030 75 10000 1 0 15:19 23.11.2019
3868 Clouds -25 1030 75 10000 1 0 15:19 23.11.2019
3869 Clouds -23 1030 69 10000 1 0 14:57 23.11.2019
3870 Clouds -20 1029 76 10000 1.16 301 14:39 23.11.2019
3871 Clouds -20 1029 76 10000 1.73 306 14:21 23.11.2019
3872 Clouds -20 1029 76 10000 2 0 13:54 23.11.2019
3873 Clouds -20 1029 76 10000 2 0 13:36 23.11.2019
3874 Clouds -20 1029 76 10000 2 0 13:18 23.11.2019
3875 Clouds -20 1029 76 10000 2 0 13:18 23.11.2019
3876 Clouds -19 1028 70 10000 2 0 12:42 23.11.2019
3877 Clouds -19 1028 70 10000 2 0 12:24 23.11.2019
3878 Clouds -18 1027 70 10000 4 330 11:45 23.11.2019
3879 Clouds -18 1027 70 10000 4 330 11:23 23.11.2019
3880 Clouds -17 1025 64 10000 1 0 10:46 23.11.2019
3881 Clouds -17 1025 64 10000 1 0 10:23 23.11.2019
3882 Clouds -16 1024 65 10000 3 270 09:59 23.11.2019
3883 Clouds -16 1024 59 10000 4 280 09:40 23.11.2019
3884 Clouds -16 1024 59 10000 4 280 09:18 23.11.2019
3885 Clouds -15 1023 60 10000 4 270 08:41 23.11.2019
3886 Clouds -15 1023 60 10000 4 270 08:19 23.11.2019
3887 Clouds -15 1022 54 10000 3 240 07:42 23.11.2019
3888 Clouds -16 1022 59 10000 2 0 06:53 23.11.2019
3889 Clouds -16 1022 59 8000 1 0 06:27 23.11.2019
3890 Clouds -16 1022 59 8000 1 0 05:57 23.11.2019
3891 Clouds -17 1022 64 6000 2 0 05:32 23.11.2019
3892 Clouds -18 1022 64 6000 1.3 264 04:57 23.11.2019
3893 Clouds -20 1021 70 6000 1 0 04:32 23.11.2019
3894 Clouds -23 1021 76 8000 1 0 03:26 23.11.2019
3895 Clouds -27 1021 75 8000 2 0 02:37 23.11.2019
3896 Clouds -28 1020 68 8000 2 170 01:39 23.11.2019
3897 Clouds -26 1019 68 10000 0.64 260 00:47 23.11.2019
3898 Clouds -26 1019 68 10000 0.64 260 00:47 23.11.2019
3899 Clouds -27 1019 75 10000 2 160 00:19 23.11.2019
3900 Clouds -27 1019 75 10000 2 160 23:54 22.11.2019
3901 Clouds -27 1018 68 10000 2 170 23:36 22.11.2019
3902 Clouds -26 1018 75 10000 2 180 23:18 22.11.2019
3903 Clouds -26 1018 75 10000 0.64 272 22:42 22.11.2019
3904 Clouds -26 1018 75 10000 0.64 272 22:23 22.11.2019
3905 Clouds -24 1018 69 10000 1 0 21:59 22.11.2019
3906 Clouds -22 1018 76 10000 0.64 272 21:40 22.11.2019
3907 Clouds -22 1018 76 10000 0.64 272 21:21 22.11.2019
3908 Clouds -22 1018 69 10000 1 0 20:44 22.11.2019
3909 Clouds -22 1018 69 10000 1 0 20:23 22.11.2019
3910 Clouds -22 1018 69 10000 2 160 19:58 22.11.2019
3911 Clouds -22 1018 69 10000 2 160 19:39 22.11.2019
3912 Clouds -22 1018 69 10000 2 160 19:20 22.11.2019
3913 Clouds -21 1018 70 10000 0.28 271 18:59 22.11.2019
3914 Clouds -21 1018 70 10000 0.28 271 18:37 22.11.2019
3915 Clouds -21 1018 70 10000 0.28 271 18:19 22.11.2019
3916 Clouds -22 1018 69 10000 0.28 271 17:41 22.11.2019
3917 Clouds -22 1018 69 10000 0.14 196 17:22 22.11.2019
3918 Clouds -21 1018 70 10000 1 0 16:48 22.11.2019
3919 Clouds -23 1018 76 10000 2 150 16:30 22.11.2019
3920 Clouds -23 1018 69 10000 2 170 15:56 22.11.2019
3921 Clouds -24 1018 69 10000 1 0 15:37 22.11.2019
3922 Clouds -24 1018 69 10000 1 0 15:37 22.11.2019
3923 Clouds -24 1018 69 10000 1 0 15:19 22.11.2019
3924 Clouds -24 1018 76 10000 1 0 14:54 22.11.2019
3925 Clouds -24 1018 69 10000 2 0 14:36 22.11.2019
3926 Clouds -24 1018 69 10000 2 0 14:18 22.11.2019
3927 Clouds -21 1018 70 10000 1.16 325 13:38 22.11.2019
3928 Clouds -21 1018 70 10000 1.15 332 13:19 22.11.2019
3929 Clouds -21 1017 70 10000 1 0 12:58 22.11.2019
3930 Clouds -22 1017 76 10000 1 0 12:40 22.11.2019
3931 Clouds -22 1017 76 10000 1 0 12:19 22.11.2019
3932 Clouds -20 1017 70 10000 1 0 11:56 22.11.2019
3933 Clouds -20 1017 70 10000 2 0 11:36 22.11.2019
3934 Clouds -20 1017 70 10000 2 0 11:36 22.11.2019
3935 Clouds -20 1017 70 10000 2 0 11:18 22.11.2019
3936 Clouds -17 1016 64 10000 4 320 10:42 22.11.2019
3937 Clouds -17 1016 64 10000 4 320 10:23 22.11.2019
3938 Clouds -16 1015 65 10000 6 320 09:59 22.11.2019
3939 Clouds -16 1015 65 10000 5 320 09:40 22.11.2019
3940 Clouds -16 1015 65 10000 5 320 09:21 22.11.2019
3941 Clouds -15 1015 60 10000 6 340 08:57 22.11.2019
3942 Clouds -15 1015 60 10000 6 340 08:57 22.11.2019
3943 Clouds -15 1014 60 10000 6 330 08:38 22.11.2019
3944 Clouds -15 1014 60 10000 6 330 08:20 22.11.2019
3945 Clouds -15 1013 60 10000 7 330 07:41 22.11.2019
3946 Clouds -15 1013 60 10000 7 330 07:19 22.11.2019
3947 Clouds -15 1013 65 10000 8 330 06:42 22.11.2019
3948 Clouds -15 1013 65 10000 8 330 06:21 22.11.2019
3949 Clouds -15 1013 65 10000 8 320 05:32 22.11.2019
3950 Clouds -15 1011 71 10000 8 310 03:25 22.11.2019
3951 Clouds -15 1009 77 10000 7 320 02:39 22.11.2019
3952 Clouds -15 1009 77 10000 7 320 02:20 22.11.2019
3953 Clouds -14 1008 71 10000 6 310 01:43 22.11.2019
3954 Clouds -14 1007 71 10000 5 330 01:18 22.11.2019
3955 Clouds -13 1004 71 10000 5 330 00:40 22.11.2019
3956 Clouds -13 1004 71 10000 5 330 00:19 22.11.2019
3957 Clouds -12 1004 72 10000 7 330 23:43 21.11.2019
3958 Clouds -12 1004 72 10000 5 340 23:24 21.11.2019
3959 Clouds -12 1003 72 10000 8 330 22:56 21.11.2019
3960 Clouds -11 1002 72 10000 6 320 22:37 21.11.2019
3961 Clouds -11 1002 72 10000 6 320 22:19 21.11.2019
3962 Clouds -10 1001 66 10000 6 10 21:54 21.11.2019
3963 Clouds -10 1001 66 10000 6 20 21:36 21.11.2019
3964 Clouds -10 1001 66 10000 6 20 21:18 21.11.2019
3965 Clouds -10 1001 78 0 1 0 20:57 21.11.2019
3966 Clouds -10 1001 78 0 1 0 20:37 21.11.2019
3967 Clouds -10 1001 78 0 1 0 20:18 21.11.2019
3968 Clouds -13 1000 78 10000 1 0 19:55 21.11.2019
3969 Clouds -13 1000 78 10000 1 0 19:55 21.11.2019
3970 Clouds -13 1000 78 10000 1 0 19:36 21.11.2019
3971 Clouds -13 1000 78 10000 1 0 19:18 21.11.2019
3972 Clouds -14 999 84 10000 2 0 18:41 21.11.2019
3973 Clouds -14 999 84 10000 2 0 18:21 21.11.2019
3974 Clouds -13 999 84 10000 1 0 17:58 21.11.2019
3975 Clouds -13 999 78 10000 2 0 17:39 21.11.2019
3976 Clouds -13 999 78 10000 2 0 17:39 21.11.2019
3977 Clouds -13 999 78 10000 2 0 17:39 21.11.2019
3978 Clouds -13 999 78 10000 2 0 17:21 21.11.2019
3979 Clouds -12 1000 85 10000 1 0 16:57 21.11.2019
3980 Clouds -9 1000 72 10000 1.43 86 16:39 21.11.2019
3981 Clouds -9 1000 72 10000 1.43 86 16:20 21.11.2019
3982 Clouds -10 1000 78 10000 3 160 15:44 21.11.2019
3983 Clouds -11 1000 78 10000 1 0 15:21 21.11.2019
3984 Clouds -11 1001 78 10000 1.43 86 14:58 21.11.2019
3985 Clouds -11 1001 78 10000 1 0 14:38 21.11.2019
3986 Clouds -11 1001 78 10000 1 0 14:20 21.11.2019
3987 Clouds -11 1001 78 10000 1 0 13:57 21.11.2019
3988 Clouds -11 1001 78 10000 1 0 13:37 21.11.2019
3989 Clouds -11 1001 78 10000 1 0 13:19 21.11.2019
3990 Clouds -12 1002 78 8000 1 0 12:41 21.11.2019
3991 Clouds -12 1002 78 8000 1 0 12:23 21.11.2019
3992 Clouds -11 1001 78 10000 1.92 65 11:56 21.11.2019
3993 Clouds -12 1002 78 10000 1 0 11:37 21.11.2019
3994 Clouds -12 1002 78 10000 1 0 11:37 21.11.2019
3995 Clouds -12 1002 78 10000 1 0 11:19 21.11.2019
3996 Clouds -8 1003 67 8000 1 0 10:43 21.11.2019
3997 Clouds -8 1003 67 8000 1 0 10:24 21.11.2019
3998 Clouds -7 1003 67 8000 2 270 09:59 21.11.2019
3999 Clouds -6 1003 57 8000 1.59 94 09:41 21.11.2019
4000 Clouds -6 1003 57 8000 1.59 94 09:22 21.11.2019
4001 Clouds -6 1003 57 8000 1.59 94 08:54 21.11.2019
4002 Clouds -6 1003 57 8000 1 0 08:36 21.11.2019
4003 Clouds -6 1003 57 8000 1 0 08:18 21.11.2019
4004 Clouds -7 1004 57 8000 1 0 07:37 21.11.2019
4005 Clouds -7 1004 57 8000 1 0 07:18 21.11.2019
4006 Clouds -8 1005 61 8000 1 0 06:42 21.11.2019
4007 Clouds -8 1005 61 8000 1 0 06:24 21.11.2019
4008 Clouds -11 1006 66 8000 1 0 04:55 21.11.2019
4009 Clouds -17 1007 84 8000 2.15 113 02:53 21.11.2019
4010 Clouds -17 1007 77 8000 1 0 02:33 21.11.2019
4011 Clouds -21 1006 83 8000 1 0 01:52 21.11.2019
4012 Clouds -17 1006 77 8000 1 0 01:21 21.11.2019
4013 Clouds -19 1007 70 10000 1 0 00:41 21.11.2019
4014 Clouds -19 1007 70 10000 1 0 00:20 21.11.2019
4015 Clouds -19 1007 77 10000 1 0 23:51 20.11.2019
4016 Clouds -19 1007 77 10000 1 0 23:22 20.11.2019
4017 Clouds -17 1008 77 10000 1 0 22:58 20.11.2019
4018 Clouds -18 1008 77 10000 1 0 22:40 20.11.2019
4019 Clouds -18 1008 77 10000 1 0 22:20 20.11.2019
4020 Clouds -20 1008 83 10000 1 0 21:58 20.11.2019
4021 Clouds -20 1008 83 10000 1 0 21:39 20.11.2019
4022 Clouds -20 1008 83 10000 1 0 21:20 20.11.2019
4023 Clouds -17 1009 84 10000 2.12 108 20:57 20.11.2019
4024 Clouds -17 1009 84 10000 2.12 108 20:39 20.11.2019
4025 Clouds -17 1009 84 10000 2.01 110 20:21 20.11.2019
4026 Clouds -19 1009 84 10000 1 0 19:57 20.11.2019
4027 Clouds -19 1009 84 10000 1 0 19:37 20.11.2019
4028 Clouds -19 1009 84 10000 1 0 19:19 20.11.2019
4029 Clouds -15 1009 77 10000 1 0 18:59 20.11.2019
4030 Clouds -15 1009 77 10000 1 0 18:39 20.11.2019
4031 Clouds -15 1009 77 10000 1 0 18:21 20.11.2019
4032 Clouds -17 1010 77 10000 2.01 110 17:57 20.11.2019
4033 Clouds -17 1010 77 10000 2.01 110 17:39 20.11.2019
4034 Clouds -17 1010 77 10000 2.21 104 17:20 20.11.2019
4035 Clouds -17 1010 84 10000 2 130 16:57 20.11.2019
4036 Clouds -16 1010 84 10000 1 0 16:38 20.11.2019
4037 Clouds -16 1010 84 10000 1 0 16:18 20.11.2019
4038 Clouds -16 1011 77 10000 1 0 15:42 20.11.2019
4039 Clouds -16 1011 77 10000 1 0 15:22 20.11.2019
4040 Clouds -15 1011 77 10000 1 0 14:59 20.11.2019
4041 Clouds -14 1011 77 10000 1 0 14:40 20.11.2019
4042 Clouds -14 1011 77 10000 1 0 14:40 20.11.2019
4043 Clouds -14 1011 77 10000 1 0 14:22 20.11.2019
4044 Clouds -12 1011 72 10000 2.15 102 13:58 20.11.2019
4045 Clouds -14 1011 77 10000 1 0 13:39 20.11.2019
4046 Clouds -14 1011 77 10000 1 0 13:20 20.11.2019
4047 Clouds -13 1011 71 10000 1 0 12:55 20.11.2019
4048 Clouds -12 1011 72 10000 2.14 100 12:36 20.11.2019
4049 Clouds -12 1011 72 10000 2.14 100 12:18 20.11.2019
4050 Clouds -11 1011 66 10000 1 0 11:41 20.11.2019
4051 Clouds -11 1011 66 10000 1 0 11:22 20.11.2019
4052 Clouds -11 1011 72 10000 1 0 10:56 20.11.2019
4053 Clouds -11 1011 72 10000 1 0 10:56 20.11.2019
4054 Clouds -9 1011 66 8000 1 0 10:37 20.11.2019
4055 Clouds -9 1011 66 8000 1 0 10:19 20.11.2019
4056 Clouds -8 1011 67 8000 1 0 09:43 20.11.2019
4057 Clouds -7 1011 62 8000 2.07 104 09:22 20.11.2019
4058 Clouds -6 1011 53 8000 1 0 08:58 20.11.2019
4059 Clouds -7 1011 57 8000 1 0 08:39 20.11.2019
4060 Clouds -7 1011 57 8000 1 0 08:20 20.11.2019
4061 Clouds -7 1011 52 8000 2.23 123 07:47 20.11.2019
4062 Clouds -8 1012 57 8000 2.23 123 07:26 20.11.2019
4063 Clouds -9 1012 61 8000 2.23 123 06:49 20.11.2019
4064 Clouds -11 1013 61 8000 1 0 06:22 20.11.2019
4065 Clouds -12 1014 60 8000 2.23 123 05:39 20.11.2019
4066 Clouds -16 1015 65 8000 2.59 110 03:42 20.11.2019
4067 Clouds -20 1016 76 8000 2.24 100 02:21 20.11.2019
4068 Clouds -21 1016 70 8000 1 0 01:33 20.11.2019
4069 Clear -22 1017 76 10000 1 0 00:42 20.11.2019
4070 Clear -22 1017 69 10000 2.01 105 23:57 19.11.2019
4071 Clear -22 1017 76 10000 1 0 23:27 19.11.2019
4072 Clear -23 1017 76 10000 1.64 88 22:59 19.11.2019
4073 Clear -23 1017 69 10000 1 0 22:41 19.11.2019
4074 Clear -23 1017 69 10000 1 0 22:19 19.11.2019
4075 Clear -22 1017 76 10000 1.64 88 21:57 19.11.2019
4076 Clear -22 1017 76 10000 1.64 88 21:57 19.11.2019
4077 Clear -23 1017 76 10000 1 0 21:38 19.11.2019
4078 Clear -23 1017 76 10000 1 0 21:19 19.11.2019
4079 Clear -23 1017 76 10000 1 0 21:19 19.11.2019
4080 Clear -23 1017 76 10000 1 0 21:19 19.11.2019
4081 Clear -20 1017 76 10000 1.64 88 20:56 19.11.2019
4082 Clear -20 1017 76 10000 1.64 88 20:56 19.11.2019
4083 Clear -20 1017 76 10000 1.64 88 20:38 19.11.2019
4084 Clear -20 1017 76 10000 1.18 110 20:20 19.11.2019
4085 Clear -19 1017 70 10000 1 0 19:56 19.11.2019
4086 Clear -19 1017 70 10000 1 0 19:38 19.11.2019
4087 Clear -19 1017 70 10000 1 0 19:19 19.11.2019
4088 Clear -21 1017 76 10000 1 0 18:55 19.11.2019
4089 Clear -21 1017 76 10000 1 0 18:36 19.11.2019
4090 Clear -21 1017 76 10000 1 0 18:18 19.11.2019
4091 Clear -21 1017 70 10000 2 120 17:55 19.11.2019
4092 Clear -22 1018 69 10000 1 0 17:36 19.11.2019
4093 Clear -22 1018 69 10000 1 0 17:18 19.11.2019
4094 Clouds -19 1017 70 10000 1.12 125 16:42 19.11.2019
4095 Clouds -19 1017 70 10000 1.12 125 16:22 19.11.2019
4096 Clouds -20 1017 70 10000 2 0 15:56 19.11.2019
4097 Clouds -21 1017 76 10000 1 0 15:38 19.11.2019
4098 Clouds -21 1017 76 10000 1 0 15:20 19.11.2019
4099 Clouds -19 1017 64 10000 1 0 14:55 19.11.2019
4100 Clouds -20 1017 70 10000 1 0 14:37 19.11.2019
4101 Clouds -20 1017 70 10000 1 0 14:19 19.11.2019
4102 Clouds -17 1016 70 10000 0.37 285 13:40 19.11.2019
4103 Clouds -17 1016 70 10000 0.37 285 13:40 19.11.2019
4104 Clouds -17 1016 70 10000 0.37 285 13:19 19.11.2019
4105 Clouds -17 1016 70 10000 0.52 281 13:19 19.11.2019
4106 Clouds -15 1016 65 10000 1 0 12:40 19.11.2019
4107 Clouds -15 1016 65 10000 1 0 12:21 19.11.2019
4108 Clouds -13 1015 60 8000 1 0 11:57 19.11.2019
4109 Clouds -12 1015 55 8000 0.52 281 11:38 19.11.2019
4110 Clouds -12 1015 55 8000 0.03 174 11:19 19.11.2019
4111 Clouds -12 1015 55 8000 0.03 174 11:19 19.11.2019
4112 Clouds -12 1015 55 8000 0.03 174 10:47 19.11.2019
4113 Clouds -12 1015 51 8000 0.03 174 10:22 19.11.2019
4114 Clouds -12 1015 51 8000 0.03 174 09:57 19.11.2019
4115 Clouds -13 1014 55 8000 1 0 09:39 19.11.2019
4116 Clouds -13 1014 55 8000 1 0 09:18 19.11.2019
4117 Clouds -13 1014 55 8000 1 0 08:41 19.11.2019
4118 Clouds -13 1014 55 8000 1 0 08:22 19.11.2019
4119 Clouds -13 1014 55 8000 1 0 07:57 19.11.2019
4120 Clouds -14 1014 55 8000 1 0 07:38 19.11.2019
4121 Clouds -14 1014 55 8000 1 0 07:19 19.11.2019
4122 Clouds -14 1014 55 8000 0.95 154 06:45 19.11.2019
4123 Clouds -15 1014 54 8000 1 0 06:27 19.11.2019
4124 Clouds -16 1015 54 8000 1 0 05:20 19.11.2019
4125 Clouds -21 1015 63 6000 1.65 123 03:45 19.11.2019
4126 Clouds -22 1015 63 6000 1 0 03:22 19.11.2019
4127 Clouds -23 1015 69 8000 1 0 02:53 19.11.2019
4128 Clouds -28 1015 68 8000 1 0 01:58 19.11.2019
4129 Clear -27 1015 68 8000 1 0 00:59 19.11.2019
4130 Clear -27 1015 68 10000 1.98 108 00:21 19.11.2019
4131 Clear -27 1015 68 10000 1.98 108 00:21 19.11.2019
4132 Clear -26 1015 68 10000 1 0 23:56 18.11.2019
4133 Clear -27 1015 75 10000 1 0 23:37 18.11.2019
4134 Clear -27 1015 75 10000 1 0 23:18 18.11.2019
4135 Clear -28 1016 68 10000 1 0 22:42 18.11.2019
4136 Clear -28 1016 68 10000 1 0 22:23 18.11.2019
4137 Clear -27 1016 68 10000 1 0 21:54 18.11.2019
4138 Clear -27 1016 68 10000 1 0 21:36 18.11.2019
4139 Clear -27 1016 68 10000 1 0 21:18 18.11.2019
4140 Clear -28 1017 75 10000 2.12 105 20:42 18.11.2019
4141 Clear -28 1017 75 10000 1.79 102 20:20 18.11.2019
4142 Clear -29 1018 68 10000 1 0 19:58 18.11.2019
4143 Clear -29 1018 68 10000 1 0 19:58 18.11.2019
4144 Clear -29 1018 68 10000 1 0 19:39 18.11.2019
4145 Clear -29 1018 68 10000 1 0 19:21 18.11.2019
4146 Clear -29 1018 68 10000 2 170 18:57 18.11.2019
4147 Clear -29 1018 68 10000 2 170 18:38 18.11.2019
4148 Clear -29 1018 68 10000 2 170 18:19 18.11.2019
4149 Clear -29 1019 68 10000 1 0 17:59 18.11.2019
4150 Clear -29 1019 68 10000 1 0 17:37 18.11.2019
4151 Clear -29 1019 68 10000 1 0 17:19 18.11.2019
4152 Clear -29 1020 68 10000 1.03 122 16:43 18.11.2019
4153 Clear -29 1020 68 10000 1.03 122 16:24 18.11.2019
4154 Clear -28 1020 68 10000 1 0 15:59 18.11.2019
4155 Clear -27 1020 68 10000 1 0 15:40 18.11.2019
4156 Clear -27 1020 68 10000 1 0 15:22 18.11.2019
4157 Clear -28 1020 68 10000 2 160 14:58 18.11.2019
4158 Clear -27 1020 68 10000 1 0 14:39 18.11.2019
4159 Clear -27 1020 68 10000 1 0 14:20 18.11.2019
4160 Clear -24 1020 69 10000 0.27 110 13:43 18.11.2019
4161 Clear -25 1020 69 10000 0.2 94 13:25 18.11.2019
4162 Clear -25 1021 69 10000 1 0 12:45 18.11.2019
4163 Clear -24 1021 63 10000 2 0 12:20 18.11.2019
4164 Clear -25 1021 69 10000 3 160 11:58 18.11.2019
4165 Clear -24 1021 69 10000 3 170 11:40 18.11.2019
4166 Clear -24 1021 69 10000 3 170 11:22 18.11.2019
4167 Clear -24 1021 63 10000 3 150 10:44 18.11.2019
4168 Clear -21 1021 58 10000 2 170 10:26 18.11.2019
4169 Clear -18 1021 54 10000 1 0 09:59 18.11.2019
4170 Clear -18 1021 49 10000 1 0 09:38 18.11.2019
4171 Clear -18 1021 49 10000 1 0 09:20 18.11.2019
4172 Clear -18 1021 49 10000 1 0 08:57 18.11.2019
4173 Clear -17 1021 45 10000 1 0 08:39 18.11.2019
4174 Clear -17 1021 45 10000 1 0 08:19 18.11.2019
4175 Clear -18 1021 49 10000 3 250 07:45 18.11.2019
4176 Clear -19 1021 53 10000 3 230 07:25 18.11.2019
4177 Clear -19 1021 53 10000 1 0 06:49 18.11.2019
4178 Clear -19 1021 49 10000 1 0 06:28 18.11.2019
4179 Clear -20 1021 53 10000 1 0 05:44 18.11.2019
4180 Clear -24 1021 69 8000 1 0 03:59 18.11.2019
4181 Clear -33 1022 67 8000 1 0 01:40 18.11.2019
4182 Clear -33 1022 67 8000 2 170 00:54 18.11.2019
4183 Clear -33 1022 67 10000 1 0 00:20 18.11.2019
4184 Clear -32 1021 60 10000 0.95 303 23:41 17.11.2019
4185 Clear -32 1021 60 10000 0.32 312 23:22 17.11.2019
4186 Clear -32 1021 60 10000 0.32 312 22:57 17.11.2019
4187 Clear -32 1021 60 10000 0.32 312 22:57 17.11.2019
4188 Clear -32 1022 67 10000 2 0 22:39 17.11.2019
4189 Clear -32 1022 67 10000 2 0 22:21 17.11.2019
4190 Clear -32 1022 60 10000 2 150 21:57 17.11.2019
4191 Clear -32 1022 60 10000 2 150 21:38 17.11.2019
4192 Clear -32 1022 60 10000 2 150 21:18 17.11.2019
4193 Clear -32 1023 67 10000 1 0 20:55 17.11.2019
4194 Clear -32 1023 67 10000 1 0 20:36 17.11.2019
4195 Clouds -32 1023 67 10000 1 0 20:18 17.11.2019
4196 Clouds -33 1024 67 10000 1 0 19:55 17.11.2019
4197 Clouds -33 1024 67 10000 1 0 19:36 17.11.2019
4198 Clouds -33 1024 67 10000 1 0 19:18 17.11.2019
4199 Clouds -30 1024 67 10000 1 0 18:54 17.11.2019
4200 Clouds -30 1024 67 10000 1 0 18:36 17.11.2019
4201 Clouds -30 1024 67 10000 1 0 18:18 17.11.2019
4202 Clouds -29 1025 68 10000 1 0 17:56 17.11.2019
4203 Clouds -29 1025 68 10000 1 0 17:38 17.11.2019
4204 Clouds -29 1025 68 10000 1 0 17:18 17.11.2019
4205 Clouds -27 1025 68 10000 1 0 16:55 17.11.2019
4206 Clouds -29 1025 68 10000 3 170 16:37 17.11.2019
4207 Clouds -29 1025 68 10000 3 170 16:19 17.11.2019
4208 Clouds -29 1026 68 10000 2 160 15:41 17.11.2019
4209 Clouds -29 1026 68 10000 2 160 15:19 17.11.2019
4210 Clouds -30 1026 67 10000 2 170 14:57 17.11.2019
4211 Clouds -28 1026 68 10000 2 170 14:39 17.11.2019
4212 Clouds -28 1026 68 10000 2 170 14:21 17.11.2019
4213 Clouds -29 1026 68 10000 2 170 13:59 17.11.2019
4214 Clouds -29 1027 68 10000 2 0 13:40 17.11.2019
4215 Clouds -29 1027 68 10000 2 0 13:20 17.11.2019
4216 Clouds -29 1027 68 10000 2 0 13:20 17.11.2019
4217 Clouds -28 1027 75 10000 1 0 12:45 17.11.2019
4218 Clouds -28 1027 68 10000 2 160 12:25 17.11.2019
4219 Clouds -26 1027 75 10000 1 0 11:59 17.11.2019
4220 Clouds -23 1027 63 10000 1 0 11:41 17.11.2019
4221 Clouds -23 1027 63 10000 1 0 11:21 17.11.2019
4222 Clouds -23 1027 63 10000 1 0 11:21 17.11.2019
4223 Clouds -23 1027 63 10000 1 0 10:59 17.11.2019
4224 Clouds -21 1027 63 10000 2 0 10:40 17.11.2019
4225 Clouds -21 1027 63 10000 2 0 10:21 17.11.2019
4226 Clouds -21 1027 63 10000 2 0 10:21 17.11.2019
4227 Clouds -20 1027 58 10000 4 340 09:42 17.11.2019
4228 Clouds -20 1027 58 10000 4 340 09:24 17.11.2019
4229 Clouds -20 1027 58 10000 5 340 08:44 17.11.2019
4230 Clouds -20 1027 58 10000 5 340 08:44 17.11.2019
4231 Clouds -20 1027 58 10000 5 330 08:26 17.11.2019
4232 Clouds -20 1027 64 10000 7 310 07:58 17.11.2019
4233 Clouds -20 1027 64 10000 7 310 07:40 17.11.2019
4234 Clouds -20 1027 64 10000 7 310 07:20 17.11.2019
4235 Clouds -20 1027 58 10000 7 320 06:53 17.11.2019
4236 Clouds -20 1027 64 10000 6 330 06:29 17.11.2019
4237 Snow -21 1027 63 10000 8 340 04:57 17.11.2019
4238 Clouds -21 1026 70 10000 8 330 03:59 17.11.2019
4239 Snow -21 1026 63 10000 7 330 03:37 17.11.2019
4240 Snow -21 1026 63 10000 7 330 03:19 17.11.2019
4241 Snow -21 1024 70 10000 6 330 01:54 17.11.2019
4242 Clouds -25 1041 90 0 5.79 336 00:59 17.11.2019
4243 Clouds -20 1022 70 10000 9 340 00:38 17.11.2019
4244 Clouds -20 1022 70 10000 9 340 00:19 17.11.2019
4245 Snow -20 1021 64 10000 8 340 23:40 16.11.2019
4246 Snow -20 1021 64 10000 8 340 23:18 16.11.2019
4247 Clouds -20 1019 70 10000 8 330 22:42 16.11.2019
4248 Clouds -20 1019 70 10000 8 330 22:20 16.11.2019
4249 Clouds -20 1019 70 10000 8 330 21:58 16.11.2019
4250 Clouds -19 1018 64 10000 8 340 21:40 16.11.2019
4251 Clouds -19 1018 64 10000 8 340 21:21 16.11.2019
4252 Clouds -19 1017 70 10000 5 340 20:57 16.11.2019
4253 Clouds -19 1017 70 10000 5 340 20:39 16.11.2019
4254 Clouds -19 1017 70 10000 5 340 20:19 16.11.2019
4255 Clouds -19 1015 70 10000 7 330 19:41 16.11.2019
4256 Clouds -19 1015 70 10000 7 330 19:22 16.11.2019
4257 Clouds -18 1014 70 10000 6 340 18:58 16.11.2019
4258 Clouds -18 1014 70 10000 6 340 18:39 16.11.2019
4259 Clouds -18 1014 70 10000 6 340 18:20 16.11.2019
4260 Clouds -17 1013 70 10000 5 330 17:55 16.11.2019
4261 Clouds -17 1013 70 10000 5 330 17:36 16.11.2019
4262 Clouds -17 1013 70 10000 5 330 17:18 16.11.2019
4263 Clouds -17 1013 70 10000 6 330 16:43 16.11.2019
4264 Clouds -16 1012 71 10000 5 330 16:25 16.11.2019
4265 Clouds -15 1012 71 10000 5 340 15:54 16.11.2019
4266 Clouds -15 1011 71 10000 6 350 15:36 16.11.2019
4267 Clouds -15 1011 71 10000 6 350 15:18 16.11.2019
4268 Snow -15 1011 77 10000 6 340 14:40 16.11.2019
4269 Snow -15 1011 77 10000 6 340 14:21 16.11.2019
4270 Snow -15 1010 77 10000 6 330 13:56 16.11.2019
4271 Snow -14 1010 77 10000 5 330 13:38 16.11.2019
4272 Snow -14 1010 77 10000 5 330 13:19 16.11.2019
4273 Clouds -14 1010 77 10000 5 330 12:57 16.11.2019
4274 Clouds -14 1010 77 10000 5 330 12:57 16.11.2019
4275 Clouds -14 1010 77 10000 5 330 12:57 16.11.2019
4276 Clouds -14 1009 77 10000 5 320 12:39 16.11.2019
4277 Clouds -14 1009 77 10000 5 320 12:20 16.11.2019
4278 Snow -14 1009 84 10000 5 310 11:44 16.11.2019
4279 Clouds -13 1008 78 10000 4 290 11:26 16.11.2019
4280 Clouds -12 1007 85 10000 3 350 10:56 16.11.2019
4281 Snow -12 1007 85 3000 5 330 10:38 16.11.2019
4282 Snow -12 1007 85 3000 5 330 10:20 16.11.2019
4283 Snow -11 1006 85 2000 3 320 09:43 16.11.2019
4284 Snow -9 1005 85 3600 4 140 09:21 16.11.2019
4285 Snow -9 1005 78 4000 5 140 08:58 16.11.2019
4286 Snow -8 1005 72 4000 5 140 08:38 16.11.2019
4287 Snow -8 1005 72 4000 5 140 08:18 16.11.2019
4288 Clouds -8 1004 61 10000 4 120 07:41 16.11.2019
4289 Clouds -8 1004 61 10000 4 120 07:41 16.11.2019
4290 Clouds -8 1004 61 10000 4 120 07:20 16.11.2019
4291 Clouds -8 1003 61 10000 8 130 06:45 16.11.2019
4292 Clouds -8 1003 61 10000 10 140 06:26 16.11.2019
4293 Clouds -7 1004 57 10000 7 120 05:28 16.11.2019
4294 Clouds -6 1004 57 10000 5 110 03:42 16.11.2019
4295 Clouds -9 1004 66 10000 2 0 03:23 16.11.2019
4296 Clouds -12 1003 78 10000 2 0 01:47 16.11.2019
4297 Clouds -14 1003 77 10000 1 0 01:19 16.11.2019
4298 Clouds -13 1003 78 10000 4 240 00:42 16.11.2019
4299 Clouds -13 1003 78 10000 4 240 00:22 16.11.2019
4300 Clouds -12 1003 72 10000 1 0 23:40 15.11.2019
4301 Clouds -12 1003 72 10000 1 0 23:20 15.11.2019
4302 Clouds -13 1004 78 10000 2.32 96 22:55 15.11.2019
4303 Clouds -14 1004 77 10000 1 0 22:37 15.11.2019
4304 Clouds -14 1004 77 10000 1 0 22:18 15.11.2019
4305 Clouds -14 1004 77 10000 2.32 96 21:41 15.11.2019
4306 Clouds -14 1004 77 10000 2.32 96 21:21 15.11.2019
4307 Clouds -16 1005 77 10000 2.32 96 20:59 15.11.2019
4308 Clouds -16 1005 77 10000 2.32 96 20:59 15.11.2019
4309 Clouds -16 1005 77 10000 2.32 96 20:40 15.11.2019
4310 Clouds -16 1005 77 10000 2.41 87 20:22 15.11.2019
4311 Clouds -15 1005 77 10000 1 0 19:59 15.11.2019
4312 Clouds -15 1005 77 10000 1 0 19:40 15.11.2019
4313 Clouds -15 1005 77 10000 1 0 19:20 15.11.2019
4314 Clouds -13 1005 78 10000 1 0 18:58 15.11.2019
4315 Clouds -13 1005 78 10000 1 0 18:40 15.11.2019
4316 Clouds -13 1005 78 10000 1 0 18:21 15.11.2019
4317 Clouds -13 1006 84 10000 2.41 87 17:43 15.11.2019
4318 Clouds -13 1006 84 10000 2.41 87 17:25 15.11.2019
4319 Clouds -13 1006 84 10000 2.41 87 17:25 15.11.2019
4320 Clouds -14 1006 84 10000 1.85 88 16:58 15.11.2019
4321 Clouds -14 1007 77 10000 1.85 88 16:39 15.11.2019
4322 Clouds -14 1007 77 10000 1.85 88 16:20 15.11.2019
4323 Clouds -13 1006 78 10000 1.85 88 15:39 15.11.2019
4324 Clouds -13 1006 78 10000 1.85 88 15:20 15.11.2019
4325 Clouds -13 1006 78 10000 1.85 88 14:58 15.11.2019
4326 Clouds -14 1006 84 10000 1 0 14:39 15.11.2019
4327 Clouds -14 1006 84 10000 1 0 14:21 15.11.2019
4328 Clouds -14 1006 77 10000 1.14 100 13:59 15.11.2019
4329 Clouds -13 1007 78 10000 1 0 13:40 15.11.2019
4330 Clouds -13 1007 78 10000 1 0 13:21 15.11.2019
4331 Clouds -13 1007 78 10000 1 0 13:21 15.11.2019
4332 Clouds -12 1007 78 10000 0.85 97 12:59 15.11.2019
4333 Clouds -12 1007 78 10000 1 0 12:40 15.11.2019
4334 Clouds -12 1007 78 10000 1 0 12:20 15.11.2019
4335 Clouds -12 1006 78 10000 1 0 11:58 15.11.2019
4336 Clouds -12 1006 78 10000 1 0 11:38 15.11.2019
4337 Clouds -12 1006 78 10000 1 0 11:20 15.11.2019
4338 Clouds -9 1006 66 10000 1 0 10:56 15.11.2019
4339 Clouds -6 1006 62 10000 3 60 10:38 15.11.2019
4340 Clouds -6 1006 62 10000 3 60 10:18 15.11.2019
4341 Clouds -5 1007 53 10000 1 0 09:41 15.11.2019
4342 Clouds -5 1007 53 10000 1 0 09:20 15.11.2019
4343 Clouds -6 1007 57 10000 3 70 08:44 15.11.2019
4344 Clouds -6 1007 57 10000 3 70 08:44 15.11.2019
4345 Clouds -5 1007 53 10000 1 0 08:23 15.11.2019
4346 Clouds -5 1007 49 10000 1 0 07:49 15.11.2019
4347 Clouds -5 1007 49 10000 1 0 07:49 15.11.2019
4348 Clouds -6 1007 57 10000 2 0 07:28 15.11.2019
4349 Clouds -6 1007 53 10000 1 0 06:50 15.11.2019
4350 Clouds -6 1008 53 10000 1.36 256 06:31 15.11.2019
4351 Clouds -7 1008 52 10000 1 0 05:48 15.11.2019
4352 Clouds -8 1008 57 10000 1.36 256 05:26 15.11.2019
4353 Snow -12 1009 66 10000 1.22 116 03:56 15.11.2019
4354 Snow -13 1009 65 10000 1.22 116 03:24 15.11.2019
4355 Clouds -17 1009 77 10000 0.99 133 02:20 15.11.2019
4356 Clouds -17 1009 77 10000 1.27 113 01:33 15.11.2019
4357 Clouds -15 1009 77 8000 1 0 00:54 15.11.2019
4358 Clouds -15 1009 77 8000 1 0 00:33 15.11.2019
4359 Clouds -15 1009 71 8000 1.27 113 23:53 14.11.2019
4360 Clouds -15 1009 71 8000 1.27 113 23:29 14.11.2019
4361 Clouds -16 1009 77 0 1 140 22:59 14.11.2019
4362 Clouds -17 1009 84 10000 1 0 22:39 14.11.2019
4363 Clouds -17 1009 84 10000 1 0 22:21 14.11.2019
4364 Clouds -18 1009 77 10000 1.25 129 21:55 14.11.2019
4365 Clouds -20 1009 83 10000 1 0 21:37 14.11.2019
4366 Clouds -20 1009 83 10000 1 0 21:19 14.11.2019
4367 Clouds -20 1009 76 10000 1.25 129 20:42 14.11.2019
4368 Clouds -20 1009 76 10000 1.44 117 20:23 14.11.2019
4369 Clouds -20 1009 76 10000 1.16 113 19:59 14.11.2019
4370 Clouds -20 1009 76 10000 1.16 113 19:59 14.11.2019
4371 Clouds -18 1009 77 10000 1 0 19:41 14.11.2019
4372 Clouds -18 1009 77 10000 1 0 19:18 14.11.2019
4373 Clouds -18 1009 77 10000 1 0 18:56 14.11.2019
4374 Clouds -16 1010 77 10000 1 0 18:38 14.11.2019
4375 Clouds -16 1010 77 10000 1 0 18:19 14.11.2019
4376 Clouds -15 1010 77 10000 1 0 17:55 14.11.2019
4377 Clouds -15 1010 77 10000 1 0 17:37 14.11.2019
4378 Clouds -14 1010 71 10000 1 0 17:18 14.11.2019
4379 Clouds -14 1010 71 10000 1 0 16:55 14.11.2019
4380 Clouds -15 1010 77 10000 1 0 16:36 14.11.2019
4381 Clouds -15 1010 77 10000 1 0 16:18 14.11.2019
4382 Clouds -13 1010 71 10000 0.52 353 15:54 14.11.2019
4383 Clouds -14 1010 77 10000 2 280 15:36 14.11.2019
4384 Clouds -14 1010 77 10000 2 280 15:18 14.11.2019
4385 Clouds -16 1010 84 10000 2 170 14:41 14.11.2019
4386 Clouds -16 1010 84 10000 2 170 14:22 14.11.2019
4387 Clouds -17 1010 84 10000 2 170 13:55 14.11.2019
4388 Clouds -16 1011 71 10000 1 0 13:37 14.11.2019
4389 Clouds -16 1011 71 10000 1 0 13:18 14.11.2019
4390 Clouds -16 1010 77 10000 3 160 12:46 14.11.2019
4391 Clouds -16 1010 77 10000 3 160 12:26 14.11.2019
4392 Clouds -17 1010 77 10000 2 160 11:58 14.11.2019
4393 Clouds -16 1010 77 10000 2 0 11:38 14.11.2019
4394 Clouds -16 1010 77 10000 2 0 11:19 14.11.2019
4395 Clouds -12 1009 66 10000 1 0 10:57 14.11.2019
4396 Clouds -7 1010 57 10000 2 290 10:38 14.11.2019
4397 Clouds -7 1010 57 10000 2 290 10:19 14.11.2019
4398 Clouds -7 1010 57 10000 2 290 09:56 14.11.2019
4399 Clouds -6 1009 53 10000 2 0 09:37 14.11.2019
4400 Clouds -5 1009 53 10000 4 300 09:18 14.11.2019
4401 Clouds -5 1009 53 10000 4 300 08:46 14.11.2019
4402 Clouds -5 1009 53 10000 4 300 08:24 14.11.2019
4403 Clouds -5 1008 57 10000 5 240 07:43 14.11.2019
4404 Clouds -6 1008 62 10000 4 240 07:25 14.11.2019
4405 Clouds -6 1008 62 10000 4 240 06:55 14.11.2019
4406 Clouds -7 1008 57 10000 2 0 06:36 14.11.2019
4407 Clouds -7 1008 57 10000 2 0 06:18 14.11.2019
4408 Clouds -10 1017 68 0 6.42 300 04:39 14.11.2019
4409 Clouds -17 1008 70 6000 1 0 03:50 14.11.2019
4410 Clouds -19 1008 84 6000 1 0 02:41 14.11.2019
4411 Clouds -19 1007 70 8000 2.3 290 01:41 14.11.2019
4412 Clouds -20 1007 76 10000 2.81 284 00:58 14.11.2019
4413 Clouds -20 1006 70 10000 1 0 00:40 14.11.2019
4414 Clouds -20 1006 70 10000 1 0 00:20 14.11.2019
4415 Clouds -21 1006 76 10000 1 0 23:39 13.11.2019
4416 Clouds -21 1006 76 10000 1 0 23:20 13.11.2019
4417 Clouds -23 1006 69 10000 1 0 22:55 13.11.2019
4418 Clouds -23 1006 69 10000 1 0 22:55 13.11.2019
4419 Clouds -22 1006 69 10000 1 0 22:37 13.11.2019
4420 Clouds -22 1006 69 10000 1 0 22:19 13.11.2019
4421 Clouds -21 1006 70 10000 1 0 21:55 13.11.2019
4422 Clouds -23 1006 76 10000 1 0 21:37 13.11.2019
4423 Clouds -23 1006 76 10000 1 0 21:18 13.11.2019
4424 Clouds -22 1006 76 10000 1.91 266 20:55 13.11.2019
4425 Clouds -22 1006 76 10000 1.91 266 20:37 13.11.2019
4426 Clouds -22 1006 76 10000 1.13 266 20:18 13.11.2019
4427 Clouds -22 1006 76 10000 1.13 266 20:18 13.11.2019
4428 Clouds -19 1007 70 10000 1.13 266 19:43 13.11.2019
4429 Clouds -19 1007 70 10000 1.13 266 19:19 13.11.2019
4430 Clouds -19 1007 77 10000 1 0 18:56 13.11.2019
4431 Clouds -19 1007 77 10000 1 0 18:38 13.11.2019
4432 Clouds -19 1007 77 10000 1 0 18:19 13.11.2019
4433 Clouds -18 1008 70 10000 1.13 266 17:57 13.11.2019
4434 Clouds -18 1008 70 10000 1.13 266 17:57 13.11.2019
4435 Clouds -18 1008 70 0 1 0 17:38 13.11.2019
4436 Clouds -18 1008 70 0 1 0 17:20 13.11.2019
4437 Clouds -20 1009 76 10000 1.03 262 16:58 13.11.2019
4438 Clouds -19 1009 70 10000 1.03 262 16:39 13.11.2019
4439 Clouds -19 1009 70 10000 1.03 262 16:39 13.11.2019
4440 Clouds -19 1009 70 10000 1.03 262 16:21 13.11.2019
4441 Clouds -19 1009 70 10000 1.03 262 15:57 13.11.2019
4442 Clouds -18 1010 64 10000 0.88 266 15:39 13.11.2019
4443 Clouds -18 1010 64 10000 1.03 262 15:20 13.11.2019
4444 Clouds -20 1010 76 10000 1.03 262 14:42 13.11.2019
4445 Clouds -20 1010 70 10000 1.15 276 14:22 13.11.2019
4446 Clouds -20 1010 70 10000 1.15 276 13:57 13.11.2019
4447 Clouds -21 1011 70 10000 1 0 13:36 13.11.2019
4448 Clouds -21 1012 70 10000 1 0 13:18 13.11.2019
4449 Clouds -21 1012 70 10000 1 0 12:54 13.11.2019
4450 Clouds -22 1012 69 10000 1 0 12:36 13.11.2019
4451 Clouds -22 1012 69 10000 1 0 12:18 13.11.2019
4452 Clouds -18 1013 59 10000 1 0 11:40 13.11.2019
4453 Clouds -18 1013 59 10000 1 0 11:19 13.11.2019
4454 Clouds -18 1013 59 10000 1 0 11:19 13.11.2019
4455 Clouds -17 1013 59 10000 1 0 10:58 13.11.2019
4456 Clouds -15 1013 54 10000 2 0 10:39 13.11.2019
4457 Clouds -15 1013 54 10000 2 0 10:19 13.11.2019
4458 Clear -14 1014 50 10000 1 0 09:45 13.11.2019
4459 Clear -14 1014 50 10000 1 0 09:22 13.11.2019
4460 Clear -14 1014 46 10000 2 0 08:57 13.11.2019
4461 Clear -14 1015 46 10000 2 250 08:36 13.11.2019
4462 Clear -14 1015 46 10000 2 250 08:18 13.11.2019
4463 Clear -15 1016 45 10000 3 200 07:42 13.11.2019
4464 Clear -15 1016 45 10000 3 200 07:42 13.11.2019
4465 Clear -15 1016 45 10000 3 200 07:20 13.11.2019
4466 Clear -15 1017 45 10000 1 0 06:44 13.11.2019
4467 Clear -15 1017 45 10000 1 0 06:19 13.11.2019
4468 Clear -15 1017 45 10000 1 0 06:19 13.11.2019
4469 Clear -15 1017 45 10000 1 0 06:19 13.11.2019
4470 Clear -15 1017 45 10000 1 0 06:19 13.11.2019
4471 Clear -15 1017 45 10000 1 0 06:19 13.11.2019
4472 Clear -16 1018 54 8000 1 0 05:52 13.11.2019
4473 Clear -17 1019 64 8000 1 0 05:30 13.11.2019
4474 Clear -20 1020 76 8000 1 0 04:21 13.11.2019
4475 Clouds -27 1021 75 10000 1 0 02:18 13.11.2019
4476 Clouds -29 1022 68 10000 1 0 01:41 13.11.2019
4477 Clouds -28 1022 75 10000 1.14 211 00:44 13.11.2019
4478 Clouds -28 1022 75 10000 1.14 211 00:44 13.11.2019
4479 Clouds -28 1022 75 10000 1.14 211 00:19 13.11.2019
4480 Clouds -26 1023 75 10000 2 230 23:41 12.11.2019
4481 Clouds -26 1023 75 10000 2 230 23:41 12.11.2019
4482 Snow -26 1023 75 10000 2 230 23:21 12.11.2019
4483 Snow -23 1023 76 10000 1 0 22:54 12.11.2019
4484 Snow -25 1024 75 10000 1.59 231 22:36 12.11.2019
4485 Snow -25 1024 75 10000 1.59 231 22:18 12.11.2019
4486 Snow -26 1024 75 10000 1 0 21:43 12.11.2019
4487 Snow -26 1024 75 10000 1 0 21:24 12.11.2019
4488 Clouds -23 1025 83 10000 1.59 231 20:57 12.11.2019
4489 Clouds -22 1025 83 10000 1 0 20:37 12.11.2019
4490 Clouds -22 1025 83 10000 1 0 20:19 12.11.2019
4491 Clouds -20 1025 76 10000 1 0 19:57 12.11.2019
4492 Clouds -20 1025 76 10000 1 0 19:39 12.11.2019
4493 Clouds -20 1025 76 10000 1 0 19:19 12.11.2019
4494 Clouds -23 1026 76 10000 1 0 18:58 12.11.2019
4495 Clouds -23 1026 76 10000 1 0 18:39 12.11.2019
4496 Clouds -23 1026 76 10000 1 0 18:39 12.11.2019
4497 Clouds -23 1026 76 10000 1 0 18:21 12.11.2019
4498 Clouds -24 1026 76 10000 2 160 17:57 12.11.2019
4499 Clouds -24 1026 76 10000 2 160 17:39 12.11.2019
4500 Clouds -24 1026 76 10000 2 160 17:21 12.11.2019
4501 Clouds -21 1026 76 10000 1 0 16:56 12.11.2019
4502 Clouds -22 1026 76 10000 1 0 16:38 12.11.2019
4503 Clouds -22 1026 76 10000 1 0 16:20 12.11.2019
4504 Clouds -24 1026 76 10000 3 170 15:41 12.11.2019
4505 Clouds -24 1026 76 10000 3 170 15:21 12.11.2019
4506 Clouds -23 1026 69 10000 3 170 14:56 12.11.2019
4507 Clouds -24 1026 76 10000 2 160 14:37 12.11.2019
4508 Clouds -24 1026 76 10000 2 160 14:18 12.11.2019
4509 Clouds -25 1026 75 10000 1 0 13:55 12.11.2019
4510 Clouds -23 1026 76 10000 1 0 13:36 12.11.2019
4511 Clouds -23 1026 76 10000 1 0 13:18 12.11.2019
4512 Clouds -20 1025 70 10000 1 0 12:42 12.11.2019
4513 Clouds -20 1025 70 10000 1 0 12:19 12.11.2019
4514 Clouds -20 1025 70 10000 1 0 11:58 12.11.2019
4515 Clouds -20 1025 70 10000 2 310 11:39 12.11.2019
4516 Clouds -20 1025 70 10000 2 310 11:21 12.11.2019
4517 Clouds -18 1024 70 10000 4 330 10:55 12.11.2019
4518 Clouds -17 1024 70 10000 5 320 10:37 12.11.2019
4519 Clouds -17 1024 70 10000 5 320 10:19 12.11.2019
4520 Clouds -15 1023 60 10000 7 330 09:40 12.11.2019
4521 Clouds -15 1023 60 10000 7 330 09:20 12.11.2019
4522 Clouds -15 1023 60 10000 7 330 08:51 12.11.2019
4523 Clouds -14 1022 60 10000 5 340 08:30 12.11.2019
4524 Clouds -14 1022 60 10000 5 340 07:44 12.11.2019
4525 Clouds -14 1021 60 10000 7 340 07:25 12.11.2019
4526 Clouds -14 1021 60 10000 6 350 06:56 12.11.2019
4527 Clouds -14 1021 55 10000 6 340 06:30 12.11.2019
4528 Clouds -14 1020 60 10000 8 340 05:59 12.11.2019
4529 Clouds -14 1020 60 10000 7 350 05:29 12.11.2019
4530 Clouds -14 1020 65 10000 8 340 04:41 12.11.2019
4531 Clouds -15 1018 71 10000 7 340 02:51 12.11.2019
4532 Clouds -16 1016 77 10000 8 330 01:39 12.11.2019
4533 Clouds -16 1016 77 10000 8 330 01:19 12.11.2019
4534 Clouds -15 1016 71 10000 4 330 00:44 12.11.2019
4535 Clouds -15 1015 77 10000 4 330 00:22 12.11.2019
4536 Clouds -14 1014 71 10000 5 330 23:43 11.11.2019
4537 Clouds -13 1015 71 10000 2 0 23:21 11.11.2019
4538 Clouds -13 1013 71 10000 5 340 22:40 11.11.2019
4539 Clouds -13 1013 71 10000 5 340 22:20 11.11.2019
4540 Clouds -12 1013 72 10000 6 340 21:59 11.11.2019
4541 Clouds -12 1012 72 10000 6 340 21:40 11.11.2019
4542 Clouds -12 1012 72 10000 6 340 21:21 11.11.2019
4543 Clouds -10 1011 78 10000 3 350 20:59 11.11.2019
4544 Clouds -10 1011 78 10000 3 350 20:59 11.11.2019
4545 Clouds -10 1011 78 10000 3 350 20:41 11.11.2019
4546 Clouds -10 1011 78 10000 3 350 20:20 11.11.2019
4547 Clouds -9 1010 72 10000 4 320 19:56 11.11.2019
4548 Clouds -9 1009 78 10000 8 310 19:38 11.11.2019
4549 Clouds -9 1009 78 10000 8 310 19:18 11.11.2019
4550 Clouds -9 1009 78 10000 8 310 19:18 11.11.2019
4551 Clouds -5 1008 85 10000 6 270 18:41 11.11.2019
4552 Clouds -4 1007 85 10000 3 190 18:21 11.11.2019
4553 Snow -4 1007 85 6000 4 190 17:59 11.11.2019
4554 Snow -4 1007 79 6000 4 150 17:40 11.11.2019
4555 Snow -4 1007 79 6000 4 150 17:22 11.11.2019
4556 Snow -5 1007 92 4000 7 140 16:39 11.11.2019
4557 Snow -4 1007 85 4000 6 140 16:20 11.11.2019
4558 Snow -4 1007 85 4000 6 140 16:20 11.11.2019
4559 Clouds -4 1006 79 10000 7 140 15:55 11.11.2019
4560 Clouds -4 1006 79 10000 7 140 15:37 11.11.2019
4561 Clouds -4 1006 79 10000 7 140 15:19 11.11.2019
4562 Clouds -4 1006 79 10000 7 140 15:19 11.11.2019
4563 Clouds -4 1007 79 10000 4 140 14:42 11.11.2019
4564 Clouds -4 1007 79 10000 4 140 14:42 11.11.2019
4565 Snow -4 1007 85 8000 4 140 14:24 11.11.2019
4566 Snow -3 1007 86 3000 1 0 13:57 11.11.2019
4567 Snow -4 1007 92 10000 2 340 13:37 11.11.2019
4568 Snow -4 1007 92 10000 2 340 13:19 11.11.2019
4569 Clouds -4 1007 85 10000 2 0 12:56 11.11.2019
4570 Clouds -4 1007 85 10000 2 0 12:56 11.11.2019
4571 Clouds -4 1007 85 10000 1 0 12:38 11.11.2019
4572 Clouds -4 1007 85 10000 1 0 12:20 11.11.2019
4573 Clouds -4 1006 85 10000 1 0 11:42 11.11.2019
4574 Clouds -4 1007 92 10000 1.4 359 11:22 11.11.2019
4575 Snow -3 1007 86 3200 1.4 359 10:56 11.11.2019
4576 Snow -3 1007 86 3200 1.4 359 10:38 11.11.2019
4577 Snow -3 1007 86 3200 1.4 359 10:18 11.11.2019
4578 Snow -2 1007 74 3200 1.4 359 09:43 11.11.2019
4579 Snow -2 1007 74 10000 1 0 09:21 11.11.2019
4580 Snow -2 1007 74 10000 1 0 08:43 11.11.2019
4581 Snow -2 1008 74 3200 1 0 08:23 11.11.2019
4582 Clouds -2 1008 79 10000 1 0 07:58 11.11.2019
4583 Clouds -2 1008 79 10000 1 0 07:39 11.11.2019
4584 Clouds -2 1008 79 10000 1 0 07:39 11.11.2019
4585 Snow -3 1008 86 3200 2 0 07:20 11.11.2019
4586 Snow -3 1008 92 3200 1 0 06:57 11.11.2019
4587 Snow -3 1009 86 3200 1 0 06:38 11.11.2019
4588 Snow -3 1009 86 3200 1 0 06:20 11.11.2019
4589 Snow -3 1009 86 3200 1 0 05:48 11.11.2019
4590 Snow -5 1010 85 3000 1 0 03:55 11.11.2019
4591 Snow -4 1010 73 8000 0.65 139 02:49 11.11.2019
4592 Clouds -5 1010 73 10000 1 0 01:59 11.11.2019
4593 Clouds -5 1009 73 10000 1 0 01:36 11.11.2019
4594 Clouds -6 1009 79 10000 0.14 59 00:58 11.11.2019
4595 Clouds -6 1009 79 10000 0.14 59 00:40 11.11.2019
4596 Clouds -6 1009 79 10000 0.14 59 23:58 10.11.2019
4597 Clouds -6 1009 79 10000 0.14 59 23:38 10.11.2019
4598 Clouds -6 1009 79 10000 0.78 59 23:19 10.11.2019
4599 Clouds -6 1009 79 10000 0.78 59 23:19 10.11.2019
4600 Clouds -6 1009 79 10000 2 120 22:56 10.11.2019
4601 Clouds -5 1010 73 10000 2 340 22:38 10.11.2019
4602 Clouds -5 1010 73 10000 2 340 22:19 10.11.2019
4603 Clouds -5 1010 73 10000 2 340 22:19 10.11.2019
4604 Clouds -5 1010 73 10000 0.78 59 21:55 10.11.2019
4605 Clouds -5 1010 79 10000 2 0 21:37 10.11.2019
4606 Clouds -5 1010 79 10000 2 0 21:19 10.11.2019
4607 Clouds -6 1010 85 10000 1 0 20:41 10.11.2019
4608 Clouds -6 1010 85 10000 1 0 20:22 10.11.2019
4609 Clouds -7 1010 85 10000 1 0 19:56 10.11.2019
4610 Clouds -7 1010 85 10000 1 0 19:37 10.11.2019
4611 Clouds -7 1010 85 10000 1 0 19:19 10.11.2019
4612 Clouds -7 1011 85 10000 2 0 18:58 10.11.2019
4613 Clouds -7 1011 85 10000 2 0 18:39 10.11.2019
4614 Clouds -7 1011 85 10000 2 0 18:19 10.11.2019
4615 Clouds -7 1011 85 10000 2 0 18:19 10.11.2019
4616 Clouds -7 1011 85 10000 2 0 18:19 10.11.2019
4617 Clouds -7 1010 85 10000 2 0 17:56 10.11.2019
4618 Clouds -7 1010 85 10000 2 0 17:38 10.11.2019
4619 Clouds -7 1010 85 10000 2 0 17:38 10.11.2019
4620 Clouds -7 1010 85 10000 2 0 17:20 10.11.2019
4621 Clouds -10 1011 78 10000 1 0 16:58 10.11.2019
4622 Clouds -10 1011 78 10000 1 0 16:39 10.11.2019
4623 Clouds -10 1011 78 10000 1 0 16:20 10.11.2019
4624 Clouds -10 1011 85 10000 2 180 15:55 10.11.2019
4625 Clouds -10 1010 78 10000 2 180 15:36 10.11.2019
4626 Clouds -10 1010 78 10000 2 180 15:18 10.11.2019
4627 Clouds -9 1010 78 10000 3 180 14:41 10.11.2019
4628 Clouds -10 1010 85 10000 1 0 14:23 10.11.2019
4629 Clouds -9 1010 72 10000 2 0 13:58 10.11.2019
4630 Clouds -9 1010 72 10000 2 0 13:40 10.11.2019
4631 Clouds -8 1010 72 10000 2 180 13:20 10.11.2019
4632 Clouds -8 1010 67 10000 1 0 12:44 10.11.2019
4633 Clouds -8 1010 67 10000 1 0 12:21 10.11.2019
4634 Clouds -3 1009 58 10000 1 0 11:57 10.11.2019
4635 Clouds -3 1009 58 10000 1 0 11:57 10.11.2019
4636 Clouds -1 1009 50 10000 2 0 11:39 10.11.2019
4637 Clouds -1 1009 50 10000 2 0 11:21 10.11.2019
4638 Clouds 0 1009 66 10000 3 300 10:59 10.11.2019
4639 Clouds 0 1009 66 10000 3 300 10:40 10.11.2019
4640 Clouds 2 1009 34 10000 4 310 10:20 10.11.2019
4641 Clouds 2 1009 34 10000 4 310 10:20 10.11.2019
4642 Clouds 3 1009 32 10000 6 300 09:43 10.11.2019
4643 Clouds 4 1009 27 10000 7 290 09:24 10.11.2019
4644 Clouds 4 1009 32 10000 7 300 08:56 10.11.2019
4645 Clouds 4 1009 32 10000 6 280 08:36 10.11.2019
4646 Clouds 4 1009 32 10000 6 280 08:18 10.11.2019
4647 Clouds 4 1009 35 10000 7 270 07:42 10.11.2019
4648 Clouds 3 1009 40 10000 6 280 07:23 10.11.2019
4649 Clouds 4 1010 38 10000 5 310 06:31 10.11.2019
4650 Clouds 3 1010 47 10000 6 290 05:33 10.11.2019
4651 Clouds 0 1010 55 10000 4 220 03:22 10.11.2019
4652 Clear -6 1010 79 10000 1 0 01:47 10.11.2019
4653 Clear -9 1010 85 10000 1 0 01:19 10.11.2019
4654 Clear -11 1009 85 10000 2 190 00:41 10.11.2019
4655 Clear -8 1009 78 10000 1 0 23:48 09.11.2019
4656 Clear -9 1009 85 10000 2 0 23:21 09.11.2019
4657 Clear -9 1008 85 10000 3 160 22:59 09.11.2019
4658 Clear -9 1008 85 10000 3 160 22:41 09.11.2019
4659 Clear -9 1008 78 10000 3 160 22:20 09.11.2019
4660 Clear -8 1008 85 10000 3 180 21:56 09.11.2019
4661 Clear -8 1008 85 10000 3 180 21:56 09.11.2019
4662 Clear -7 1008 79 10000 3 150 21:37 09.11.2019
4663 Clear -7 1008 79 10000 3 150 21:19 09.11.2019
4664 Clouds -5 1008 73 10000 1 0 20:42 09.11.2019
4665 Clouds -5 1008 73 10000 1 0 20:22 09.11.2019
4666 Clouds -5 1008 73 10000 2 0 19:58 09.11.2019
4667 Clouds -5 1008 73 10000 2 0 19:39 09.11.2019
4668 Clouds -5 1008 73 10000 2 0 19:21 09.11.2019
4669 Clouds -3 1008 68 10000 2 0 18:54 09.11.2019
4670 Clouds -4 1008 73 10000 1 0 18:36 09.11.2019
4671 Clouds -4 1008 73 10000 1 0 18:18 09.11.2019
4672 Clouds -3 1008 68 10000 1 0 17:41 09.11.2019
4673 Clouds -3 1008 68 10000 1 0 17:22 09.11.2019
4674 Clouds -4 1008 68 10000 1 0 16:43 09.11.2019
4675 Clouds -5 1008 79 10000 2 0 16:22 09.11.2019
4676 Clouds -4 1007 73 10000 2 0 15:59 09.11.2019
4677 Clouds -4 1007 73 10000 2 0 15:41 09.11.2019
4678 Clouds -3 1007 73 10000 1 0 15:23 09.11.2019
4679 Clouds -4 1007 79 10000 3 180 14:43 09.11.2019
4680 Clouds -4 1007 73 10000 2 150 14:22 09.11.2019
4681 Clouds -2 1007 68 10000 1 0 13:57 09.11.2019
4682 Clouds -2 1007 68 10000 1 0 13:39 09.11.2019
4683 Clouds 0 1007 73 10000 2 0 13:19 09.11.2019
4684 Clouds 1 1007 55 10000 2 0 12:55 09.11.2019
4685 Clouds 3 1007 51 10000 2 0 12:37 09.11.2019
4686 Clouds 3 1007 51 10000 2 0 12:37 09.11.2019
4687 Clouds 3 1007 51 10000 2 0 12:37 09.11.2019
4688 Clouds 3 1007 51 10000 2 0 12:18 09.11.2019
4689 Clouds 4 1006 48 10000 4 260 11:47 09.11.2019
4690 Clouds 4 1006 44 10000 3 240 11:20 09.11.2019
4691 Clouds 3 1006 47 10000 3 250 10:56 09.11.2019
4692 Clouds 4 1006 44 10000 4 260 10:37 09.11.2019
4693 Clouds 4 1006 44 10000 4 260 10:18 09.11.2019
4694 Clouds 5 1006 41 10000 4 220 09:42 09.11.2019
4695 Clouds 5 1006 41 10000 4 220 09:20 09.11.2019
4696 Clouds 5 1006 41 10000 4 230 08:45 09.11.2019
4697 Clouds 5 1005 41 10000 3 210 08:25 09.11.2019
4698 Snow 5 1006 41 10000 2 0 07:55 09.11.2019
4699 Snow 5 1006 41 10000 3 230 07:37 09.11.2019
4700 Snow 5 1006 41 10000 3 230 07:19 09.11.2019
4701 Snow 4 1006 44 10000 3 240 06:43 09.11.2019
4702 Clouds 4 1006 44 10000 3 230 06:25 09.11.2019
4703 Snow 3 1007 47 10000 2 0 05:40 09.11.2019
4704 Clouds 2 1007 47 10000 1.02 134 04:30 09.11.2019
4705 Clouds -1 1008 63 10000 1 0 02:52 09.11.2019
4706 Clouds -4 1008 73 10000 2 0 02:34 09.11.2019
4707 Clouds -1 1008 63 10000 1 0 01:18 09.11.2019
4708 Clouds -4 1008 68 10000 1 0 00:41 09.11.2019
4709 Clouds -4 1008 68 10000 1 0 00:22 09.11.2019
4710 Clouds -4 1009 73 10000 1 0 23:41 08.11.2019
4711 Clouds -4 1009 73 10000 1 0 23:22 08.11.2019
4712 Clouds -3 1009 73 10000 2 0 22:59 08.11.2019
4713 Clouds -3 1009 68 10000 1 0 22:39 08.11.2019
4714 Clouds -3 1009 68 10000 1 0 22:21 08.11.2019
4715 Clouds -4 1010 73 10000 1 0 21:42 08.11.2019
4716 Clouds -4 1010 73 10000 1 0 21:23 08.11.2019
4717 Clouds -3 1011 68 10000 1 0 20:58 08.11.2019
4718 Clouds -3 1011 68 10000 1 0 20:40 08.11.2019
4719 Clouds -3 1011 68 10000 1 0 20:19 08.11.2019
4720 Clouds -3 1012 68 10000 2 0 19:55 08.11.2019
4721 Clouds -3 1012 68 10000 2 0 19:36 08.11.2019
4722 Clouds -3 1012 68 10000 2 0 19:18 08.11.2019
4723 Clouds -3 1012 68 10000 2 0 19:18 08.11.2019
4724 Clouds -4 1012 73 10000 2.35 106 18:54 08.11.2019
4725 Clouds -4 1012 73 10000 2.35 106 18:36 08.11.2019
4726 Clouds -4 1012 73 10000 2.35 106 18:18 08.11.2019
4727 Clouds -4 1012 73 10000 2.35 106 18:18 08.11.2019
4728 Clouds -4 1013 68 10000 1 0 17:54 08.11.2019
4729 Clouds -4 1013 68 10000 1 0 17:36 08.11.2019
4730 Clouds -4 1013 68 10000 1 0 17:36 08.11.2019
4731 Clouds -4 1013 68 10000 1 0 17:18 08.11.2019
4732 Clouds -4 1013 68 10000 1 0 17:18 08.11.2019
4733 Clouds -3 1014 68 10000 1 0 16:56 08.11.2019
4734 Clouds -3 1014 63 10000 1 0 16:37 08.11.2019
4735 Clouds -3 1014 63 10000 1 0 16:18 08.11.2019
4736 Clouds -2 1014 63 10000 2 280 15:41 08.11.2019
4737 Clouds -2 1014 63 10000 2 280 15:23 08.11.2019
4738 Clouds -2 1015 68 8000 1 0 14:57 08.11.2019
4739 Clouds -1 1015 63 8000 2 0 14:38 08.11.2019
4740 Clouds -1 1015 63 8000 2 0 14:20 08.11.2019
4741 Clouds 2 1015 47 8000 1 0 13:59 08.11.2019
4742 Clouds 1 1015 50 8000 1 0 13:39 08.11.2019
4743 Clouds 1 1015 50 8000 1 0 13:21 08.11.2019
4744 Clouds 4 1015 38 10000 3 130 12:48 08.11.2019
4745 Clouds 4 1016 38 10000 3 130 12:29 08.11.2019
4746 Clouds 3 1015 40 10000 1 0 11:58 08.11.2019
4747 Clouds 1 1016 47 10000 2 0 11:40 08.11.2019
4748 Clouds 1 1016 47 10000 2 0 11:21 08.11.2019
4749 Clouds 1 1015 47 10000 2 160 10:58 08.11.2019
4750 Clouds 5 1016 38 10000 1 0 10:40 08.11.2019
4751 Clouds 5 1016 38 10000 1 0 10:21 08.11.2019
4752 Clouds 7 1016 33 10000 1 0 09:58 08.11.2019
4753 Clouds 8 1016 31 10000 1 0 09:37 08.11.2019
4754 Clouds 8 1016 31 10000 1 0 09:19 08.11.2019
4755 Clouds 8 1016 31 10000 1 0 08:45 08.11.2019
4756 Clouds 8 1017 31 10000 1 0 08:21 08.11.2019
4757 Clouds 7 1017 33 10000 1 0 07:44 08.11.2019
4758 Clouds 7 1018 33 10000 1.31 130 07:23 08.11.2019
4759 Clouds 5 1018 38 10000 1 0 06:56 08.11.2019
4760 Clouds 5 1018 38 10000 1 0 06:56 08.11.2019
4761 Clouds 4 1019 41 10000 1.31 130 06:37 08.11.2019
4762 Clouds 4 1019 41 10000 1.31 130 06:19 08.11.2019
4763 Clouds 1 1020 50 10000 1 0 05:26 08.11.2019
4764 Clouds -2 1021 63 10000 1.23 121 04:29 08.11.2019
4765 Clouds -5 1021 73 10000 1.23 121 03:42 08.11.2019
4766 Clouds -5 1021 73 10000 1.23 121 03:18 08.11.2019
4767 Clear -11 1021 92 10000 1 0 01:54 08.11.2019
4768 Clear -12 1021 92 10000 1 0 01:35 08.11.2019
4769 Clear -13 1021 92 10000 1 0 00:45 08.11.2019
4770 Clear -12 1021 92 10000 1 0 00:21 08.11.2019
4771 Clear -12 1021 85 10000 1 0 23:48 07.11.2019
4772 Clear -12 1021 78 10000 1 0 23:27 07.11.2019
4773 Clear -12 1021 78 10000 0.8 77 22:57 07.11.2019
4774 Clear -12 1021 85 10000 1 0 22:39 07.11.2019
4775 Clear -12 1021 85 10000 1 0 22:20 07.11.2019
4776 Clear -12 1021 85 10000 1 0 21:39 07.11.2019
4777 Clear -12 1021 85 10000 1 0 21:21 07.11.2019
4778 Clear -11 1021 85 10000 1 0 20:59 07.11.2019
4779 Clear -12 1021 85 10000 0.8 77 20:40 07.11.2019
4780 Clear -12 1021 85 10000 0.8 77 20:40 07.11.2019
4781 Clear -12 1021 85 10000 0.83 111 20:22 07.11.2019
4782 Clear -12 1021 85 10000 0.83 111 19:58 07.11.2019
4783 Clear -11 1021 85 10000 0.83 111 19:39 07.11.2019
4784 Clear -11 1021 85 10000 0.83 111 19:39 07.11.2019
4785 Clear -11 1021 85 10000 0.83 111 19:20 07.11.2019
4786 Clear -11 1021 78 10000 0.83 111 18:57 07.11.2019
4787 Clear -10 1021 78 10000 1 0 18:38 07.11.2019
4788 Clear -10 1021 78 10000 1 0 18:38 07.11.2019
4789 Clear -10 1021 78 10000 1 0 18:19 07.11.2019
4790 Clear -9 1021 85 10000 1 0 17:56 07.11.2019
4791 Clear -9 1021 85 10000 1 0 17:38 07.11.2019
4792 Clear -9 1021 85 10000 1 0 17:20 07.11.2019
4793 Clear -9 1021 85 10000 1 0 16:55 07.11.2019
4794 Clear -8 1021 72 10000 1 0 16:37 07.11.2019
4795 Clear -8 1021 72 10000 1 0 16:19 07.11.2019
4796 Clear -9 1021 78 10000 0.76 93 15:42 07.11.2019
4797 Clear -9 1021 78 10000 0.76 93 15:21 07.11.2019
4798 Clear -6 1022 67 10000 2 150 14:58 07.11.2019
4799 Clear -4 1021 68 10000 1 0 14:38 07.11.2019
4800 Clear -4 1021 68 10000 1 0 14:20 07.11.2019
4801 Clear -4 1021 68 10000 1 0 13:55 07.11.2019
4802 Clear -5 1021 67 10000 2 120 13:37 07.11.2019
4803 Clear -5 1021 67 10000 2 120 13:37 07.11.2019
4804 Clear -5 1021 67 10000 2 120 13:19 07.11.2019
4805 Clear -5 1021 67 10000 2 170 12:56 07.11.2019
4806 Clear -4 1021 68 10000 2 0 12:38 07.11.2019
4807 Clear -3 1021 58 10000 2 0 12:18 07.11.2019
4808 Clear -4 1021 62 10000 3 170 11:42 07.11.2019
4809 Clear -4 1021 62 10000 3 170 11:23 07.11.2019
4810 Clear 1 1020 43 10000 2 0 10:42 07.11.2019
4811 Clear 1 1020 43 10000 2 0 10:19 07.11.2019
4812 Clear 1 1020 43 10000 2 0 10:19 07.11.2019
4813 Clear 4 1020 38 10000 1 0 09:56 07.11.2019
4814 Clear 5 1021 35 10000 3 230 09:38 07.11.2019
4815 Clear 5 1021 35 10000 3 230 09:20 07.11.2019
4816 -273 0 0 0 0 0 08:46 07.11.2019
4817 -273 0 0 0 0 0 08:46 07.11.2019
4818 -273 0 0 0 0 0 08:46 07.11.2019
4819 -273 0 0 0 0 0 08:45 07.11.2019
4820 -273 0 0 0 0 0 08:25 07.11.2019
4821 -273 0 0 0 0 0 08:24 07.11.2019
4822 Clear 5 1021 38 10000 4 230 08:23 07.11.2019
4823 Clear 4 1021 38 10000 4 230 07:58 07.11.2019
4824 Clear 4 1021 38 10000 3 240 07:40 07.11.2019
4825 Clear 4 1021 38 10000 3 240 07:20 07.11.2019
4826 Clear 3 1022 40 10000 4 250 06:46 07.11.2019
4827 Clear 3 1022 40 10000 4 250 06:46 07.11.2019
4828 Clear 3 1022 40 10000 4 250 06:25 07.11.2019
4829 Clear 3 1022 40 10000 3 260 05:50 07.11.2019
4830 Clear 2 1023 40 10000 2 0 05:32 07.11.2019
4831 Clear 0 1023 52 10000 1 0 04:52 07.11.2019
4832 Clear -1 1024 54 10000 1 0 04:31 07.11.2019
4833 Clear -1 1024 54 10000 1 0 04:30 07.11.2019
4834 Clouds -12 1024 85 10000 1 0 01:32 07.11.2019
4835 Clouds -14 1024 84 10000 0.39 80 00:46 07.11.2019
4836 Clouds -14 1024 84 10000 0.39 80 00:18 07.11.2019
4837 Clouds -14 1024 84 10000 0.39 80 00:18 07.11.2019
4838 Clouds -13 1024 78 10000 1 0 23:43 06.11.2019
4839 Clouds -13 1024 78 10000 1 0 23:20 06.11.2019
4840 Clouds -14 1024 84 10000 1 0 22:41 06.11.2019
4841 Clouds -14 1024 84 10000 1 0 22:22 06.11.2019
4842 Clouds -13 1024 78 10000 0.76 78 21:59 06.11.2019
4843 Clouds -13 1024 78 10000 0.76 78 21:41 06.11.2019
4844 Clouds -13 1024 78 10000 0.76 78 21:20 06.11.2019
4845 Clouds -13 1025 84 10000 0.76 78 20:58 06.11.2019
4846 Clouds -12 1025 78 10000 0.76 78 20:39 06.11.2019
4847 Clouds -12 1025 78 10000 0.76 78 20:39 06.11.2019
4848 Clear -12 1025 78 10000 0.75 83 20:20 06.11.2019
4849 Clear -13 1025 78 10000 1 0 19:58 06.11.2019
4850 Clear -13 1025 78 10000 1 0 19:38 06.11.2019
4851 Clear -13 1025 78 10000 1 0 19:19 06.11.2019
4852 Clear -13 1025 78 10000 1 0 18:56 06.11.2019
4853 Clear -12 1025 78 10000 1 0 18:38 06.11.2019
4854 Clear -12 1025 78 10000 1 0 18:18 06.11.2019
4855 Clear -12 1026 78 10000 1 0 17:42 06.11.2019
4856 Clear -12 1026 78 10000 1 0 17:42 06.11.2019
4857 -273 0 0 0 0 0 17:24 06.11.2019
4858 Clear -11 1026 78 10000 1 0 16:58 06.11.2019
4859 Clear -11 1026 72 10000 2 190 16:39 06.11.2019
4860 Clear -11 1026 72 10000 2 190 16:21 06.11.2019
4861 Clear -9 1026 66 10000 1 0 15:58 06.11.2019
4862 Clear -10 1025 72 10000 2 0 15:38 06.11.2019
4863 Clear -10 1025 72 10000 2 0 15:19 06.11.2019
4864 Clear -8 1026 67 10000 1 0 14:59 06.11.2019
4865 Clear -7 1025 62 10000 2 160 14:41 06.11.2019
4866 Clear -7 1025 62 10000 2 160 14:22 06.11.2019
4867 Clear -8 1026 67 10000 2 150 13:59 06.11.2019
4868 Clear -8 1026 67 10000 2 150 13:59 06.11.2019
4869 Clear -8 1025 67 10000 2 150 13:37 06.11.2019
4870 Clear -8 1025 67 10000 2 150 13:19 06.11.2019
4871 Clear -9 1025 66 10000 2 140 12:55 06.11.2019
4872 Clear -7 1025 57 10000 1 0 12:37 06.11.2019
4873 Clear -7 1025 57 10000 1 0 12:18 06.11.2019
4874 Clear -4 1025 53 10000 1 0 11:56 06.11.2019
4875 Clear -2 1025 46 10000 3 260 11:36 06.11.2019
4876 Clear -2 1025 46 10000 3 260 11:18 06.11.2019
4877 Clear -1 1025 46 10000 2 270 10:55 06.11.2019
4878 Clear -1 1025 46 10000 2 270 10:55 06.11.2019
4879 Clear 1 1025 37 10000 3 290 10:37 06.11.2019
4880 Clear 1 1025 37 10000 3 290 10:18 06.11.2019
4881 Clear 2 1025 31 10000 4 270 09:41 06.11.2019
4882 Clear 2 1025 31 10000 4 270 09:21 06.11.2019
4883 Clear 2 1025 31 10000 4 300 08:56 06.11.2019
4884 Clear 2 1025 31 10000 3 320 08:38 06.11.2019
4885 Clear 2 1025 31 10000 3 320 08:18 06.11.2019
4886 Clear 2 1025 29 10000 3 300 07:46 06.11.2019
4887 Clear 2 1026 29 10000 5 280 07:28 06.11.2019
4888 Clear 1 1026 31 10000 4 290 06:53 06.11.2019
4889 Clear 1 1026 31 10000 3 290 06:34 06.11.2019
4890 Clear 1 1026 31 10000 2 0 05:51 06.11.2019
4891 Clear -3 1026 53 10000 2 0 03:38 06.11.2019
4892 Clear -9 1025 85 10000 1 0 01:42 06.11.2019
4893 Clear -11 1024 85 10000 1.88 331 00:48 06.11.2019
4894 Clear -12 1023 78 10000 1 0 00:25 06.11.2019
4895 Clear -8 1023 78 10000 1.88 331 23:41 05.11.2019
4896 Clear -8 1023 78 10000 2.04 336 23:22 05.11.2019
4897 Clear -7 1023 79 10000 3 330 22:59 05.11.2019
4898 Clear -6 1022 73 10000 4 330 22:41 05.11.2019
4899 Clear -6 1022 73 10000 4 330 22:19 05.11.2019
4900 Clear -6 1022 79 10000 3 310 21:55 05.11.2019
4901 Clear -3 1022 68 10000 4 20 21:37 05.11.2019
4902 Clear -3 1022 68 10000 4 20 21:18 05.11.2019
4903 Clear -5 1021 73 10000 2 0 20:55 05.11.2019
4904 Clear -5 1021 73 10000 2 0 20:36 05.11.2019
4905 Clear -5 1021 73 10000 2 0 20:18 05.11.2019
4906 Clear -3 1020 68 10000 2 0 19:42 05.11.2019
4907 Clear -3 1020 68 10000 2 0 19:22 05.11.2019
4908 Clear -3 1020 68 10000 3 320 18:58 05.11.2019
4909 Clear -3 1020 68 10000 3 320 18:40 05.11.2019
4910 Clear -3 1020 68 10000 3 320 18:21 05.11.2019
4911 Clear -3 1019 68 10000 1 0 17:59 05.11.2019
4912 Clear -3 1019 68 10000 1 0 17:39 05.11.2019
4913 Clear -3 1019 68 10000 1 0 17:20 05.11.2019
4914 Clear -2 1018 63 10000 4 310 16:56 05.11.2019
4915 Clear -4 1018 68 10000 2.33 323 16:38 05.11.2019
4916 Clear -4 1018 68 10000 2.33 323 16:19 05.11.2019
4917 Clear -4 1018 68 10000 2.33 323 16:19 05.11.2019
4918 Clear -6 1017 73 10000 2 0 15:39 05.11.2019
4919 Clear -6 1017 73 10000 2 0 15:20 05.11.2019
4920 Clear -4 1017 68 10000 2.33 323 14:58 05.11.2019
4921 Clear -6 1017 67 10000 2.33 323 14:40 05.11.2019
4922 Clear -6 1017 67 10000 1.99 341 14:21 05.11.2019
4923 Clear -6 1016 67 10000 1 0 13:55 05.11.2019
4924 Clear -5 1016 62 10000 1 0 13:37 05.11.2019
4925 Clear -5 1016 62 10000 1 0 13:18 05.11.2019
4926 Clear -2 1015 58 10000 2 0 12:39 05.11.2019
4927 Clear -2 1015 58 10000 2 0 12:21 05.11.2019
4928 Clear -2 1015 54 10000 2 0 11:56 05.11.2019
4929 Clear 0 1014 65 10000 2 0 11:37 05.11.2019
4930 Clear 0 1014 58 10000 2 0 11:19 05.11.2019
4931 Clear 3 1014 37 10000 2 0 10:44 05.11.2019
4932 Clear 6 1015 30 10000 1 0 10:25 05.11.2019
4933 Clear 7 1015 28 10000 3 240 09:58 05.11.2019
4934 Clear 7 1015 28 10000 3 230 09:40 05.11.2019
4935 -273 0 0 0 0 0 09:19 05.11.2019
4936 Clear 7 1015 28 10000 3 230 09:19 05.11.2019
4937 Clear 7 1015 28 10000 3 220 08:55 05.11.2019
4938 Clear 7 1015 28 10000 3 220 08:55 05.11.2019
4939 Clear 7 1015 28 10000 3 220 08:37 05.11.2019
4940 Clouds 7 1015 28 10000 3 220 08:18 05.11.2019
4941 Clouds 7 1015 28 10000 3 240 07:43 05.11.2019
4942 Clouds 7 1016 28 10000 3 240 07:24 05.11.2019
4943 Clouds 7 1016 28 10000 3 220 06:51 05.11.2019
4944 Clouds 5 1017 30 10000 2 0 05:54 05.11.2019
4945 Clouds 5 1017 30 10000 2 0 05:54 05.11.2019
4946 Clouds 4 1018 32 10000 2 0 05:36 05.11.2019
4947 Clouds 4 1018 32 10000 2 0 05:18 05.11.2019
4948 Clouds 0 1019 45 10000 1 0 04:20 05.11.2019
4949 Clouds -3 1020 53 10000 1.85 146 03:24 05.11.2019
4950 Clouds -6 1020 62 10000 1.85 146 02:41 05.11.2019
4951 Clouds -10 1020 72 10000 1 0 01:52 05.11.2019
4952 Clouds -10 1020 72 10000 1 0 01:52 05.11.2019
4953 Clouds -9 1021 72 10000 2 0 00:41 05.11.2019
4954 Clouds -9 1021 72 10000 2 0 00:23 05.11.2019
4955 Clouds -9 1022 66 10000 1 0 23:41 04.11.2019
4956 Clouds -9 1022 66 10000 1 0 23:19 04.11.2019
4957 Clouds -9 1022 72 10000 1 0 22:55 04.11.2019
4958 Clouds -9 1023 72 10000 2 121 22:37 04.11.2019
4959 Clouds -9 1023 72 10000 2 121 22:37 04.11.2019
4960 Clouds -9 1023 72 10000 2 121 22:19 04.11.2019
4961 Clouds -10 1024 72 10000 2 121 21:54 04.11.2019
4962 Clouds -10 1024 72 10000 2 121 21:36 04.11.2019
4963 Clouds -10 1024 72 10000 2 121 21:18 04.11.2019
4964 Clouds -10 1025 72 10000 2 121 20:54 04.11.2019
4965 Clouds -10 1025 72 10000 2 121 20:36 04.11.2019
4966 Clouds -10 1025 72 10000 1.92 117 20:18 04.11.2019
4967 Clouds -12 1026 78 10000 1 0 19:42 04.11.2019
4968 Clouds -12 1026 78 10000 1 0 19:23 04.11.2019
4969 Clouds -12 1027 78 10000 1 0 18:58 04.11.2019
4970 Clouds -12 1027 78 10000 1 0 18:39 04.11.2019
4971 Clouds -12 1027 78 10000 1 0 18:21 04.11.2019
4972 Clouds -11 1027 72 10000 1.92 117 17:56 04.11.2019
4973 Clouds -11 1027 72 10000 1 0 17:36 04.11.2019
4974 Clouds -11 1027 72 10000 1 0 17:18 04.11.2019
4975 Clouds -9 1028 66 10000 1.18 152 16:42 04.11.2019
4976 Clouds -9 1028 66 10000 1.18 152 16:24 04.11.2019
4977 Clouds -8 1029 67 10000 1 0 15:58 04.11.2019
4978 Clouds -9 1029 66 10000 4 160 15:39 04.11.2019
4979 Clouds -9 1029 66 10000 4 160 15:21 04.11.2019
4980 Clouds -10 1029 72 10000 2 160 14:57 04.11.2019
4981 Clouds -10 1029 72 10000 3 160 14:39 04.11.2019
4982 Clouds -10 1029 72 10000 3 160 14:20 04.11.2019
4983 Clouds -10 1029 66 10000 1 0 13:57 04.11.2019
4984 Clouds -8 1029 67 10000 2 160 13:39 04.11.2019
4985 Clouds -8 1029 67 10000 2 160 13:20 04.11.2019
4986 Clouds -8 1029 67 10000 3 170 12:45 04.11.2019
4987 Clouds -8 1029 61 10000 2 140 12:25 04.11.2019
4988 Clouds -7 1029 62 10000 1 0 11:58 04.11.2019
4989 Clouds -2 1029 50 10000 2 310 11:40 04.11.2019
4990 Clear -2 1029 50 10000 2 310 11:21 04.11.2019
4991 Clouds -2 1029 50 10000 3 310 10:47 04.11.2019
4992 Clouds 0 1029 56 10000 5 330 10:26 04.11.2019
4993 Clear 0 1029 56 10000 5 320 09:56 04.11.2019
4994 Clear 1 1029 37 10000 5 330 09:38 04.11.2019
4995 Clear 1 1029 37 10000 5 330 09:19 04.11.2019
4996 Clear 1 1029 37 10000 7 340 08:42 04.11.2019
4997 Clouds 1 1029 37 10000 7 340 08:23 04.11.2019
4998 Clouds 1 1029 37 10000 7 340 08:23 04.11.2019
4999 Clouds 1 1029 40 10000 8 340 07:56 04.11.2019
5000 Clouds 1 1030 40 10000 6 350 07:38 04.11.2019
5001 Clouds 1 1030 40 10000 6 350 07:38 04.11.2019
5002 Clouds 1 1030 40 10000 6 350 07:19 04.11.2019
5003 Clouds 1 1030 47 10000 5 350 06:41 04.11.2019
5004 Clouds 1 1030 47 10000 5 350 06:18 04.11.2019
5005 Clouds 0 1031 46 10000 6 350 05:31 04.11.2019
5006 Clouds 0 1031 62 10000 6 330 04:27 04.11.2019
5007 Clouds -1 1031 68 10000 5 320 03:31 04.11.2019
5008 Clouds -2 1029 79 10000 4 340 01:24 04.11.2019
5009 Clouds -3 1029 79 10000 5 340 00:59 04.11.2019
5010 Clouds -2 1028 79 10000 8 350 00:22 04.11.2019
5011 Clouds -2 1027 79 10000 8 340 23:58 03.11.2019
5012 Clouds -2 1027 79 10000 5 350 23:37 03.11.2019
5013 Clouds -2 1027 79 10000 5 350 23:18 03.11.2019
5014 Clouds -1 1027 80 10000 7 350 22:56 03.11.2019
5015 Clouds -1 1027 80 10000 7 350 22:56 03.11.2019
5016 Clouds -1 1026 74 10000 10 340 22:38 03.11.2019
5017 Clouds -1 1026 74 10000 10 340 22:18 03.11.2019
5018 Clouds -1 1025 74 10000 6 320 21:43 03.11.2019
5019 Clouds -1 1025 80 10000 6 320 21:21 03.11.2019
5020 Clouds -3 1032 89 0 4.2 337 20:58 03.11.2019
5021 Clouds -3 1032 89 0 4.2 337 20:37 03.11.2019
5022 Clouds -4 1023 68 10000 1 0 20:19 03.11.2019
5023 Clouds -4 1023 68 10000 1 0 19:57 03.11.2019
5024 Clouds -4 1023 68 10000 1 0 19:38 03.11.2019
5025 Clouds -4 1023 68 10000 1 0 19:20 03.11.2019
5026 Clouds -3 1022 63 10000 1 0 18:56 03.11.2019
5027 Clouds -3 1022 63 10000 1 0 18:37 03.11.2019
5028 Clouds -3 1022 63 10000 1 0 18:18 03.11.2019
5029 Clouds 2 1021 47 10000 1 0 17:42 03.11.2019
5030 Clouds 2 1021 47 10000 1 0 17:20 03.11.2019
5031 Clouds 3 1021 40 10000 1.32 115 16:59 03.11.2019
5032 Clouds 4 1021 41 10000 1 0 16:40 03.11.2019
5033 Clouds 4 1021 41 10000 1 0 16:22 03.11.2019
5034 Clouds 4 1021 38 10000 3 180 15:58 03.11.2019
5035 Clouds 4 1021 38 10000 3 180 15:58 03.11.2019
5036 Clouds 6 1021 33 10000 2 170 15:39 03.11.2019
5037 Clouds 6 1021 33 10000 2 170 15:21 03.11.2019
5038 Clouds 7 1021 33 10000 2 0 14:43 03.11.2019
5039 Clouds 7 1021 33 10000 3 220 14:20 03.11.2019
5040 Clouds 8 1021 31 10000 5 190 13:59 03.11.2019
5041 Clouds 7 1021 30 10000 4 190 13:41 03.11.2019
5042 Clouds 7 1021 30 10000 4 190 13:18 03.11.2019
5043 Clouds 7 1021 30 10000 4 180 12:55 03.11.2019
5044 Clouds 6 1020 33 10000 5 170 12:36 03.11.2019
5045 Clouds 6 1020 33 10000 5 170 12:18 03.11.2019
5046 Clouds 5 1021 38 10000 3 170 11:42 03.11.2019
5047 Clear 5 1021 38 10000 3 170 11:22 03.11.2019
5048 Clear 8 1020 31 10000 4 180 10:55 03.11.2019
5049 Clear 11 1020 25 10000 4 190 10:37 03.11.2019
5050 Clear 11 1020 25 10000 4 190 10:19 03.11.2019
5051 Clear 11 1020 25 10000 4 190 10:19 03.11.2019
5052 Clear 12 1021 23 10000 6 200 09:43 03.11.2019
5053 Clear 12 1021 23 10000 5 200 09:25 03.11.2019
5054 Clear 12 1021 23 10000 6 200 08:56 03.11.2019
5055 Clear 12 1021 23 10000 6 210 08:37 03.11.2019
5056 Clear 12 1021 23 10000 6 210 08:19 03.11.2019
5057 Clear 12 1021 25 10000 6 210 07:45 03.11.2019
5058 Clear 12 1022 25 10000 5 170 07:22 03.11.2019
5059 Clear 10 1023 31 10000 1 0 06:39 03.11.2019
5060 Clear 8 1023 36 10000 1 0 05:54 03.11.2019
5061 Clear 6 1024 41 8000 1 0 05:34 03.11.2019
5062 Clear 4 1024 48 8000 2.13 127 04:53 03.11.2019
5063 Clear 1 1025 59 8000 2.13 127 03:59 03.11.2019
5064 Clear -1 1025 74 8000 2.13 127 03:21 03.11.2019
5065 Clear -5 1025 85 10000 1 0 02:23 03.11.2019
5066 Clear -9 1025 85 10000 2 190 01:49 03.11.2019
5067 Clear -8 1025 85 10000 1 0 01:27 03.11.2019
5068 Clear -8 1025 92 10000 1 0 00:59 03.11.2019
5069 Clear -10 1025 85 10000 1 0 00:38 03.11.2019
5070 Clear -10 1025 85 10000 1 0 00:20 03.11.2019
5071 Clear -9 1025 85 10000 1 0 23:54 02.11.2019
5072 Clear -9 1025 85 10000 1 0 23:36 02.11.2019
5073 Clear -9 1025 85 10000 1 0 23:18 02.11.2019
5074 Clear -9 1025 85 10000 1 0 23:18 02.11.2019
5075 Clear -6 1025 79 10000 1 0 22:54 02.11.2019
5076 Clear -5 1025 79 10000 1.89 113 22:36 02.11.2019
5077 Clear -5 1025 79 10000 1.89 113 22:18 02.11.2019
5078 Clear -5 1025 73 10000 1 0 21:55 02.11.2019
5079 Clear -5 1025 79 10000 1.89 113 21:36 02.11.2019
5080 Clear -5 1025 79 10000 1.89 113 21:18 02.11.2019
5081 Clear -5 1025 79 10000 1.89 113 21:18 02.11.2019
5082 Clear -7 1025 79 10000 1 0 20:41 02.11.2019
5083 Clear -7 1025 79 10000 1 0 20:21 02.11.2019
5084 Clear -3 1025 73 10000 1 0 19:59 02.11.2019
5085 Clear -3 1025 73 10000 1 0 19:37 02.11.2019
5086 Clear -3 1025 73 10000 1 0 19:18 02.11.2019
5087 Clear -2 1025 68 10000 1 0 18:54 02.11.2019
5088 Clear -2 1025 68 10000 1 0 18:36 02.11.2019
5089 Clear -2 1025 68 10000 1 0 18:18 02.11.2019
5090 Clear -2 1025 68 10000 1 0 17:55 02.11.2019
5091 Clear -2 1025 68 10000 1 0 17:36 02.11.2019
5092 Clear -2 1025 68 10000 1 0 17:18 02.11.2019
5093 Clear -1 1025 68 10000 1 0 16:39 02.11.2019
5094 Clear -1 1025 68 10000 1 0 16:20 02.11.2019
5095 Clear -2 1025 68 10000 1 0 15:43 02.11.2019
5096 Clear -2 1025 68 10000 1 0 15:21 02.11.2019
5097 Clear -1 1024 68 10000 1 0 14:58 02.11.2019
5098 Clear 4 1024 44 10000 2 0 14:40 02.11.2019
5099 Clear 4 1024 44 10000 2 0 14:21 02.11.2019
5100 Clear 4 1023 41 10000 3 160 13:40 02.11.2019
5101 Clear 4 1023 41 10000 3 160 13:20 02.11.2019
5102 Clear 4 1023 41 10000 3 180 12:59 02.11.2019
5103 Clear 2 1023 51 10000 4 180 12:40 02.11.2019
5104 Clear 2 1023 51 10000 4 180 12:21 02.11.2019
5105 Clear 1 1023 55 10000 3 160 11:55 02.11.2019
5106 Clear 3 1022 44 10000 3 160 11:36 02.11.2019
5107 Clear 3 1022 44 10000 3 160 11:18 02.11.2019
5108 Clear 7 1022 36 10000 1 0 10:42 02.11.2019
5109 Clear 9 1022 31 10000 1.88 138 10:23 02.11.2019
5110 Clear 10 1022 29 10000 2 0 09:43 02.11.2019
5111 Clear 11 1022 29 10000 3 260 09:22 02.11.2019
5112 Clear 11 1021 27 10000 3 260 08:57 02.11.2019
5113 Clear 11 1021 27 10000 3 260 08:57 02.11.2019
5114 Clear 11 1021 27 10000 1 0 08:37 02.11.2019
5115 Clear 11 1021 27 10000 1 0 08:18 02.11.2019
5116 Clear 9 1021 34 10000 1 0 07:44 02.11.2019
5117 Clear 9 1021 34 10000 1 0 07:25 02.11.2019
5118 Clear 8 1022 33 10000 1 0 06:52 02.11.2019
5119 Clear 8 1022 33 10000 1 0 06:52 02.11.2019
5120 Clear 7 1022 39 10000 1 0 06:24 02.11.2019
5121 Clear 6 1022 41 10000 1 0 05:44 02.11.2019
5122 Clear 1 1022 55 10000 1.5 131 04:25 02.11.2019
5123 Clear 0 1022 57 10000 1.5 131 03:52 02.11.2019
5124 Clear -2 1023 74 10000 1.5 131 03:31 02.11.2019
5125 Clear -5 1022 79 10000 1 0 02:29 02.11.2019
5126 Clear -9 1022 85 10000 1 0 01:29 02.11.2019
5127 Clear -7 1021 79 10000 1 0 00:58 02.11.2019
5128 Clear -9 1021 85 10000 2 160 00:30 02.11.2019
5129 Clear -10 1021 85 10000 1 0 23:57 01.11.2019
5130 Clear -9 1020 85 10000 1 0 23:39 01.11.2019
5131 Clear -9 1020 85 10000 1 0 23:19 01.11.2019
5132 Clear -8 1020 85 10000 0.85 101 22:42 01.11.2019
5133 Clear -8 1020 78 10000 1 0 22:21 01.11.2019
5134 Clear -9 1020 85 10000 0.85 101 21:43 01.11.2019
5135 Clear -9 1020 85 10000 0.85 101 21:24 01.11.2019
5136 Clear -8 1020 85 10000 0.85 101 20:59 01.11.2019
5137 Clear -8 1020 85 10000 0.85 101 20:41 01.11.2019
5138 Clear -8 1020 85 10000 0.93 91 20:23 01.11.2019
5139 Clear -8 1020 78 10000 1 0 19:59 01.11.2019
5140 Clear -8 1020 78 10000 1 0 19:40 01.11.2019
5141 Clear -8 1020 78 10000 1 0 19:21 01.11.2019
5142 Clear -8 1020 85 10000 0.91 92 18:41 01.11.2019
5143 Clear -8 1020 85 10000 0.91 92 18:21 01.11.2019
5144 Clear -4 1020 68 10000 0.91 92 17:59 01.11.2019
5145 Clear -4 1020 68 10000 0.91 92 17:41 01.11.2019
5146 Clear -4 1020 68 10000 1 83 17:22 01.11.2019
5147 Clear -5 1020 73 10000 1 0 16:40 01.11.2019
5148 Clear -5 1020 73 10000 1 0 16:20 01.11.2019
5149 Clear -5 1020 73 10000 2 0 15:58 01.11.2019
5150 Clear -4 1020 68 10000 2 0 15:40 01.11.2019
5151 Clear -4 1020 68 10000 2 0 15:21 01.11.2019
5152 Clear -4 1019 68 10000 2 0 14:44 01.11.2019
5153 Clear -2 1019 63 10000 2 160 14:25 01.11.2019
5154 Clear -3 1019 68 10000 3 170 13:59 01.11.2019
5155 Clear -1 1019 58 10000 1 0 13:40 01.11.2019
5156 Clear -1 1019 58 10000 1 0 13:40 01.11.2019
5157 Clear -1 1019 58 10000 1 0 13:21 01.11.2019
5158 Clear 0 1019 73 10000 2 160 12:55 01.11.2019
5159 Clear 0 1019 73 10000 3 160 12:37 01.11.2019
5160 Clear 0 1019 73 10000 3 160 12:18 01.11.2019
5161 Clear 3 1018 44 10000 2 140 11:41 01.11.2019
5162 Clear 3 1018 44 10000 2 140 11:23 01.11.2019
5163 Clear 9 1018 29 10000 1 0 10:43 01.11.2019
5164 Clear 10 1018 29 10000 2 280 10:25 01.11.2019
5165 Clear 11 1018 27 10000 2 0 09:58 01.11.2019
5166 Clear 11 1018 27 10000 2 0 09:40 01.11.2019
5167 Clear 11 1018 27 10000 2 0 09:21 01.11.2019
5168 Clear 11 1018 27 10000 1 0 08:46 01.11.2019
5169 Clear 11 1018 29 10000 1 0 08:22 01.11.2019
5170 Clear 11 1018 29 10000 1 0 07:57 01.11.2019
5171 Clear 11 1018 29 10000 1 0 07:57 01.11.2019
5172 Clear 10 1019 31 10000 1 0 07:39 01.11.2019
5173 Clear 10 1019 31 10000 1 0 07:20 01.11.2019
5174 Clear 10 1019 29 10000 1 0 06:47 01.11.2019
5175 Clear 9 1019 31 10000 1 0 06:22 01.11.2019
5176 Clear 7 1020 36 10000 1 0 05:44 01.11.2019
5177 Clear 7 1020 36 10000 1 0 05:44 01.11.2019
5178 Clear 3 1020 51 10000 1.73 116 04:29 01.11.2019
5179 Clear 0 1020 61 10000 1.73 116 03:24 01.11.2019
5180 Clouds -8 1020 85 10000 1 0 01:37 01.11.2019
5181 Clouds -7 1020 79 10000 1 0 00:42 01.11.2019
5182 Clouds -7 1020 79 10000 1 0 00:19 01.11.2019
5183 Clouds -7 1020 85 10000 2.09 102 23:43 31.10.2019
5184 Clouds -7 1021 79 10000 2.24 100 23:23 31.10.2019
5185 Clouds -8 1020 85 10000 1 0 22:57 31.10.2019
5186 Clouds -8 1020 85 10000 1 0 22:57 31.10.2019
5187 Clouds -6 1020 79 10000 2.24 100 22:39 31.10.2019
5188 Clouds -6 1020 79 10000 2.24 100 22:20 31.10.2019
5189 Clouds -6 1020 79 10000 2.24 100 21:44 31.10.2019
5190 Clouds -4 1021 79 10000 2.24 100 21:21 31.10.2019
5191 Clouds -5 1021 79 10000 2.24 100 20:57 31.10.2019
5192 Clouds -5 1021 79 10000 2.24 100 20:39 31.10.2019
5193 Clouds -5 1021 79 10000 2.26 97 20:20 31.10.2019
5194 Clouds -4 1022 79 0 2.26 97 19:42 31.10.2019
5195 Clouds -4 1022 79 0 2.26 97 19:22 31.10.2019
5196 Clouds -5 1022 79 10000 2.26 97 18:57 31.10.2019
5197 Clouds -5 1022 79 10000 2.26 97 18:57 31.10.2019
5198 Clouds -6 1022 85 10000 2.26 97 18:39 31.10.2019
5199 Clouds -6 1022 85 10000 2.26 97 18:20 31.10.2019
5200 Clouds -3 1022 73 10000 2.26 97 17:42 31.10.2019
5201 Clear -3 1022 73 10000 1.97 100 17:22 31.10.2019
5202 Clear -3 1022 73 10000 1.97 100 16:58 31.10.2019
5203 Clear -1 1022 63 10000 1.97 100 16:40 31.10.2019
5204 Clear -1 1022 63 10000 1.97 100 16:20 31.10.2019
5205 Clear -2 1022 74 10000 2 280 15:56 31.10.2019
5206 Clear 1 1022 59 10000 1 0 15:38 31.10.2019
5207 Clear 1 1022 59 10000 1 0 15:19 31.10.2019
5208 Clear 1 1022 59 10000 1 0 15:19 31.10.2019
5209 Clear 1 1022 59 10000 1 0 15:19 31.10.2019
5210 Clear 0 1022 72 10000 1 0 14:55 31.10.2019
5211 Clear 4 1022 48 10000 1 0 14:37 31.10.2019
5212 Clouds 4 1022 48 10000 1 0 14:19 31.10.2019
5213 Clouds 4 1022 48 10000 3 170 13:54 31.10.2019
5214 Clouds 4 1022 48 10000 4 170 13:36 31.10.2019
5215 Clear 4 1022 48 10000 4 170 13:18 31.10.2019
5216 Clear 6 1022 41 10000 5 170 12:42 31.10.2019
5217 Clear 5 1021 44 10000 5 170 12:23 31.10.2019
5218 Clear 3 1021 51 10000 4 180 11:55 31.10.2019
5219 Clear 3 1021 51 10000 3 170 11:36 31.10.2019
5220 Clear 3 1021 51 10000 3 170 11:18 31.10.2019
5221 Clear 11 1021 32 10000 3 240 10:40 31.10.2019
5222 Clear 11 1021 32 10000 3 240 10:22 31.10.2019
5223 Clear 12 1021 27 10000 3 220 09:59 31.10.2019
5224 Clear 12 1021 27 10000 3 220 09:59 31.10.2019
5225 Clear 13 1021 26 10000 4 190 09:39 31.10.2019
5226 Clear 13 1021 26 10000 4 190 09:18 31.10.2019
5227 Clear 13 1021 28 10000 4 170 08:48 31.10.2019
5228 Clear 13 1021 28 10000 3 200 08:29 31.10.2019
5229 Clear 11 1021 32 10000 1 0 07:54 31.10.2019
5230 Clear 10 1022 34 10000 1 0 07:36 31.10.2019
5231 Clear 10 1022 34 10000 1 0 07:18 31.10.2019
5232 Clear 9 1022 36 10000 1 0 06:33 31.10.2019
5233 Clear 8 1022 39 10000 1 0 05:58 31.10.2019
5234 Clear 1 1024 59 10000 0.86 145 03:22 31.10.2019
5235 Clear -3 1023 79 10000 0.86 145 02:38 31.10.2019
5236 Clear -6 1023 85 10000 0.68 78 01:43 31.10.2019
5237 Clear -8 1022 85 10000 1 0 00:35 31.10.2019
5238 Clear -8 1022 85 10000 2 170 23:53 30.10.2019
5239 Clear -7 1021 85 10000 2 0 23:28 30.10.2019
5240 Clear -7 1021 85 10000 1 0 22:43 30.10.2019
5241 Clear -7 1021 85 10000 1 0 22:43 30.10.2019
5242 Clear -6 1021 85 10000 2 150 22:21 30.10.2019
5243 Clear -6 1020 85 10000 2 150 21:55 30.10.2019
5244 Clear -5 1020 79 10000 2 0 21:37 30.10.2019
5245 Clear -5 1020 79 10000 2 0 21:18 30.10.2019
5246 Clear -5 1020 79 10000 2 170 20:58 30.10.2019
5247 Clear -5 1020 79 10000 2 170 20:40 30.10.2019
5248 Clear -5 1020 79 10000 2 170 20:22 30.10.2019
5249 Clear -4 1019 73 10000 2 180 19:57 30.10.2019
5250 Clear -4 1019 73 10000 2 180 19:57 30.10.2019
5251 Clear -4 1019 73 10000 2 180 19:38 30.10.2019
5252 Clear -4 1019 73 10000 2 180 19:19 30.10.2019
5253 Clear -4 1019 73 10000 1 0 18:39 30.10.2019
5254 Clear -4 1019 73 10000 1 0 18:39 30.10.2019
5255 Clear -4 1019 73 10000 1 0 18:20 30.10.2019
5256 Clear -1 1018 63 10000 3 180 17:59 30.10.2019
5257 Clear -1 1018 63 10000 3 180 17:41 30.10.2019
5258 Clear -1 1018 63 10000 3 180 17:19 30.10.2019
5259 Clear -1 1018 63 10000 3 180 17:19 30.10.2019
5260 Clear -1 1018 63 10000 3 180 17:19 30.10.2019
5261 Clear -2 1018 68 10000 4 160 16:55 30.10.2019
5262 Clear 0 1018 84 10000 1 0 16:37 30.10.2019
5263 Clear 0 1018 84 10000 1 0 16:19 30.10.2019
5264 Clear 1 1017 55 10000 3 150 15:56 30.10.2019
5265 Clear 4 1017 44 10000 2 0 15:37 30.10.2019
5266 Clear 4 1017 44 10000 2 0 15:19 30.10.2019
5267 Clear 5 1016 41 10000 3 320 14:42 30.10.2019
5268 Clear 4 1016 44 10000 2 0 14:22 30.10.2019
5269 Clear 4 1016 44 10000 1 0 13:59 30.10.2019
5270 Clear 4 1015 44 10000 2 300 13:40 30.10.2019
5271 Clear 4 1015 44 10000 2 300 13:20 30.10.2019
5272 Clouds 6 1015 38 10000 4 290 12:57 30.10.2019
5273 Clouds 9 1015 31 10000 5 280 12:39 30.10.2019
5274 Clouds 9 1015 31 10000 5 280 12:21 30.10.2019
5275 Clouds 9 1014 29 10000 3 270 11:42 30.10.2019
5276 Clouds 9 1014 29 10000 3 270 11:23 30.10.2019
5277 Clouds 11 1013 25 10000 4 290 10:46 30.10.2019
5278 Clear 13 1013 22 10000 5 300 10:27 30.10.2019
5279 Clear 13 1013 22 10000 7 290 09:59 30.10.2019
5280 Clear 14 1013 20 10000 6 310 09:40 30.10.2019
5281 Clear 14 1013 20 10000 6 310 09:22 30.10.2019
5282 Clear 14 1012 20 10000 6 310 08:42 30.10.2019
5283 Clear 14 1012 22 10000 6 310 08:23 30.10.2019
5284 Clear 14 1012 22 10000 5 330 07:59 30.10.2019
5285 Clear 14 1012 22 10000 5 330 07:59 30.10.2019
5286 Clear 13 1012 24 10000 7 290 07:39 30.10.2019
5287 Clear 13 1012 24 10000 7 290 06:48 30.10.2019
5288 Clouds 12 1012 25 10000 7 310 06:29 30.10.2019
5289 Clouds 12 1012 25 10000 6 280 05:56 30.10.2019
5290 Clouds 11 1012 27 10000 7 280 05:37 30.10.2019
5291 Clouds 6 1012 38 10000 1 0 03:51 30.10.2019
5292 Clear 3 1012 47 10000 5.9 291 03:21 30.10.2019
5293 Clear -1 1012 63 10000 1 0 02:48 30.10.2019
5294 Clear -3 1012 68 10000 2 0 01:43 30.10.2019
5295 Clear -4 1011 68 10000 1 0 00:37 30.10.2019
5296 Clear -4 1011 68 10000 1 0 00:18 30.10.2019
5297 Clear -4 1011 68 10000 1.32 267 23:39 29.10.2019
5298 Clear -4 1011 68 10000 1.6 250 23:18 29.10.2019
5299 Clear -6 1010 73 10000 1 0 22:41 29.10.2019
5300 Clear -6 1010 73 10000 1 0 22:19 29.10.2019
5301 Clear -5 1010 67 10000 1.6 250 21:55 29.10.2019
5302 Clear -6 1010 79 10000 1.6 250 21:36 29.10.2019
5303 Clear -6 1010 79 10000 1.6 250 21:18 29.10.2019
5304 Clear -5 1010 67 10000 2 0 20:42 29.10.2019
5305 Clouds -5 1010 67 10000 2 0 20:23 29.10.2019
5306 Clouds -4 1011 68 10000 2 0 19:59 29.10.2019
5307 Clouds -6 1010 73 10000 2 150 19:40 29.10.2019
5308 Clouds -6 1010 73 10000 2 150 19:21 29.10.2019
5309 Clouds -4 1011 68 10000 1 0 18:58 29.10.2019
5310 Clouds -5 1010 73 10000 1 0 18:39 29.10.2019
5311 Clouds -5 1010 73 10000 1 0 18:20 29.10.2019
5312 Clouds -4 1011 68 10000 1 0 17:57 29.10.2019
5313 Clouds -2 1011 58 10000 1.89 245 17:38 29.10.2019
5314 Clouds -2 1011 58 10000 1.84 237 17:20 29.10.2019
5315 Clouds -3 1011 63 10000 1 0 16:41 29.10.2019
5316 Clouds -3 1011 63 10000 1 0 16:23 29.10.2019
5317 Clouds -4 1011 62 10000 1.84 237 15:59 29.10.2019
5318 Clouds -2 1011 63 10000 1.84 237 15:41 29.10.2019
5319 Clouds -2 1011 63 10000 1.84 237 15:21 29.10.2019
5320 Clouds -2 1011 63 10000 1 0 14:57 29.10.2019
5321 Clouds -2 1011 63 10000 1 0 14:39 29.10.2019
5322 Clear -2 1011 63 10000 1 0 14:21 29.10.2019
5323 Clear -1 1011 58 10000 3 170 13:41 29.10.2019
5324 Clear -1 1011 58 10000 3 170 13:23 29.10.2019
5325 Clear -1 1011 58 10000 4 170 12:59 29.10.2019
5326 Clear 1 1011 47 10000 2 0 12:41 29.10.2019
5327 Clear 1 1011 47 10000 2 0 12:23 29.10.2019
5328 Clear 6 1010 35 10000 4 280 11:43 29.10.2019
5329 Clear 6 1010 35 10000 4 280 11:23 29.10.2019
5330 Clear 8 1010 31 10000 6 290 10:59 29.10.2019
5331 Clear 9 1010 29 10000 6 280 10:41 29.10.2019
5332 Clear 9 1010 29 10000 6 280 10:20 29.10.2019
5333 Clear 10 1010 27 10000 6 300 09:59 29.10.2019
5334 Clear 10 1009 25 10000 8 310 09:41 29.10.2019
5335 Clear 10 1009 25 10000 8 310 09:22 29.10.2019
5336 Clear 10 1009 27 10000 8 300 08:54 29.10.2019
5337 Clear 10 1009 29 10000 7 300 08:36 29.10.2019
5338 Clear 10 1009 29 10000 7 300 08:18 29.10.2019
5339 Clear 10 1009 27 10000 7 300 07:44 29.10.2019
5340 Clear 10 1009 27 10000 8 310 07:19 29.10.2019
5341 Clear 9 1009 31 10000 6 280 06:46 29.10.2019
5342 Clear 9 1009 31 10000 6 280 06:26 29.10.2019
5343 Clouds 7 1010 36 10000 3 230 05:52 29.10.2019
5344 Clouds 6 1010 38 10000 3 220 05:34 29.10.2019
5345 Clouds 2 1010 51 10000 1 0 04:32 29.10.2019
5346 Clear -6 1009 85 8000 1 0 02:34 29.10.2019
5347 Clear -9 1009 78 8000 0.47 157 01:49 29.10.2019
5348 Clear -11 1008 85 8000 0.29 153 01:22 29.10.2019
5349 Clear -11 1008 78 8000 2 0 00:48 29.10.2019
5350 Clear -12 1008 85 10000 1 0 23:44 28.10.2019
5351 Clear -12 1008 85 10000 1 0 23:21 28.10.2019
5352 Clear -12 1009 85 10000 1.73 87 22:59 28.10.2019
5353 Clear -11 1009 85 10000 1 0 22:39 28.10.2019
5354 Clear -11 1009 85 10000 1 0 22:18 28.10.2019
5355 Clear -10 1009 85 10000 1 0 21:56 28.10.2019
5356 Clear -11 1009 85 10000 1 0 21:38 28.10.2019
5357 Clear -11 1009 85 10000 1 0 21:20 28.10.2019
5358 Clear -11 1010 85 10000 2 160 20:54 28.10.2019
5359 Clear -11 1010 85 10000 2 160 20:36 28.10.2019
5360 Clear -11 1010 85 10000 2 160 20:18 28.10.2019
5361 Clear -11 1010 85 10000 1.09 99 19:40 28.10.2019
5362 Clear -11 1010 85 10000 1.09 99 19:22 28.10.2019
5363 Clear -10 1011 78 10000 1.09 99 18:59 28.10.2019
5364 Clear -10 1011 78 10000 1.09 99 18:41 28.10.2019
5365 Clear -10 1011 78 10000 1.09 99 18:22 28.10.2019
5366 Clear -9 1011 85 10000 1 0 17:57 28.10.2019
5367 Clear -9 1011 85 10000 1 0 17:39 28.10.2019
5368 Clear -9 1011 85 10000 1 0 17:20 28.10.2019
5369 Clear -9 1011 78 10000 0.83 130 16:58 28.10.2019
5370 Clear -8 1011 85 10000 0.83 130 16:39 28.10.2019
5371 Clear -8 1011 85 10000 0.83 130 16:21 28.10.2019
5372 Clear -9 1011 78 10000 1 0 15:58 28.10.2019
5373 Clear -9 1011 78 10000 2 170 15:40 28.10.2019
5374 Clear -9 1011 78 10000 2 170 15:21 28.10.2019
5375 Clear -7 1011 73 10000 2 0 14:57 28.10.2019
5376 Clear -7 1011 79 10000 2 190 14:38 28.10.2019
5377 Clear -7 1011 79 10000 2 190 14:19 28.10.2019
5378 Clear -7 1011 73 10000 1 0 13:56 28.10.2019
5379 Clear -7 1011 73 10000 1 0 13:56 28.10.2019
5380 Clear -4 1011 62 10000 0.43 233 13:38 28.10.2019
5381 Clear -4 1011 62 10000 0.32 275 13:18 28.10.2019
5382 Clear -2 1011 58 10000 1 0 12:42 28.10.2019
5383 Clear -3 1010 63 10000 2 0 12:20 28.10.2019
5384 Clear -2 1010 58 10000 2 170 11:40 28.10.2019
5385 Clear -2 1010 58 10000 2 170 11:22 28.10.2019
5386 Clear 4 1011 38 10000 1.5 241 10:58 28.10.2019
5387 Clear 4 1011 38 10000 2 250 10:38 28.10.2019
5388 Clear 4 1011 38 10000 2 250 10:20 28.10.2019
5389 Clear 4 1011 35 10000 3 240 09:56 28.10.2019
5390 Clear 4 1011 35 10000 2 0 09:37 28.10.2019
5391 Clear 4 1011 35 10000 2 0 09:18 28.10.2019
5392 Clear 3 1011 34 10000 3 250 08:56 28.10.2019
5393 Clear 3 1011 34 10000 3 250 08:37 28.10.2019
5394 Clouds 3 1011 34 10000 3 250 08:18 28.10.2019
5395 Clouds 2 1011 37 10000 4 250 07:54 28.10.2019
5396 Clouds 1 1011 37 10000 3 250 07:36 28.10.2019
5397 Clouds 1 1011 37 10000 3 250 07:18 28.10.2019
5398 Clouds 0 1011 59 10000 3 260 06:39 28.10.2019
5399 Clouds -2 1012 54 10000 1 0 05:30 28.10.2019
5400 Clouds -7 1013 73 10000 1 0 03:44 28.10.2019
5401 Clouds -9 1013 72 10000 1.41 232 02:46 28.10.2019
5402 Clouds -13 1013 84 10000 2 170 01:52 28.10.2019
5403 Clouds -13 1013 84 10000 2 170 01:52 28.10.2019
5404 Clouds -14 1012 84 10000 1 0 00:47 28.10.2019
5405 Clouds -14 1012 84 10000 1 0 00:47 28.10.2019
5406 Clouds -14 1012 84 10000 0.79 205 00:26 28.10.2019
5407 Clouds -14 1013 92 10000 1 0 23:45 27.10.2019
5408 Clear -14 1013 84 10000 1 0 23:22 27.10.2019
5409 Clear -13 1013 84 10000 1 0 22:57 27.10.2019
5410 Clear -14 1013 84 10000 2 170 22:37 27.10.2019
5411 Clear -14 1013 84 10000 2 170 22:19 27.10.2019
5412 Clear -14 1013 77 10000 2 150 21:56 27.10.2019
5413 Clear -12 1013 72 10000 1 0 21:38 27.10.2019
5414 Clear -12 1013 72 10000 1 0 21:20 27.10.2019
5415 Clouds -15 1013 84 10000 2 150 20:42 27.10.2019
5416 Clouds -15 1013 84 10000 2 150 20:24 27.10.2019
5417 Clouds -14 1014 77 10000 3 160 19:59 27.10.2019
5418 Clouds -14 1014 77 10000 3 160 19:39 27.10.2019
5419 Clouds -14 1014 77 10000 3 160 19:20 27.10.2019
5420 Clouds -14 1014 77 10000 3 160 19:20 27.10.2019
5421 Clouds -10 1014 72 10000 1.7 292 18:57 27.10.2019
5422 Clouds -10 1014 72 10000 1.7 292 18:39 27.10.2019
5423 Clouds -10 1014 72 10000 1.7 292 18:21 27.10.2019
5424 Clouds -10 1014 72 10000 1.7 292 18:21 27.10.2019
5425 Clouds -12 1014 78 10000 2 0 17:56 27.10.2019
5426 Clouds -12 1014 78 10000 2 0 17:37 27.10.2019
5427 Clear -12 1014 78 10000 2 0 17:19 27.10.2019
5428 Clear -10 1014 78 10000 3 340 16:55 27.10.2019
5429 Clear -9 1014 72 10000 4 330 16:37 27.10.2019
5430 Clear -9 1014 72 10000 4 330 16:19 27.10.2019
5431 Clear -8 1015 72 10000 1 0 15:55 27.10.2019
5432 Clouds -9 1014 78 10000 5 180 15:37 27.10.2019
5433 Clouds -9 1014 78 10000 5 180 15:18 27.10.2019
5434 Clouds -6 1013 73 10000 6 340 14:41 27.10.2019
5435 Clouds -6 1013 73 10000 6 340 14:20 27.10.2019
5436 Clouds -6 1013 73 10000 6 330 13:56 27.10.2019
5437 Clouds -6 1012 79 10000 7 340 13:37 27.10.2019
5438 Clouds -6 1012 79 10000 7 340 13:19 27.10.2019
5439 Clouds -6 1012 79 10000 7 340 13:19 27.10.2019
5440 Clouds -5 1011 79 10000 9 330 12:43 27.10.2019
5441 Clouds -5 1011 79 10000 9 330 12:24 27.10.2019
5442 Clouds -5 1010 79 10000 8 330 11:56 27.10.2019
5443 Snow -5 1009 85 8000 9 330 11:38 27.10.2019
5444 Snow -5 1009 85 8000 9 330 11:19 27.10.2019
5445 Clouds -4 1007 79 10000 7 350 10:42 27.10.2019
5446 Clouds -4 1007 79 10000 7 350 10:23 27.10.2019
5447 Snow -4 1006 79 6000 9 340 09:44 27.10.2019
5448 Snow -4 1005 85 6000 9 340 09:20 27.10.2019
5449 Snow -3 1003 86 6000 11 330 08:59 27.10.2019
5450 Snow -1 1001 80 6000 13 330 08:40 27.10.2019
5451 Snow -1 1001 80 6000 13 330 08:20 27.10.2019
5452 Clouds 0 1000 87 10000 8 330 07:50 27.10.2019
5453 Snow 0 1000 87 6000 8 310 07:29 27.10.2019
5454 Snow 0 1000 87 2000 11 320 06:56 27.10.2019
5455 Clouds 5 999 35 10000 7 290 06:38 27.10.2019
5456 Clouds 5 999 35 10000 7 290 06:20 27.10.2019
5457 Clouds 3 1000 34 10000 4 240 05:38 27.10.2019
5458 Clouds 2 1000 31 10000 3 270 04:35 27.10.2019
5459 Clouds -3 999 53 10000 1 0 02:46 27.10.2019
5460 Clouds -4 1000 58 10000 1 0 01:36 27.10.2019
5461 Clouds -4 1000 58 10000 1 0 01:18 27.10.2019
5462 Clouds -3 1000 58 10000 2 0 00:42 27.10.2019
5463 Clouds -3 1000 53 10000 2.04 112 23:59 26.10.2019
5464 Clouds -3 1001 53 10000 1 0 23:40 26.10.2019
5465 Clouds -3 1001 53 10000 1 0 23:22 26.10.2019
5466 Clouds -3 1001 53 10000 2 0 22:59 26.10.2019
5467 Clouds -4 1001 58 10000 1 0 22:39 26.10.2019
5468 Clouds -4 1001 58 10000 1 0 22:20 26.10.2019
5469 Clouds -3 1003 49 10000 1 0 21:59 26.10.2019
5470 Clouds -3 1003 49 10000 1 0 21:40 26.10.2019
5471 Clouds -3 1003 49 10000 1 0 21:19 26.10.2019
5472 Clouds -4 1004 58 10000 2 290 20:45 26.10.2019
5473 Clouds -4 1004 58 10000 2 290 20:20 26.10.2019
5474 Clouds -6 1005 57 10000 1 0 19:56 26.10.2019
5475 Clouds -6 1005 57 10000 1 0 19:38 26.10.2019
5476 Clouds -6 1005 57 10000 1 0 19:19 26.10.2019
5477 Clouds -7 1007 62 10000 2 0 18:55 26.10.2019
5478 Clouds -7 1007 62 10000 2 0 18:37 26.10.2019
5479 Clouds -7 1007 62 10000 2 0 18:18 26.10.2019
5480 Clouds -7 1007 62 10000 2 0 18:18 26.10.2019
5481 Clouds -3 1008 45 10000 1 0 17:39 26.10.2019
5482 Clouds -3 1008 45 10000 1 0 17:21 26.10.2019
5483 Clouds -3 1008 45 10000 1 0 16:59 26.10.2019
5484 Clouds -1 1009 42 10000 1 0 16:41 26.10.2019
5485 Clouds -1 1009 42 10000 1 0 16:41 26.10.2019
5486 Clouds -1 1009 42 10000 1 0 16:22 26.10.2019
5487 Clouds -3 1009 45 10000 3 160 15:41 26.10.2019
5488 Clouds -3 1009 45 10000 3 160 15:20 26.10.2019
5489 Clear -3 1010 42 10000 3 170 14:41 26.10.2019
5490 Clear -3 1010 42 10000 3 170 14:22 26.10.2019
5491 Clear -4 1015 57 0 1.87 286 13:59 26.10.2019
5492 Clear 0 1010 57 10000 4 240 13:41 26.10.2019
5493 Clear -4 1015 57 0 1.87 286 13:21 26.10.2019
5494 Clear 2 1010 24 10000 3 270 12:46 26.10.2019
5495 Clear 6 1010 17 10000 7 270 12:23 26.10.2019
5496 Clear 6 1010 17 10000 7 270 11:50 26.10.2019
5497 Clear 6 1010 17 10000 7 270 11:29 26.10.2019
5498 Clear 6 1010 17 10000 7 270 11:29 26.10.2019
5499 Clear 6 1010 17 10000 7 270 11:29 26.10.2019
5500 Clear 7 1010 16 10000 7 300 10:54 26.10.2019
5501 Clouds 7 1011 17 10000 8 290 10:36 26.10.2019
5502 Clouds 7 1011 17 10000 8 290 10:18 26.10.2019
5503 Clouds 8 1011 19 10000 7 280 09:41 26.10.2019
5504 Clouds 8 1011 19 10000 7 280 09:23 26.10.2019
5505 Clouds 8 1011 20 10000 8 280 08:43 26.10.2019
5506 Clouds 7 1011 22 10000 7 270 08:25 26.10.2019
5507 Clouds 7 1011 24 10000 7 280 07:46 26.10.2019
5508 Clouds 6 1011 24 10000 8 290 07:28 26.10.2019
5509 Clear 6 1011 26 10000 8 270 06:43 26.10.2019
5510 Clear 5 1011 27 10000 6 280 06:24 26.10.2019
5511 Clear 3 1012 32 10000 4 250 05:19 26.10.2019
5512 Clear 0 1012 42 10000 2 0 04:24 26.10.2019
5513 Clouds -7 1011 62 10000 3 290 02:46 26.10.2019
5514 Clouds -12 1011 78 8000 3 170 01:54 26.10.2019
5515 Clouds -10 1011 72 8000 1 0 01:22 26.10.2019
5516 Clouds -13 1010 78 10000 2 160 00:23 26.10.2019
5517 Clouds -8 1010 67 10000 2.04 241 23:43 25.10.2019
5518 Clouds -9 1010 72 10000 1 0 23:20 25.10.2019
5519 Clouds -9 1011 66 10000 2.04 241 22:40 25.10.2019
5520 Clouds -9 1011 66 10000 2.04 241 22:22 25.10.2019
5521 Clouds -11 1011 72 10000 2 170 21:58 25.10.2019
5522 Clouds -11 1011 72 10000 2 170 21:58 25.10.2019
5523 Clouds -11 1011 72 10000 2 170 21:39 25.10.2019
5524 Clear -11 1011 72 10000 2 170 21:19 25.10.2019
5525 Clear -11 1011 72 10000 2 170 21:19 25.10.2019
5526 Clear -11 1011 72 10000 1.05 186 20:55 25.10.2019
5527 Clear -11 1011 72 10000 1.05 186 20:37 25.10.2019
5528 Clear -11 1011 72 10000 1.05 186 20:18 25.10.2019
5529 Clear -10 1012 72 10000 2 0 19:41 25.10.2019
5530 Clear -10 1012 72 10000 2 0 19:23 25.10.2019
5531 Clear -11 1012 72 10000 1 0 18:44 25.10.2019
5532 Clear -11 1012 72 10000 1 0 18:22 25.10.2019
5533 Clear -10 1013 61 10000 1 0 17:41 25.10.2019
5534 Clear -10 1013 61 10000 1 0 17:41 25.10.2019
5535 Clear -10 1013 61 10000 1 0 17:21 25.10.2019
5536 Clear -11 1014 66 10000 1 0 16:54 25.10.2019
5537 Clear -11 1014 66 10000 1 0 16:54 25.10.2019
5538 Clear -8 1014 57 10000 1 0 16:36 25.10.2019
5539 Clear -8 1014 57 10000 1 0 16:18 25.10.2019
5540 Clear -4 1014 45 10000 1.12 134 15:40 25.10.2019
5541 Clear -4 1014 45 10000 1.29 135 15:21 25.10.2019
5542 Clear -8 1014 57 10000 1.29 135 14:57 25.10.2019
5543 Clear -6 1014 53 10000 1 0 14:39 25.10.2019
5544 Clear -6 1014 53 10000 1 0 14:20 25.10.2019
5545 Clear -4 1014 45 10000 2 170 13:41 25.10.2019
5546 Clear -4 1014 45 10000 2 170 13:23 25.10.2019
5547 Clear -3 1014 45 10000 4 170 12:55 25.10.2019
5548 Clear -2 1015 42 10000 3 170 12:37 25.10.2019
5549 Clear -2 1015 42 10000 3 170 12:37 25.10.2019
5550 Clear -2 1015 42 10000 3 170 12:19 25.10.2019
5551 Clear 5 1015 25 10000 3 260 11:40 25.10.2019
5552 Clear 5 1015 25 10000 3 260 11:22 25.10.2019
5553 Clear 6 1015 22 10000 3 240 10:57 25.10.2019
5554 Clear 5 1015 25 10000 3 240 10:38 25.10.2019
5555 Clear 5 1015 25 10000 3 240 10:19 25.10.2019
5556 Clear 5 1016 23 10000 4 250 09:42 25.10.2019
5557 Clear 5 1016 23 10000 3 250 09:21 25.10.2019
5558 Clear 5 1017 23 10000 3 240 08:59 25.10.2019
5559 Clear 4 1017 25 10000 3 240 08:41 25.10.2019
5560 Clear 4 1017 25 10000 3 240 08:22 25.10.2019
5561 Clear 3 1018 29 10000 2 270 07:47 25.10.2019
5562 Clear 2 1018 31 10000 2 0 07:28 25.10.2019
5563 Clear -1 1019 42 10000 1 0 06:38 25.10.2019
5564 Clear -3 1019 49 8000 1 0 05:49 25.10.2019
5565 Clear -4 1020 53 8000 1 0 05:30 25.10.2019
5566 Clear -8 1021 67 8000 1.52 177 04:36 25.10.2019
5567 Clear -16 1021 77 8000 1 0 02:42 25.10.2019
5568 Clear -18 1022 84 8000 1 0 01:52 25.10.2019
5569 Clear -15 1022 84 10000 1.34 109 00:36 25.10.2019
5570 Clear -17 1022 84 10000 1 0 23:55 24.10.2019
5571 Clear -15 1022 84 10000 1 0 23:36 24.10.2019
5572 Clear -15 1022 84 10000 1 0 23:18 24.10.2019
5573 Clear -16 1023 77 10000 1 0 22:39 24.10.2019
5574 Clear -16 1023 77 10000 1 0 22:19 24.10.2019
5575 Clear -15 1023 84 10000 1.4 122 21:58 24.10.2019
5576 Clear -15 1023 84 10000 1.4 122 21:40 24.10.2019
5577 Clear -15 1023 84 10000 1.1 140 21:20 24.10.2019
5578 Clear -15 1024 84 10000 1 0 20:59 24.10.2019
5579 Clear -15 1024 84 10000 1 0 20:39 24.10.2019
5580 Clear -15 1024 84 10000 1 0 20:21 24.10.2019
5581 Clear -15 1024 84 10000 1 0 19:57 24.10.2019
5582 Clear -15 1024 84 10000 1 0 19:38 24.10.2019
5583 Clear -15 1024 84 10000 1 0 19:20 24.10.2019
5584 Clear -14 1024 77 10000 1.1 140 18:56 24.10.2019
5585 Clear -14 1024 77 10000 1.1 140 18:38 24.10.2019
5586 Clear -14 1024 77 10000 0.59 130 18:18 24.10.2019
5587 Clear -12 1025 72 10000 1 0 17:42 24.10.2019
5588 Clear -12 1025 72 10000 1 0 17:20 24.10.2019
5589 Clear -9 1025 72 10000 0.59 130 16:58 24.10.2019
5590 Clear -12 1025 72 10000 1 0 16:39 24.10.2019
5591 Clear -12 1025 72 10000 1 0 16:21 24.10.2019
5592 Clear -11 1025 72 10000 2 170 15:58 24.10.2019
5593 Clear -9 1025 66 10000 1 0 15:40 24.10.2019
5594 Clouds -9 1025 66 10000 1 0 15:21 24.10.2019
5595 Clouds -9 1024 66 10000 3 170 14:57 24.10.2019
5596 Clouds -9 1025 66 10000 3 160 14:38 24.10.2019
5597 Clouds -9 1025 66 10000 3 160 14:19 24.10.2019
5598 Clouds -9 1025 66 10000 2 0 13:40 24.10.2019
5599 Clouds -9 1025 66 10000 2 0 13:19 24.10.2019
5600 Clouds -6 1024 57 10000 2 0 12:57 24.10.2019
5601 Clouds -6 1024 57 10000 2 0 12:57 24.10.2019
5602 Clouds -5 1024 53 10000 2 210 12:39 24.10.2019
5603 Clouds -5 1024 53 10000 2 210 12:19 24.10.2019
5604 Clouds -2 1024 42 10000 3 230 11:56 24.10.2019
5605 Clouds -1 1024 39 10000 3 230 11:37 24.10.2019
5606 Clouds -1 1024 39 10000 3 230 11:19 24.10.2019
5607 Clouds -1 1024 39 10000 3 210 10:55 24.10.2019
5608 Clouds -1 1024 39 10000 2 0 10:36 24.10.2019
5609 Clouds -1 1024 39 10000 2 0 10:18 24.10.2019
5610 Clouds -2 1024 42 10000 3 250 09:38 24.10.2019
5611 Clouds -2 1024 42 10000 3 250 09:18 24.10.2019
5612 Clouds -1 1024 39 10000 3 230 08:44 24.10.2019
5613 Clouds -1 1025 39 10000 3 250 08:21 24.10.2019
5614 Clouds -2 1025 46 10000 2 0 07:56 24.10.2019
5615 Clouds -3 1025 49 10000 3 220 07:38 24.10.2019
5616 Clouds -3 1025 49 10000 3 220 07:20 24.10.2019
5617 Clouds -4 1026 58 8000 1 0 06:39 24.10.2019
5618 Clouds -5 1026 57 6000 1 0 05:57 24.10.2019
5619 Clouds -7 1026 67 6000 1 0 05:39 24.10.2019
5620 Clouds -7 1027 67 6000 1.4 239 04:49 24.10.2019
5621 Clouds -12 1027 85 8000 1 0 03:36 24.10.2019
5622 Clear -15 1026 84 8000 1 0 02:51 24.10.2019
5623 Clear -17 1026 84 8000 1 0 02:22 24.10.2019
5624 Clear -18 1026 77 10000 2 180 01:33 24.10.2019
5625 Clear -18 1026 77 10000 2 160 00:57 24.10.2019
5626 Clear -18 1026 77 10000 2 160 00:37 24.10.2019
5627 Clear -18 1026 77 10000 2 160 00:18 24.10.2019
5628 Clear -17 1026 84 10000 1 0 23:42 23.10.2019
5629 Clear -17 1026 84 10000 1 0 23:21 23.10.2019
5630 Clear -18 1026 84 10000 1 0 22:57 23.10.2019
5631 Clear -17 1026 77 10000 2 170 22:37 23.10.2019
5632 Clear -17 1026 77 10000 2 170 22:18 23.10.2019
5633 Clear -17 1027 84 10000 2 160 21:57 23.10.2019
5634 Clear -17 1027 84 10000 2 160 21:38 23.10.2019
5635 Clear -17 1027 84 10000 2 160 21:19 23.10.2019
5636 Clear -16 1027 77 10000 1 0 20:56 23.10.2019
5637 Clear -16 1027 77 10000 1 0 20:37 23.10.2019
5638 Clear -16 1027 77 10000 1 0 20:19 23.10.2019
5639 Clear -15 1027 77 10000 1 0 19:45 23.10.2019
5640 Clear -15 1027 77 10000 1 0 19:20 23.10.2019
5641 Clear -12 1027 85 10000 1 0 18:59 23.10.2019
5642 Clear -12 1027 85 10000 1 0 18:39 23.10.2019
5643 Clear -12 1027 85 10000 1 0 18:19 23.10.2019
5644 Clear -13 1027 78 10000 3 170 17:58 23.10.2019
5645 Clear -13 1027 78 10000 3 170 17:58 23.10.2019
5646 Clear -13 1027 84 10000 3 150 17:40 23.10.2019
5647 Clear -13 1027 84 10000 3 150 17:19 23.10.2019
5648 Clear -13 1027 78 10000 3 170 16:41 23.10.2019
5649 Clear -13 1027 78 10000 3 170 16:21 23.10.2019
5650 Clear -13 1027 84 10000 3 170 15:58 23.10.2019
5651 Clear -13 1026 78 10000 2 160 15:40 23.10.2019
5652 Clear -13 1026 78 10000 2 160 15:21 23.10.2019
5653 Clear -14 1027 84 10000 2 0 14:56 23.10.2019
5654 Clear -12 1026 85 10000 1 0 14:38 23.10.2019
5655 Clear -12 1026 85 10000 1 0 14:19 23.10.2019
5656 Clear -9 1026 78 10000 1.3 334 13:44 23.10.2019
5657 Clear -9 1026 78 10000 1.3 334 13:44 23.10.2019
5658 Clear -8 1026 72 10000 1 0 13:25 23.10.2019
5659 Clear -7 1025 73 10000 2 300 12:59 23.10.2019
5660 Clouds -6 1025 67 10000 3 290 12:41 23.10.2019
5661 Clouds -6 1025 67 10000 3 290 12:19 23.10.2019
5662 Clouds -4 1025 58 10000 4 320 11:58 23.10.2019
5663 Clouds -3 1025 53 10000 5 330 11:39 23.10.2019
5664 Clouds -3 1025 53 10000 5 330 11:21 23.10.2019
5665 Clouds -2 1024 50 10000 6 330 10:56 23.10.2019
5666 Clouds -2 1024 50 10000 6 330 10:38 23.10.2019
5667 Clouds -2 1024 50 10000 6 330 10:38 23.10.2019
5668 Clouds -2 1024 50 10000 6 330 10:19 23.10.2019
5669 Clouds -2 1024 50 10000 7 330 09:40 23.10.2019
5670 Clouds -2 1024 50 10000 7 330 09:40 23.10.2019
5671 Clouds -2 1024 50 10000 7 330 09:22 23.10.2019
5672 Clouds -1 1024 42 10000 7 330 08:55 23.10.2019
5673 Clouds -1 1024 42 10000 7 330 08:55 23.10.2019
5674 Clouds -1 1025 42 10000 7 330 08:37 23.10.2019
5675 Clouds -1 1025 42 10000 7 330 08:18 23.10.2019
5676 Clouds -2 1025 46 10000 7 310 07:44 23.10.2019
5677 Clouds -2 1025 50 10000 8 310 07:20 23.10.2019
5678 Clouds -3 1026 49 10000 9 310 06:43 23.10.2019
5679 Clouds -3 1026 49 10000 9 310 06:19 23.10.2019
5680 Clouds -4 1026 53 10000 5 340 05:20 23.10.2019
5681 Clouds -6 1026 67 10000 5 340 03:47 23.10.2019
5682 Clouds -8 1026 78 10000 5 340 02:43 23.10.2019
5683 Clouds -8 1025 78 10000 6 340 01:41 23.10.2019
5684 Clouds -8 1025 78 10000 6 340 01:18 23.10.2019
5685 Clouds -7 1024 73 10000 5 340 00:34 23.10.2019
5686 Clouds -7 1024 73 10000 6 340 23:55 22.10.2019
5687 Clouds -7 1024 73 10000 6 340 23:37 22.10.2019
5688 Clouds -7 1024 73 10000 6 340 23:18 22.10.2019
5689 Clouds -7 1024 73 10000 6 340 23:18 22.10.2019
5690 Clouds -7 1024 73 10000 7 330 22:41 22.10.2019
5691 Clouds -7 1024 73 10000 7 330 22:41 22.10.2019
5692 Clouds -7 1024 73 10000 7 330 22:23 22.10.2019
5693 Clouds -6 1023 73 10000 5 340 21:57 22.10.2019
5694 Clouds -6 1023 73 10000 5 340 21:39 22.10.2019
5695 Clouds -6 1023 73 10000 5 340 21:19 22.10.2019
5696 Clouds -6 1022 73 10000 7 330 20:58 22.10.2019
5697 Clouds -6 1022 73 10000 7 330 20:40 22.10.2019
5698 Clouds -6 1022 73 10000 7 330 20:22 22.10.2019
5699 Clouds -6 1022 73 10000 8 330 19:59 22.10.2019
5700 Clouds -6 1022 73 10000 8 330 19:40 22.10.2019
5701 Clouds -6 1022 73 10000 8 330 19:22 22.10.2019
5702 Clouds -6 1022 79 10000 7 330 18:56 22.10.2019
5703 Clouds -6 1022 79 10000 7 330 18:37 22.10.2019
5704 Clouds -6 1022 79 10000 7 330 18:19 22.10.2019
5705 Clouds -6 1022 79 10000 7 340 17:55 22.10.2019
5706 Clouds -5 1021 73 10000 6 340 17:36 22.10.2019
5707 Clouds -5 1021 73 10000 6 340 17:18 22.10.2019
5708 Clouds -5 1021 79 10000 6 360 16:39 22.10.2019
5709 Clouds -5 1021 79 10000 6 360 16:20 22.10.2019
5710 Clouds -5 1021 79 10000 6 360 16:20 22.10.2019
5711 Clouds -5 1020 79 10000 6 340 15:59 22.10.2019
5712 Clouds -4 1020 73 10000 6 340 15:41 22.10.2019
5713 Clouds -4 1020 73 10000 6 340 15:19 22.10.2019
5714 Snow -4 1019 79 10000 6 340 14:46 22.10.2019
5715 Snow -3 1019 73 10000 6 340 14:22 22.10.2019
5716 Snow -3 1019 79 10000 6 340 13:56 22.10.2019
5717 Snow -3 1018 79 10000 7 320 13:37 22.10.2019
5718 Snow -3 1018 79 10000 7 320 13:18 22.10.2019
5719 Snow -2 1017 74 10000 6 330 12:54 22.10.2019
5720 Clouds -2 1017 74 10000 5 330 12:36 22.10.2019
5721 Clouds -2 1017 74 10000 5 330 12:18 22.10.2019
5722 Snow -1 1016 74 10000 5 310 11:40 22.10.2019
5723 Snow -1 1016 74 10000 5 310 11:22 22.10.2019
5724 Snow 0 1015 85 8000 4 310 10:58 22.10.2019
5725 Snow 0 1015 85 10000 5 310 10:38 22.10.2019
5726 Snow 0 1015 85 10000 5 310 10:19 22.10.2019
5727 Snow 0 1015 85 10000 5 310 10:19 22.10.2019
5728 Clouds 1 1014 64 10000 4 340 09:57 22.10.2019
5729 Clouds 2 1014 59 10000 6 350 09:39 22.10.2019
5730 Clouds 2 1014 59 10000 6 350 09:21 22.10.2019
5731 Clouds 3 1013 51 10000 5 330 08:43 22.10.2019
5732 Clouds 4 1013 41 10000 4 260 08:22 22.10.2019
5733 Clouds 5 1013 38 10000 4 270 07:57 22.10.2019
5734 Clouds 5 1013 38 10000 3 260 07:39 22.10.2019
5735 Clouds 5 1013 38 10000 3 260 07:20 22.10.2019
5736 Clouds 4 1013 41 10000 1 0 06:37 22.10.2019
5737 Clouds 4 1013 41 10000 1 0 06:19 22.10.2019
5738 Clouds 2 1013 51 10000 1 0 05:27 22.10.2019
5739 Clouds 0 1014 54 10000 1 0 03:53 22.10.2019
5740 Clouds -5 1012 85 10000 1 0 02:29 22.10.2019
5741 Clouds -4 1012 85 10000 2 160 01:36 22.10.2019
5742 Clouds -4 1012 85 10000 2 160 01:18 22.10.2019
5743 Clouds -5 1012 85 10000 1 0 00:41 22.10.2019
5744 Clouds -5 1012 85 10000 1 0 00:22 22.10.2019
5745 Clouds -7 1012 85 10000 2 0 23:58 21.10.2019
5746 Clouds -7 1012 92 10000 2 0 23:37 21.10.2019
5747 Clouds -7 1012 92 10000 2 0 23:19 21.10.2019
5748 Clouds -9 1011 85 10000 2 160 22:57 21.10.2019
5749 Clouds -5 1012 79 10000 1.57 104 22:38 21.10.2019
5750 Clouds -5 1012 79 10000 1.57 104 22:19 21.10.2019
5751 Clouds -6 1011 79 10000 1.57 104 21:56 21.10.2019
5752 Clouds -8 1011 85 10000 1 0 21:37 21.10.2019
5753 Clouds -8 1011 85 10000 1 0 21:19 21.10.2019
5754 Clouds -7 1012 79 10000 2 0 20:56 21.10.2019
5755 Clouds -6 1012 79 10000 1 0 20:37 21.10.2019
5756 Clouds -6 1012 79 10000 1 0 20:19 21.10.2019
5757 Clouds -5 1012 79 10000 1 0 19:41 21.10.2019
5758 Clouds -5 1012 79 10000 1 0 19:22 21.10.2019
5759 Clouds -5 1011 79 10000 2 160 18:57 21.10.2019
5760 Clouds -4 1012 73 10000 2 120 18:39 21.10.2019
5761 Clouds -4 1012 73 10000 2 120 18:39 21.10.2019
5762 Clouds -4 1012 73 10000 2 120 18:19 21.10.2019
5763 Clouds -4 1012 73 10000 2 120 18:19 21.10.2019
5764 Clouds -4 1012 73 10000 2 120 18:19 21.10.2019
5765 Clouds -4 1012 79 10000 2 0 17:59 21.10.2019
5766 Clouds -3 1012 73 10000 3 160 17:38 21.10.2019
5767 Clouds -3 1012 73 10000 3 160 17:19 21.10.2019
5768 Clouds 1 1012 55 10000 2 0 16:58 21.10.2019
5769 Clouds 0 1012 53 10000 2 0 16:40 21.10.2019
5770 Clouds 0 1012 53 10000 2 0 16:21 21.10.2019
5771 Clouds -2 1011 74 10000 1 0 15:49 21.10.2019
5772 Clouds -4 1011 73 10000 2 0 15:27 21.10.2019
5773 Clouds -5 1011 79 10000 2 0 14:59 21.10.2019
5774 Clouds -5 1011 79 10000 2 0 14:59 21.10.2019
5775 Clouds -3 1011 73 10000 2 180 14:40 21.10.2019
5776 Clouds -3 1011 73 10000 2 180 14:21 21.10.2019
5777 Clouds -2 1011 68 10000 3 160 13:57 21.10.2019
5778 Clouds -2 1011 68 10000 2 180 13:39 21.10.2019
5779 Clouds -2 1011 68 10000 2 180 13:20 21.10.2019
5780 Clouds 4 1010 44 10000 3 330 12:43 21.10.2019
5781 Clouds 4 1010 44 10000 3 330 12:23 21.10.2019
5782 Clouds 5 1010 41 10000 2 300 11:58 21.10.2019
5783 Clouds 7 1010 33 10000 3 300 11:39 21.10.2019
5784 Clouds 7 1010 33 10000 3 300 11:21 21.10.2019
5785 Clear 7 1010 28 10000 2 0 10:57 21.10.2019
5786 Clear 8 1010 26 10000 2 0 10:38 21.10.2019
5787 Clear 8 1010 26 10000 2 0 10:19 21.10.2019
5788 Clear 8 1010 26 10000 2 0 10:19 21.10.2019
5789 Clear 8 1010 26 10000 2 0 09:54 21.10.2019
5790 Clear 7 1010 28 10000 2 0 09:36 21.10.2019
5791 Clear 7 1010 28 10000 2 0 09:18 21.10.2019
5792 Clear 7 1010 28 10000 2 0 08:40 21.10.2019
5793 Clear 7 1010 28 10000 2 0 08:22 21.10.2019
5794 Clouds 7 1010 28 10000 1 0 07:44 21.10.2019
5795 Clouds 6 1010 30 10000 2 0 07:23 21.10.2019
5796 Clouds 5 1011 32 10000 2 0 06:58 21.10.2019
5797 Clouds 4 1011 38 10000 2 0 06:40 21.10.2019
5798 Clouds 3 1011 37 10000 2 0 05:57 21.10.2019
5799 Clouds 2 1011 43 10000 2 0 05:21 21.10.2019
5800 Clouds -2 1012 68 10000 3.13 34.656 03:39 21.10.2019
5801 Clouds -5 1012 79 10000 2 120 02:39 21.10.2019
5802 Clouds -5 1012 79 10000 2 120 02:19 21.10.2019
5803 Clouds -6 1012 79 10000 0.95 48.91 01:43 21.10.2019
5804 Clouds -6 1012 79 10000 1 0 00:51 21.10.2019
5805 Clouds -6 1012 79 10000 1 0 00:28 21.10.2019
5806 Clouds -6 1012 79 10000 1 0 23:57 20.10.2019
5807 Clouds -4 1013 68 10000 2 0 23:38 20.10.2019
5808 Clouds -4 1013 68 10000 2 0 23:20 20.10.2019
5809 Clouds -5 1013 79 10000 1 0 22:41 20.10.2019
5810 Clouds -5 1013 79 10000 1 0 22:23 20.10.2019
5811 Clouds -4 1014 79 10000 1 0 21:59 20.10.2019
5812 Clouds -4 1014 79 10000 1 0 21:39 20.10.2019
5813 Clouds -4 1014 79 10000 1 0 21:21 20.10.2019
5814 Clouds -4 1015 73 10000 0.98 143.621 20:55 20.10.2019
5815 Clouds -4 1015 73 10000 0.98 143.621 20:37 20.10.2019
5816 Clouds -4 1015 73 10000 0.98 143.621 20:18 20.10.2019
5817 Clouds -5 1015 79 10000 1 0 19:55 20.10.2019
5818 Clouds -5 1015 79 10000 1 0 19:36 20.10.2019
5819 Clouds -5 1015 79 10000 1 0 19:18 20.10.2019
5820 Clouds -5 1015 79 10000 1 0 18:40 20.10.2019
5821 Clouds -5 1015 79 10000 1 0 18:20 20.10.2019
5822 Clouds -7 1015 85 10000 1 0 17:56 20.10.2019
5823 Clouds -7 1015 85 10000 1 0 17:56 20.10.2019
5824 Clouds -7 1015 79 10000 1.1 150.274 17:38 20.10.2019
5825 Clouds -7 1015 79 10000 1.1 150.274 17:19 20.10.2019
5826 Clear -7 1015 79 10000 1 0 16:43 20.10.2019
5827 Clear -4 1015 68 10000 1.1 150.274 16:24 20.10.2019
5828 Clear -4 1015 68 10000 1.1 150.274 16:24 20.10.2019
5829 Clear -4 1015 68 10000 1.1 150.274 15:59 20.10.2019
5830 Clear -4 1015 68 10000 1.1 150.274 15:39 20.10.2019
5831 Clear -4 1015 68 10000 0.59 120.814 15:20 20.10.2019
5832 Clear -3 1015 68 10000 4 170 14:58 20.10.2019
5833 Clear -3 1015 68 10000 4 170 14:38 20.10.2019
5834 Clear -3 1015 68 10000 4 170 14:19 20.10.2019
5835 Clear -3 1015 68 10000 4 170 13:56 20.10.2019
5836 Clear -3 1015 68 10000 4 170 13:56 20.10.2019
5837 Clear -3 1015 68 10000 3 150 13:37 20.10.2019
5838 Clear -3 1015 68 10000 3 150 13:18 20.10.2019
5839 Clear -2 1015 63 10000 3 170 12:56 20.10.2019
5840 Clear 2 1015 43 10000 1 0 12:38 20.10.2019
5841 Clear 2 1015 43 10000 1 0 12:20 20.10.2019
5842 Clear 5 1015 30 10000 1 0 11:55 20.10.2019
5843 Clear 5 1015 27 10000 2 0 11:37 20.10.2019
5844 Clear 5 1015 27 10000 2 0 11:19 20.10.2019
5845 Clear 5 1016 27 10000 4 240 10:41 20.10.2019
5846 Clear 5 1016 27 10000 4 240 10:22 20.10.2019
5847 Clear 5 1016 30 10000 4 230 09:58 20.10.2019
5848 Clear 5 1016 30 10000 4 230 09:58 20.10.2019
5849 Clear 4 1016 35 10000 4 230 09:40 20.10.2019
5850 Clear 4 1016 35 10000 4 230 09:21 20.10.2019
5851 Clear 4 1017 35 10000 3 210 08:49 20.10.2019
5852 Clear 3 1017 37 10000 4 220 08:24 20.10.2019
5853 Clear 3 1017 37 10000 4 220 08:24 20.10.2019
5854 Clear 3 1017 40 10000 4 240 07:50 20.10.2019
5855 Clear 2 1018 43 10000 4 240 07:31 20.10.2019
5856 Clear 2 1018 47 10000 4 230 06:57 20.10.2019
5857 Clear 0 1018 68 10000 3 210 06:20 20.10.2019
5858 Clear -3 1019 73 10000 1.92 210.104 04:27 20.10.2019
5859 Clear -4 1019 79 10000 1.92 210.104 03:46 20.10.2019
5860 Clear -5 1019 79 10000 1.36 242.87 03:20 20.10.2019
5861 Clear -11 1018 85 10000 1 0 02:40 20.10.2019
5862 Clear -11 1018 85 10000 1.36 242.87 01:58 20.10.2019
5863 Clear -10 1018 85 10000 2 160 01:23 20.10.2019
5864 Clear -11 1018 85 10000 3 160 00:56 20.10.2019
5865 Clear -9 1018 85 10000 2 0 00:38 20.10.2019
5866 Clear -9 1018 85 10000 2 0 00:19 20.10.2019
5867 Clear -10 1017 85 10000 2 0 23:42 19.10.2019
5868 Clear -10 1017 85 10000 2 0 23:22 19.10.2019
5869 Clear -10 1017 78 10000 2 140 22:56 19.10.2019
5870 Clouds -10 1017 85 10000 2 150 22:37 19.10.2019
5871 Clouds -10 1017 85 10000 2 150 22:19 19.10.2019
5872 Clouds -9 1017 85 10000 2 140 21:45 19.10.2019
5873 Clouds -9 1017 85 10000 2 140 21:45 19.10.2019
5874 Clouds -9 1017 85 10000 2 140 21:22 19.10.2019
5875 Clouds -10 1017 85 10000 1 0 20:45 19.10.2019
5876 Clouds -10 1017 85 10000 1 0 20:22 19.10.2019
5877 Clouds -6 1017 79 10000 1 0 19:59 19.10.2019
5878 Clouds -6 1017 79 10000 1 0 19:39 19.10.2019
5879 Clouds -6 1017 79 10000 1 0 19:21 19.10.2019
5880 Clouds -4 1017 85 10000 3 310 18:42 19.10.2019
5881 Clouds -4 1017 85 10000 3 310 18:24 19.10.2019
5882 Clouds -5 1016 85 10000 4 310 17:55 19.10.2019
5883 Clouds -4 1016 79 10000 2.47 311.168 17:36 19.10.2019
5884 Clouds -4 1016 79 10000 2.47 311.168 17:36 19.10.2019
5885 Clouds -4 1016 79 10000 2.47 311.168 17:18 19.10.2019
5886 Clouds -3 1016 86 10000 4 300 16:39 19.10.2019
5887 Clouds -3 1016 86 10000 4 300 16:20 19.10.2019
5888 Clouds -2 1016 79 10000 6 310 15:44 19.10.2019
5889 Clouds -2 1015 86 10000 6 310 15:26 19.10.2019
5890 Clouds -2 1015 79 10000 6 320 14:56 19.10.2019
5891 Snow -1 1015 80 10000 5 330 14:38 19.10.2019
5892 Snow -1 1015 80 10000 5 330 14:19 19.10.2019
5893 Snow -1 1014 80 10000 7 340 13:54 19.10.2019
5894 Snow -1 1013 80 10000 7 330 13:36 19.10.2019
5895 Snow -1 1013 80 10000 7 330 13:36 19.10.2019
5896 Snow -1 1013 80 10000 7 330 13:18 19.10.2019
5897 Clouds -1 1012 80 10000 8 310 12:39 19.10.2019
5898 Clouds -1 1012 80 10000 8 310 12:21 19.10.2019
5899 Clouds -1 1012 80 10000 8 320 11:56 19.10.2019
5900 Clouds -1 1012 80 10000 8 320 11:56 19.10.2019
5901 Clouds -1 1012 80 10000 8 320 11:36 19.10.2019
5902 Clouds -1 1011 80 10000 10 320 11:18 19.10.2019
5903 Clouds -1 1010 86 10000 7 310 10:40 19.10.2019
5904 Clouds -1 1010 86 10000 7 310 10:22 19.10.2019
5905 Snow -1 1009 86 2000 9 310 09:57 19.10.2019
5906 Snow -1 1008 92 2000 8 310 09:39 19.10.2019
5907 Snow 0 1007 92 6000 7 320 09:20 19.10.2019
5908 Snow 0 1007 89 10000 5 330 08:41 19.10.2019
5909 Snow 0 1006 89 10000 5 350 08:21 19.10.2019
5910 Snow 0 1006 89 8000 6 330 07:46 19.10.2019
5911 Snow 0 1006 89 8000 6 330 07:26 19.10.2019
5912 Snow 4 1005 89 8000 6 340 06:49 19.10.2019
5913 Snow 4 1005 89 8000 6 340 06:30 19.10.2019
5914 Clouds 8 1003 36 10000 6 150 05:35 19.10.2019
5915 Clouds 8 1003 42 10000 5 110 04:26 19.10.2019
5916 Clouds 8 1004 31 10000 3 80 02:56 19.10.2019
5917 Clouds 7 1004 33 10000 8 140 01:56 19.10.2019
5918 Clouds 7 1004 30 10000 8 140 01:37 19.10.2019
5919 Clouds 4 1005 38 10000 1 0 00:49 19.10.2019
5920 Clouds 3 1005 40 10000 1 0 00:28 19.10.2019
5921 Clouds 4 1005 38 10000 2 0 23:56 18.10.2019
5922 Clouds 2 1006 43 10000 1 0 23:37 18.10.2019
5923 Clouds 2 1006 43 10000 1 0 23:19 18.10.2019
5924 Clear 4 1006 38 10000 1 0 22:44 18.10.2019
5925 Clear 3 1007 40 10000 1 0 22:21 18.10.2019
5926 Clear 4 1008 35 10000 3.19 127.207 21:59 18.10.2019
5927 Clear 4 1008 35 10000 3.19 127.207 21:39 18.10.2019
5928 Clear 4 1008 35 10000 2.65 124.122 21:21 18.10.2019
5929 Clear 5 1009 35 10000 1 0 20:59 18.10.2019
5930 Clear 5 1009 35 10000 1 0 20:41 18.10.2019
5931 Clear 5 1009 35 10000 1 0 20:22 18.10.2019
5932 Clouds 4 1009 38 10000 1 0 19:58 18.10.2019
5933 Clouds 4 1009 38 10000 1 0 19:40 18.10.2019
5934 Clouds 4 1009 38 10000 1 0 19:40 18.10.2019
5935 Clouds 4 1009 38 10000 1 0 19:21 18.10.2019
5936 Clouds 3 1010 37 10000 1 0 18:58 18.10.2019
5937 Clouds 3 1010 37 10000 1 0 18:39 18.10.2019
5938 Clouds 3 1010 37 10000 1 0 18:21 18.10.2019
5939 Clouds 4 1011 32 10000 1 0 17:40 18.10.2019
5940 Clouds 4 1011 32 10000 1 0 17:21 18.10.2019
5941 Clear 7 1011 28 10000 1 0 16:59 18.10.2019
5942 Clear 7 1011 26 10000 1 0 16:38 18.10.2019
5943 Clear 7 1011 26 10000 1 0 16:20 18.10.2019
5944 Clear 8 1011 24 10000 4 130 15:55 18.10.2019
5945 Clear 8 1011 24 10000 6 140 15:36 18.10.2019
5946 Clear 8 1011 24 10000 6 140 15:18 18.10.2019
5947 Clear 9 1011 24 10000 6 140 14:56 18.10.2019
5948 Clear 9 1011 23 10000 6 140 14:38 18.10.2019
5949 Clear 9 1011 23 10000 6 140 14:18 18.10.2019
5950 Clouds 9 1011 23 10000 6 140 13:42 18.10.2019
5951 Clouds 9 1011 23 10000 6 140 13:23 18.10.2019
5952 Clouds 9 1011 23 10000 6 140 12:58 18.10.2019
5953 Clouds 9 1011 23 10000 4 140 12:39 18.10.2019
5954 Clouds 9 1011 23 10000 4 140 12:21 18.10.2019
5955 Clear 12 1011 18 10000 4 150 11:57 18.10.2019
5956 Clear 14 1011 16 10000 5 170 11:39 18.10.2019
5957 Clear 14 1011 16 10000 5 170 11:20 18.10.2019
5958 Clear 15 1011 14 10000 6 170 10:56 18.10.2019
5959 Clouds 15 1011 14 10000 6 160 10:38 18.10.2019
5960 Clouds 15 1011 14 10000 6 160 10:19 18.10.2019
5961 Clouds 15 1011 14 10000 6 180 09:55 18.10.2019
5962 Clouds 15 1011 14 10000 6 180 09:55 18.10.2019
5963 Clouds 15 1011 14 10000 6 180 09:54 18.10.2019
5964 Clouds 15 1011 14 10000 6 180 09:54 18.10.2019
5965 Clouds 15 1011 14 10000 6 190 09:36 18.10.2019
5966 Clouds 15 1011 14 10000 6 190 09:18 18.10.2019
5967 Clouds 15 1011 13 10000 7 170 08:42 18.10.2019
5968 Clouds 15 1011 13 10000 7 170 08:21 18.10.2019
5969 Clouds 15 1011 13 10000 7 170 08:21 18.10.2019
5970 Clouds 14 1012 14 10000 7 150 07:43 18.10.2019
5971 Clouds 14 1012 14 10000 7 150 07:25 18.10.2019
5972 Clouds 12 1013 17 10000 5 150 06:40 18.10.2019
5973 Clouds 12 1013 17 10000 5 150 06:22 18.10.2019
5974 Clouds 11 1013 18 10000 3 180 05:56 18.10.2019
5975 Clouds 8 1013 22 10000 2 0 05:23 18.10.2019
5976 Clouds 5 1013 27 10000 1 0 04:47 18.10.2019
5977 Clouds -2 1013 50 10000 1 0 03:33 18.10.2019
5978 Clear -7 1013 62 10000 1 0 02:34 18.10.2019
5979 Clear -7 1013 62 10000 2.38 135.75 01:46 18.10.2019
5980 Clear -8 1013 67 10000 1 0 01:28 18.10.2019
5981 Clear -8 1013 67 10000 1 0 01:28 18.10.2019
5982 Clear -9 1013 66 10000 2.29 136.187 00:45 18.10.2019
5983 Clear -8 1014 67 10000 2.08 132.036 00:21 18.10.2019
5984 Clear -10 1014 72 10000 1 0 23:57 17.10.2019
5985 Clear -10 1014 72 10000 2.08 132.036 23:36 17.10.2019
5986 Clear -10 1014 72 10000 2.08 132.036 23:18 17.10.2019
5987 Clear -10 1014 66 10000 2.08 132.036 22:55 17.10.2019
5988 Clear -6 1014 62 10000 2.08 132.036 22:37 17.10.2019
5989 Clear -6 1014 62 10000 2.08 132.036 22:18 17.10.2019
5990 Clear -9 1014 66 10000 2.08 132.036 21:55 17.10.2019
5991 Clear -7 1014 62 10000 2.08 132.036 21:37 17.10.2019
5992 Clear -7 1014 62 10000 1.92 135.803 21:19 17.10.2019
5993 -273 0 0 0 0 0 20:56 17.10.2019
5994 Clear -8 1014 61 10000 1 0 20:37 17.10.2019
5995 Clear -8 1014 61 10000 1 0 20:18 17.10.2019
5996 Clear -7 1015 57 10000 1.84 132.577 19:42 17.10.2019
5997 Clear -7 1015 57 10000 1.84 132.577 19:20 17.10.2019
5998 Clear -5 1015 53 10000 1.84 132.577 18:59 17.10.2019
5999 Clear -6 1015 57 10000 1.84 132.577 18:39 17.10.2019
6000 Clear -6 1015 57 10000 1.92 137.032 18:20 17.10.2019
6001 Clouds -7 1016 57 10000 1.892 101 17:44 17.10.2019
6002 Clouds -7 1016 57 10000 1.892 101 17:25 17.10.2019
6003 Clouds -4 1016 49 10000 1 0 16:59 17.10.2019
6004 Clouds -2 1016 42 10000 1 0 16:41 17.10.2019
6005 Clouds -2 1016 42 10000 1 0 16:19 17.10.2019
6006 Clouds 0 1016 38 10000 1.892 101 15:57 17.10.2019
6007 Clouds 3 1016 27 10000 1 0 15:38 17.10.2019
6008 Clouds 3 1016 27 10000 1 0 15:38 17.10.2019
6009 Clear 3 1016 27 10000 1 0 15:20 17.10.2019
6010 Clear 3 1015 25 10000 1 0 14:57 17.10.2019
6011 Clear 2 1015 27 10000 3 160 14:38 17.10.2019
6012 Clear 2 1015 27 10000 3 160 14:20 17.10.2019
6013 Clear 4 1015 23 10000 3 150 13:40 17.10.2019
6014 Clear 4 1015 23 10000 3 150 13:20 17.10.2019
6015 Clear 4 1015 23 10000 3 170 12:58 17.10.2019
6016 Clear 5 1015 21 10000 4 170 12:38 17.10.2019
6017 Clear 5 1015 21 10000 4 170 12:19 17.10.2019
6018 -273 0 0 0 0 0 11:55 17.10.2019
6019 Clear 5 1015 21 10000 4 170 11:55 17.10.2019
6020 Clear 11 1014 13 10000 4 200 11:37 17.10.2019
6021 Clear 11 1014 13 10000 4 200 11:18 17.10.2019
6022 Clear 12 1014 13 10000 5 210 10:41 17.10.2019
6023 -273 0 0 0 0 0 10:19 17.10.2019
6024 Clear 12 1015 13 10000 5 190 09:56 17.10.2019
6025 -273 0 0 0 0 0 09:56 17.10.2019
6026 Clear 12 1015 14 10000 5 200 09:38 17.10.2019
6027 Clear 12 1015 14 10000 5 200 09:19 17.10.2019
6028 Clear 12 1015 14 10000 6 180 08:49 17.10.2019
6029 Clear 11 1015 15 10000 5 150 08:27 17.10.2019
6030 Clear 11 1015 13 10000 6 150 07:59 17.10.2019
6031 Clear 10 1016 13 10000 6 150 07:41 17.10.2019
6032 Clear 10 1016 13 10000 6 150 07:21 17.10.2019
6033 Clear 10 1017 12 10000 5 150 06:51 17.10.2019
6034 Clear 9 1017 11 10000 5 170 06:31 17.10.2019
6035 Clear 7 1017 13 10000 1 0 05:59 17.10.2019
6036 Clear 6 1017 15 10000 1 0 05:37 17.10.2019
6037 Clear 6 1017 15 10000 1 0 05:19 17.10.2019
6038 Clear 4 1017 18 10000 2.386 121 04:45 17.10.2019
6039 Clear 1 1018 22 10000 1 0 03:45 17.10.2019
6040 Clear -9 1018 43 10000 2 0 01:57 17.10.2019
6041 Clear -5 1018 35 10000 1 0 00:42 17.10.2019
6042 Clear -5 1018 35 10000 1 0 00:21 17.10.2019
6043 Clear -5 1018 32 10000 1 0 23:58 16.10.2019
6044 Clear -3 1018 30 10000 1 0 23:39 16.10.2019
6045 Clear -3 1018 30 10000 1 0 23:18 16.10.2019
6046 Clear -4 1018 32 10000 1 0 22:54 16.10.2019
6047 Clear -2 1018 28 10000 1 0 22:36 16.10.2019
6048 Clear -2 1018 28 10000 1 0 22:18 16.10.2019
6049 Clear -1 1018 26 10000 1 0 21:54 16.10.2019
6050 Clear -1 1018 26 10000 1 0 21:54 16.10.2019
6051 Clear -1 1018 26 10000 1 0 21:54 16.10.2019
6052 -273 0 0 0 0 0 21:54 16.10.2019
6053 Clear -2 1019 28 10000 1 0 21:36 16.10.2019
6054 Clouds -2 1019 28 10000 1 0 21:18 16.10.2019
6055 Clouds 2 1019 16 10000 1 0 20:54 16.10.2019
6056 Clouds 2 1019 16 10000 2 0 20:36 16.10.2019
6057 Clouds 2 1019 16 10000 2 0 20:18 16.10.2019
6058 Clouds 2 1019 14 10000 1 0 19:40 16.10.2019
6059 Clouds 2 1019 14 10000 1 0 19:21 16.10.2019
6060 Clouds 4 1019 12 10000 4 160 18:57 16.10.2019
6061 Clouds 4 1019 12 10000 4 160 18:56 16.10.2019
6062 Clouds 4 1019 12 10000 4 160 18:56 16.10.2019
6063 Clouds 5 1019 12 10000 7 150 18:37 16.10.2019
6064 Clouds 5 1019 12 10000 7 150 18:18 16.10.2019
6065 -273 0 0 0 0 0 17:55 16.10.2019
6066 Clouds 6 1020 12 10000 6 160 17:36 16.10.2019
6067 Clouds 6 1020 12 10000 6 160 17:18 16.10.2019
6068 Clouds 6 1020 12 10000 6 150 16:43 16.10.2019
6069 Clouds 6 1020 13 10000 6 150 16:23 16.10.2019
6070 Clouds 7 1020 12 10000 6 150 15:59 16.10.2019
6071 Clouds 5 1020 15 10000 5 140 15:39 16.10.2019
6072 Clouds 5 1020 15 10000 5 140 15:39 16.10.2019
6073 Clouds 5 1020 15 10000 5 140 15:19 16.10.2019
6074 Clouds 5 1020 15 10000 5 140 14:58 16.10.2019
6075 Clouds 5 1020 15 10000 5 140 14:39 16.10.2019
6076 Clouds 5 1020 17 10000 6 140 14:20 16.10.2019
6077 Clouds 5 1020 17 10000 5 140 13:57 16.10.2019
6078 Clouds 5 1020 17 10000 5 140 13:39 16.10.2019
6079 Clouds 5 1020 17 10000 5 140 13:21 16.10.2019
6080 Clouds 5 1020 17 10000 4 130 12:42 16.10.2019
6081 Clouds 7 1020 13 10000 5 160 12:20 16.10.2019
6082 -273 0 0 0 0 0 11:55 16.10.2019
6083 Clouds 10 1020 11 10000 6 180 11:36 16.10.2019
6084 Clouds 10 1020 11 10000 6 180 11:18 16.10.2019
6085 Clouds 11 1020 10 10000 5 150 10:36 16.10.2019
6086 Clouds 11 1020 10 10000 5 150 10:18 16.10.2019
6087 Clouds 11 1021 10 10000 4 160 09:40 16.10.2019
6088 Clouds 10 1021 12 10000 5 180 09:22 16.10.2019
6089 Clear 12 1021 9 10000 5 170 08:56 16.10.2019
6090 Clear 12 1021 9 10000 5 170 08:56 16.10.2019
6091 Clear 12 1021 9 10000 5 170 08:38 16.10.2019
6092 Clear 12 1021 8 10000 6 170 08:19 16.10.2019
6093 Clear 11 1022 10 10000 6 160 07:41 16.10.2019
6094 Clear 11 1022 11 10000 5 170 07:23 16.10.2019
6095 Clear 10 1023 11 10000 4 170 06:48 16.10.2019
6096 Clear 7 1023 17 10000 1 0 06:29 16.10.2019
6097 Clear -3 1025 42 8000 2.288 130 04:31 16.10.2019
6098 Clear -8 1025 57 10000 1.915 104 02:51 16.10.2019
6099 Clear -11 1025 61 10000 1.917 104 01:20 16.10.2019
6100 Clear -14 1025 71 10000 1.917 104 00:59 16.10.2019
6101 Clear -14 1025 71 10000 1.917 104 00:40 16.10.2019
6102 Clear -13 1025 65 10000 1 0 23:58 15.10.2019
6103 Clear -13 1025 65 10000 1 0 23:38 15.10.2019
6104 Clear -13 1025 65 10000 1 0 23:19 15.10.2019
6105 -273 0 0 0 0 0 22:55 15.10.2019
6106 -273 0 0 0 0 0 22:55 15.10.2019
6107 Clear -12 1026 66 10000 1.744 100 22:37 15.10.2019
6108 Clear -13 1026 65 10000 1.744 100 22:18 15.10.2019
6109 Clear -12 1026 66 10000 1 0 21:54 15.10.2019
6110 Clear -13 1026 71 10000 1 0 21:36 15.10.2019
6111 Clear -13 1026 71 10000 1 0 21:18 15.10.2019
6112 Clear -11 1027 61 10000 1.628 100 20:54 15.10.2019
6113 Clear -11 1027 61 10000 1.628 100 20:54 15.10.2019
6114 Clear -11 1027 61 10000 1.628 100 20:54 15.10.2019
6115 Clear -11 1027 61 10000 1.628 100 20:36 15.10.2019
6116 Clear -11 1027 61 10000 1.628 100 20:18 15.10.2019
6117 Clear -10 1027 56 10000 1.628 100 19:41 15.10.2019
6118 Clear -10 1027 56 10000 1.628 100 19:41 15.10.2019
6119 Clear -10 1027 56 10000 1.628 100 19:20 15.10.2019
6120 Clear -10 1027 56 10000 1.628 100 19:20 15.10.2019
6121 Clear -7 1027 52 10000 1.628 100 18:57 15.10.2019
6122 Clear -7 1027 52 10000 1.628 100 18:39 15.10.2019
6123 Clear -9 1027 52 10000 1 0 18:20 15.10.2019
6124 Clear -9 1027 52 10000 1.427 113 17:43 15.10.2019
6125 Clear -8 1027 48 10000 1 0 17:21 15.10.2019
6126 Clear -5 1027 41 10000 1.427 113 16:59 15.10.2019
6127 Clear -5 1027 41 10000 1.427 113 16:41 15.10.2019
6128 Clear -8 1027 48 10000 1.427 113 16:21 15.10.2019
6129 Clear -7 1027 44 10000 3 160 15:55 15.10.2019
6130 Clear -7 1027 44 10000 3 160 15:37 15.10.2019
6131 Clear -6 1027 41 10000 1.054 93 15:19 15.10.2019
6132 Clear -2 1027 33 10000 1 0 14:54 15.10.2019
6133 Clear 0 1027 33 10000 1 0 14:36 15.10.2019
6134 Clear 0 1027 33 10000 1 0 14:18 15.10.2019
6135 Clear -1 1027 30 10000 3 160 13:43 15.10.2019
6136 Clear -2 1027 33 10000 3 160 13:20 15.10.2019
6137 Clear 0 1027 33 10000 3 160 12:44 15.10.2019
6138 Clear 4 1026 21 10000 2 170 12:23 15.10.2019
6139 Clear 9 1026 15 10000 2 220 11:59 15.10.2019
6140 Clear 10 1027 13 10000 3 250 11:40 15.10.2019
6141 Clear 10 1027 13 10000 3 250 11:20 15.10.2019
6142 Clear 11 1027 12 10000 3 230 10:46 15.10.2019
6143 Clear 11 1027 12 10000 4 240 10:24 15.10.2019
6144 Clear 11 1027 12 10000 4 240 09:59 15.10.2019
6145 Clear 10 1027 13 10000 4 240 09:40 15.10.2019
6146 Clear 10 1027 13 10000 4 240 09:21 15.10.2019
6147 Clear 10 1027 13 10000 4 240 08:57 15.10.2019
6148 Clear 10 1027 14 10000 3 250 08:39 15.10.2019
6149 Clear 9 1028 16 10000 1 0 08:18 15.10.2019
6150 Clear 9 1028 18 10000 1 0 07:43 15.10.2019
6151 Clear 7 1029 20 10000 1 0 07:22 15.10.2019
6152 Clear 6 1029 22 10000 1 0 06:55 15.10.2019
6153 Clear 6 1029 22 10000 1 0 06:37 15.10.2019
6154 Clear 2 1030 29 8000 1 0 05:56 15.10.2019
6155 Clear 0 1030 26 8000 1 0 05:36 15.10.2019
6156 Clear -1 1031 39 8000 1 0 04:48 15.10.2019
6157 Clear -5 1031 53 8000 2.11 155.016 03:59 15.10.2019
6158 Clear -6 1031 57 10000 2.11 155.016 03:34 15.10.2019
6159 Clear -6 1031 57 10000 2.11 155.016 03:34 15.10.2019
6160 Clear -15 1031 77 10000 1 0 01:51 15.10.2019
6161 Clear -14 1031 71 10000 1.63 149.459 01:26 15.10.2019
6162 Clear -14 1031 71 10000 1.63 149.459 00:59 15.10.2019
6163 Clear -14 1031 77 10000 1.63 149.459 00:24 15.10.2019
6164 Clear -13 1031 71 10000 1 0 23:57 14.10.2019
6165 Clear -15 1031 77 10000 1 0 23:37 14.10.2019
6166 Clear -15 1031 77 10000 1 0 23:18 14.10.2019
6167 Clear -13 1031 71 10000 1.99 160.118 22:39 14.10.2019
6168 Clear -14 1031 71 10000 1 0 22:20 14.10.2019
6169 Clear -13 1032 71 10000 1 0 21:57 14.10.2019
6170 Clear -13 1032 71 10000 1 0 21:39 14.10.2019
6171 Clear -13 1032 71 10000 1 0 21:20 14.10.2019
6172 Clear -11 1032 66 10000 1 0 20:57 14.10.2019
6173 Clear -11 1032 66 10000 1 0 20:38 14.10.2019
6174 Clear -11 1032 66 10000 1 0 20:19 14.10.2019
6175 Clear -13 1032 65 10000 1 0 19:43 14.10.2019
6176 Clear -13 1032 65 10000 1 0 19:25 14.10.2019
6177 -273 0 0 0 0 0 18:59 14.10.2019
6178 Clear -10 1033 61 10000 1.54 148.537 18:40 14.10.2019
6179 Clear -10 1033 61 10000 1.54 148.537 18:40 14.10.2019
6180 Clear -10 1033 61 10000 1.88 157.593 18:20 14.10.2019
6181 Clear -9 1033 61 10000 1 0 17:58 14.10.2019
6182 Clear -10 1033 61 10000 1 0 17:40 14.10.2019
6183 Clear -10 1033 61 10000 1 0 17:22 14.10.2019
6184 Clear -9 1033 56 10000 1 0 16:44 14.10.2019
6185 Clear -6 1033 48 10000 1 0 16:22 14.10.2019
6186 Clear -4 1033 45 10000 1.88 157.593 15:57 14.10.2019
6187 Clear -3 1033 38 10000 1 0 15:38 14.10.2019
6188 Clear -3 1033 38 10000 1 0 15:20 14.10.2019
6189 Clear -5 1033 45 10000 3 190 14:43 14.10.2019
6190 Clear -4 1033 41 10000 4 160 14:24 14.10.2019
6191 Clear -3 1032 38 10000 4 160 13:57 14.10.2019
6192 Clear -3 1032 42 10000 4 170 13:38 14.10.2019
6193 Clear -3 1032 42 10000 4 170 13:19 14.10.2019
6194 Clear 3 1032 25 10000 2 210 12:41 14.10.2019
6195 Clear 3 1032 25 10000 2 210 12:19 14.10.2019
6196 Clear 7 1032 20 10000 3 240 11:47 14.10.2019
6197 Clear 8 1033 17 10000 3 230 11:27 14.10.2019
6198 Clear 8 1033 17 10000 3 240 10:59 14.10.2019
6199 Clear 8 1033 16 10000 3 260 10:40 14.10.2019
6200 Clear 8 1033 16 10000 3 260 10:21 14.10.2019
6201 Clear 8 1033 16 10000 3 230 09:56 14.10.2019
6202 Clear 8 1033 15 10000 3 240 09:37 14.10.2019
6203 Clear 8 1033 15 10000 3 240 09:19 14.10.2019
6204 Clear 7 1034 17 10000 3 240 08:45 14.10.2019
6205 Clear 7 1034 17 10000 3 240 08:22 14.10.2019
6206 Clear 6 1034 17 10000 3 240 07:43 14.10.2019
6207 Clear 6 1034 17 10000 3 240 07:19 14.10.2019
6208 Clear 3 1035 25 10000 1 0 06:53 14.10.2019
6209 -273 0 0 0 0 0 06:26 14.10.2019
6210 Clear 1 1035 29 10000 1 0 05:49 14.10.2019
6211 Clear -3 1036 42 10000 1 0 04:48 14.10.2019
6212 Clear -7 1036 57 10000 2.31 170.186 03:28 14.10.2019
6213 Clear -11 1036 78 10000 1 0 02:49 14.10.2019
6214 Clear -16 1036 77 10000 1 0 01:24 14.10.2019
6215 Clear -16 1036 77 10000 1 0 00:59 14.10.2019
6216 Clear -15 1036 71 10000 1.66 165.972 00:21 14.10.2019
6217 Clear -15 1036 71 10000 1.66 165.972 00:21 14.10.2019
6218 Clear -14 1036 77 10000 1.66 165.972 23:45 13.10.2019
6219 Clear -14 1036 71 10000 1 0 23:21 13.10.2019
6220 Clear -15 1036 77 10000 1.66 165.972 22:58 13.10.2019
6221 Clear -15 1036 77 10000 1.66 165.972 22:58 13.10.2019
6222 Clear -13 1036 71 10000 1 0 22:40 13.10.2019
6223 Clear -13 1036 71 10000 1 0 22:21 13.10.2019
6224 Clear -13 1036 71 10000 1 0 22:21 13.10.2019
6225 Clear -13 1036 71 10000 1 0 21:58 13.10.2019
6226 Clear -13 1036 71 10000 1 0 21:38 13.10.2019
6227 Clear -13 1036 71 10000 1 0 21:19 13.10.2019
6228 Clear -14 1036 77 10000 1 0 20:58 13.10.2019
6229 Clear -14 1036 77 10000 1 0 20:39 13.10.2019
6230 Clear -14 1036 77 10000 1 0 20:21 13.10.2019
6231 Clear -12 1036 66 10000 2 160 19:58 13.10.2019
6232 Clear -12 1036 66 10000 2 160 19:39 13.10.2019
6233 Clear -12 1036 66 10000 2 160 19:21 13.10.2019
6234 -273 0 0 0 0 0 18:57 13.10.2019
6235 Clear -12 1036 66 10000 1 0 18:57 13.10.2019
6236 Clear -12 1036 66 10000 1 0 18:56 13.10.2019
6237 Clear -12 1036 66 10000 1 0 18:56 13.10.2019
6238 Clear -12 1036 66 10000 1 0 18:36 13.10.2019
6239 Clear -11 1036 61 10000 1 0 18:18 13.10.2019
6240 Clear -11 1036 61 10000 1 0 17:54 13.10.2019
6241 Clear -10 1036 61 10000 2 0 17:36 13.10.2019
6242 Clear -10 1036 61 10000 2 0 17:18 13.10.2019
6243 Clear -10 1036 61 10000 2 150 16:41 13.10.2019
6244 Clear -10 1036 61 10000 2 150 16:18 13.10.2019
6245 Clear -9 1035 56 10000 3 150 15:56 13.10.2019
6246 Clear -9 1035 56 10000 3 150 15:56 13.10.2019
6247 Clear -9 1035 56 10000 3 150 15:56 13.10.2019
6248 Clear -9 1035 56 10000 3 160 15:37 13.10.2019
6249 Clear -9 1035 56 10000 3 160 15:18 13.10.2019
6250 Clear -9 1035 56 10000 3 160 15:18 13.10.2019
6251 Clear -9 1035 56 10000 3 170 14:56 13.10.2019
6252 Clear -8 1035 57 10000 1 0 14:38 13.10.2019
6253 Clear -8 1035 57 10000 1 0 14:18 13.10.2019
6254 Clear -4 1034 41 10000 1 0 13:39 13.10.2019
6255 Clear -4 1034 41 10000 1 0 13:21 13.10.2019
6256 Clear 2 1034 29 10000 2 360 12:57 13.10.2019
6257 Clear 3 1034 27 10000 2 0 12:39 13.10.2019
6258 Clear 3 1034 27 10000 2 0 12:20 13.10.2019
6259 Clear 3 1033 25 10000 3 320 11:58 13.10.2019
6260 Clear 4 1033 25 10000 3 350 11:38 13.10.2019
6261 Clear 4 1033 25 10000 3 350 11:19 13.10.2019
6262 Clear 4 1033 25 10000 3 330 10:43 13.10.2019
6263 Clear 4 1033 25 10000 3 330 10:24 13.10.2019
6264 Clear 3 1033 27 10000 3 340 09:59 13.10.2019
6265 Clear 4 1033 25 10000 4 330 09:39 13.10.2019
6266 Clear 4 1033 25 10000 4 330 09:20 13.10.2019
6267 Clear 3 1034 29 10000 3 350 08:43 13.10.2019
6268 Clear 3 1034 29 10000 3 350 08:43 13.10.2019
6269 Clear 2 1034 29 10000 3 320 08:23 13.10.2019
6270 Clear 2 1034 29 10000 3 320 08:23 13.10.2019
6271 Clear 2 1034 29 10000 5 320 07:50 13.10.2019
6272 Clear 2 1034 29 10000 5 320 07:30 13.10.2019
6273 Clear 0 1035 28 10000 3 330 06:49 13.10.2019
6274 Clear -1 1035 46 10000 3 270 05:59 13.10.2019
6275 Clear -2 1035 46 10000 1.92 313.816 04:59 13.10.2019
6276 Clear -5 1036 57 10000 1 0 04:33 13.10.2019
6277 Clear -10 1035 78 10000 1 0 02:48 13.10.2019
6278 Clear -14 1035 77 10000 2 170 02:25 13.10.2019
6279 Clear -16 1034 84 10000 2 0 01:34 13.10.2019
6280 Clear -16 1034 84 10000 2 0 01:34 13.10.2019
6281 Clear -14 1034 71 10000 2 130 00:52 13.10.2019
6282 Clear -15 1034 84 10000 1 0 00:22 13.10.2019
6283 Clear -15 1034 77 10000 1 0 23:59 12.10.2019
6284 Clear -17 1034 84 10000 1 0 23:40 12.10.2019
6285 Clear -17 1034 84 10000 1 0 23:21 12.10.2019
6286 Clear -14 1034 71 10000 1 0 22:58 12.10.2019
6287 Clear -15 1033 84 10000 1 0 22:39 12.10.2019
6288 Clear -15 1033 84 10000 1 0 22:21 12.10.2019
6289 Clear -15 1033 84 10000 1 0 21:56 12.10.2019
6290 Clear -15 1033 84 10000 1 0 21:37 12.10.2019
6291 Clear -15 1033 84 10000 1 0 21:19 12.10.2019
6292 Clear -14 1033 77 10000 2 170 20:44 12.10.2019
6293 Clear -14 1033 77 10000 2 170 20:25 12.10.2019
6294 Clear -13 1033 78 10000 1 0 19:41 12.10.2019
6295 Clear -13 1033 78 10000 1 0 19:22 12.10.2019
6296 Clear -13 1032 65 10000 1 0 18:59 12.10.2019
6297 Clear -13 1032 65 10000 1 0 18:59 12.10.2019
6298 Clear -11 1032 72 10000 1.67 327.003 18:41 12.10.2019
6299 Clear -11 1032 72 10000 1.79 336.566 18:23 12.10.2019
6300 Clear -10 1032 66 10000 1 0 17:45 12.10.2019
6301 Clear -9 1032 61 10000 1 0 17:20 12.10.2019
6302 Clear -10 1032 61 10000 2 270 16:56 12.10.2019
6303 Clear -9 1031 61 10000 1 0 16:38 12.10.2019
6304 Clear -9 1031 61 10000 1 0 16:18 12.10.2019
6305 Clear -6 1031 53 10000 1 0 15:44 12.10.2019
6306 Clear -6 1031 53 10000 1 0 15:25 12.10.2019
6307 Clear -6 1031 53 10000 1 0 15:25 12.10.2019
6308 Clear -4 1030 45 10000 3 20 14:55 12.10.2019
6309 Clear -4 1030 45 10000 3 20 14:55 12.10.2019
6310 Clear -3 1030 42 10000 2 0 14:37 12.10.2019
6311 Clear -3 1030 42 10000 2 0 14:18 12.10.2019
6312 Clear -3 1030 38 10000 3 360 13:43 12.10.2019
6313 Clear -3 1030 38 10000 3 360 13:43 12.10.2019
6314 -273 0 0 0 0 0 13:25 12.10.2019
6315 Clear -1 1028 30 10000 5 350 12:40 12.10.2019
6316 Clear -1 1028 30 10000 5 350 12:40 12.10.2019
6317 Clear -1 1028 30 10000 5 350 12:22 12.10.2019
6318 Clouds 0 1028 31 10000 6 340 11:59 12.10.2019
6319 Clouds 1 1028 26 10000 6 350 11:40 12.10.2019
6320 Clouds 1 1028 26 10000 6 350 11:22 12.10.2019
6321 Clouds 1 1028 24 10000 6 340 10:56 12.10.2019
6322 Clouds 1 1028 24 10000 5 350 10:36 12.10.2019
6323 Clouds 1 1028 24 10000 5 350 10:18 12.10.2019
6324 Clouds 1 1028 24 10000 6 340 09:54 12.10.2019
6325 -273 0 0 0 0 0 09:54 12.10.2019
6326 Clouds 1 1027 24 10000 6 330 09:36 12.10.2019
6327 Clouds 1 1027 24 10000 6 330 09:18 12.10.2019
6328 Clouds 1 1027 24 10000 6 330 09:18 12.10.2019
6329 Clouds 1 1028 22 10000 6 330 08:41 12.10.2019
6330 Clouds 1 1028 22 10000 6 330 08:20 12.10.2019
6331 Clouds 1 1028 22 10000 6 330 08:20 12.10.2019
6332 Clear 1 1028 24 10000 4 320 07:35 12.10.2019
6333 Clear 0 1028 26 10000 2 0 06:59 12.10.2019
6334 Clear -2 1029 36 10000 2 0 05:49 12.10.2019
6335 Clear -2 1029 36 10000 2 0 05:24 12.10.2019
6336 Clear -3 1029 42 10000 3 30 04:26 12.10.2019
6337 Clear -6 1029 57 10000 1 0 03:41 12.10.2019
6338 Clear -14 1028 77 10000 1 0 01:56 12.10.2019
6339 Clear -15 1028 77 10000 1 0 01:29 12.10.2019
6340 Clear -13 1027 78 10000 1 0 00:43 12.10.2019
6341 Clear -13 1027 78 10000 1 0 00:19 12.10.2019
6342 Clear -11 1027 72 10000 2 170 23:40 11.10.2019
6343 Clear -11 1027 72 10000 2 170 23:20 11.10.2019
6344 Clouds -12 1026 72 10000 1 0 22:41 11.10.2019
6345 Clouds -12 1026 72 10000 1 0 22:22 11.10.2019
6346 Clouds -10 1026 66 10000 2 150 21:59 11.10.2019
6347 Clouds -12 1026 72 10000 2 0 21:40 11.10.2019
6348 Clouds -12 1026 72 10000 2 0 21:21 11.10.2019
6349 Clouds -12 1026 78 10000 3 170 20:45 11.10.2019
6350 Clouds -12 1026 78 10000 3 160 20:27 11.10.2019
6351 Clouds -9 1026 66 10000 1 0 19:59 11.10.2019
6352 Clouds -7 1026 57 10000 1 0 19:39 11.10.2019
6353 Clouds -7 1026 57 10000 1 0 19:18 11.10.2019
6354 Clouds -7 1026 57 10000 1 0 19:18 11.10.2019
6355 Clouds -7 1026 57 10000 1 0 19:18 11.10.2019
6356 Clouds -7 1026 57 10000 1 0 19:18 11.10.2019
6357 Clouds -7 1026 57 10000 1 0 18:59 11.10.2019
6358 Clouds -6 1026 57 10000 1.49 19.651 18:39 11.10.2019
6359 Clouds -6 1026 57 10000 1.78 12.574 18:19 11.10.2019
6360 Clouds -5 1026 53 10000 1 0 17:59 11.10.2019
6361 Clouds -6 1026 53 10000 1 0 17:38 11.10.2019
6362 Clouds -6 1026 53 10000 1 0 17:19 11.10.2019
6363 Clouds -6 1026 53 10000 1 0 17:19 11.10.2019
6364 Clouds -7 1026 57 10000 1 0 16:59 11.10.2019
6365 Clouds -8 1026 61 10000 1 0 16:39 11.10.2019
6366 Clouds -8 1026 61 10000 1 0 16:19 11.10.2019
6367 Clouds -8 1025 57 10000 1 0 15:55 11.10.2019
6368 Clouds -5 1025 53 10000 1 0 15:36 11.10.2019
6369 Clouds -5 1025 53 10000 1 0 15:18 11.10.2019
6370 Clouds -4 1025 45 10000 3 340 14:41 11.10.2019
6371 Clouds -4 1025 45 10000 3 340 14:21 11.10.2019
6372 Clouds -3 1024 45 10000 2 330 13:45 11.10.2019
6373 Clouds -3 1024 42 10000 2 330 13:25 11.10.2019
6374 Clouds -3 1024 42 10000 3 330 12:57 11.10.2019
6375 Clouds -1 1024 36 10000 4 320 12:39 11.10.2019
6376 Clouds -1 1024 36 10000 4 320 12:20 11.10.2019
6377 Clouds -1 1023 36 10000 4 300 11:58 11.10.2019
6378 Clouds -1 1023 36 10000 4 300 11:38 11.10.2019
6379 Clouds -1 1023 36 10000 4 300 11:20 11.10.2019
6380 Clouds 0 1023 35 10000 4 300 10:55 11.10.2019
6381 Clouds 0 1023 35 10000 4 300 10:55 11.10.2019
6382 Clouds 0 1023 35 10000 4 310 10:36 11.10.2019
6383 Clouds 0 1023 35 10000 4 310 10:18 11.10.2019
6384 Clouds 0 1023 35 10000 1 0 09:42 11.10.2019
6385 Clouds 0 1023 34 10000 1 0 09:21 11.10.2019
6386 Clouds 0 1024 34 10000 1 0 08:57 11.10.2019
6387 Clouds 0 1024 34 10000 2 0 08:38 11.10.2019
6388 Clouds 0 1024 34 10000 2 0 08:20 11.10.2019
6389 Clouds 0 1024 34 10000 1 0 07:52 11.10.2019
6390 Clouds -1 1025 33 10000 2 0 07:33 11.10.2019
6391 Clouds -2 1025 36 10000 2 0 06:50 11.10.2019
6392 Clouds -2 1025 36 10000 2 0 06:25 11.10.2019
6393 Clouds -2 1025 36 10000 2 0 05:47 11.10.2019
6394 Clouds -2 1025 36 10000 1 0 05:29 11.10.2019
6395 Clouds -3 1025 38 10000 1 0 04:58 11.10.2019
6396 Clouds -5 1025 53 10000 2 0 03:27 11.10.2019
6397 Clouds -6 1024 67 10000 1 0 01:18 11.10.2019
6398 Clouds -6 1024 67 10000 1 0 01:18 11.10.2019
6399 Clouds -7 1024 73 10000 2 290 00:31 11.10.2019
6400 Clouds -7 1023 73 10000 1 0 23:58 10.10.2019
6401 Clouds -7 1023 73 10000 2 310 23:40 10.10.2019
6402 Clouds -7 1023 73 10000 2 310 23:19 10.10.2019
6403 Clouds -7 1023 73 10000 2 290 22:55 10.10.2019
6404 Clouds -7 1023 73 10000 1 0 22:36 10.10.2019
6405 Clouds -7 1023 73 10000 1 0 22:18 10.10.2019
6406 Clouds -8 1023 78 10000 2.38 25.725 21:42 10.10.2019
6407 Clouds -8 1023 78 10000 3.72 23.526 21:22 10.10.2019
6408 Clouds -6 1023 73 10000 2 0 20:58 10.10.2019
6409 Clouds -6 1023 73 10000 2 0 20:39 10.10.2019
6410 Clouds -6 1023 73 10000 2 0 20:19 10.10.2019
6411 Clouds -6 1023 79 10000 2 300 19:56 10.10.2019
6412 Clouds -6 1023 79 10000 2 300 19:38 10.10.2019
6413 Clouds -6 1023 79 10000 2 300 19:19 10.10.2019
6414 Clear -5 1023 79 10000 1 0 18:42 10.10.2019
6415 Clear -5 1023 79 10000 1 0 18:21 10.10.2019
6416 Clear -4 1023 73 10000 3 330 17:58 10.10.2019
6417 Clear -6 1023 79 10000 1 0 17:39 10.10.2019
6418 Clear -6 1023 79 10000 1 0 17:18 10.10.2019
6419 Clear -6 1023 79 10000 1 0 17:18 10.10.2019
6420 Clear -5 1022 79 10000 3 320 16:55 10.10.2019
6421 Clear -5 1022 73 10000 2 330 16:37 10.10.2019
6422 Clear -5 1022 73 10000 2 330 16:18 10.10.2019
6423 Clear -4 1021 68 10000 4 310 15:39 10.10.2019
6424 Clear -4 1021 68 10000 4 310 15:21 10.10.2019
6425 Clear -3 1020 63 10000 4 330 14:56 10.10.2019
6426 Clouds -2 1020 58 10000 3 350 14:37 10.10.2019
6427 Clouds -2 1020 58 10000 3 350 14:19 10.10.2019
6428 Clouds -1 1020 50 10000 3 360 13:55 10.10.2019
6429 Clouds 0 1020 79 10000 3 20 13:37 10.10.2019
6430 Clouds 0 1020 78 10000 3 20 13:18 10.10.2019
6431 Clouds 1 1019 43 10000 6 350 12:41 10.10.2019
6432 Clouds 1 1019 43 10000 6 350 12:20 10.10.2019
6433 Clouds 3 1018 34 10000 6 340 11:58 10.10.2019
6434 -273 0 0 0 0 0 11:58 10.10.2019
6435 Clouds 3 1018 37 10000 4 330 11:39 10.10.2019
6436 Clouds 3 1018 37 10000 4 330 11:19 10.10.2019
6437 Clouds 2 1018 37 10000 3 360 10:45 10.10.2019
6438 Clouds 2 1018 37 10000 3 360 10:27 10.10.2019
6439 Clouds 2 1018 37 10000 2 0 09:58 10.10.2019
6440 Clouds 3 1017 34 10000 1 0 09:39 10.10.2019
6441 Clouds 3 1017 34 10000 1 0 09:21 10.10.2019
6442 Clouds 2 1017 37 10000 1 0 08:58 10.10.2019
6443 Clouds 2 1018 37 10000 2 0 08:38 10.10.2019
6444 Clouds 2 1018 37 10000 2 0 08:19 10.10.2019
6445 Clouds 2 1018 37 10000 2 0 08:19 10.10.2019
6446 Clouds 2 1018 34 10000 1 0 07:45 10.10.2019
6447 Clouds 1 1018 40 10000 2 0 07:23 10.10.2019
6448 Clouds 1 1019 37 10000 2 0 06:49 10.10.2019
6449 Clouds 1 1019 37 10000 3 190 06:29 10.10.2019
6450 Clouds -1 1020 46 10000 1 0 05:28 10.10.2019
6451 Clouds -1 1020 46 10000 1 0 05:28 10.10.2019
6452 Clouds -1 1020 50 10000 1 0 04:54 10.10.2019
6453 Clouds -2 1020 54 10000 1 0 04:33 10.10.2019
6454 Clouds -4 1020 58 10000 1.34 117.444 01:46 10.10.2019
6455 Clouds -4 1020 58 10000 2 0 01:26 10.10.2019
6456 Clouds -4 1020 58 10000 1 0 00:54 10.10.2019
6457 Clouds -4 1020 58 10000 1 0 00:23 10.10.2019
6458 Clouds -3 1020 53 10000 1 0 23:40 09.10.2019
6459 Clouds -3 1020 53 10000 1 0 23:22 09.10.2019
6460 Clouds -3 1020 53 10000 3 10 22:56 09.10.2019
6461 Clouds -3 1020 53 10000 4 30 22:38 09.10.2019
6462 Clouds -3 1020 53 10000 4 30 22:20 09.10.2019
6463 Clouds -3 1021 53 10000 3 360 21:41 09.10.2019
6464 Clouds -3 1021 53 10000 3 360 21:21 09.10.2019
6465 Clouds -2 1021 50 10000 4 20 20:56 09.10.2019
6466 Clouds -2 1021 50 10000 4 20 20:38 09.10.2019
6467 Clouds -2 1021 50 10000 4 20 20:19 09.10.2019
6468 Clouds -2 1020 58 10000 7 20 19:58 09.10.2019
6469 Clouds -2 1020 58 10000 7 20 19:39 09.10.2019
6470 Clouds -2 1020 58 10000 7 20 19:20 09.10.2019
6471 Clouds -2 1020 68 10000 8 340 18:38 09.10.2019
6472 Clouds -2 1020 68 10000 8 340 18:38 09.10.2019
6473 Clouds -2 1020 68 10000 8 340 18:20 09.10.2019
6474 Clouds -1 1019 68 10000 6 350 17:57 09.10.2019
6475 Clouds -1 1019 68 10000 5 350 17:37 09.10.2019
6476 Clouds -1 1019 68 10000 5 350 17:19 09.10.2019
6477 Clouds 0 1019 76 10000 5 360 16:55 09.10.2019
6478 Clouds 0 1019 76 10000 6 340 16:36 09.10.2019
6479 Clouds 0 1019 76 10000 6 340 16:18 09.10.2019
6480 Clouds 0 1018 76 10000 4 340 15:55 09.10.2019
6481 Clouds 0 1018 76 10000 4 340 15:55 09.10.2019
6482 Clouds 0 1018 76 10000 5 330 15:36 09.10.2019
6483 Clouds 0 1018 71 10000 5 330 15:18 09.10.2019
6484 Clouds 1 1016 69 10000 5 350 14:42 09.10.2019
6485 Clouds 1 1016 69 10000 5 350 14:42 09.10.2019
6486 Clouds 1 1016 69 10000 5 350 14:18 09.10.2019
6487 Snow 1 1016 69 10000 7 350 13:55 09.10.2019
6488 Snow 1 1016 74 10000 5 10 13:36 09.10.2019
6489 Snow 1 1016 74 10000 5 10 13:36 09.10.2019
6490 Snow 1 1016 74 10000 5 10 13:18 09.10.2019
6491 Clouds 3 1014 55 10000 5 340 12:42 09.10.2019
6492 Clouds 3 1014 55 10000 5 340 12:22 09.10.2019
6493 Clouds 4 1013 51 10000 6 350 11:58 09.10.2019
6494 Clouds 5 1013 48 10000 8 350 11:39 09.10.2019
6495 Clouds 5 1013 48 10000 8 350 11:20 09.10.2019
6496 Clouds 7 1013 45 10000 5 20 10:55 09.10.2019
6497 Clouds 7 1012 45 10000 6 360 10:37 09.10.2019
6498 Clouds 7 1012 45 10000 6 360 10:18 09.10.2019
6499 Clouds 10 1011 39 10000 8 340 09:42 09.10.2019
6500 Clouds 10 1011 39 10000 8 340 09:19 09.10.2019
6501 Clouds 11 1011 40 10000 7 350 08:56 09.10.2019
6502 Clouds 10 1010 43 10000 6 10 08:37 09.10.2019
6503 Clouds 10 1010 43 10000 6 10 08:18 09.10.2019
6504 Clouds 12 1010 32 10000 6 350 07:42 09.10.2019
6505 Clouds 12 1010 32 10000 6 350 07:22 09.10.2019
6506 Clouds 13 1010 28 10000 6 330 06:52 09.10.2019
6507 Clouds 12 1010 27 10000 2 0 06:20 09.10.2019
6508 Clouds 12 1010 27 10000 2 0 06:20 09.10.2019
6509 Clear 12 1010 27 10000 3 10 05:46 09.10.2019
6510 Clear 7 1011 42 10000 1 0 04:27 09.10.2019
6511 Clear 1 1011 64 10000 1 0 02:54 09.10.2019
6512 Clear -5 1011 79 10000 3.54 280.222 01:44 09.10.2019
6513 Clear -3 1011 73 10000 3.79 284.908 01:21 09.10.2019
6514 Clear -3 1011 73 10000 3.79 284.908 01:21 09.10.2019
6515 Clear -5 1011 79 10000 1 0 00:57 09.10.2019
6516 Clear -4 1011 79 10000 1 0 00:39 09.10.2019
6517 Clear -4 1011 79 10000 1 0 00:20 09.10.2019
6518 Clear -5 1011 79 10000 2 160 23:40 08.10.2019
6519 Clear -5 1011 79 10000 2 160 23:19 08.10.2019
6520 Clear -2 1011 68 10000 1 0 22:58 08.10.2019
6521 Clear 3 1011 60 0 2.27 274.195 22:39 08.10.2019
6522 Clear 3 1011 60 0 2.27 274.195 22:20 08.10.2019
6523 Clear -2 1012 74 10000 2.27 274.195 21:57 08.10.2019
6524 Clear -2 1012 74 10000 2.27 274.195 21:39 08.10.2019
6525 Clear -2 1012 74 10000 2.27 274.195 21:39 08.10.2019
6526 Clear -2 1012 74 10000 2.08 216.484 21:19 08.10.2019
6527 Clear -1 1012 63 10000 1 0 20:56 08.10.2019
6528 Clear -1 1012 63 10000 1 0 20:38 08.10.2019
6529 Clear -1 1012 63 10000 1 0 20:20 08.10.2019
6530 Clear 1 1012 55 10000 1 0 19:58 08.10.2019
6531 Clear 0 1012 58 10000 1 0 19:39 08.10.2019
6532 Clear 0 1012 58 10000 1 0 19:20 08.10.2019
6533 Clear 2 1012 51 10000 1 0 18:54 08.10.2019
6534 Clear 3 1013 51 10000 4 170 18:36 08.10.2019
6535 Clear 3 1013 51 10000 4 170 18:18 08.10.2019
6536 Clear 1 1013 55 10000 2 0 17:40 08.10.2019
6537 Clear 1 1013 55 10000 2 0 17:40 08.10.2019
6538 Clear 1 1013 55 10000 2 0 17:20 08.10.2019
6539 Clear 2 1013 51 10000 1.4 231.027 16:58 08.10.2019
6540 Clear 2 1013 51 10000 1 0 16:38 08.10.2019
6541 Clear 2 1013 51 10000 1 0 16:20 08.10.2019
6542 Clear 6 1013 38 10000 1 0 15:41 08.10.2019
6543 Clear 6 1013 38 10000 1 0 15:41 08.10.2019
6544 Clear 6 1013 38 10000 1 0 15:21 08.10.2019
6545 Clear 7 1013 36 10000 2 0 14:58 08.10.2019
6546 Clear 5 1013 41 10000 3 190 14:39 08.10.2019
6547 Clear 5 1013 41 10000 3 190 14:20 08.10.2019
6548 Clear 6 1013 38 10000 2 0 13:56 08.10.2019
6549 Clear 10 1013 29 10000 2 240 13:38 08.10.2019
6550 Clear 10 1013 29 10000 2 240 13:18 08.10.2019
6551 Clear 15 1013 19 10000 5 270 12:42 08.10.2019
6552 Clear 15 1013 19 10000 5 270 12:22 08.10.2019
6553 Clear 16 1014 18 10000 6 270 11:59 08.10.2019
6554 Clear 16 1014 17 10000 5 260 11:40 08.10.2019
6555 Clear 16 1014 17 10000 5 260 11:22 08.10.2019
6556 Clear 16 1014 21 10000 6 250 10:55 08.10.2019
6557 Clear 16 1015 21 10000 6 240 10:36 08.10.2019
6558 Clear 16 1015 21 10000 6 240 10:18 08.10.2019
6559 Clear 15 1016 24 10000 5 230 09:41 08.10.2019
6560 Clear 15 1016 24 10000 5 230 09:41 08.10.2019
6561 Clear 15 1016 24 10000 5 230 09:23 08.10.2019
6562 Clear 15 1017 26 10000 6 230 08:57 08.10.2019
6563 Clear 14 1017 28 10000 5 210 08:39 08.10.2019
6564 Clear 14 1017 28 10000 5 210 08:21 08.10.2019
6565 Clear 12 1019 32 10000 4 220 07:41 08.10.2019
6566 Clear 12 1019 32 10000 4 220 07:20 08.10.2019
6567 Clear 12 1019 32 10000 4 220 07:20 08.10.2019
6568 Clear 11 1020 32 10000 5 240 06:47 08.10.2019
6569 Clear 11 1020 32 10000 4 230 06:23 08.10.2019
6570 Clear 10 1021 34 10000 4 230 05:44 08.10.2019
6571 Clear 10 1021 34 10000 4 230 05:44 08.10.2019
6572 Clear 7 1022 48 10000 1 0 05:21 08.10.2019
6573 Clear 0 1024 49 10000 4.13 195.963 03:32 08.10.2019
6574 Clear -2 1024 79 10000 2.62 155.545 02:46 08.10.2019
6575 Clear -6 1024 92 10000 2.62 155.545 02:26 08.10.2019
6576 Clear -6 1024 85 10000 2.62 155.545 01:42 08.10.2019
6577 Clear -5 1025 85 10000 2.57 157.003 00:57 08.10.2019
6578 Clear -7 1025 85 10000 1 0 00:36 08.10.2019
6579 Clear -7 1025 85 10000 1 0 00:18 08.10.2019
6580 Clear -7 1026 85 10000 1 0 23:38 07.10.2019
6581 Clear -7 1026 85 10000 1 0 23:19 07.10.2019
6582 Clear -5 1026 79 10000 1 0 22:55 07.10.2019
6583 Clear -5 1026 85 10000 2.27 154.462 22:37 07.10.2019
6584 Clear -5 1026 85 10000 2.27 154.462 22:19 07.10.2019
6585 Clear -5 1026 85 10000 2 140 21:54 07.10.2019
6586 Clear -6 1027 85 10000 2 180 21:36 07.10.2019
6587 Clear -6 1027 85 10000 2 180 21:36 07.10.2019
6588 Clear -6 1027 85 10000 2 180 21:18 07.10.2019
6589 Clear -4 1027 79 10000 1 0 20:56 07.10.2019
6590 Clear -4 1027 79 10000 1 0 20:38 07.10.2019
6591 Clear -4 1027 79 10000 1 0 20:18 07.10.2019
6592 Clear -3 1028 79 10000 1 0 19:42 07.10.2019
6593 Clear -3 1028 79 10000 1 0 19:42 07.10.2019
6594 Clear -3 1028 79 10000 1 0 19:21 07.10.2019
6595 Clear -1 1028 74 10000 1 0 19:00 07.10.2019
6596 Clear -3 1028 86 10000 2 0 18:41 07.10.2019
6597 Clear -3 1028 86 10000 2 0 18:19 07.10.2019
6598 Clear -3 1028 79 10000 2 0 17:56 07.10.2019
6599 Clear -3 1028 79 10000 2 170 17:38 07.10.2019
6600 Clear -3 1028 79 10000 2 170 17:18 07.10.2019
6601 Clear -2 1028 74 10000 1 0 16:44 07.10.2019
6602 Clear -2 1028 74 10000 1 0 16:25 07.10.2019
6603 Clear -1 1028 74 10000 1 0 15:57 07.10.2019
6604 Clear -2 1028 74 10000 2 170 15:38 07.10.2019
6605 Clear -2 1028 74 10000 2 170 15:20 07.10.2019
6606 Clear 1 1028 64 10000 2 0 14:41 07.10.2019
6607 Clear 1 1028 64 10000 2 0 14:23 07.10.2019
6608 Clear 5 1028 48 10000 2 30 13:45 07.10.2019
6609 Clear 6 1028 45 10000 3 30 13:21 07.10.2019
6610 Clear 6 1028 48 10000 5 350 12:58 07.10.2019
6611 Clouds 7 1027 45 10000 5 340 12:39 07.10.2019
6612 Clouds 7 1027 45 10000 5 340 12:20 07.10.2019
6613 Clouds 8 1027 39 10000 6 360 11:59 07.10.2019
6614 Clouds 8 1027 39 10000 7 350 11:39 07.10.2019
6615 Clouds 8 1027 39 10000 7 350 11:20 07.10.2019
6616 Clouds 10 1027 34 10000 6 340 10:43 07.10.2019
6617 Clouds 10 1027 34 10000 6 340 10:23 07.10.2019
6618 Clouds 8 1027 39 10000 6 350 09:57 07.10.2019
6619 Clouds 9 1027 34 10000 7 330 09:38 07.10.2019
6620 Clouds 9 1027 34 10000 7 330 09:38 07.10.2019
6621 Clouds 9 1027 34 10000 7 330 09:20 07.10.2019
6622 Clear 8 1027 31 10000 8 330 08:43 07.10.2019
6623 Clear 8 1027 31 10000 8 330 08:20 07.10.2019
6624 Clear 8 1027 31 10000 8 330 07:47 07.10.2019
6625 Clear 7 1027 30 10000 8 330 07:27 07.10.2019
6626 Clear 6 1027 33 10000 9 320 06:58 07.10.2019
6627 Clear 5 1027 32 10000 7 320 06:38 07.10.2019
6628 Clear 5 1027 32 10000 7 320 06:18 07.10.2019
6629 Clear 4 1028 29 10000 7 330 05:26 07.10.2019
6630 Clear 3 1027 37 10000 7 340 04:49 07.10.2019
6631 Clear 2 1027 47 10000 4 360 03:46 07.10.2019
6632 Clear 2 1027 47 10000 4 360 03:46 07.10.2019
6633 Clear 1 1027 50 10000 3 290 03:27 07.10.2019
6634 Clear 1 1026 55 10000 2 0 02:37 07.10.2019
6635 Clear 1 1026 55 10000 2 0 02:18 07.10.2019
6636 Clear 1 1026 55 10000 2 0 02:18 07.10.2019
6637 Clouds 0 1024 75 10000 1 0 01:23 07.10.2019
6638 Clouds 0 1024 75 10000 1 0 00:49 07.10.2019
6639 Clouds 1 1023 69 10000 1 0 00:23 07.10.2019
6640 Clouds 0 1023 76 10000 2 0 23:59 06.10.2019
6641 Clouds 3 1022 59 10000 2 0 23:40 06.10.2019
6642 Clouds 3 1022 59 10000 2 0 23:19 06.10.2019
6643 Clear 3 1022 59 10000 4 30 22:55 06.10.2019
6644 Clear 3 1022 59 10000 4 30 22:55 06.10.2019
6645 Clear 3 1022 64 10000 4 10 22:37 06.10.2019
6646 Clear 3 1022 64 10000 4 10 22:18 06.10.2019
6647 Clear 4 1021 60 10000 6 340 21:55 06.10.2019
6648 Clear 4 1021 60 10000 6 340 21:55 06.10.2019
6649 Clear 4 1021 60 10000 6 340 21:36 06.10.2019
6650 Clear 4 1021 60 10000 6 340 21:18 06.10.2019
6651 Clear 5 1020 56 10000 7 320 20:54 06.10.2019
6652 -273 0 0 0 0 0 20:54 06.10.2019
6653 Clear 5 1020 56 10000 7 320 20:36 06.10.2019
6654 Clear 5 1020 56 10000 7 320 20:18 06.10.2019
6655 Clear 5 1018 48 10000 5 310 19:54 06.10.2019
6656 Clear 5 1018 48 10000 5 310 19:36 06.10.2019
6657 Clear 5 1018 48 10000 5 310 19:18 06.10.2019
6658 Clear 3 1018 51 10000 1 0 18:54 06.10.2019
6659 Clear 3 1018 51 10000 1 0 18:54 06.10.2019
6660 Clear 4 1018 48 10000 1 0 18:36 06.10.2019
6661 Clear 4 1018 48 10000 1 0 18:18 06.10.2019
6662 Clouds 4 1018 48 10000 1 0 17:42 06.10.2019
6663 Clouds 4 1018 48 10000 1 0 17:20 06.10.2019
6664 Clouds 5 1018 44 10000 1 0 16:55 06.10.2019
6665 Clouds 5 1018 44 10000 1 0 16:54 06.10.2019
6666 Clouds 5 1018 44 10000 1 0 16:54 06.10.2019
6667 Clouds 5 1018 44 10000 2 0 16:36 06.10.2019
6668 Clouds 5 1018 44 10000 2 0 16:18 06.10.2019
6669 Clouds 5 1018 48 10000 2 160 15:42 06.10.2019
6670 Clouds 5 1018 48 10000 2 160 15:19 06.10.2019
6671 Clouds 5 1018 48 10000 2 160 15:19 06.10.2019
6672 Clouds 5 1018 44 10000 2 0 14:44 06.10.2019
6673 Clouds 5 1018 41 10000 2 130 14:25 06.10.2019
6674 Clear 7 1018 36 10000 3.48 287.217 13:58 06.10.2019
6675 Clear 8 1018 33 10000 3 260 13:39 06.10.2019
6676 Clear 8 1018 33 10000 3 260 13:21 06.10.2019
6677 Clear 9 1017 34 10000 3 290 12:57 06.10.2019
6678 Clear 11 1018 29 10000 4 280 12:39 06.10.2019
6679 Clear 11 1018 29 10000 4 280 12:20 06.10.2019
6680 Clouds 12 1018 25 10000 5 270 11:57 06.10.2019
6681 Clouds 13 1018 24 10000 5 290 11:38 06.10.2019
6682 Clouds 13 1018 24 10000 5 290 11:20 06.10.2019
6683 Clouds 14 1018 24 10000 7 270 10:44 06.10.2019
6684 Clouds 14 1019 22 10000 7 280 10:26 06.10.2019
6685 Clouds 14 1019 20 10000 7 270 09:58 06.10.2019
6686 Clouds 14 1019 20 10000 5 270 09:40 06.10.2019
6687 Clouds 14 1019 20 10000 5 270 09:19 06.10.2019
6688 Clouds 13 1019 22 10000 5 270 08:43 06.10.2019
6689 Clouds 12 1020 22 10000 5 240 08:21 06.10.2019
6690 Clouds 12 1020 22 10000 6 230 07:56 06.10.2019
6691 Clouds 12 1021 22 10000 6 250 07:35 06.10.2019
6692 Clouds 10 1021 23 10000 5 230 06:23 06.10.2019
6693 Clear 8 1022 26 10000 2 0 05:34 06.10.2019
6694 Clear 1 1023 50 10000 1 0 03:56 06.10.2019
6695 Clear -2 1023 68 10000 1.24 247.309 02:44 06.10.2019
6696 Clear -5 1023 73 10000 1 0 02:22 06.10.2019
6697 Clear -8 1022 78 10000 1 0 01:45 06.10.2019
6698 Clear -5 1022 73 10000 1 0 01:27 06.10.2019
6699 Clear -6 1022 73 10000 1.44 240.551 00:53 06.10.2019
6700 Clear -6 1022 73 10000 1.44 240.551 00:27 06.10.2019
6701 Clear -6 1022 73 10000 1.39 240.937 23:45 05.10.2019
6702 Clear -5 1022 73 10000 1.39 240.937 23:22 05.10.2019
6703 Clear -5 1022 67 10000 1 0 22:58 05.10.2019
6704 Clear -5 1022 67 10000 1 0 22:40 05.10.2019
6705 Clear -5 1022 67 10000 1 0 22:40 05.10.2019
6706 Clear -5 1022 67 10000 1 0 22:20 05.10.2019
6707 Clear -4 1022 68 10000 1.39 240.937 21:57 05.10.2019
6708 Clear -6 1022 73 10000 2 0 21:38 05.10.2019
6709 Clear -6 1022 73 10000 2 0 21:18 05.10.2019
6710 Clear -8 1022 78 10000 1 0 20:56 05.10.2019
6711 Clear -4 1023 73 10000 1.71 249.785 20:37 05.10.2019
6712 Clear -4 1023 73 10000 1.71 249.785 20:37 05.10.2019
6713 Clear -4 1023 73 10000 1.71 249.785 20:18 05.10.2019
6714 Clear -5 1022 67 10000 2 0 19:38 05.10.2019
6715 Clear -5 1022 67 10000 2 0 19:19 05.10.2019
6716 Clear -4 1023 68 10000 1 0 18:56 05.10.2019
6717 Clear -4 1023 68 10000 1 340 18:37 05.10.2019
6718 Clear -4 1023 68 10000 1 340 18:19 05.10.2019
6719 Clear -4 1023 62 10000 2 160 17:43 05.10.2019
6720 Clear 0 1023 58 10000 1.84 199.419 17:25 05.10.2019
6721 Clear -2 1023 58 10000 1 0 16:58 05.10.2019
6722 Clear -1 1023 54 10000 1.84 199.419 16:40 05.10.2019
6723 Clear -1 1023 54 10000 1.84 199.419 16:21 05.10.2019
6724 Clear 0 1023 58 10000 1 0 15:57 05.10.2019
6725 Clear 1 1023 47 10000 2 150 15:38 05.10.2019
6726 Clear 1 1023 47 10000 2 150 15:20 05.10.2019
6727 Clear 1 1022 47 10000 4 170 14:44 05.10.2019
6728 Clear 1 1022 43 10000 4 160 14:25 05.10.2019
6729 Clear 1 1022 43 10000 2 170 13:59 05.10.2019
6730 Clear 4 1022 35 10000 4 220 13:40 05.10.2019
6731 Clear 4 1022 35 10000 4 220 13:20 05.10.2019
6732 Clear 6 1022 30 10000 4 230 12:44 05.10.2019
6733 Clear 9 1022 24 10000 3 220 12:19 05.10.2019
6734 Clear 11 1022 20 10000 3 230 11:44 05.10.2019
6735 Clear 11 1022 20 10000 3 230 11:21 05.10.2019
6736 Clear 11 1022 21 10000 3 230 10:58 05.10.2019
6737 Clear 11 1022 20 10000 3 230 10:40 05.10.2019
6738 Clear 11 1022 20 10000 3 230 10:21 05.10.2019
6739 Clear 11 1023 20 10000 3 240 09:55 05.10.2019
6740 Clear 11 1023 20 10000 4 220 09:37 05.10.2019
6741 Clear 11 1023 20 10000 4 220 09:18 05.10.2019
6742 Clear 10 1024 21 10000 5 230 08:39 05.10.2019
6743 Clear 10 1024 21 10000 5 230 08:19 05.10.2019
6744 Clear 10 1025 21 10000 5 240 07:52 05.10.2019
6745 Clear 9 1025 24 10000 4 250 07:30 05.10.2019
6746 Clouds 8 1025 26 10000 3 270 06:56 05.10.2019
6747 -273 0 0 0 0 0 06:24 05.10.2019
6748 Clouds 4 1027 44 10000 1 0 05:39 05.10.2019
6749 Clear -3 1028 73 10000 3.5 186.34 03:34 05.10.2019
6750 Clear -5 1027 79 10000 2.15 152.743 02:45 05.10.2019
6751 Clear -